<?xml version="1.0" encoding="UTF-8" standalone="no" ?>
<gpx xmlns="http://www.topografix.com/GPX/1/1" xmlns:xsi="http://www.w3.org/2001/XMLSchema-instance" xsi:schemaLocation="http://www.topografix.com/GPX/1/1 http://www.topografix.com/GPX/1/1/gpx.xsd" version="1.1" creator="VisuGPX - https://www.visugpx.com">
  <metadata>
    <name>moliere-coco</name>
    <desc><![CDATA[Molière et trail a coco. Toujours aussi bon d'emmener decouvrir ce parcours a des nouvelles personnes ]]></desc>
  </metadata>
  <trk>
    <name><![CDATA[moliere-coco_1]]></name>
    <trkseg>
      <trkpt lat="45.12918" lon="5.58508">
        <ele>1009.86</ele>
        <time>2022-05-29T07:58:44Z</time>
      </trkpt>
      <trkpt lat="45.12917" lon="5.58505">
        <ele>1008.74</ele>
        <time>2022-05-29T07:58:49Z</time>
      </trkpt>
      <trkpt lat="45.12917" lon="5.58501">
        <ele>1009.673</ele>
        <time>2022-05-29T07:58:54Z</time>
      </trkpt>
      <trkpt lat="45.12919" lon="5.58498">
        <ele>1009.278</ele>
        <time>2022-05-29T07:58:59Z</time>
      </trkpt>
      <trkpt lat="45.12918" lon="5.58491">
        <ele>1009.136</ele>
        <time>2022-05-29T07:59:04Z</time>
      </trkpt>
      <trkpt lat="45.12919" lon="5.58492">
        <ele>1009.018</ele>
        <time>2022-05-29T07:59:09Z</time>
      </trkpt>
      <trkpt lat="45.12919" lon="5.58492">
        <ele>1009.085</ele>
        <time>2022-05-29T07:59:14Z</time>
      </trkpt>
      <trkpt lat="45.12919" lon="5.58492">
        <ele>1009.565</ele>
        <time>2022-05-29T07:59:19Z</time>
      </trkpt>
      <trkpt lat="45.1292" lon="5.58492">
        <ele>1010.879</ele>
        <time>2022-05-29T07:59:24Z</time>
      </trkpt>
      <trkpt lat="45.12922" lon="5.58491">
        <ele>1009.823</ele>
        <time>2022-05-29T07:59:29Z</time>
      </trkpt>
      <trkpt lat="45.12922" lon="5.58482">
        <ele>1010.383</ele>
        <time>2022-05-29T07:59:34Z</time>
      </trkpt>
      <trkpt lat="45.1293" lon="5.58469">
        <ele>1011.373</ele>
        <time>2022-05-29T07:59:39Z</time>
      </trkpt>
      <trkpt lat="45.12935" lon="5.58472">
        <ele>1009.84</ele>
        <time>2022-05-29T07:59:44Z</time>
      </trkpt>
      <trkpt lat="45.12937" lon="5.58473">
        <ele>1009.749</ele>
        <time>2022-05-29T07:59:49Z</time>
      </trkpt>
      <trkpt lat="45.12943" lon="5.58474">
        <ele>1009.037</ele>
        <time>2022-05-29T07:59:54Z</time>
      </trkpt>
      <trkpt lat="45.12948" lon="5.58462">
        <ele>1010.38</ele>
        <time>2022-05-29T07:59:59Z</time>
      </trkpt>
      <trkpt lat="45.12953" lon="5.58443">
        <ele>1010.992</ele>
        <time>2022-05-29T08:00:04Z</time>
      </trkpt>
      <trkpt lat="45.1296" lon="5.58421">
        <ele>1011.877</ele>
        <time>2022-05-29T08:00:09Z</time>
      </trkpt>
      <trkpt lat="45.12967" lon="5.58396">
        <ele>1010.582</ele>
        <time>2022-05-29T08:00:14Z</time>
      </trkpt>
      <trkpt lat="45.12975" lon="5.58369">
        <ele>1010.524</ele>
        <time>2022-05-29T08:00:19Z</time>
      </trkpt>
      <trkpt lat="45.12982" lon="5.58343">
        <ele>1010.434</ele>
        <time>2022-05-29T08:00:24Z</time>
      </trkpt>
      <trkpt lat="45.1299" lon="5.5832">
        <ele>1011.714</ele>
        <time>2022-05-29T08:00:29Z</time>
      </trkpt>
      <trkpt lat="45.12996" lon="5.58294">
        <ele>1011.728</ele>
        <time>2022-05-29T08:00:34Z</time>
      </trkpt>
      <trkpt lat="45.13004" lon="5.58267">
        <ele>1010.479</ele>
        <time>2022-05-29T08:00:39Z</time>
      </trkpt>
      <trkpt lat="45.13015" lon="5.58242">
        <ele>1009.805</ele>
        <time>2022-05-29T08:00:44Z</time>
      </trkpt>
      <trkpt lat="45.13031" lon="5.58222">
        <ele>1009.274</ele>
        <time>2022-05-29T08:00:49Z</time>
      </trkpt>
      <trkpt lat="45.13051" lon="5.58213">
        <ele>1008.244</ele>
        <time>2022-05-29T08:00:54Z</time>
      </trkpt>
      <trkpt lat="45.13074" lon="5.58209">
        <ele>1007.482</ele>
        <time>2022-05-29T08:00:59Z</time>
      </trkpt>
      <trkpt lat="45.13092" lon="5.58189">
        <ele>1007.189</ele>
        <time>2022-05-29T08:01:04Z</time>
      </trkpt>
      <trkpt lat="45.13113" lon="5.5817">
        <ele>1007.237</ele>
        <time>2022-05-29T08:01:09Z</time>
      </trkpt>
      <trkpt lat="45.13137" lon="5.58158">
        <ele>1006.139</ele>
        <time>2022-05-29T08:01:14Z</time>
      </trkpt>
      <trkpt lat="45.13163" lon="5.58162">
        <ele>1004.487</ele>
        <time>2022-05-29T08:01:19Z</time>
      </trkpt>
      <trkpt lat="45.13192" lon="5.58166">
        <ele>1002.86</ele>
        <time>2022-05-29T08:01:24Z</time>
      </trkpt>
      <trkpt lat="45.13223" lon="5.58171">
        <ele>1001.414</ele>
        <time>2022-05-29T08:01:29Z</time>
      </trkpt>
      <trkpt lat="45.13255" lon="5.58181">
        <ele>1000.356</ele>
        <time>2022-05-29T08:01:34Z</time>
      </trkpt>
      <trkpt lat="45.13285" lon="5.58199">
        <ele>1000.37</ele>
        <time>2022-05-29T08:01:39Z</time>
      </trkpt>
      <trkpt lat="45.13312" lon="5.58218">
        <ele>1000.257</ele>
        <time>2022-05-29T08:01:44Z</time>
      </trkpt>
      <trkpt lat="45.13337" lon="5.58237">
        <ele>1000.248</ele>
        <time>2022-05-29T08:01:49Z</time>
      </trkpt>
      <trkpt lat="45.1336" lon="5.58261">
        <ele>999.303</ele>
        <time>2022-05-29T08:01:54Z</time>
      </trkpt>
      <trkpt lat="45.13382" lon="5.58288">
        <ele>999.842</ele>
        <time>2022-05-29T08:01:59Z</time>
      </trkpt>
      <trkpt lat="45.13403" lon="5.58314">
        <ele>1000.502</ele>
        <time>2022-05-29T08:02:04Z</time>
      </trkpt>
      <trkpt lat="45.13424" lon="5.58339">
        <ele>1000.506</ele>
        <time>2022-05-29T08:02:09Z</time>
      </trkpt>
      <trkpt lat="45.13445" lon="5.58364">
        <ele>1000.695</ele>
        <time>2022-05-29T08:02:14Z</time>
      </trkpt>
      <trkpt lat="45.13469" lon="5.5839">
        <ele>999.581</ele>
        <time>2022-05-29T08:02:19Z</time>
      </trkpt>
      <trkpt lat="45.13495" lon="5.58417">
        <ele>997.293</ele>
        <time>2022-05-29T08:02:24Z</time>
      </trkpt>
      <trkpt lat="45.13523" lon="5.58443">
        <ele>994.784</ele>
        <time>2022-05-29T08:02:29Z</time>
      </trkpt>
      <trkpt lat="45.13552" lon="5.58468">
        <ele>993.035</ele>
        <time>2022-05-29T08:02:34Z</time>
      </trkpt>
      <trkpt lat="45.13583" lon="5.58489">
        <ele>991.183</ele>
        <time>2022-05-29T08:02:39Z</time>
      </trkpt>
      <trkpt lat="45.13617" lon="5.58516">
        <ele>989.103</ele>
        <time>2022-05-29T08:02:44Z</time>
      </trkpt>
      <trkpt lat="45.13652" lon="5.58549">
        <ele>985.497</ele>
        <time>2022-05-29T08:02:49Z</time>
      </trkpt>
      <trkpt lat="45.13686" lon="5.58583">
        <ele>982.655</ele>
        <time>2022-05-29T08:02:54Z</time>
      </trkpt>
      <trkpt lat="45.13715" lon="5.58596">
        <ele>980.403</ele>
        <time>2022-05-29T08:02:59Z</time>
      </trkpt>
      <trkpt lat="45.13742" lon="5.58612">
        <ele>978.85</ele>
        <time>2022-05-29T08:03:04Z</time>
      </trkpt>
      <trkpt lat="45.13764" lon="5.58616">
        <ele>978.938</ele>
        <time>2022-05-29T08:03:09Z</time>
      </trkpt>
      <trkpt lat="45.13784" lon="5.58618">
        <ele>979.107</ele>
        <time>2022-05-29T08:03:14Z</time>
      </trkpt>
      <trkpt lat="45.13803" lon="5.5862">
        <ele>978.95</ele>
        <time>2022-05-29T08:03:19Z</time>
      </trkpt>
      <trkpt lat="45.13823" lon="5.58623">
        <ele>978.661</ele>
        <time>2022-05-29T08:03:24Z</time>
      </trkpt>
      <trkpt lat="45.13843" lon="5.58628">
        <ele>978.932</ele>
        <time>2022-05-29T08:03:29Z</time>
      </trkpt>
      <trkpt lat="45.13865" lon="5.58635">
        <ele>977.752</ele>
        <time>2022-05-29T08:03:34Z</time>
      </trkpt>
      <trkpt lat="45.13887" lon="5.58646">
        <ele>976.577</ele>
        <time>2022-05-29T08:03:39Z</time>
      </trkpt>
      <trkpt lat="45.13909" lon="5.58657">
        <ele>976.862</ele>
        <time>2022-05-29T08:03:44Z</time>
      </trkpt>
      <trkpt lat="45.13932" lon="5.58671">
        <ele>976.68</ele>
        <time>2022-05-29T08:03:49Z</time>
      </trkpt>
      <trkpt lat="45.13954" lon="5.58684">
        <ele>977.33</ele>
        <time>2022-05-29T08:03:54Z</time>
      </trkpt>
      <trkpt lat="45.13975" lon="5.58697">
        <ele>975.97</ele>
        <time>2022-05-29T08:03:59Z</time>
      </trkpt>
      <trkpt lat="45.13995" lon="5.5871">
        <ele>977.055</ele>
        <time>2022-05-29T08:04:04Z</time>
      </trkpt>
      <trkpt lat="45.14014" lon="5.58724">
        <ele>977.149</ele>
        <time>2022-05-29T08:04:09Z</time>
      </trkpt>
      <trkpt lat="45.14033" lon="5.58738">
        <ele>978.038</ele>
        <time>2022-05-29T08:04:14Z</time>
      </trkpt>
      <trkpt lat="45.14051" lon="5.58749">
        <ele>978.926</ele>
        <time>2022-05-29T08:04:19Z</time>
      </trkpt>
      <trkpt lat="45.14064" lon="5.58759">
        <ele>979.898</ele>
        <time>2022-05-29T08:04:24Z</time>
      </trkpt>
      <trkpt lat="45.14076" lon="5.5877">
        <ele>981.16</ele>
        <time>2022-05-29T08:04:29Z</time>
      </trkpt>
      <trkpt lat="45.14089" lon="5.5878">
        <ele>982.045</ele>
        <time>2022-05-29T08:04:34Z</time>
      </trkpt>
      <trkpt lat="45.14101" lon="5.58792">
        <ele>984.383</ele>
        <time>2022-05-29T08:04:39Z</time>
      </trkpt>
      <trkpt lat="45.14112" lon="5.58803">
        <ele>984.228</ele>
        <time>2022-05-29T08:04:44Z</time>
      </trkpt>
      <trkpt lat="45.14125" lon="5.58813">
        <ele>984.65</ele>
        <time>2022-05-29T08:04:49Z</time>
      </trkpt>
      <trkpt lat="45.14137" lon="5.58824">
        <ele>984.423</ele>
        <time>2022-05-29T08:04:54Z</time>
      </trkpt>
      <trkpt lat="45.1415" lon="5.58833">
        <ele>984.539</ele>
        <time>2022-05-29T08:04:59Z</time>
      </trkpt>
      <trkpt lat="45.14164" lon="5.58843">
        <ele>985.843</ele>
        <time>2022-05-29T08:05:04Z</time>
      </trkpt>
      <trkpt lat="45.14176" lon="5.5885">
        <ele>985.74</ele>
        <time>2022-05-29T08:05:09Z</time>
      </trkpt>
      <trkpt lat="45.14189" lon="5.58855">
        <ele>986.482</ele>
        <time>2022-05-29T08:05:14Z</time>
      </trkpt>
      <trkpt lat="45.14201" lon="5.58858">
        <ele>986.581</ele>
        <time>2022-05-29T08:05:19Z</time>
      </trkpt>
      <trkpt lat="45.14214" lon="5.58864">
        <ele>986.087</ele>
        <time>2022-05-29T08:05:24Z</time>
      </trkpt>
      <trkpt lat="45.14224" lon="5.58873">
        <ele>988.863</ele>
        <time>2022-05-29T08:05:29Z</time>
      </trkpt>
      <trkpt lat="45.14232" lon="5.58883">
        <ele>989.329</ele>
        <time>2022-05-29T08:05:34Z</time>
      </trkpt>
      <trkpt lat="45.14239" lon="5.58895">
        <ele>989.29</ele>
        <time>2022-05-29T08:05:39Z</time>
      </trkpt>
      <trkpt lat="45.14247" lon="5.58906">
        <ele>990.707</ele>
        <time>2022-05-29T08:05:44Z</time>
      </trkpt>
      <trkpt lat="45.14256" lon="5.58919">
        <ele>991.988</ele>
        <time>2022-05-29T08:05:49Z</time>
      </trkpt>
      <trkpt lat="45.14265" lon="5.58929">
        <ele>993.715</ele>
        <time>2022-05-29T08:05:54Z</time>
      </trkpt>
      <trkpt lat="45.14274" lon="5.58938">
        <ele>995.245</ele>
        <time>2022-05-29T08:05:59Z</time>
      </trkpt>
      <trkpt lat="45.14284" lon="5.58947">
        <ele>995.986</ele>
        <time>2022-05-29T08:06:04Z</time>
      </trkpt>
      <trkpt lat="45.14294" lon="5.58955">
        <ele>997.08</ele>
        <time>2022-05-29T08:06:09Z</time>
      </trkpt>
      <trkpt lat="45.14305" lon="5.58961">
        <ele>998.328</ele>
        <time>2022-05-29T08:06:14Z</time>
      </trkpt>
      <trkpt lat="45.14314" lon="5.58968">
        <ele>999.359</ele>
        <time>2022-05-29T08:06:19Z</time>
      </trkpt>
      <trkpt lat="45.14322" lon="5.58974">
        <ele>1000.341</ele>
        <time>2022-05-29T08:06:24Z</time>
      </trkpt>
      <trkpt lat="45.1433" lon="5.58979">
        <ele>1001.383</ele>
        <time>2022-05-29T08:06:29Z</time>
      </trkpt>
      <trkpt lat="45.14337" lon="5.58984">
        <ele>1001.972</ele>
        <time>2022-05-29T08:06:34Z</time>
      </trkpt>
      <trkpt lat="45.14345" lon="5.58989">
        <ele>1003.123</ele>
        <time>2022-05-29T08:06:39Z</time>
      </trkpt>
      <trkpt lat="45.14354" lon="5.58992">
        <ele>1004.396</ele>
        <time>2022-05-29T08:06:44Z</time>
      </trkpt>
      <trkpt lat="45.14362" lon="5.58996">
        <ele>1005.098</ele>
        <time>2022-05-29T08:06:49Z</time>
      </trkpt>
      <trkpt lat="45.1437" lon="5.58999">
        <ele>1005.501</ele>
        <time>2022-05-29T08:06:54Z</time>
      </trkpt>
      <trkpt lat="45.14378" lon="5.59004">
        <ele>1006.303</ele>
        <time>2022-05-29T08:06:59Z</time>
      </trkpt>
      <trkpt lat="45.14387" lon="5.59008">
        <ele>1007.721</ele>
        <time>2022-05-29T08:07:04Z</time>
      </trkpt>
      <trkpt lat="45.14396" lon="5.5901">
        <ele>1007.327</ele>
        <time>2022-05-29T08:07:09Z</time>
      </trkpt>
      <trkpt lat="45.14405" lon="5.59012">
        <ele>1007.739</ele>
        <time>2022-05-29T08:07:14Z</time>
      </trkpt>
      <trkpt lat="45.14413" lon="5.59013">
        <ele>1008.66</ele>
        <time>2022-05-29T08:07:19Z</time>
      </trkpt>
      <trkpt lat="45.14422" lon="5.59014">
        <ele>1009.331</ele>
        <time>2022-05-29T08:07:24Z</time>
      </trkpt>
      <trkpt lat="45.1443" lon="5.59015">
        <ele>1009.474</ele>
        <time>2022-05-29T08:07:29Z</time>
      </trkpt>
      <trkpt lat="45.14439" lon="5.59017">
        <ele>1010.222</ele>
        <time>2022-05-29T08:07:34Z</time>
      </trkpt>
      <trkpt lat="45.14448" lon="5.5902">
        <ele>1010.72</ele>
        <time>2022-05-29T08:07:39Z</time>
      </trkpt>
      <trkpt lat="45.14457" lon="5.59025">
        <ele>1012.291</ele>
        <time>2022-05-29T08:07:44Z</time>
      </trkpt>
      <trkpt lat="45.14466" lon="5.59031">
        <ele>1013.438</ele>
        <time>2022-05-29T08:07:49Z</time>
      </trkpt>
      <trkpt lat="45.14473" lon="5.59037">
        <ele>1014.346</ele>
        <time>2022-05-29T08:07:54Z</time>
      </trkpt>
      <trkpt lat="45.1448" lon="5.59045">
        <ele>1015.161</ele>
        <time>2022-05-29T08:07:59Z</time>
      </trkpt>
      <trkpt lat="45.14488" lon="5.59052">
        <ele>1016.18</ele>
        <time>2022-05-29T08:08:04Z</time>
      </trkpt>
      <trkpt lat="45.14496" lon="5.59058">
        <ele>1017.52</ele>
        <time>2022-05-29T08:08:09Z</time>
      </trkpt>
      <trkpt lat="45.14502" lon="5.59066">
        <ele>1018.587</ele>
        <time>2022-05-29T08:08:14Z</time>
      </trkpt>
      <trkpt lat="45.14509" lon="5.59075">
        <ele>1019.429</ele>
        <time>2022-05-29T08:08:19Z</time>
      </trkpt>
      <trkpt lat="45.14514" lon="5.59083">
        <ele>1020.23</ele>
        <time>2022-05-29T08:08:24Z</time>
      </trkpt>
      <trkpt lat="45.14519" lon="5.59092">
        <ele>1021.744</ele>
        <time>2022-05-29T08:08:29Z</time>
      </trkpt>
      <trkpt lat="45.14525" lon="5.59099">
        <ele>1023.007</ele>
        <time>2022-05-29T08:08:34Z</time>
      </trkpt>
      <trkpt lat="45.14532" lon="5.59107">
        <ele>1023.62</ele>
        <time>2022-05-29T08:08:39Z</time>
      </trkpt>
      <trkpt lat="45.14539" lon="5.59113">
        <ele>1024.555</ele>
        <time>2022-05-29T08:08:44Z</time>
      </trkpt>
      <trkpt lat="45.14546" lon="5.59117">
        <ele>1025.74</ele>
        <time>2022-05-29T08:08:49Z</time>
      </trkpt>
      <trkpt lat="45.14555" lon="5.5912">
        <ele>1025.949</ele>
        <time>2022-05-29T08:08:54Z</time>
      </trkpt>
      <trkpt lat="45.14564" lon="5.5912">
        <ele>1026.239</ele>
        <time>2022-05-29T08:08:59Z</time>
      </trkpt>
      <trkpt lat="45.14575" lon="5.5912">
        <ele>1026.091</ele>
        <time>2022-05-29T08:09:04Z</time>
      </trkpt>
      <trkpt lat="45.14587" lon="5.5912">
        <ele>1025.888</ele>
        <time>2022-05-29T08:09:09Z</time>
      </trkpt>
      <trkpt lat="45.14598" lon="5.59126">
        <ele>1026.901</ele>
        <time>2022-05-29T08:09:14Z</time>
      </trkpt>
      <trkpt lat="45.14606" lon="5.59134">
        <ele>1027.806</ele>
        <time>2022-05-29T08:09:19Z</time>
      </trkpt>
      <trkpt lat="45.14613" lon="5.59143">
        <ele>1028.268</ele>
        <time>2022-05-29T08:09:24Z</time>
      </trkpt>
      <trkpt lat="45.14619" lon="5.59153">
        <ele>1028.908</ele>
        <time>2022-05-29T08:09:29Z</time>
      </trkpt>
      <trkpt lat="45.14627" lon="5.59161">
        <ele>1029.797</ele>
        <time>2022-05-29T08:09:34Z</time>
      </trkpt>
      <trkpt lat="45.14636" lon="5.59168">
        <ele>1030.305</ele>
        <time>2022-05-29T08:09:39Z</time>
      </trkpt>
      <trkpt lat="45.14645" lon="5.59175">
        <ele>1030.634</ele>
        <time>2022-05-29T08:09:44Z</time>
      </trkpt>
      <trkpt lat="45.14655" lon="5.5918">
        <ele>1031.433</ele>
        <time>2022-05-29T08:09:49Z</time>
      </trkpt>
      <trkpt lat="45.14664" lon="5.59186">
        <ele>1033.002</ele>
        <time>2022-05-29T08:09:54Z</time>
      </trkpt>
      <trkpt lat="45.14673" lon="5.59192">
        <ele>1033.985</ele>
        <time>2022-05-29T08:09:59Z</time>
      </trkpt>
      <trkpt lat="45.14682" lon="5.59199">
        <ele>1034.723</ele>
        <time>2022-05-29T08:10:04Z</time>
      </trkpt>
      <trkpt lat="45.14692" lon="5.59206">
        <ele>1035.689</ele>
        <time>2022-05-29T08:10:09Z</time>
      </trkpt>
      <trkpt lat="45.14702" lon="5.59214">
        <ele>1035.55</ele>
        <time>2022-05-29T08:10:14Z</time>
      </trkpt>
      <trkpt lat="45.1471" lon="5.59221">
        <ele>1036.321</ele>
        <time>2022-05-29T08:10:19Z</time>
      </trkpt>
      <trkpt lat="45.14719" lon="5.59228">
        <ele>1036.581</ele>
        <time>2022-05-29T08:10:24Z</time>
      </trkpt>
      <trkpt lat="45.14729" lon="5.59235">
        <ele>1037.671</ele>
        <time>2022-05-29T08:10:29Z</time>
      </trkpt>
      <trkpt lat="45.1474" lon="5.59244">
        <ele>1038.52</ele>
        <time>2022-05-29T08:10:34Z</time>
      </trkpt>
      <trkpt lat="45.1475" lon="5.59254">
        <ele>1039.096</ele>
        <time>2022-05-29T08:10:39Z</time>
      </trkpt>
      <trkpt lat="45.1476" lon="5.59263">
        <ele>1039.974</ele>
        <time>2022-05-29T08:10:44Z</time>
      </trkpt>
      <trkpt lat="45.14769" lon="5.59271">
        <ele>1040.524</ele>
        <time>2022-05-29T08:10:49Z</time>
      </trkpt>
      <trkpt lat="45.14778" lon="5.5928">
        <ele>1041.035</ele>
        <time>2022-05-29T08:10:54Z</time>
      </trkpt>
      <trkpt lat="45.14787" lon="5.59288">
        <ele>1041.495</ele>
        <time>2022-05-29T08:10:59Z</time>
      </trkpt>
      <trkpt lat="45.14796" lon="5.59297">
        <ele>1042.17</ele>
        <time>2022-05-29T08:11:04Z</time>
      </trkpt>
      <trkpt lat="45.14806" lon="5.59306">
        <ele>1042.447</ele>
        <time>2022-05-29T08:11:09Z</time>
      </trkpt>
      <trkpt lat="45.14815" lon="5.59315">
        <ele>1043.017</ele>
        <time>2022-05-29T08:11:14Z</time>
      </trkpt>
      <trkpt lat="45.14824" lon="5.59324">
        <ele>1044.158</ele>
        <time>2022-05-29T08:11:19Z</time>
      </trkpt>
      <trkpt lat="45.14834" lon="5.59333">
        <ele>1044.685</ele>
        <time>2022-05-29T08:11:24Z</time>
      </trkpt>
      <trkpt lat="45.14843" lon="5.59343">
        <ele>1043.813</ele>
        <time>2022-05-29T08:11:29Z</time>
      </trkpt>
      <trkpt lat="45.14851" lon="5.59353">
        <ele>1042.943</ele>
        <time>2022-05-29T08:11:34Z</time>
      </trkpt>
      <trkpt lat="45.1486" lon="5.59364">
        <ele>1043.954</ele>
        <time>2022-05-29T08:11:39Z</time>
      </trkpt>
      <trkpt lat="45.14867" lon="5.59376">
        <ele>1045.526</ele>
        <time>2022-05-29T08:11:44Z</time>
      </trkpt>
      <trkpt lat="45.14874" lon="5.59388">
        <ele>1046.253</ele>
        <time>2022-05-29T08:11:49Z</time>
      </trkpt>
      <trkpt lat="45.14882" lon="5.59401">
        <ele>1047.849</ele>
        <time>2022-05-29T08:11:54Z</time>
      </trkpt>
      <trkpt lat="45.1489" lon="5.59413">
        <ele>1048.498</ele>
        <time>2022-05-29T08:11:59Z</time>
      </trkpt>
      <trkpt lat="45.14898" lon="5.59424">
        <ele>1049.415</ele>
        <time>2022-05-29T08:12:04Z</time>
      </trkpt>
      <trkpt lat="45.14907" lon="5.59434">
        <ele>1049.717</ele>
        <time>2022-05-29T08:12:09Z</time>
      </trkpt>
      <trkpt lat="45.14918" lon="5.59445">
        <ele>1049.728</ele>
        <time>2022-05-29T08:12:14Z</time>
      </trkpt>
      <trkpt lat="45.1493" lon="5.59455">
        <ele>1050.188</ele>
        <time>2022-05-29T08:12:19Z</time>
      </trkpt>
      <trkpt lat="45.14943" lon="5.59463">
        <ele>1050.578</ele>
        <time>2022-05-29T08:12:24Z</time>
      </trkpt>
      <trkpt lat="45.14959" lon="5.59472">
        <ele>1050.328</ele>
        <time>2022-05-29T08:12:29Z</time>
      </trkpt>
      <trkpt lat="45.14975" lon="5.59478">
        <ele>1050.695</ele>
        <time>2022-05-29T08:12:34Z</time>
      </trkpt>
      <trkpt lat="45.1499" lon="5.59475">
        <ele>1051.578</ele>
        <time>2022-05-29T08:12:39Z</time>
      </trkpt>
      <trkpt lat="45.15002" lon="5.59471">
        <ele>1051.484</ele>
        <time>2022-05-29T08:12:44Z</time>
      </trkpt>
      <trkpt lat="45.15012" lon="5.59468">
        <ele>1051.13</ele>
        <time>2022-05-29T08:12:49Z</time>
      </trkpt>
      <trkpt lat="45.15021" lon="5.59465">
        <ele>1052.382</ele>
        <time>2022-05-29T08:12:54Z</time>
      </trkpt>
      <trkpt lat="45.1503" lon="5.59463">
        <ele>1053.676</ele>
        <time>2022-05-29T08:12:59Z</time>
      </trkpt>
      <trkpt lat="45.15039" lon="5.59461">
        <ele>1054.476</ele>
        <time>2022-05-29T08:13:04Z</time>
      </trkpt>
      <trkpt lat="45.15047" lon="5.59458">
        <ele>1056.056</ele>
        <time>2022-05-29T08:13:09Z</time>
      </trkpt>
      <trkpt lat="45.15056" lon="5.59456">
        <ele>1057.359</ele>
        <time>2022-05-29T08:13:14Z</time>
      </trkpt>
      <trkpt lat="45.15065" lon="5.59455">
        <ele>1058.537</ele>
        <time>2022-05-29T08:13:19Z</time>
      </trkpt>
      <trkpt lat="45.15074" lon="5.59457">
        <ele>1059.362</ele>
        <time>2022-05-29T08:13:24Z</time>
      </trkpt>
      <trkpt lat="45.15083" lon="5.59462">
        <ele>1060.442</ele>
        <time>2022-05-29T08:13:29Z</time>
      </trkpt>
      <trkpt lat="45.15092" lon="5.59471">
        <ele>1062.007</ele>
        <time>2022-05-29T08:13:34Z</time>
      </trkpt>
      <trkpt lat="45.15099" lon="5.5948">
        <ele>1063.125</ele>
        <time>2022-05-29T08:13:39Z</time>
      </trkpt>
      <trkpt lat="45.15106" lon="5.59488">
        <ele>1063.167</ele>
        <time>2022-05-29T08:13:44Z</time>
      </trkpt>
      <trkpt lat="45.15115" lon="5.59495">
        <ele>1063.759</ele>
        <time>2022-05-29T08:13:49Z</time>
      </trkpt>
      <trkpt lat="45.15123" lon="5.59503">
        <ele>1063.835</ele>
        <time>2022-05-29T08:13:54Z</time>
      </trkpt>
      <trkpt lat="45.15131" lon="5.59509">
        <ele>1064.938</ele>
        <time>2022-05-29T08:13:59Z</time>
      </trkpt>
      <trkpt lat="45.15139" lon="5.59514">
        <ele>1065.684</ele>
        <time>2022-05-29T08:14:04Z</time>
      </trkpt>
      <trkpt lat="45.15148" lon="5.59519">
        <ele>1065.822</ele>
        <time>2022-05-29T08:14:09Z</time>
      </trkpt>
      <trkpt lat="45.15157" lon="5.59524">
        <ele>1066.332</ele>
        <time>2022-05-29T08:14:14Z</time>
      </trkpt>
      <trkpt lat="45.15165" lon="5.59527">
        <ele>1066.878</ele>
        <time>2022-05-29T08:14:19Z</time>
      </trkpt>
      <trkpt lat="45.15174" lon="5.59531">
        <ele>1067.973</ele>
        <time>2022-05-29T08:14:24Z</time>
      </trkpt>
      <trkpt lat="45.15182" lon="5.59534">
        <ele>1069.098</ele>
        <time>2022-05-29T08:14:29Z</time>
      </trkpt>
      <trkpt lat="45.15191" lon="5.59539">
        <ele>1070.241</ele>
        <time>2022-05-29T08:14:34Z</time>
      </trkpt>
      <trkpt lat="45.15199" lon="5.59543">
        <ele>1071.397</ele>
        <time>2022-05-29T08:14:39Z</time>
      </trkpt>
      <trkpt lat="45.15208" lon="5.59545">
        <ele>1072.661</ele>
        <time>2022-05-29T08:14:44Z</time>
      </trkpt>
      <trkpt lat="45.15216" lon="5.59548">
        <ele>1073.759</ele>
        <time>2022-05-29T08:14:49Z</time>
      </trkpt>
      <trkpt lat="45.15225" lon="5.59547">
        <ele>1074.998</ele>
        <time>2022-05-29T08:14:54Z</time>
      </trkpt>
      <trkpt lat="45.15235" lon="5.59544">
        <ele>1075.281</ele>
        <time>2022-05-29T08:14:59Z</time>
      </trkpt>
      <trkpt lat="45.15244" lon="5.59544">
        <ele>1077.099</ele>
        <time>2022-05-29T08:15:04Z</time>
      </trkpt>
      <trkpt lat="45.15252" lon="5.59552">
        <ele>1077.156</ele>
        <time>2022-05-29T08:15:09Z</time>
      </trkpt>
      <trkpt lat="45.15257" lon="5.59563">
        <ele>1078.449</ele>
        <time>2022-05-29T08:15:14Z</time>
      </trkpt>
      <trkpt lat="45.15259" lon="5.59573">
        <ele>1078.524</ele>
        <time>2022-05-29T08:15:19Z</time>
      </trkpt>
      <trkpt lat="45.15261" lon="5.59584">
        <ele>1078.923</ele>
        <time>2022-05-29T08:15:24Z</time>
      </trkpt>
      <trkpt lat="45.15265" lon="5.59592">
        <ele>1079.305</ele>
        <time>2022-05-29T08:15:29Z</time>
      </trkpt>
      <trkpt lat="45.15268" lon="5.59598">
        <ele>1080.217</ele>
        <time>2022-05-29T08:15:34Z</time>
      </trkpt>
      <trkpt lat="45.15272" lon="5.59603">
        <ele>1080.408</ele>
        <time>2022-05-29T08:15:39Z</time>
      </trkpt>
      <trkpt lat="45.15276" lon="5.59609">
        <ele>1081.102</ele>
        <time>2022-05-29T08:15:44Z</time>
      </trkpt>
      <trkpt lat="45.15281" lon="5.59615">
        <ele>1081.608</ele>
        <time>2022-05-29T08:15:49Z</time>
      </trkpt>
      <trkpt lat="45.15283" lon="5.59621">
        <ele>1082.608</ele>
        <time>2022-05-29T08:15:54Z</time>
      </trkpt>
      <trkpt lat="45.15286" lon="5.59623">
        <ele>1082.786</ele>
        <time>2022-05-29T08:15:59Z</time>
      </trkpt>
      <trkpt lat="45.15286" lon="5.59629">
        <ele>1082.903</ele>
        <time>2022-05-29T08:16:04Z</time>
      </trkpt>
      <trkpt lat="45.15289" lon="5.59628">
        <ele>1082.627</ele>
        <time>2022-05-29T08:16:09Z</time>
      </trkpt>
      <trkpt lat="45.15284" lon="5.59618">
        <ele>1081.736</ele>
        <time>2022-05-29T08:16:14Z</time>
      </trkpt>
      <trkpt lat="45.15278" lon="5.59612">
        <ele>1080.848</ele>
        <time>2022-05-29T08:16:19Z</time>
      </trkpt>
      <trkpt lat="45.15279" lon="5.5962">
        <ele>1081.961</ele>
        <time>2022-05-29T08:16:24Z</time>
      </trkpt>
      <trkpt lat="45.15288" lon="5.59628">
        <ele>1083.073</ele>
        <time>2022-05-29T08:16:29Z</time>
      </trkpt>
      <trkpt lat="45.15298" lon="5.59633">
        <ele>1083.585</ele>
        <time>2022-05-29T08:16:34Z</time>
      </trkpt>
      <trkpt lat="45.15307" lon="5.59638">
        <ele>1084.107</ele>
        <time>2022-05-29T08:16:39Z</time>
      </trkpt>
      <trkpt lat="45.15315" lon="5.59644">
        <ele>1085.203</ele>
        <time>2022-05-29T08:16:44Z</time>
      </trkpt>
      <trkpt lat="45.15323" lon="5.59648">
        <ele>1085.466</ele>
        <time>2022-05-29T08:16:49Z</time>
      </trkpt>
      <trkpt lat="45.15331" lon="5.59653">
        <ele>1085.996</ele>
        <time>2022-05-29T08:16:54Z</time>
      </trkpt>
      <trkpt lat="45.15339" lon="5.59659">
        <ele>1087.314</ele>
        <time>2022-05-29T08:16:59Z</time>
      </trkpt>
      <trkpt lat="45.15347" lon="5.59663">
        <ele>1087.709</ele>
        <time>2022-05-29T08:17:04Z</time>
      </trkpt>
      <trkpt lat="45.15355" lon="5.59667">
        <ele>1088.093</ele>
        <time>2022-05-29T08:17:09Z</time>
      </trkpt>
      <trkpt lat="45.15363" lon="5.5967">
        <ele>1088.851</ele>
        <time>2022-05-29T08:17:14Z</time>
      </trkpt>
      <trkpt lat="45.15371" lon="5.59675">
        <ele>1090.034</ele>
        <time>2022-05-29T08:17:19Z</time>
      </trkpt>
      <trkpt lat="45.15379" lon="5.59678">
        <ele>1090.919</ele>
        <time>2022-05-29T08:17:24Z</time>
      </trkpt>
      <trkpt lat="45.15387" lon="5.59683">
        <ele>1091.917</ele>
        <time>2022-05-29T08:17:29Z</time>
      </trkpt>
      <trkpt lat="45.15394" lon="5.59687">
        <ele>1093.576</ele>
        <time>2022-05-29T08:17:34Z</time>
      </trkpt>
      <trkpt lat="45.15401" lon="5.5969">
        <ele>1094.531</ele>
        <time>2022-05-29T08:17:39Z</time>
      </trkpt>
      <trkpt lat="45.15409" lon="5.59694">
        <ele>1095.76</ele>
        <time>2022-05-29T08:17:44Z</time>
      </trkpt>
      <trkpt lat="45.15418" lon="5.59696">
        <ele>1095.824</ele>
        <time>2022-05-29T08:17:49Z</time>
      </trkpt>
      <trkpt lat="45.15427" lon="5.59695">
        <ele>1096.39</ele>
        <time>2022-05-29T08:17:54Z</time>
      </trkpt>
      <trkpt lat="45.15436" lon="5.59687">
        <ele>1097.201</ele>
        <time>2022-05-29T08:17:59Z</time>
      </trkpt>
      <trkpt lat="45.15446" lon="5.59679">
        <ele>1096.706</ele>
        <time>2022-05-29T08:18:04Z</time>
      </trkpt>
      <trkpt lat="45.15457" lon="5.59668">
        <ele>1097.574</ele>
        <time>2022-05-29T08:18:09Z</time>
      </trkpt>
      <trkpt lat="45.15477" lon="5.5967">
        <ele>1095.61</ele>
        <time>2022-05-29T08:18:14Z</time>
      </trkpt>
      <trkpt lat="45.15481" lon="5.59694">
        <ele>1093.315</ele>
        <time>2022-05-29T08:18:19Z</time>
      </trkpt>
      <trkpt lat="45.1548" lon="5.59709">
        <ele>1094.665</ele>
        <time>2022-05-29T08:18:24Z</time>
      </trkpt>
      <trkpt lat="45.15479" lon="5.59722">
        <ele>1094.58</ele>
        <time>2022-05-29T08:18:29Z</time>
      </trkpt>
      <trkpt lat="45.15477" lon="5.59735">
        <ele>1095.505</ele>
        <time>2022-05-29T08:18:34Z</time>
      </trkpt>
      <trkpt lat="45.15477" lon="5.59747">
        <ele>1096.694</ele>
        <time>2022-05-29T08:18:39Z</time>
      </trkpt>
      <trkpt lat="45.15481" lon="5.59758">
        <ele>1104.41</ele>
        <time>2022-05-29T08:18:44Z</time>
      </trkpt>
      <trkpt lat="45.15484" lon="5.59769">
        <ele>1106.264</ele>
        <time>2022-05-29T08:18:49Z</time>
      </trkpt>
      <trkpt lat="45.15489" lon="5.59779">
        <ele>1108.553</ele>
        <time>2022-05-29T08:18:54Z</time>
      </trkpt>
      <trkpt lat="45.15494" lon="5.59787">
        <ele>1111.139</ele>
        <time>2022-05-29T08:18:59Z</time>
      </trkpt>
      <trkpt lat="45.155" lon="5.59791">
        <ele>1110.785</ele>
        <time>2022-05-29T08:19:04Z</time>
      </trkpt>
      <trkpt lat="45.15507" lon="5.59796">
        <ele>1111.532</ele>
        <time>2022-05-29T08:19:09Z</time>
      </trkpt>
      <trkpt lat="45.15514" lon="5.598">
        <ele>1111.292</ele>
        <time>2022-05-29T08:19:14Z</time>
      </trkpt>
      <trkpt lat="45.15521" lon="5.59806">
        <ele>1110.08</ele>
        <time>2022-05-29T08:19:19Z</time>
      </trkpt>
      <trkpt lat="45.1553" lon="5.59811">
        <ele>1111.677</ele>
        <time>2022-05-29T08:19:24Z</time>
      </trkpt>
      <trkpt lat="45.15536" lon="5.59806">
        <ele>1110.571</ele>
        <time>2022-05-29T08:19:29Z</time>
      </trkpt>
      <trkpt lat="45.15538" lon="5.59795">
        <ele>1111.523</ele>
        <time>2022-05-29T08:19:34Z</time>
      </trkpt>
      <trkpt lat="45.15532" lon="5.59788">
        <ele>1115.039</ele>
        <time>2022-05-29T08:19:39Z</time>
      </trkpt>
      <trkpt lat="45.15526" lon="5.59782">
        <ele>1117.341</ele>
        <time>2022-05-29T08:19:44Z</time>
      </trkpt>
      <trkpt lat="45.15522" lon="5.59771">
        <ele>1116.928</ele>
        <time>2022-05-29T08:19:49Z</time>
      </trkpt>
      <trkpt lat="45.1552" lon="5.59759">
        <ele>1117.166</ele>
        <time>2022-05-29T08:19:54Z</time>
      </trkpt>
      <trkpt lat="45.15518" lon="5.59747">
        <ele>1118.532</ele>
        <time>2022-05-29T08:19:59Z</time>
      </trkpt>
      <trkpt lat="45.15518" lon="5.59733">
        <ele>1120.536</ele>
        <time>2022-05-29T08:20:04Z</time>
      </trkpt>
      <trkpt lat="45.15519" lon="5.5972">
        <ele>1122.34</ele>
        <time>2022-05-29T08:20:09Z</time>
      </trkpt>
      <trkpt lat="45.15524" lon="5.59709">
        <ele>1124.133</ele>
        <time>2022-05-29T08:20:14Z</time>
      </trkpt>
      <trkpt lat="45.15533" lon="5.59708">
        <ele>1124.875</ele>
        <time>2022-05-29T08:20:19Z</time>
      </trkpt>
      <trkpt lat="45.15537" lon="5.59721">
        <ele>1124.82</ele>
        <time>2022-05-29T08:20:24Z</time>
      </trkpt>
      <trkpt lat="45.15541" lon="5.59734">
        <ele>1125.098</ele>
        <time>2022-05-29T08:20:29Z</time>
      </trkpt>
      <trkpt lat="45.15546" lon="5.59746">
        <ele>1125.586</ele>
        <time>2022-05-29T08:20:34Z</time>
      </trkpt>
      <trkpt lat="45.15553" lon="5.59754">
        <ele>1126.314</ele>
        <time>2022-05-29T08:20:39Z</time>
      </trkpt>
      <trkpt lat="45.15561" lon="5.5976">
        <ele>1126.907</ele>
        <time>2022-05-29T08:20:44Z</time>
      </trkpt>
      <trkpt lat="45.15569" lon="5.59763">
        <ele>1130.006</ele>
        <time>2022-05-29T08:20:49Z</time>
      </trkpt>
      <trkpt lat="45.15576" lon="5.59764">
        <ele>1133.331</ele>
        <time>2022-05-29T08:20:54Z</time>
      </trkpt>
      <trkpt lat="45.15583" lon="5.59765">
        <ele>1134.311</ele>
        <time>2022-05-29T08:20:59Z</time>
      </trkpt>
      <trkpt lat="45.15592" lon="5.59767">
        <ele>1135.314</ele>
        <time>2022-05-29T08:21:04Z</time>
      </trkpt>
      <trkpt lat="45.156" lon="5.59768">
        <ele>1133.9</ele>
        <time>2022-05-29T08:21:09Z</time>
      </trkpt>
      <trkpt lat="45.1561" lon="5.59766">
        <ele>1131.199</ele>
        <time>2022-05-29T08:21:14Z</time>
      </trkpt>
      <trkpt lat="45.15616" lon="5.59758">
        <ele>1131.533</ele>
        <time>2022-05-29T08:21:19Z</time>
      </trkpt>
      <trkpt lat="45.15624" lon="5.5975">
        <ele>1129.041</ele>
        <time>2022-05-29T08:21:24Z</time>
      </trkpt>
      <trkpt lat="45.1563" lon="5.59742">
        <ele>1127.156</ele>
        <time>2022-05-29T08:21:29Z</time>
      </trkpt>
      <trkpt lat="45.15636" lon="5.59736">
        <ele>1128.496</ele>
        <time>2022-05-29T08:21:34Z</time>
      </trkpt>
      <trkpt lat="45.15643" lon="5.5973">
        <ele>1132.895</ele>
        <time>2022-05-29T08:21:39Z</time>
      </trkpt>
      <trkpt lat="45.15652" lon="5.59726">
        <ele>1133.082</ele>
        <time>2022-05-29T08:21:44Z</time>
      </trkpt>
      <trkpt lat="45.15661" lon="5.59727">
        <ele>1132.541</ele>
        <time>2022-05-29T08:21:49Z</time>
      </trkpt>
      <trkpt lat="45.15669" lon="5.5973">
        <ele>1135.138</ele>
        <time>2022-05-29T08:21:54Z</time>
      </trkpt>
      <trkpt lat="45.15678" lon="5.59734">
        <ele>1136.732</ele>
        <time>2022-05-29T08:21:59Z</time>
      </trkpt>
      <trkpt lat="45.15685" lon="5.59739">
        <ele>1138.121</ele>
        <time>2022-05-29T08:22:04Z</time>
      </trkpt>
      <trkpt lat="45.15692" lon="5.59745">
        <ele>1138.783</ele>
        <time>2022-05-29T08:22:09Z</time>
      </trkpt>
      <trkpt lat="45.15698" lon="5.59751">
        <ele>1140.137</ele>
        <time>2022-05-29T08:22:14Z</time>
      </trkpt>
      <trkpt lat="45.15704" lon="5.59757">
        <ele>1142.537</ele>
        <time>2022-05-29T08:22:19Z</time>
      </trkpt>
      <trkpt lat="45.1571" lon="5.59763">
        <ele>1143.645</ele>
        <time>2022-05-29T08:22:24Z</time>
      </trkpt>
      <trkpt lat="45.15714" lon="5.59771">
        <ele>1145.715</ele>
        <time>2022-05-29T08:22:29Z</time>
      </trkpt>
      <trkpt lat="45.15713" lon="5.59783">
        <ele>1146.746</ele>
        <time>2022-05-29T08:22:34Z</time>
      </trkpt>
      <trkpt lat="45.15707" lon="5.59791">
        <ele>1145.995</ele>
        <time>2022-05-29T08:22:39Z</time>
      </trkpt>
      <trkpt lat="45.15699" lon="5.59793">
        <ele>1144.517</ele>
        <time>2022-05-29T08:22:44Z</time>
      </trkpt>
      <trkpt lat="45.15691" lon="5.59794">
        <ele>1143.307</ele>
        <time>2022-05-29T08:22:49Z</time>
      </trkpt>
      <trkpt lat="45.15685" lon="5.598">
        <ele>1142.686</ele>
        <time>2022-05-29T08:22:54Z</time>
      </trkpt>
      <trkpt lat="45.15683" lon="5.59812">
        <ele>1143.883</ele>
        <time>2022-05-29T08:22:59Z</time>
      </trkpt>
      <trkpt lat="45.15687" lon="5.59821">
        <ele>1144.787</ele>
        <time>2022-05-29T08:23:04Z</time>
      </trkpt>
      <trkpt lat="45.15692" lon="5.59828">
        <ele>1146.812</ele>
        <time>2022-05-29T08:23:09Z</time>
      </trkpt>
      <trkpt lat="45.15698" lon="5.59835">
        <ele>1150.513</ele>
        <time>2022-05-29T08:23:14Z</time>
      </trkpt>
      <trkpt lat="45.15704" lon="5.59841">
        <ele>1152.783</ele>
        <time>2022-05-29T08:23:19Z</time>
      </trkpt>
      <trkpt lat="45.1571" lon="5.59848">
        <ele>1154.539</ele>
        <time>2022-05-29T08:23:24Z</time>
      </trkpt>
      <trkpt lat="45.15717" lon="5.59855">
        <ele>1156.134</ele>
        <time>2022-05-29T08:23:29Z</time>
      </trkpt>
      <trkpt lat="45.15723" lon="5.59862">
        <ele>1157.535</ele>
        <time>2022-05-29T08:23:34Z</time>
      </trkpt>
      <trkpt lat="45.15729" lon="5.59869">
        <ele>1157.666</ele>
        <time>2022-05-29T08:23:39Z</time>
      </trkpt>
      <trkpt lat="45.15736" lon="5.59875">
        <ele>1158.169</ele>
        <time>2022-05-29T08:23:44Z</time>
      </trkpt>
      <trkpt lat="45.15742" lon="5.59881">
        <ele>1159.052</ele>
        <time>2022-05-29T08:23:49Z</time>
      </trkpt>
      <trkpt lat="45.15749" lon="5.59887">
        <ele>1159.909</ele>
        <time>2022-05-29T08:23:54Z</time>
      </trkpt>
      <trkpt lat="45.15756" lon="5.59891">
        <ele>1161.728</ele>
        <time>2022-05-29T08:23:59Z</time>
      </trkpt>
      <trkpt lat="45.15763" lon="5.59895">
        <ele>1162.246</ele>
        <time>2022-05-29T08:24:04Z</time>
      </trkpt>
      <trkpt lat="45.15769" lon="5.59898">
        <ele>1163.383</ele>
        <time>2022-05-29T08:24:09Z</time>
      </trkpt>
      <trkpt lat="45.15776" lon="5.59902">
        <ele>1164.336</ele>
        <time>2022-05-29T08:24:14Z</time>
      </trkpt>
      <trkpt lat="45.15783" lon="5.59904">
        <ele>1166.234</ele>
        <time>2022-05-29T08:24:19Z</time>
      </trkpt>
      <trkpt lat="45.1579" lon="5.59906">
        <ele>1168.65</ele>
        <time>2022-05-29T08:24:24Z</time>
      </trkpt>
      <trkpt lat="45.15798" lon="5.5991">
        <ele>1169.932</ele>
        <time>2022-05-29T08:24:29Z</time>
      </trkpt>
      <trkpt lat="45.15806" lon="5.59914">
        <ele>1171.163</ele>
        <time>2022-05-29T08:24:34Z</time>
      </trkpt>
      <trkpt lat="45.15814" lon="5.59918">
        <ele>1172.051</ele>
        <time>2022-05-29T08:24:39Z</time>
      </trkpt>
      <trkpt lat="45.15821" lon="5.59924">
        <ele>1172.664</ele>
        <time>2022-05-29T08:24:44Z</time>
      </trkpt>
      <trkpt lat="45.15829" lon="5.59928">
        <ele>1173.64</ele>
        <time>2022-05-29T08:24:49Z</time>
      </trkpt>
      <trkpt lat="45.15836" lon="5.59933">
        <ele>1174.088</ele>
        <time>2022-05-29T08:24:54Z</time>
      </trkpt>
      <trkpt lat="45.15844" lon="5.59937">
        <ele>1174.681</ele>
        <time>2022-05-29T08:24:59Z</time>
      </trkpt>
      <trkpt lat="45.15851" lon="5.59939">
        <ele>1175.333</ele>
        <time>2022-05-29T08:25:04Z</time>
      </trkpt>
      <trkpt lat="45.15857" lon="5.59942">
        <ele>1176.1</ele>
        <time>2022-05-29T08:25:09Z</time>
      </trkpt>
      <trkpt lat="45.15865" lon="5.59946">
        <ele>1175.217</ele>
        <time>2022-05-29T08:25:14Z</time>
      </trkpt>
      <trkpt lat="45.15872" lon="5.59949">
        <ele>1176.357</ele>
        <time>2022-05-29T08:25:19Z</time>
      </trkpt>
      <trkpt lat="45.1588" lon="5.59951">
        <ele>1176.412</ele>
        <time>2022-05-29T08:25:24Z</time>
      </trkpt>
      <trkpt lat="45.15888" lon="5.59954">
        <ele>1178.001</ele>
        <time>2022-05-29T08:25:29Z</time>
      </trkpt>
      <trkpt lat="45.15896" lon="5.59956">
        <ele>1178.927</ele>
        <time>2022-05-29T08:25:34Z</time>
      </trkpt>
      <trkpt lat="45.15904" lon="5.5996">
        <ele>1178.484</ele>
        <time>2022-05-29T08:25:39Z</time>
      </trkpt>
      <trkpt lat="45.15913" lon="5.59963">
        <ele>1178.747</ele>
        <time>2022-05-29T08:25:44Z</time>
      </trkpt>
      <trkpt lat="45.15921" lon="5.59965">
        <ele>1179.918</ele>
        <time>2022-05-29T08:25:49Z</time>
      </trkpt>
      <trkpt lat="45.15928" lon="5.59967">
        <ele>1180.721</ele>
        <time>2022-05-29T08:25:54Z</time>
      </trkpt>
      <trkpt lat="45.15936" lon="5.59969">
        <ele>1181.94</ele>
        <time>2022-05-29T08:25:59Z</time>
      </trkpt>
      <trkpt lat="45.15943" lon="5.5997">
        <ele>1183.688</ele>
        <time>2022-05-29T08:26:04Z</time>
      </trkpt>
      <trkpt lat="45.15951" lon="5.59972">
        <ele>1184.857</ele>
        <time>2022-05-29T08:26:09Z</time>
      </trkpt>
      <trkpt lat="45.15959" lon="5.59973">
        <ele>1185.718</ele>
        <time>2022-05-29T08:26:14Z</time>
      </trkpt>
      <trkpt lat="45.15967" lon="5.59973">
        <ele>1186.741</ele>
        <time>2022-05-29T08:26:19Z</time>
      </trkpt>
      <trkpt lat="45.15975" lon="5.59974">
        <ele>1187.741</ele>
        <time>2022-05-29T08:26:24Z</time>
      </trkpt>
      <trkpt lat="45.15983" lon="5.59977">
        <ele>1188.48</ele>
        <time>2022-05-29T08:26:29Z</time>
      </trkpt>
      <trkpt lat="45.1599" lon="5.59981">
        <ele>1189.013</ele>
        <time>2022-05-29T08:26:34Z</time>
      </trkpt>
      <trkpt lat="45.15996" lon="5.5999">
        <ele>1189.726</ele>
        <time>2022-05-29T08:26:39Z</time>
      </trkpt>
      <trkpt lat="45.16003" lon="5.59998">
        <ele>1190.211</ele>
        <time>2022-05-29T08:26:44Z</time>
      </trkpt>
      <trkpt lat="45.1601" lon="5.60007">
        <ele>1190.929</ele>
        <time>2022-05-29T08:26:49Z</time>
      </trkpt>
      <trkpt lat="45.16018" lon="5.60012">
        <ele>1190.747</ele>
        <time>2022-05-29T08:26:54Z</time>
      </trkpt>
      <trkpt lat="45.16026" lon="5.60016">
        <ele>1191.251</ele>
        <time>2022-05-29T08:26:59Z</time>
      </trkpt>
      <trkpt lat="45.16035" lon="5.60017">
        <ele>1192.608</ele>
        <time>2022-05-29T08:27:04Z</time>
      </trkpt>
      <trkpt lat="45.16043" lon="5.60014">
        <ele>1193.896</ele>
        <time>2022-05-29T08:27:09Z</time>
      </trkpt>
      <trkpt lat="45.1605" lon="5.60008">
        <ele>1194.636</ele>
        <time>2022-05-29T08:27:14Z</time>
      </trkpt>
      <trkpt lat="45.16057" lon="5.60001">
        <ele>1195.637</ele>
        <time>2022-05-29T08:27:19Z</time>
      </trkpt>
      <trkpt lat="45.16065" lon="5.59993">
        <ele>1196.77</ele>
        <time>2022-05-29T08:27:24Z</time>
      </trkpt>
      <trkpt lat="45.16071" lon="5.59987">
        <ele>1197.761</ele>
        <time>2022-05-29T08:27:29Z</time>
      </trkpt>
      <trkpt lat="45.16077" lon="5.5998">
        <ele>1198.234</ele>
        <time>2022-05-29T08:27:34Z</time>
      </trkpt>
      <trkpt lat="45.16082" lon="5.59974">
        <ele>1199.033</ele>
        <time>2022-05-29T08:27:39Z</time>
      </trkpt>
      <trkpt lat="45.16086" lon="5.59965">
        <ele>1199.137</ele>
        <time>2022-05-29T08:27:44Z</time>
      </trkpt>
      <trkpt lat="45.16089" lon="5.59956">
        <ele>1198.679</ele>
        <time>2022-05-29T08:27:49Z</time>
      </trkpt>
      <trkpt lat="45.16091" lon="5.59948">
        <ele>1199.299</ele>
        <time>2022-05-29T08:27:54Z</time>
      </trkpt>
      <trkpt lat="45.16094" lon="5.59939">
        <ele>1200.157</ele>
        <time>2022-05-29T08:27:59Z</time>
      </trkpt>
      <trkpt lat="45.16096" lon="5.5993">
        <ele>1200.105</ele>
        <time>2022-05-29T08:28:04Z</time>
      </trkpt>
      <trkpt lat="45.16098" lon="5.59922">
        <ele>1201.153</ele>
        <time>2022-05-29T08:28:09Z</time>
      </trkpt>
      <trkpt lat="45.16102" lon="5.59914">
        <ele>1202.183</ele>
        <time>2022-05-29T08:28:14Z</time>
      </trkpt>
      <trkpt lat="45.16109" lon="5.5991">
        <ele>1203.575</ele>
        <time>2022-05-29T08:28:19Z</time>
      </trkpt>
      <trkpt lat="45.16116" lon="5.59907">
        <ele>1205.578</ele>
        <time>2022-05-29T08:28:24Z</time>
      </trkpt>
      <trkpt lat="45.16122" lon="5.59904">
        <ele>1207.619</ele>
        <time>2022-05-29T08:28:29Z</time>
      </trkpt>
      <trkpt lat="45.1613" lon="5.59903">
        <ele>1209.091</ele>
        <time>2022-05-29T08:28:34Z</time>
      </trkpt>
      <trkpt lat="45.16137" lon="5.59899">
        <ele>1210.506</ele>
        <time>2022-05-29T08:28:39Z</time>
      </trkpt>
      <trkpt lat="45.16145" lon="5.59894">
        <ele>1211.846</ele>
        <time>2022-05-29T08:28:44Z</time>
      </trkpt>
      <trkpt lat="45.16152" lon="5.59889">
        <ele>1213.015</ele>
        <time>2022-05-29T08:28:49Z</time>
      </trkpt>
      <trkpt lat="45.1616" lon="5.59883">
        <ele>1214.534</ele>
        <time>2022-05-29T08:28:54Z</time>
      </trkpt>
      <trkpt lat="45.16167" lon="5.59878">
        <ele>1215.645</ele>
        <time>2022-05-29T08:28:59Z</time>
      </trkpt>
      <trkpt lat="45.16173" lon="5.5987">
        <ele>1216.336</ele>
        <time>2022-05-29T08:29:04Z</time>
      </trkpt>
      <trkpt lat="45.16175" lon="5.59861">
        <ele>1214.416</ele>
        <time>2022-05-29T08:29:09Z</time>
      </trkpt>
      <trkpt lat="45.16173" lon="5.59852">
        <ele>1214.226</ele>
        <time>2022-05-29T08:29:14Z</time>
      </trkpt>
      <trkpt lat="45.1617" lon="5.59845">
        <ele>1214.417</ele>
        <time>2022-05-29T08:29:19Z</time>
      </trkpt>
      <trkpt lat="45.16167" lon="5.59837">
        <ele>1215.157</ele>
        <time>2022-05-29T08:29:24Z</time>
      </trkpt>
      <trkpt lat="45.16164" lon="5.59829">
        <ele>1215.603</ele>
        <time>2022-05-29T08:29:29Z</time>
      </trkpt>
      <trkpt lat="45.16164" lon="5.59819">
        <ele>1216.257</ele>
        <time>2022-05-29T08:29:34Z</time>
      </trkpt>
      <trkpt lat="45.16166" lon="5.5981">
        <ele>1217.451</ele>
        <time>2022-05-29T08:29:39Z</time>
      </trkpt>
      <trkpt lat="45.16167" lon="5.598">
        <ele>1219.09</ele>
        <time>2022-05-29T08:29:44Z</time>
      </trkpt>
      <trkpt lat="45.16169" lon="5.59791">
        <ele>1221.174</ele>
        <time>2022-05-29T08:29:49Z</time>
      </trkpt>
      <trkpt lat="45.16171" lon="5.59782">
        <ele>1221.817</ele>
        <time>2022-05-29T08:29:54Z</time>
      </trkpt>
      <trkpt lat="45.16174" lon="5.59774">
        <ele>1222.777</ele>
        <time>2022-05-29T08:29:59Z</time>
      </trkpt>
      <trkpt lat="45.1618" lon="5.59768">
        <ele>1225.495</ele>
        <time>2022-05-29T08:30:04Z</time>
      </trkpt>
      <trkpt lat="45.16186" lon="5.59764">
        <ele>1227.573</ele>
        <time>2022-05-29T08:30:09Z</time>
      </trkpt>
      <trkpt lat="45.16192" lon="5.59763">
        <ele>1228.858</ele>
        <time>2022-05-29T08:30:14Z</time>
      </trkpt>
      <trkpt lat="45.162" lon="5.59763">
        <ele>1230.418</ele>
        <time>2022-05-29T08:30:19Z</time>
      </trkpt>
      <trkpt lat="45.16208" lon="5.59762">
        <ele>1232.324</ele>
        <time>2022-05-29T08:30:24Z</time>
      </trkpt>
      <trkpt lat="45.16215" lon="5.5976">
        <ele>1233.613</ele>
        <time>2022-05-29T08:30:29Z</time>
      </trkpt>
      <trkpt lat="45.16222" lon="5.59757">
        <ele>1234.656</ele>
        <time>2022-05-29T08:30:34Z</time>
      </trkpt>
      <trkpt lat="45.16228" lon="5.59752">
        <ele>1235.511</ele>
        <time>2022-05-29T08:30:39Z</time>
      </trkpt>
      <trkpt lat="45.16235" lon="5.59745">
        <ele>1235.467</ele>
        <time>2022-05-29T08:30:44Z</time>
      </trkpt>
      <trkpt lat="45.16241" lon="5.59738">
        <ele>1235.863</ele>
        <time>2022-05-29T08:30:49Z</time>
      </trkpt>
      <trkpt lat="45.16247" lon="5.59732">
        <ele>1237.024</ele>
        <time>2022-05-29T08:30:54Z</time>
      </trkpt>
      <trkpt lat="45.16253" lon="5.59725">
        <ele>1237.746</ele>
        <time>2022-05-29T08:30:59Z</time>
      </trkpt>
      <trkpt lat="45.16258" lon="5.59718">
        <ele>1238.876</ele>
        <time>2022-05-29T08:31:04Z</time>
      </trkpt>
      <trkpt lat="45.16264" lon="5.59712">
        <ele>1239.47</ele>
        <time>2022-05-29T08:31:09Z</time>
      </trkpt>
      <trkpt lat="45.16271" lon="5.59706">
        <ele>1239.511</ele>
        <time>2022-05-29T08:31:14Z</time>
      </trkpt>
      <trkpt lat="45.16278" lon="5.59701">
        <ele>1239.805</ele>
        <time>2022-05-29T08:31:19Z</time>
      </trkpt>
      <trkpt lat="45.16287" lon="5.59705">
        <ele>1239.258</ele>
        <time>2022-05-29T08:31:24Z</time>
      </trkpt>
      <trkpt lat="45.16294" lon="5.59715">
        <ele>1242.226</ele>
        <time>2022-05-29T08:31:29Z</time>
      </trkpt>
      <trkpt lat="45.163" lon="5.59723">
        <ele>1243.329</ele>
        <time>2022-05-29T08:31:34Z</time>
      </trkpt>
      <trkpt lat="45.16306" lon="5.59728">
        <ele>1244.761</ele>
        <time>2022-05-29T08:31:39Z</time>
      </trkpt>
      <trkpt lat="45.16312" lon="5.59731">
        <ele>1245.911</ele>
        <time>2022-05-29T08:31:44Z</time>
      </trkpt>
      <trkpt lat="45.16319" lon="5.59734">
        <ele>1247.175</ele>
        <time>2022-05-29T08:31:49Z</time>
      </trkpt>
      <trkpt lat="45.16326" lon="5.59737">
        <ele>1248.001</ele>
        <time>2022-05-29T08:31:54Z</time>
      </trkpt>
      <trkpt lat="45.16333" lon="5.59739">
        <ele>1248.427</ele>
        <time>2022-05-29T08:31:59Z</time>
      </trkpt>
      <trkpt lat="45.1634" lon="5.59739">
        <ele>1250.221</ele>
        <time>2022-05-29T08:32:04Z</time>
      </trkpt>
      <trkpt lat="45.16347" lon="5.59741">
        <ele>1251.318</ele>
        <time>2022-05-29T08:32:09Z</time>
      </trkpt>
      <trkpt lat="45.16354" lon="5.59741">
        <ele>1253.003</ele>
        <time>2022-05-29T08:32:14Z</time>
      </trkpt>
      <trkpt lat="45.16361" lon="5.59741">
        <ele>1254.287</ele>
        <time>2022-05-29T08:32:19Z</time>
      </trkpt>
      <trkpt lat="45.16367" lon="5.59741">
        <ele>1255.268</ele>
        <time>2022-05-29T08:32:24Z</time>
      </trkpt>
      <trkpt lat="45.16375" lon="5.59742">
        <ele>1256.265</ele>
        <time>2022-05-29T08:32:29Z</time>
      </trkpt>
      <trkpt lat="45.16381" lon="5.59739">
        <ele>1257.167</ele>
        <time>2022-05-29T08:32:34Z</time>
      </trkpt>
      <trkpt lat="45.16385" lon="5.59733">
        <ele>1256.86</ele>
        <time>2022-05-29T08:32:39Z</time>
      </trkpt>
      <trkpt lat="45.16388" lon="5.59725">
        <ele>1256.73</ele>
        <time>2022-05-29T08:32:44Z</time>
      </trkpt>
      <trkpt lat="45.16382" lon="5.59716">
        <ele>1256.666</ele>
        <time>2022-05-29T08:32:49Z</time>
      </trkpt>
      <trkpt lat="45.16377" lon="5.5971">
        <ele>1256.441</ele>
        <time>2022-05-29T08:32:54Z</time>
      </trkpt>
      <trkpt lat="45.16374" lon="5.59705">
        <ele>1256.899</ele>
        <time>2022-05-29T08:32:59Z</time>
      </trkpt>
      <trkpt lat="45.16374" lon="5.59706">
        <ele>1256.623</ele>
        <time>2022-05-29T08:33:04Z</time>
      </trkpt>
      <trkpt lat="45.16375" lon="5.59704">
        <ele>1257.005</ele>
        <time>2022-05-29T08:33:09Z</time>
      </trkpt>
      <trkpt lat="45.16375" lon="5.59705">
        <ele>1256.944</ele>
        <time>2022-05-29T08:33:14Z</time>
      </trkpt>
      <trkpt lat="45.16375" lon="5.59707">
        <ele>1257.468</ele>
        <time>2022-05-29T08:33:19Z</time>
      </trkpt>
      <trkpt lat="45.16374" lon="5.59707">
        <ele>1258.104</ele>
        <time>2022-05-29T08:33:24Z</time>
      </trkpt>
      <trkpt lat="45.16374" lon="5.59707">
        <ele>1258.22</ele>
        <time>2022-05-29T08:33:29Z</time>
      </trkpt>
      <trkpt lat="45.16374" lon="5.59707">
        <ele>1258.217</ele>
        <time>2022-05-29T08:33:34Z</time>
      </trkpt>
      <trkpt lat="45.16375" lon="5.59707">
        <ele>1258.401</ele>
        <time>2022-05-29T08:33:39Z</time>
      </trkpt>
      <trkpt lat="45.16375" lon="5.59707">
        <ele>1259.588</ele>
        <time>2022-05-29T08:33:44Z</time>
      </trkpt>
      <trkpt lat="45.16376" lon="5.59707">
        <ele>1259.265</ele>
        <time>2022-05-29T08:33:49Z</time>
      </trkpt>
      <trkpt lat="45.16376" lon="5.59706">
        <ele>1259.782</ele>
        <time>2022-05-29T08:33:54Z</time>
      </trkpt>
      <trkpt lat="45.16376" lon="5.59707">
        <ele>1259.415</ele>
        <time>2022-05-29T08:33:59Z</time>
      </trkpt>
      <trkpt lat="45.16375" lon="5.59706">
        <ele>1259.612</ele>
        <time>2022-05-29T08:34:04Z</time>
      </trkpt>
      <trkpt lat="45.16375" lon="5.59706">
        <ele>1260.091</ele>
        <time>2022-05-29T08:34:09Z</time>
      </trkpt>
      <trkpt lat="45.16375" lon="5.59706">
        <ele>1260.287</ele>
        <time>2022-05-29T08:34:14Z</time>
      </trkpt>
      <trkpt lat="45.16376" lon="5.59706">
        <ele>1259.272</ele>
        <time>2022-05-29T08:34:19Z</time>
      </trkpt>
      <trkpt lat="45.16375" lon="5.59703">
        <ele>1259.132</ele>
        <time>2022-05-29T08:34:24Z</time>
      </trkpt>
      <trkpt lat="45.16373" lon="5.59697">
        <ele>1258.973</ele>
        <time>2022-05-29T08:34:29Z</time>
      </trkpt>
      <trkpt lat="45.16371" lon="5.59691">
        <ele>1259.836</ele>
        <time>2022-05-29T08:34:34Z</time>
      </trkpt>
      <trkpt lat="45.16369" lon="5.59688">
        <ele>1259.958</ele>
        <time>2022-05-29T08:34:39Z</time>
      </trkpt>
      <trkpt lat="45.1637" lon="5.59689">
        <ele>1260.859</ele>
        <time>2022-05-29T08:34:44Z</time>
      </trkpt>
      <trkpt lat="45.1637" lon="5.59688">
        <ele>1260.071</ele>
        <time>2022-05-29T08:34:49Z</time>
      </trkpt>
      <trkpt lat="45.16371" lon="5.59688">
        <ele>1259.992</ele>
        <time>2022-05-29T08:34:54Z</time>
      </trkpt>
      <trkpt lat="45.16371" lon="5.59689">
        <ele>1259.108</ele>
        <time>2022-05-29T08:34:59Z</time>
      </trkpt>
      <trkpt lat="45.1637" lon="5.59689">
        <ele>1258.414</ele>
        <time>2022-05-29T08:35:04Z</time>
      </trkpt>
      <trkpt lat="45.1637" lon="5.59689">
        <ele>1258.423</ele>
        <time>2022-05-29T08:35:09Z</time>
      </trkpt>
      <trkpt lat="45.1637" lon="5.59688">
        <ele>1258.04</ele>
        <time>2022-05-29T08:35:14Z</time>
      </trkpt>
      <trkpt lat="45.1637" lon="5.59688">
        <ele>1258.029</ele>
        <time>2022-05-29T08:35:19Z</time>
      </trkpt>
      <trkpt lat="45.1637" lon="5.59688">
        <ele>1258.032</ele>
        <time>2022-05-29T08:35:24Z</time>
      </trkpt>
      <trkpt lat="45.1637" lon="5.59688">
        <ele>1257.707</ele>
        <time>2022-05-29T08:35:29Z</time>
      </trkpt>
      <trkpt lat="45.16369" lon="5.59688">
        <ele>1258.373</ele>
        <time>2022-05-29T08:35:34Z</time>
      </trkpt>
      <trkpt lat="45.1637" lon="5.59689">
        <ele>1258.822</ele>
        <time>2022-05-29T08:35:39Z</time>
      </trkpt>
      <trkpt lat="45.16369" lon="5.59689">
        <ele>1258.722</ele>
        <time>2022-05-29T08:35:44Z</time>
      </trkpt>
      <trkpt lat="45.16369" lon="5.59689">
        <ele>1258.494</ele>
        <time>2022-05-29T08:35:49Z</time>
      </trkpt>
      <trkpt lat="45.16369" lon="5.59689">
        <ele>1258.484</ele>
        <time>2022-05-29T08:35:54Z</time>
      </trkpt>
      <trkpt lat="45.16369" lon="5.59689">
        <ele>1258.485</ele>
        <time>2022-05-29T08:35:59Z</time>
      </trkpt>
      <trkpt lat="45.16369" lon="5.59692">
        <ele>1257.805</ele>
        <time>2022-05-29T08:36:04Z</time>
      </trkpt>
      <trkpt lat="45.16373" lon="5.59701">
        <ele>1257.262</ele>
        <time>2022-05-29T08:36:09Z</time>
      </trkpt>
      <trkpt lat="45.16374" lon="5.59705">
        <ele>1256.811</ele>
        <time>2022-05-29T08:36:14Z</time>
      </trkpt>
      <trkpt lat="45.16374" lon="5.59702">
        <ele>1257.39</ele>
        <time>2022-05-29T08:36:19Z</time>
      </trkpt>
      <trkpt lat="45.16371" lon="5.59693">
        <ele>1258.094</ele>
        <time>2022-05-29T08:36:24Z</time>
      </trkpt>
      <trkpt lat="45.16366" lon="5.59685">
        <ele>1258.46</ele>
        <time>2022-05-29T08:36:29Z</time>
      </trkpt>
      <trkpt lat="45.16362" lon="5.59676">
        <ele>1259.469</ele>
        <time>2022-05-29T08:36:34Z</time>
      </trkpt>
      <trkpt lat="45.16357" lon="5.59667">
        <ele>1260.559</ele>
        <time>2022-05-29T08:36:39Z</time>
      </trkpt>
      <trkpt lat="45.16353" lon="5.59658">
        <ele>1261.204</ele>
        <time>2022-05-29T08:36:44Z</time>
      </trkpt>
      <trkpt lat="45.16348" lon="5.5965">
        <ele>1262.641</ele>
        <time>2022-05-29T08:36:49Z</time>
      </trkpt>
      <trkpt lat="45.16343" lon="5.59641">
        <ele>1263.952</ele>
        <time>2022-05-29T08:36:54Z</time>
      </trkpt>
      <trkpt lat="45.16338" lon="5.59633">
        <ele>1265.515</ele>
        <time>2022-05-29T08:36:59Z</time>
      </trkpt>
      <trkpt lat="45.16332" lon="5.59624">
        <ele>1266.689</ele>
        <time>2022-05-29T08:37:04Z</time>
      </trkpt>
      <trkpt lat="45.16326" lon="5.59616">
        <ele>1268.026</ele>
        <time>2022-05-29T08:37:09Z</time>
      </trkpt>
      <trkpt lat="45.1632" lon="5.5961">
        <ele>1269.137</ele>
        <time>2022-05-29T08:37:14Z</time>
      </trkpt>
      <trkpt lat="45.16314" lon="5.59601">
        <ele>1270.296</ele>
        <time>2022-05-29T08:37:19Z</time>
      </trkpt>
      <trkpt lat="45.16308" lon="5.59594">
        <ele>1270.976</ele>
        <time>2022-05-29T08:37:24Z</time>
      </trkpt>
      <trkpt lat="45.16303" lon="5.59585">
        <ele>1272.027</ele>
        <time>2022-05-29T08:37:29Z</time>
      </trkpt>
      <trkpt lat="45.16296" lon="5.59578">
        <ele>1273.202</ele>
        <time>2022-05-29T08:37:34Z</time>
      </trkpt>
      <trkpt lat="45.16291" lon="5.5957">
        <ele>1273.703</ele>
        <time>2022-05-29T08:37:39Z</time>
      </trkpt>
      <trkpt lat="45.16284" lon="5.59564">
        <ele>1275.231</ele>
        <time>2022-05-29T08:37:44Z</time>
      </trkpt>
      <trkpt lat="45.16276" lon="5.5956">
        <ele>1276.695</ele>
        <time>2022-05-29T08:37:49Z</time>
      </trkpt>
      <trkpt lat="45.1627" lon="5.59556">
        <ele>1278.071</ele>
        <time>2022-05-29T08:37:54Z</time>
      </trkpt>
      <trkpt lat="45.16262" lon="5.59552">
        <ele>1279.468</ele>
        <time>2022-05-29T08:37:59Z</time>
      </trkpt>
      <trkpt lat="45.16255" lon="5.59548">
        <ele>1279.742</ele>
        <time>2022-05-29T08:38:04Z</time>
      </trkpt>
      <trkpt lat="45.16248" lon="5.59542">
        <ele>1280.093</ele>
        <time>2022-05-29T08:38:09Z</time>
      </trkpt>
      <trkpt lat="45.16241" lon="5.59535">
        <ele>1280.853</ele>
        <time>2022-05-29T08:38:14Z</time>
      </trkpt>
      <trkpt lat="45.16234" lon="5.59529">
        <ele>1282.099</ele>
        <time>2022-05-29T08:38:19Z</time>
      </trkpt>
      <trkpt lat="45.16227" lon="5.59523">
        <ele>1283.298</ele>
        <time>2022-05-29T08:38:24Z</time>
      </trkpt>
      <trkpt lat="45.16221" lon="5.59517">
        <ele>1284.317</ele>
        <time>2022-05-29T08:38:29Z</time>
      </trkpt>
      <trkpt lat="45.16215" lon="5.59509">
        <ele>1284.669</ele>
        <time>2022-05-29T08:38:34Z</time>
      </trkpt>
      <trkpt lat="45.1621" lon="5.59501">
        <ele>1285.831</ele>
        <time>2022-05-29T08:38:39Z</time>
      </trkpt>
      <trkpt lat="45.16206" lon="5.59493">
        <ele>1286.56</ele>
        <time>2022-05-29T08:38:44Z</time>
      </trkpt>
      <trkpt lat="45.16202" lon="5.59484">
        <ele>1287.661</ele>
        <time>2022-05-29T08:38:49Z</time>
      </trkpt>
      <trkpt lat="45.16197" lon="5.59476">
        <ele>1288.37</ele>
        <time>2022-05-29T08:38:54Z</time>
      </trkpt>
      <trkpt lat="45.16194" lon="5.59468">
        <ele>1289.535</ele>
        <time>2022-05-29T08:38:59Z</time>
      </trkpt>
      <trkpt lat="45.1619" lon="5.59457">
        <ele>1290.707</ele>
        <time>2022-05-29T08:39:04Z</time>
      </trkpt>
      <trkpt lat="45.16186" lon="5.59449">
        <ele>1292.123</ele>
        <time>2022-05-29T08:39:09Z</time>
      </trkpt>
      <trkpt lat="45.16182" lon="5.59441">
        <ele>1292.868</ele>
        <time>2022-05-29T08:39:14Z</time>
      </trkpt>
      <trkpt lat="45.16178" lon="5.59432">
        <ele>1293.875</ele>
        <time>2022-05-29T08:39:19Z</time>
      </trkpt>
      <trkpt lat="45.16173" lon="5.59425">
        <ele>1295.862</ele>
        <time>2022-05-29T08:39:24Z</time>
      </trkpt>
      <trkpt lat="45.16168" lon="5.59417">
        <ele>1296.003</ele>
        <time>2022-05-29T08:39:29Z</time>
      </trkpt>
      <trkpt lat="45.16163" lon="5.59409">
        <ele>1298.381</ele>
        <time>2022-05-29T08:39:34Z</time>
      </trkpt>
      <trkpt lat="45.16158" lon="5.594">
        <ele>1298.756</ele>
        <time>2022-05-29T08:39:39Z</time>
      </trkpt>
      <trkpt lat="45.16152" lon="5.59391">
        <ele>1300.667</ele>
        <time>2022-05-29T08:39:44Z</time>
      </trkpt>
      <trkpt lat="45.16146" lon="5.59381">
        <ele>1300.617</ele>
        <time>2022-05-29T08:39:49Z</time>
      </trkpt>
      <trkpt lat="45.16143" lon="5.59371">
        <ele>1301.913</ele>
        <time>2022-05-29T08:39:54Z</time>
      </trkpt>
      <trkpt lat="45.1614" lon="5.59361">
        <ele>1303.112</ele>
        <time>2022-05-29T08:39:59Z</time>
      </trkpt>
      <trkpt lat="45.16137" lon="5.59354">
        <ele>1304.527</ele>
        <time>2022-05-29T08:40:04Z</time>
      </trkpt>
      <trkpt lat="45.16133" lon="5.5935">
        <ele>1307.674</ele>
        <time>2022-05-29T08:40:09Z</time>
      </trkpt>
      <trkpt lat="45.1613" lon="5.59342">
        <ele>1307.636</ele>
        <time>2022-05-29T08:40:14Z</time>
      </trkpt>
      <trkpt lat="45.16125" lon="5.59334">
        <ele>1308.822</ele>
        <time>2022-05-29T08:40:19Z</time>
      </trkpt>
      <trkpt lat="45.16121" lon="5.59327">
        <ele>1308.665</ele>
        <time>2022-05-29T08:40:24Z</time>
      </trkpt>
      <trkpt lat="45.16115" lon="5.5932">
        <ele>1309.896</ele>
        <time>2022-05-29T08:40:29Z</time>
      </trkpt>
      <trkpt lat="45.1611" lon="5.59316">
        <ele>1310.92</ele>
        <time>2022-05-29T08:40:34Z</time>
      </trkpt>
      <trkpt lat="45.16105" lon="5.59312">
        <ele>1312.408</ele>
        <time>2022-05-29T08:40:39Z</time>
      </trkpt>
      <trkpt lat="45.16099" lon="5.59311">
        <ele>1313.218</ele>
        <time>2022-05-29T08:40:44Z</time>
      </trkpt>
      <trkpt lat="45.16093" lon="5.59308">
        <ele>1313.844</ele>
        <time>2022-05-29T08:40:49Z</time>
      </trkpt>
      <trkpt lat="45.16087" lon="5.59305">
        <ele>1314.024</ele>
        <time>2022-05-29T08:40:54Z</time>
      </trkpt>
      <trkpt lat="45.16081" lon="5.59301">
        <ele>1314.895</ele>
        <time>2022-05-29T08:40:59Z</time>
      </trkpt>
      <trkpt lat="45.16076" lon="5.59298">
        <ele>1315.847</ele>
        <time>2022-05-29T08:41:04Z</time>
      </trkpt>
      <trkpt lat="45.16071" lon="5.59294">
        <ele>1316.626</ele>
        <time>2022-05-29T08:41:09Z</time>
      </trkpt>
      <trkpt lat="45.16066" lon="5.5929">
        <ele>1317.342</ele>
        <time>2022-05-29T08:41:14Z</time>
      </trkpt>
      <trkpt lat="45.1606" lon="5.59284">
        <ele>1318.557</ele>
        <time>2022-05-29T08:41:19Z</time>
      </trkpt>
      <trkpt lat="45.16054" lon="5.59279">
        <ele>1319.569</ele>
        <time>2022-05-29T08:41:24Z</time>
      </trkpt>
      <trkpt lat="45.16048" lon="5.59274">
        <ele>1321.14</ele>
        <time>2022-05-29T08:41:29Z</time>
      </trkpt>
      <trkpt lat="45.16042" lon="5.59269">
        <ele>1321.766</ele>
        <time>2022-05-29T08:41:34Z</time>
      </trkpt>
      <trkpt lat="45.16037" lon="5.59264">
        <ele>1322.511</ele>
        <time>2022-05-29T08:41:39Z</time>
      </trkpt>
      <trkpt lat="45.16032" lon="5.59259">
        <ele>1322.174</ele>
        <time>2022-05-29T08:41:44Z</time>
      </trkpt>
      <trkpt lat="45.16027" lon="5.59253">
        <ele>1323.789</ele>
        <time>2022-05-29T08:41:49Z</time>
      </trkpt>
      <trkpt lat="45.16023" lon="5.59245">
        <ele>1322.669</ele>
        <time>2022-05-29T08:41:54Z</time>
      </trkpt>
      <trkpt lat="45.16017" lon="5.59239">
        <ele>1322.816</ele>
        <time>2022-05-29T08:41:59Z</time>
      </trkpt>
      <trkpt lat="45.16012" lon="5.59232">
        <ele>1323.724</ele>
        <time>2022-05-29T08:42:04Z</time>
      </trkpt>
      <trkpt lat="45.16007" lon="5.59225">
        <ele>1324.71</ele>
        <time>2022-05-29T08:42:09Z</time>
      </trkpt>
      <trkpt lat="45.16007" lon="5.59216">
        <ele>1325.586</ele>
        <time>2022-05-29T08:42:14Z</time>
      </trkpt>
      <trkpt lat="45.16013" lon="5.59211">
        <ele>1326.267</ele>
        <time>2022-05-29T08:42:19Z</time>
      </trkpt>
      <trkpt lat="45.16019" lon="5.59216">
        <ele>1327.699</ele>
        <time>2022-05-29T08:42:24Z</time>
      </trkpt>
      <trkpt lat="45.16024" lon="5.59221">
        <ele>1328.721</ele>
        <time>2022-05-29T08:42:29Z</time>
      </trkpt>
      <trkpt lat="45.16029" lon="5.59226">
        <ele>1330.08</ele>
        <time>2022-05-29T08:42:34Z</time>
      </trkpt>
      <trkpt lat="45.16035" lon="5.5923">
        <ele>1330.85</ele>
        <time>2022-05-29T08:42:39Z</time>
      </trkpt>
      <trkpt lat="45.16041" lon="5.59234">
        <ele>1332.301</ele>
        <time>2022-05-29T08:42:44Z</time>
      </trkpt>
      <trkpt lat="45.16047" lon="5.59237">
        <ele>1332.871</ele>
        <time>2022-05-29T08:42:49Z</time>
      </trkpt>
      <trkpt lat="45.16054" lon="5.59237">
        <ele>1333.379</ele>
        <time>2022-05-29T08:42:54Z</time>
      </trkpt>
      <trkpt lat="45.16061" lon="5.59236">
        <ele>1333.504</ele>
        <time>2022-05-29T08:42:59Z</time>
      </trkpt>
      <trkpt lat="45.16067" lon="5.59235">
        <ele>1334.572</ele>
        <time>2022-05-29T08:43:04Z</time>
      </trkpt>
      <trkpt lat="45.16073" lon="5.59234">
        <ele>1335.679</ele>
        <time>2022-05-29T08:43:09Z</time>
      </trkpt>
      <trkpt lat="45.1608" lon="5.59233">
        <ele>1335.495</ele>
        <time>2022-05-29T08:43:14Z</time>
      </trkpt>
      <trkpt lat="45.16086" lon="5.59233">
        <ele>1336.938</ele>
        <time>2022-05-29T08:43:19Z</time>
      </trkpt>
      <trkpt lat="45.16091" lon="5.59231">
        <ele>1339.198</ele>
        <time>2022-05-29T08:43:24Z</time>
      </trkpt>
      <trkpt lat="45.16097" lon="5.5923">
        <ele>1338.445</ele>
        <time>2022-05-29T08:43:29Z</time>
      </trkpt>
      <trkpt lat="45.16101" lon="5.5923">
        <ele>1339.895</ele>
        <time>2022-05-29T08:43:34Z</time>
      </trkpt>
      <trkpt lat="45.16107" lon="5.59228">
        <ele>1339.531</ele>
        <time>2022-05-29T08:43:39Z</time>
      </trkpt>
      <trkpt lat="45.16113" lon="5.59226">
        <ele>1340.867</ele>
        <time>2022-05-29T08:43:44Z</time>
      </trkpt>
      <trkpt lat="45.1612" lon="5.59227">
        <ele>1340.954</ele>
        <time>2022-05-29T08:43:49Z</time>
      </trkpt>
      <trkpt lat="45.16127" lon="5.59228">
        <ele>1342.239</ele>
        <time>2022-05-29T08:43:54Z</time>
      </trkpt>
      <trkpt lat="45.16133" lon="5.59228">
        <ele>1345.119</ele>
        <time>2022-05-29T08:43:59Z</time>
      </trkpt>
      <trkpt lat="45.16139" lon="5.59229">
        <ele>1347.644</ele>
        <time>2022-05-29T08:44:04Z</time>
      </trkpt>
      <trkpt lat="45.16146" lon="5.59227">
        <ele>1348.906</ele>
        <time>2022-05-29T08:44:09Z</time>
      </trkpt>
      <trkpt lat="45.1615" lon="5.59227">
        <ele>1353.242</ele>
        <time>2022-05-29T08:44:14Z</time>
      </trkpt>
      <trkpt lat="45.16156" lon="5.59228">
        <ele>1352.572</ele>
        <time>2022-05-29T08:44:19Z</time>
      </trkpt>
      <trkpt lat="45.16163" lon="5.59231">
        <ele>1351.252</ele>
        <time>2022-05-29T08:44:24Z</time>
      </trkpt>
      <trkpt lat="45.1617" lon="5.59235">
        <ele>1350.745</ele>
        <time>2022-05-29T08:44:29Z</time>
      </trkpt>
      <trkpt lat="45.16176" lon="5.59241">
        <ele>1352.003</ele>
        <time>2022-05-29T08:44:34Z</time>
      </trkpt>
      <trkpt lat="45.16182" lon="5.59246">
        <ele>1352.88</ele>
        <time>2022-05-29T08:44:39Z</time>
      </trkpt>
      <trkpt lat="45.16187" lon="5.59252">
        <ele>1354.084</ele>
        <time>2022-05-29T08:44:44Z</time>
      </trkpt>
      <trkpt lat="45.16192" lon="5.59257">
        <ele>1354.487</ele>
        <time>2022-05-29T08:44:49Z</time>
      </trkpt>
      <trkpt lat="45.16197" lon="5.59262">
        <ele>1355.479</ele>
        <time>2022-05-29T08:44:54Z</time>
      </trkpt>
      <trkpt lat="45.16202" lon="5.59265">
        <ele>1356.375</ele>
        <time>2022-05-29T08:44:59Z</time>
      </trkpt>
      <trkpt lat="45.16208" lon="5.59267">
        <ele>1356.533</ele>
        <time>2022-05-29T08:45:04Z</time>
      </trkpt>
      <trkpt lat="45.16214" lon="5.5927">
        <ele>1357.118</ele>
        <time>2022-05-29T08:45:09Z</time>
      </trkpt>
      <trkpt lat="45.16219" lon="5.59272">
        <ele>1357.84</ele>
        <time>2022-05-29T08:45:14Z</time>
      </trkpt>
      <trkpt lat="45.16223" lon="5.59275">
        <ele>1359.96</ele>
        <time>2022-05-29T08:45:19Z</time>
      </trkpt>
      <trkpt lat="45.16227" lon="5.59274">
        <ele>1361.414</ele>
        <time>2022-05-29T08:45:24Z</time>
      </trkpt>
      <trkpt lat="45.16232" lon="5.59276">
        <ele>1361.138</ele>
        <time>2022-05-29T08:45:29Z</time>
      </trkpt>
      <trkpt lat="45.16238" lon="5.59278">
        <ele>1362.851</ele>
        <time>2022-05-29T08:45:34Z</time>
      </trkpt>
      <trkpt lat="45.16243" lon="5.5928">
        <ele>1362.016</ele>
        <time>2022-05-29T08:45:39Z</time>
      </trkpt>
      <trkpt lat="45.16248" lon="5.59281">
        <ele>1364.453</ele>
        <time>2022-05-29T08:45:44Z</time>
      </trkpt>
      <trkpt lat="45.16252" lon="5.59282">
        <ele>1365.766</ele>
        <time>2022-05-29T08:45:49Z</time>
      </trkpt>
      <trkpt lat="45.16258" lon="5.59283">
        <ele>1368.682</ele>
        <time>2022-05-29T08:45:54Z</time>
      </trkpt>
      <trkpt lat="45.16264" lon="5.59285">
        <ele>1370.04</ele>
        <time>2022-05-29T08:45:59Z</time>
      </trkpt>
      <trkpt lat="45.1627" lon="5.59288">
        <ele>1373.03</ele>
        <time>2022-05-29T08:46:04Z</time>
      </trkpt>
      <trkpt lat="45.16275" lon="5.59288">
        <ele>1373.025</ele>
        <time>2022-05-29T08:46:09Z</time>
      </trkpt>
      <trkpt lat="45.1628" lon="5.59289">
        <ele>1373.23</ele>
        <time>2022-05-29T08:46:14Z</time>
      </trkpt>
      <trkpt lat="45.16286" lon="5.59291">
        <ele>1373.463</ele>
        <time>2022-05-29T08:46:19Z</time>
      </trkpt>
      <trkpt lat="45.16291" lon="5.59293">
        <ele>1375.997</ele>
        <time>2022-05-29T08:46:24Z</time>
      </trkpt>
      <trkpt lat="45.16297" lon="5.59295">
        <ele>1375.312</ele>
        <time>2022-05-29T08:46:29Z</time>
      </trkpt>
      <trkpt lat="45.16304" lon="5.59298">
        <ele>1376.459</ele>
        <time>2022-05-29T08:46:34Z</time>
      </trkpt>
      <trkpt lat="45.16309" lon="5.59301">
        <ele>1377.23</ele>
        <time>2022-05-29T08:46:39Z</time>
      </trkpt>
      <trkpt lat="45.16315" lon="5.59304">
        <ele>1377.753</ele>
        <time>2022-05-29T08:46:44Z</time>
      </trkpt>
      <trkpt lat="45.16321" lon="5.59307">
        <ele>1378.116</ele>
        <time>2022-05-29T08:46:49Z</time>
      </trkpt>
      <trkpt lat="45.16327" lon="5.59308">
        <ele>1379.041</ele>
        <time>2022-05-29T08:46:54Z</time>
      </trkpt>
      <trkpt lat="45.16332" lon="5.59309">
        <ele>1382.024</ele>
        <time>2022-05-29T08:46:59Z</time>
      </trkpt>
      <trkpt lat="45.16337" lon="5.59311">
        <ele>1382.079</ele>
        <time>2022-05-29T08:47:04Z</time>
      </trkpt>
      <trkpt lat="45.16344" lon="5.59313">
        <ele>1380.793</ele>
        <time>2022-05-29T08:47:09Z</time>
      </trkpt>
      <trkpt lat="45.16351" lon="5.59315">
        <ele>1381.113</ele>
        <time>2022-05-29T08:47:14Z</time>
      </trkpt>
      <trkpt lat="45.16357" lon="5.59317">
        <ele>1382.351</ele>
        <time>2022-05-29T08:47:19Z</time>
      </trkpt>
      <trkpt lat="45.16364" lon="5.59318">
        <ele>1384.115</ele>
        <time>2022-05-29T08:47:24Z</time>
      </trkpt>
      <trkpt lat="45.1637" lon="5.59319">
        <ele>1385.047</ele>
        <time>2022-05-29T08:47:29Z</time>
      </trkpt>
      <trkpt lat="45.16377" lon="5.5932">
        <ele>1386.83</ele>
        <time>2022-05-29T08:47:34Z</time>
      </trkpt>
      <trkpt lat="45.16383" lon="5.59319">
        <ele>1388.017</ele>
        <time>2022-05-29T08:47:39Z</time>
      </trkpt>
      <trkpt lat="45.16391" lon="5.59319">
        <ele>1387.718</ele>
        <time>2022-05-29T08:47:44Z</time>
      </trkpt>
      <trkpt lat="45.16398" lon="5.59318">
        <ele>1389.232</ele>
        <time>2022-05-29T08:47:49Z</time>
      </trkpt>
      <trkpt lat="45.16404" lon="5.59313">
        <ele>1389.933</ele>
        <time>2022-05-29T08:47:54Z</time>
      </trkpt>
      <trkpt lat="45.16409" lon="5.59306">
        <ele>1389.807</ele>
        <time>2022-05-29T08:47:59Z</time>
      </trkpt>
      <trkpt lat="45.16413" lon="5.59298">
        <ele>1391.806</ele>
        <time>2022-05-29T08:48:04Z</time>
      </trkpt>
      <trkpt lat="45.16416" lon="5.5929">
        <ele>1392.263</ele>
        <time>2022-05-29T08:48:09Z</time>
      </trkpt>
      <trkpt lat="45.16421" lon="5.59283">
        <ele>1392.553</ele>
        <time>2022-05-29T08:48:14Z</time>
      </trkpt>
      <trkpt lat="45.16426" lon="5.59277">
        <ele>1393.516</ele>
        <time>2022-05-29T08:48:19Z</time>
      </trkpt>
      <trkpt lat="45.16431" lon="5.5927">
        <ele>1393.888</ele>
        <time>2022-05-29T08:48:24Z</time>
      </trkpt>
      <trkpt lat="45.16435" lon="5.59263">
        <ele>1393.995</ele>
        <time>2022-05-29T08:48:29Z</time>
      </trkpt>
      <trkpt lat="45.16439" lon="5.59256">
        <ele>1395.046</ele>
        <time>2022-05-29T08:48:34Z</time>
      </trkpt>
      <trkpt lat="45.16445" lon="5.5925">
        <ele>1394.918</ele>
        <time>2022-05-29T08:48:39Z</time>
      </trkpt>
      <trkpt lat="45.16453" lon="5.59247">
        <ele>1394.323</ele>
        <time>2022-05-29T08:48:44Z</time>
      </trkpt>
      <trkpt lat="45.16459" lon="5.59239">
        <ele>1395.418</ele>
        <time>2022-05-29T08:48:49Z</time>
      </trkpt>
      <trkpt lat="45.16465" lon="5.59229">
        <ele>1397.643</ele>
        <time>2022-05-29T08:48:54Z</time>
      </trkpt>
      <trkpt lat="45.16468" lon="5.59216">
        <ele>1398.807</ele>
        <time>2022-05-29T08:48:59Z</time>
      </trkpt>
      <trkpt lat="45.16469" lon="5.59203">
        <ele>1399.896</ele>
        <time>2022-05-29T08:49:04Z</time>
      </trkpt>
      <trkpt lat="45.1647" lon="5.5919">
        <ele>1401.72</ele>
        <time>2022-05-29T08:49:09Z</time>
      </trkpt>
      <trkpt lat="45.16471" lon="5.59178">
        <ele>1402.464</ele>
        <time>2022-05-29T08:49:14Z</time>
      </trkpt>
      <trkpt lat="45.16473" lon="5.59165">
        <ele>1402.465</ele>
        <time>2022-05-29T08:49:19Z</time>
      </trkpt>
      <trkpt lat="45.16475" lon="5.59152">
        <ele>1403.254</ele>
        <time>2022-05-29T08:49:24Z</time>
      </trkpt>
      <trkpt lat="45.1648" lon="5.59141">
        <ele>1406.88</ele>
        <time>2022-05-29T08:49:29Z</time>
      </trkpt>
      <trkpt lat="45.16484" lon="5.59132">
        <ele>1406.64</ele>
        <time>2022-05-29T08:49:34Z</time>
      </trkpt>
      <trkpt lat="45.16489" lon="5.59123">
        <ele>1407.749</ele>
        <time>2022-05-29T08:49:39Z</time>
      </trkpt>
      <trkpt lat="45.1649" lon="5.59114">
        <ele>1411.351</ele>
        <time>2022-05-29T08:49:44Z</time>
      </trkpt>
      <trkpt lat="45.16491" lon="5.59103">
        <ele>1412.666</ele>
        <time>2022-05-29T08:49:49Z</time>
      </trkpt>
      <trkpt lat="45.16488" lon="5.5909">
        <ele>1412.119</ele>
        <time>2022-05-29T08:49:54Z</time>
      </trkpt>
      <trkpt lat="45.16486" lon="5.59079">
        <ele>1410.645</ele>
        <time>2022-05-29T08:49:59Z</time>
      </trkpt>
      <trkpt lat="45.16483" lon="5.5907">
        <ele>1412.468</ele>
        <time>2022-05-29T08:50:04Z</time>
      </trkpt>
      <trkpt lat="45.16478" lon="5.59064">
        <ele>1414.632</ele>
        <time>2022-05-29T08:50:09Z</time>
      </trkpt>
      <trkpt lat="45.16473" lon="5.59059">
        <ele>1413.089</ele>
        <time>2022-05-29T08:50:14Z</time>
      </trkpt>
      <trkpt lat="45.16468" lon="5.59052">
        <ele>1413.773</ele>
        <time>2022-05-29T08:50:19Z</time>
      </trkpt>
      <trkpt lat="45.16463" lon="5.59044">
        <ele>1414.65</ele>
        <time>2022-05-29T08:50:24Z</time>
      </trkpt>
      <trkpt lat="45.16458" lon="5.59035">
        <ele>1417.267</ele>
        <time>2022-05-29T08:50:29Z</time>
      </trkpt>
      <trkpt lat="45.16453" lon="5.59028">
        <ele>1415.081</ele>
        <time>2022-05-29T08:50:34Z</time>
      </trkpt>
      <trkpt lat="45.16448" lon="5.59019">
        <ele>1414.422</ele>
        <time>2022-05-29T08:50:39Z</time>
      </trkpt>
      <trkpt lat="45.16443" lon="5.5901">
        <ele>1415.884</ele>
        <time>2022-05-29T08:50:44Z</time>
      </trkpt>
      <trkpt lat="45.16439" lon="5.59">
        <ele>1416.589</ele>
        <time>2022-05-29T08:50:49Z</time>
      </trkpt>
      <trkpt lat="45.16435" lon="5.58992">
        <ele>1415.561</ele>
        <time>2022-05-29T08:50:54Z</time>
      </trkpt>
      <trkpt lat="45.1643" lon="5.58985">
        <ele>1416.846</ele>
        <time>2022-05-29T08:50:59Z</time>
      </trkpt>
      <trkpt lat="45.16425" lon="5.58977">
        <ele>1416.773</ele>
        <time>2022-05-29T08:51:04Z</time>
      </trkpt>
      <trkpt lat="45.1642" lon="5.58972">
        <ele>1419.121</ele>
        <time>2022-05-29T08:51:09Z</time>
      </trkpt>
      <trkpt lat="45.16415" lon="5.58965">
        <ele>1420.641</ele>
        <time>2022-05-29T08:51:14Z</time>
      </trkpt>
      <trkpt lat="45.16411" lon="5.58957">
        <ele>1421.817</ele>
        <time>2022-05-29T08:51:19Z</time>
      </trkpt>
      <trkpt lat="45.16407" lon="5.58949">
        <ele>1420.776</ele>
        <time>2022-05-29T08:51:24Z</time>
      </trkpt>
      <trkpt lat="45.16402" lon="5.58942">
        <ele>1423.25</ele>
        <time>2022-05-29T08:51:29Z</time>
      </trkpt>
      <trkpt lat="45.16397" lon="5.58935">
        <ele>1423.921</ele>
        <time>2022-05-29T08:51:34Z</time>
      </trkpt>
      <trkpt lat="45.16393" lon="5.58928">
        <ele>1425.156</ele>
        <time>2022-05-29T08:51:39Z</time>
      </trkpt>
      <trkpt lat="45.16388" lon="5.5892">
        <ele>1425.052</ele>
        <time>2022-05-29T08:51:44Z</time>
      </trkpt>
      <trkpt lat="45.16384" lon="5.58912">
        <ele>1427.129</ele>
        <time>2022-05-29T08:51:49Z</time>
      </trkpt>
      <trkpt lat="45.1638" lon="5.58905">
        <ele>1428.163</ele>
        <time>2022-05-29T08:51:54Z</time>
      </trkpt>
      <trkpt lat="45.16376" lon="5.58897">
        <ele>1428.791</ele>
        <time>2022-05-29T08:51:59Z</time>
      </trkpt>
      <trkpt lat="45.16372" lon="5.5889">
        <ele>1428.962</ele>
        <time>2022-05-29T08:52:04Z</time>
      </trkpt>
      <trkpt lat="45.16368" lon="5.58881">
        <ele>1429.175</ele>
        <time>2022-05-29T08:52:09Z</time>
      </trkpt>
      <trkpt lat="45.16364" lon="5.58873">
        <ele>1428.579</ele>
        <time>2022-05-29T08:52:14Z</time>
      </trkpt>
      <trkpt lat="45.16359" lon="5.58863">
        <ele>1429.627</ele>
        <time>2022-05-29T08:52:19Z</time>
      </trkpt>
      <trkpt lat="45.16355" lon="5.58856">
        <ele>1431.461</ele>
        <time>2022-05-29T08:52:24Z</time>
      </trkpt>
      <trkpt lat="45.16351" lon="5.58848">
        <ele>1434.621</ele>
        <time>2022-05-29T08:52:29Z</time>
      </trkpt>
      <trkpt lat="45.16348" lon="5.58839">
        <ele>1436.193</ele>
        <time>2022-05-29T08:52:34Z</time>
      </trkpt>
      <trkpt lat="45.16343" lon="5.58828">
        <ele>1436.285</ele>
        <time>2022-05-29T08:52:39Z</time>
      </trkpt>
      <trkpt lat="45.16338" lon="5.58817">
        <ele>1436.563</ele>
        <time>2022-05-29T08:52:44Z</time>
      </trkpt>
      <trkpt lat="45.16334" lon="5.58806">
        <ele>1436.834</ele>
        <time>2022-05-29T08:52:49Z</time>
      </trkpt>
      <trkpt lat="45.16329" lon="5.58798">
        <ele>1438.251</ele>
        <time>2022-05-29T08:52:54Z</time>
      </trkpt>
      <trkpt lat="45.16323" lon="5.5879">
        <ele>1437.974</ele>
        <time>2022-05-29T08:52:59Z</time>
      </trkpt>
      <trkpt lat="45.16317" lon="5.58782">
        <ele>1438.304</ele>
        <time>2022-05-29T08:53:04Z</time>
      </trkpt>
      <trkpt lat="45.1631" lon="5.58775">
        <ele>1438.445</ele>
        <time>2022-05-29T08:53:09Z</time>
      </trkpt>
      <trkpt lat="45.16303" lon="5.58771">
        <ele>1439.01</ele>
        <time>2022-05-29T08:53:14Z</time>
      </trkpt>
      <trkpt lat="45.16295" lon="5.58767">
        <ele>1439.406</ele>
        <time>2022-05-29T08:53:19Z</time>
      </trkpt>
      <trkpt lat="45.16294" lon="5.58766">
        <ele>1439.329</ele>
        <time>2022-05-29T08:53:24Z</time>
      </trkpt>
      <trkpt lat="45.16295" lon="5.58765">
        <ele>1438.553</ele>
        <time>2022-05-29T08:53:29Z</time>
      </trkpt>
      <trkpt lat="45.16295" lon="5.58764">
        <ele>1438.439</ele>
        <time>2022-05-29T08:53:34Z</time>
      </trkpt>
      <trkpt lat="45.16295" lon="5.58764">
        <ele>1438.538</ele>
        <time>2022-05-29T08:53:39Z</time>
      </trkpt>
      <trkpt lat="45.16295" lon="5.58764">
        <ele>1438.549</ele>
        <time>2022-05-29T08:53:44Z</time>
      </trkpt>
      <trkpt lat="45.16295" lon="5.58764">
        <ele>1438.513</ele>
        <time>2022-05-29T08:53:49Z</time>
      </trkpt>
      <trkpt lat="45.16295" lon="5.58764">
        <ele>1439.08</ele>
        <time>2022-05-29T08:53:54Z</time>
      </trkpt>
      <trkpt lat="45.16295" lon="5.58765">
        <ele>1439.174</ele>
        <time>2022-05-29T08:53:59Z</time>
      </trkpt>
      <trkpt lat="45.16295" lon="5.58764">
        <ele>1439.396</ele>
        <time>2022-05-29T08:54:04Z</time>
      </trkpt>
      <trkpt lat="45.16295" lon="5.58764">
        <ele>1439.395</ele>
        <time>2022-05-29T08:54:09Z</time>
      </trkpt>
      <trkpt lat="45.16295" lon="5.58764">
        <ele>1439.396</ele>
        <time>2022-05-29T08:54:14Z</time>
      </trkpt>
      <trkpt lat="45.16295" lon="5.58764">
        <ele>1439.378</ele>
        <time>2022-05-29T08:54:19Z</time>
      </trkpt>
      <trkpt lat="45.16295" lon="5.58764">
        <ele>1439.376</ele>
        <time>2022-05-29T08:54:24Z</time>
      </trkpt>
      <trkpt lat="45.16295" lon="5.58764">
        <ele>1439.392</ele>
        <time>2022-05-29T08:54:29Z</time>
      </trkpt>
      <trkpt lat="45.16295" lon="5.58764">
        <ele>1439.39</ele>
        <time>2022-05-29T08:54:34Z</time>
      </trkpt>
      <trkpt lat="45.16295" lon="5.58764">
        <ele>1439.4</ele>
        <time>2022-05-29T08:54:39Z</time>
      </trkpt>
      <trkpt lat="45.16295" lon="5.58764">
        <ele>1439.417</ele>
        <time>2022-05-29T08:54:44Z</time>
      </trkpt>
      <trkpt lat="45.16295" lon="5.58764">
        <ele>1439.427</ele>
        <time>2022-05-29T08:54:49Z</time>
      </trkpt>
      <trkpt lat="45.16295" lon="5.58764">
        <ele>1439.447</ele>
        <time>2022-05-29T08:54:54Z</time>
      </trkpt>
      <trkpt lat="45.16295" lon="5.58764">
        <ele>1439.468</ele>
        <time>2022-05-29T08:54:59Z</time>
      </trkpt>
      <trkpt lat="45.16295" lon="5.58764">
        <ele>1439.478</ele>
        <time>2022-05-29T08:55:04Z</time>
      </trkpt>
      <trkpt lat="45.16295" lon="5.58764">
        <ele>1439.492</ele>
        <time>2022-05-29T08:55:09Z</time>
      </trkpt>
      <trkpt lat="45.16295" lon="5.58764">
        <ele>1439.528</ele>
        <time>2022-05-29T08:55:14Z</time>
      </trkpt>
      <trkpt lat="45.16295" lon="5.58764">
        <ele>1439.539</ele>
        <time>2022-05-29T08:55:19Z</time>
      </trkpt>
      <trkpt lat="45.16295" lon="5.58764">
        <ele>1439.563</ele>
        <time>2022-05-29T08:55:24Z</time>
      </trkpt>
      <trkpt lat="45.16295" lon="5.58764">
        <ele>1439.577</ele>
        <time>2022-05-29T08:55:29Z</time>
      </trkpt>
      <trkpt lat="45.16295" lon="5.58764">
        <ele>1439.584</ele>
        <time>2022-05-29T08:55:34Z</time>
      </trkpt>
      <trkpt lat="45.16295" lon="5.58764">
        <ele>1439.587</ele>
        <time>2022-05-29T08:55:39Z</time>
      </trkpt>
      <trkpt lat="45.16295" lon="5.58764">
        <ele>1439.597</ele>
        <time>2022-05-29T08:55:44Z</time>
      </trkpt>
      <trkpt lat="45.16295" lon="5.58764">
        <ele>1439.602</ele>
        <time>2022-05-29T08:55:49Z</time>
      </trkpt>
      <trkpt lat="45.16295" lon="5.58764">
        <ele>1439.604</ele>
        <time>2022-05-29T08:55:54Z</time>
      </trkpt>
      <trkpt lat="45.16295" lon="5.58764">
        <ele>1439.609</ele>
        <time>2022-05-29T08:55:59Z</time>
      </trkpt>
      <trkpt lat="45.16295" lon="5.58764">
        <ele>1439.613</ele>
        <time>2022-05-29T08:56:04Z</time>
      </trkpt>
      <trkpt lat="45.16295" lon="5.58764">
        <ele>1439.62</ele>
        <time>2022-05-29T08:56:09Z</time>
      </trkpt>
      <trkpt lat="45.16295" lon="5.58764">
        <ele>1439.619</ele>
        <time>2022-05-29T08:56:14Z</time>
      </trkpt>
      <trkpt lat="45.16295" lon="5.58764">
        <ele>1439.62</ele>
        <time>2022-05-29T08:56:19Z</time>
      </trkpt>
      <trkpt lat="45.16295" lon="5.58764">
        <ele>1439.627</ele>
        <time>2022-05-29T08:56:24Z</time>
      </trkpt>
      <trkpt lat="45.16295" lon="5.58764">
        <ele>1439.629</ele>
        <time>2022-05-29T08:56:29Z</time>
      </trkpt>
      <trkpt lat="45.16295" lon="5.58764">
        <ele>1439.634</ele>
        <time>2022-05-29T08:56:34Z</time>
      </trkpt>
      <trkpt lat="45.16295" lon="5.58764">
        <ele>1439.638</ele>
        <time>2022-05-29T08:56:39Z</time>
      </trkpt>
      <trkpt lat="45.16295" lon="5.58764">
        <ele>1439.642</ele>
        <time>2022-05-29T08:56:44Z</time>
      </trkpt>
      <trkpt lat="45.16295" lon="5.58764">
        <ele>1439.645</ele>
        <time>2022-05-29T08:56:49Z</time>
      </trkpt>
      <trkpt lat="45.16295" lon="5.58764">
        <ele>1439.643</ele>
        <time>2022-05-29T08:56:54Z</time>
      </trkpt>
      <trkpt lat="45.16295" lon="5.58764">
        <ele>1439.645</ele>
        <time>2022-05-29T08:56:59Z</time>
      </trkpt>
      <trkpt lat="45.16295" lon="5.58764">
        <ele>1439.647</ele>
        <time>2022-05-29T08:57:04Z</time>
      </trkpt>
      <trkpt lat="45.16295" lon="5.58764">
        <ele>1439.653</ele>
        <time>2022-05-29T08:57:09Z</time>
      </trkpt>
      <trkpt lat="45.16295" lon="5.58764">
        <ele>1439.654</ele>
        <time>2022-05-29T08:57:14Z</time>
      </trkpt>
      <trkpt lat="45.16295" lon="5.58764">
        <ele>1439.658</ele>
        <time>2022-05-29T08:57:19Z</time>
      </trkpt>
      <trkpt lat="45.16295" lon="5.58764">
        <ele>1439.667</ele>
        <time>2022-05-29T08:57:24Z</time>
      </trkpt>
      <trkpt lat="45.16295" lon="5.58764">
        <ele>1439.675</ele>
        <time>2022-05-29T08:57:29Z</time>
      </trkpt>
      <trkpt lat="45.16295" lon="5.58764">
        <ele>1439.682</ele>
        <time>2022-05-29T08:57:34Z</time>
      </trkpt>
      <trkpt lat="45.16295" lon="5.58764">
        <ele>1439.687</ele>
        <time>2022-05-29T08:57:39Z</time>
      </trkpt>
      <trkpt lat="45.16295" lon="5.58764">
        <ele>1439.697</ele>
        <time>2022-05-29T08:57:44Z</time>
      </trkpt>
      <trkpt lat="45.16295" lon="5.58764">
        <ele>1439.71</ele>
        <time>2022-05-29T08:57:49Z</time>
      </trkpt>
      <trkpt lat="45.16295" lon="5.58764">
        <ele>1439.716</ele>
        <time>2022-05-29T08:57:54Z</time>
      </trkpt>
      <trkpt lat="45.16295" lon="5.58764">
        <ele>1439.723</ele>
        <time>2022-05-29T08:57:59Z</time>
      </trkpt>
      <trkpt lat="45.16295" lon="5.58764">
        <ele>1439.724</ele>
        <time>2022-05-29T08:58:04Z</time>
      </trkpt>
      <trkpt lat="45.16295" lon="5.58764">
        <ele>1439.724</ele>
        <time>2022-05-29T08:58:09Z</time>
      </trkpt>
      <trkpt lat="45.16295" lon="5.58764">
        <ele>1439.722</ele>
        <time>2022-05-29T08:58:14Z</time>
      </trkpt>
      <trkpt lat="45.16295" lon="5.58764">
        <ele>1439.723</ele>
        <time>2022-05-29T08:58:19Z</time>
      </trkpt>
      <trkpt lat="45.16295" lon="5.58764">
        <ele>1439.729</ele>
        <time>2022-05-29T08:58:24Z</time>
      </trkpt>
      <trkpt lat="45.16295" lon="5.58764">
        <ele>1439.731</ele>
        <time>2022-05-29T08:58:29Z</time>
      </trkpt>
      <trkpt lat="45.16295" lon="5.58764">
        <ele>1439.734</ele>
        <time>2022-05-29T08:58:34Z</time>
      </trkpt>
      <trkpt lat="45.16295" lon="5.58764">
        <ele>1439.737</ele>
        <time>2022-05-29T08:58:39Z</time>
      </trkpt>
      <trkpt lat="45.16295" lon="5.58764">
        <ele>1439.736</ele>
        <time>2022-05-29T08:58:44Z</time>
      </trkpt>
      <trkpt lat="45.16295" lon="5.58764">
        <ele>1439.733</ele>
        <time>2022-05-29T08:58:49Z</time>
      </trkpt>
      <trkpt lat="45.16295" lon="5.58764">
        <ele>1439.729</ele>
        <time>2022-05-29T08:58:54Z</time>
      </trkpt>
      <trkpt lat="45.16295" lon="5.58764">
        <ele>1439.735</ele>
        <time>2022-05-29T08:58:59Z</time>
      </trkpt>
      <trkpt lat="45.16295" lon="5.58764">
        <ele>1439.752</ele>
        <time>2022-05-29T08:59:04Z</time>
      </trkpt>
      <trkpt lat="45.16295" lon="5.58764">
        <ele>1439.752</ele>
        <time>2022-05-29T08:59:09Z</time>
      </trkpt>
      <trkpt lat="45.16295" lon="5.58764">
        <ele>1439.755</ele>
        <time>2022-05-29T08:59:14Z</time>
      </trkpt>
      <trkpt lat="45.16295" lon="5.58764">
        <ele>1439.757</ele>
        <time>2022-05-29T08:59:19Z</time>
      </trkpt>
      <trkpt lat="45.16294" lon="5.58764">
        <ele>1441.275</ele>
        <time>2022-05-29T08:59:24Z</time>
      </trkpt>
      <trkpt lat="45.16295" lon="5.58762">
        <ele>1442.674</ele>
        <time>2022-05-29T08:59:29Z</time>
      </trkpt>
      <trkpt lat="45.16295" lon="5.58761">
        <ele>1442.899</ele>
        <time>2022-05-29T08:59:34Z</time>
      </trkpt>
      <trkpt lat="45.16294" lon="5.58761">
        <ele>1443.368</ele>
        <time>2022-05-29T08:59:39Z</time>
      </trkpt>
      <trkpt lat="45.16294" lon="5.58761">
        <ele>1443.739</ele>
        <time>2022-05-29T08:59:44Z</time>
      </trkpt>
      <trkpt lat="45.16294" lon="5.58761">
        <ele>1443.731</ele>
        <time>2022-05-29T08:59:49Z</time>
      </trkpt>
      <trkpt lat="45.16294" lon="5.58761">
        <ele>1443.72</ele>
        <time>2022-05-29T08:59:54Z</time>
      </trkpt>
      <trkpt lat="45.16294" lon="5.58761">
        <ele>1443.724</ele>
        <time>2022-05-29T08:59:59Z</time>
      </trkpt>
      <trkpt lat="45.16294" lon="5.58761">
        <ele>1443.722</ele>
        <time>2022-05-29T09:00:04Z</time>
      </trkpt>
      <trkpt lat="45.16294" lon="5.58761">
        <ele>1443.719</ele>
        <time>2022-05-29T09:00:09Z</time>
      </trkpt>
      <trkpt lat="45.16294" lon="5.58761">
        <ele>1443.718</ele>
        <time>2022-05-29T09:00:14Z</time>
      </trkpt>
      <trkpt lat="45.16294" lon="5.58761">
        <ele>1443.721</ele>
        <time>2022-05-29T09:00:19Z</time>
      </trkpt>
      <trkpt lat="45.16294" lon="5.58761">
        <ele>1443.714</ele>
        <time>2022-05-29T09:00:24Z</time>
      </trkpt>
      <trkpt lat="45.16294" lon="5.58755">
        <ele>1443.55</ele>
        <time>2022-05-29T09:00:29Z</time>
      </trkpt>
      <trkpt lat="45.16298" lon="5.58744">
        <ele>1445.708</ele>
        <time>2022-05-29T09:00:34Z</time>
      </trkpt>
      <trkpt lat="45.16303" lon="5.58738">
        <ele>1447.769</ele>
        <time>2022-05-29T09:00:39Z</time>
      </trkpt>
      <trkpt lat="45.16305" lon="5.58731">
        <ele>1449.382</ele>
        <time>2022-05-29T09:00:44Z</time>
      </trkpt>
      <trkpt lat="45.16309" lon="5.58727">
        <ele>1450.968</ele>
        <time>2022-05-29T09:00:49Z</time>
      </trkpt>
      <trkpt lat="45.16313" lon="5.58723">
        <ele>1452.141</ele>
        <time>2022-05-29T09:00:54Z</time>
      </trkpt>
      <trkpt lat="45.16318" lon="5.58721">
        <ele>1452.023</ele>
        <time>2022-05-29T09:00:59Z</time>
      </trkpt>
      <trkpt lat="45.16322" lon="5.5872">
        <ele>1452.931</ele>
        <time>2022-05-29T09:01:04Z</time>
      </trkpt>
      <trkpt lat="45.16325" lon="5.58718">
        <ele>1453.38</ele>
        <time>2022-05-29T09:01:09Z</time>
      </trkpt>
      <trkpt lat="45.16332" lon="5.58717">
        <ele>1455.888</ele>
        <time>2022-05-29T09:01:14Z</time>
      </trkpt>
      <trkpt lat="45.16337" lon="5.58718">
        <ele>1455.848</ele>
        <time>2022-05-29T09:01:19Z</time>
      </trkpt>
      <trkpt lat="45.16343" lon="5.58718">
        <ele>1456.903</ele>
        <time>2022-05-29T09:01:24Z</time>
      </trkpt>
      <trkpt lat="45.16349" lon="5.58715">
        <ele>1462.483</ele>
        <time>2022-05-29T09:01:29Z</time>
      </trkpt>
      <trkpt lat="45.16351" lon="5.58714">
        <ele>1462.324</ele>
        <time>2022-05-29T09:01:34Z</time>
      </trkpt>
      <trkpt lat="45.16352" lon="5.58714">
        <ele>1462.127</ele>
        <time>2022-05-29T09:01:39Z</time>
      </trkpt>
      <trkpt lat="45.16352" lon="5.58714">
        <ele>1462.632</ele>
        <time>2022-05-29T09:01:44Z</time>
      </trkpt>
      <trkpt lat="45.16354" lon="5.58711">
        <ele>1462.45</ele>
        <time>2022-05-29T09:01:49Z</time>
      </trkpt>
      <trkpt lat="45.16357" lon="5.5871">
        <ele>1463.928</ele>
        <time>2022-05-29T09:01:54Z</time>
      </trkpt>
      <trkpt lat="45.16361" lon="5.5871">
        <ele>1464.727</ele>
        <time>2022-05-29T09:01:59Z</time>
      </trkpt>
      <trkpt lat="45.16364" lon="5.58709">
        <ele>1464.595</ele>
        <time>2022-05-29T09:02:04Z</time>
      </trkpt>
      <trkpt lat="45.16366" lon="5.58707">
        <ele>1465.447</ele>
        <time>2022-05-29T09:02:09Z</time>
      </trkpt>
      <trkpt lat="45.1637" lon="5.58705">
        <ele>1467.33</ele>
        <time>2022-05-29T09:02:14Z</time>
      </trkpt>
      <trkpt lat="45.16373" lon="5.58704">
        <ele>1467.752</ele>
        <time>2022-05-29T09:02:19Z</time>
      </trkpt>
      <trkpt lat="45.16376" lon="5.58704">
        <ele>1468.435</ele>
        <time>2022-05-29T09:02:24Z</time>
      </trkpt>
      <trkpt lat="45.1638" lon="5.58704">
        <ele>1467.839</ele>
        <time>2022-05-29T09:02:29Z</time>
      </trkpt>
      <trkpt lat="45.16384" lon="5.58704">
        <ele>1469.865</ele>
        <time>2022-05-29T09:02:34Z</time>
      </trkpt>
      <trkpt lat="45.16385" lon="5.58703">
        <ele>1470.21</ele>
        <time>2022-05-29T09:02:39Z</time>
      </trkpt>
      <trkpt lat="45.16387" lon="5.587">
        <ele>1469.821</ele>
        <time>2022-05-29T09:02:44Z</time>
      </trkpt>
      <trkpt lat="45.16392" lon="5.58696">
        <ele>1472.007</ele>
        <time>2022-05-29T09:02:49Z</time>
      </trkpt>
      <trkpt lat="45.16393" lon="5.58695">
        <ele>1474.355</ele>
        <time>2022-05-29T09:02:54Z</time>
      </trkpt>
      <trkpt lat="45.16397" lon="5.58693">
        <ele>1475.423</ele>
        <time>2022-05-29T09:02:59Z</time>
      </trkpt>
      <trkpt lat="45.16399" lon="5.58693">
        <ele>1479.885</ele>
        <time>2022-05-29T09:03:04Z</time>
      </trkpt>
      <trkpt lat="45.16402" lon="5.58694">
        <ele>1479.305</ele>
        <time>2022-05-29T09:03:09Z</time>
      </trkpt>
      <trkpt lat="45.16405" lon="5.58695">
        <ele>1478.521</ele>
        <time>2022-05-29T09:03:14Z</time>
      </trkpt>
      <trkpt lat="45.16408" lon="5.58695">
        <ele>1478.269</ele>
        <time>2022-05-29T09:03:19Z</time>
      </trkpt>
      <trkpt lat="45.16412" lon="5.58693">
        <ele>1479.807</ele>
        <time>2022-05-29T09:03:24Z</time>
      </trkpt>
      <trkpt lat="45.16414" lon="5.58693">
        <ele>1479.037</ele>
        <time>2022-05-29T09:03:29Z</time>
      </trkpt>
      <trkpt lat="45.16416" lon="5.58691">
        <ele>1477.619</ele>
        <time>2022-05-29T09:03:34Z</time>
      </trkpt>
      <trkpt lat="45.16421" lon="5.58691">
        <ele>1478.275</ele>
        <time>2022-05-29T09:03:39Z</time>
      </trkpt>
      <trkpt lat="45.16427" lon="5.58692">
        <ele>1480.716</ele>
        <time>2022-05-29T09:03:44Z</time>
      </trkpt>
      <trkpt lat="45.16433" lon="5.58692">
        <ele>1483.706</ele>
        <time>2022-05-29T09:03:49Z</time>
      </trkpt>
      <trkpt lat="45.16437" lon="5.58691">
        <ele>1483.314</ele>
        <time>2022-05-29T09:03:54Z</time>
      </trkpt>
      <trkpt lat="45.16442" lon="5.58689">
        <ele>1485.038</ele>
        <time>2022-05-29T09:03:59Z</time>
      </trkpt>
      <trkpt lat="45.16446" lon="5.58686">
        <ele>1487.239</ele>
        <time>2022-05-29T09:04:04Z</time>
      </trkpt>
      <trkpt lat="45.1645" lon="5.58686">
        <ele>1487.483</ele>
        <time>2022-05-29T09:04:09Z</time>
      </trkpt>
      <trkpt lat="45.16454" lon="5.58687">
        <ele>1486.957</ele>
        <time>2022-05-29T09:04:14Z</time>
      </trkpt>
      <trkpt lat="45.16458" lon="5.58688">
        <ele>1487.382</ele>
        <time>2022-05-29T09:04:19Z</time>
      </trkpt>
      <trkpt lat="45.16461" lon="5.58686">
        <ele>1486.8</ele>
        <time>2022-05-29T09:04:24Z</time>
      </trkpt>
      <trkpt lat="45.16464" lon="5.58683">
        <ele>1487.077</ele>
        <time>2022-05-29T09:04:29Z</time>
      </trkpt>
      <trkpt lat="45.16467" lon="5.58682">
        <ele>1486.053</ele>
        <time>2022-05-29T09:04:34Z</time>
      </trkpt>
      <trkpt lat="45.1647" lon="5.5868">
        <ele>1488.504</ele>
        <time>2022-05-29T09:04:39Z</time>
      </trkpt>
      <trkpt lat="45.16473" lon="5.58678">
        <ele>1491.138</ele>
        <time>2022-05-29T09:04:44Z</time>
      </trkpt>
      <trkpt lat="45.16473" lon="5.58677">
        <ele>1492.309</ele>
        <time>2022-05-29T09:04:49Z</time>
      </trkpt>
      <trkpt lat="45.16475" lon="5.58675">
        <ele>1493.56</ele>
        <time>2022-05-29T09:04:54Z</time>
      </trkpt>
      <trkpt lat="45.16476" lon="5.58675">
        <ele>1493.054</ele>
        <time>2022-05-29T09:04:59Z</time>
      </trkpt>
      <trkpt lat="45.1648" lon="5.58674">
        <ele>1494.891</ele>
        <time>2022-05-29T09:05:04Z</time>
      </trkpt>
      <trkpt lat="45.16486" lon="5.58673">
        <ele>1495.787</ele>
        <time>2022-05-29T09:05:09Z</time>
      </trkpt>
      <trkpt lat="45.16491" lon="5.58672">
        <ele>1498.365</ele>
        <time>2022-05-29T09:05:14Z</time>
      </trkpt>
      <trkpt lat="45.16497" lon="5.58672">
        <ele>1500.036</ele>
        <time>2022-05-29T09:05:19Z</time>
      </trkpt>
      <trkpt lat="45.16504" lon="5.58669">
        <ele>1502.502</ele>
        <time>2022-05-29T09:05:24Z</time>
      </trkpt>
      <trkpt lat="45.1651" lon="5.58669">
        <ele>1505.799</ele>
        <time>2022-05-29T09:05:29Z</time>
      </trkpt>
      <trkpt lat="45.16514" lon="5.58668">
        <ele>1506.976</ele>
        <time>2022-05-29T09:05:34Z</time>
      </trkpt>
      <trkpt lat="45.16517" lon="5.58667">
        <ele>1506.954</ele>
        <time>2022-05-29T09:05:39Z</time>
      </trkpt>
      <trkpt lat="45.16518" lon="5.58665">
        <ele>1509.192</ele>
        <time>2022-05-29T09:05:44Z</time>
      </trkpt>
      <trkpt lat="45.16518" lon="5.58665">
        <ele>1508.585</ele>
        <time>2022-05-29T09:05:49Z</time>
      </trkpt>
      <trkpt lat="45.16517" lon="5.58665">
        <ele>1508.376</ele>
        <time>2022-05-29T09:05:54Z</time>
      </trkpt>
      <trkpt lat="45.16517" lon="5.58665">
        <ele>1508.372</ele>
        <time>2022-05-29T09:05:59Z</time>
      </trkpt>
      <trkpt lat="45.16517" lon="5.58665">
        <ele>1508.35</ele>
        <time>2022-05-29T09:06:04Z</time>
      </trkpt>
      <trkpt lat="45.16517" lon="5.58665">
        <ele>1508.433</ele>
        <time>2022-05-29T09:06:09Z</time>
      </trkpt>
      <trkpt lat="45.16517" lon="5.58665">
        <ele>1508.521</ele>
        <time>2022-05-29T09:06:14Z</time>
      </trkpt>
      <trkpt lat="45.16517" lon="5.58665">
        <ele>1508.569</ele>
        <time>2022-05-29T09:06:19Z</time>
      </trkpt>
      <trkpt lat="45.16517" lon="5.58665">
        <ele>1508.595</ele>
        <time>2022-05-29T09:06:24Z</time>
      </trkpt>
      <trkpt lat="45.16517" lon="5.58665">
        <ele>1508.623</ele>
        <time>2022-05-29T09:06:29Z</time>
      </trkpt>
      <trkpt lat="45.16517" lon="5.58665">
        <ele>1508.64</ele>
        <time>2022-05-29T09:06:34Z</time>
      </trkpt>
      <trkpt lat="45.16517" lon="5.58665">
        <ele>1508.644</ele>
        <time>2022-05-29T09:06:39Z</time>
      </trkpt>
      <trkpt lat="45.16517" lon="5.58665">
        <ele>1508.643</ele>
        <time>2022-05-29T09:06:44Z</time>
      </trkpt>
      <trkpt lat="45.16517" lon="5.58665">
        <ele>1508.653</ele>
        <time>2022-05-29T09:06:49Z</time>
      </trkpt>
      <trkpt lat="45.16517" lon="5.58665">
        <ele>1508.65</ele>
        <time>2022-05-29T09:06:54Z</time>
      </trkpt>
      <trkpt lat="45.16517" lon="5.58665">
        <ele>1508.618</ele>
        <time>2022-05-29T09:06:59Z</time>
      </trkpt>
      <trkpt lat="45.16517" lon="5.58665">
        <ele>1508.588</ele>
        <time>2022-05-29T09:07:04Z</time>
      </trkpt>
      <trkpt lat="45.16517" lon="5.58665">
        <ele>1508.582</ele>
        <time>2022-05-29T09:07:09Z</time>
      </trkpt>
      <trkpt lat="45.16517" lon="5.58665">
        <ele>1508.63</ele>
        <time>2022-05-29T09:07:14Z</time>
      </trkpt>
      <trkpt lat="45.16517" lon="5.58665">
        <ele>1508.658</ele>
        <time>2022-05-29T09:07:19Z</time>
      </trkpt>
      <trkpt lat="45.16517" lon="5.58665">
        <ele>1508.669</ele>
        <time>2022-05-29T09:07:24Z</time>
      </trkpt>
      <trkpt lat="45.16517" lon="5.58665">
        <ele>1508.81</ele>
        <time>2022-05-29T09:07:29Z</time>
      </trkpt>
      <trkpt lat="45.16517" lon="5.58665">
        <ele>1508.915</ele>
        <time>2022-05-29T09:07:34Z</time>
      </trkpt>
      <trkpt lat="45.16517" lon="5.58665">
        <ele>1508.982</ele>
        <time>2022-05-29T09:07:39Z</time>
      </trkpt>
      <trkpt lat="45.16517" lon="5.58665">
        <ele>1508.942</ele>
        <time>2022-05-29T09:07:44Z</time>
      </trkpt>
      <trkpt lat="45.16517" lon="5.58665">
        <ele>1508.945</ele>
        <time>2022-05-29T09:07:49Z</time>
      </trkpt>
      <trkpt lat="45.16517" lon="5.58665">
        <ele>1508.939</ele>
        <time>2022-05-29T09:07:54Z</time>
      </trkpt>
      <trkpt lat="45.16517" lon="5.58665">
        <ele>1508.92</ele>
        <time>2022-05-29T09:07:59Z</time>
      </trkpt>
      <trkpt lat="45.16517" lon="5.58665">
        <ele>1508.914</ele>
        <time>2022-05-29T09:08:04Z</time>
      </trkpt>
      <trkpt lat="45.16517" lon="5.58665">
        <ele>1508.803</ele>
        <time>2022-05-29T09:08:09Z</time>
      </trkpt>
      <trkpt lat="45.16522" lon="5.58664">
        <ele>1510</ele>
        <time>2022-05-29T09:08:14Z</time>
      </trkpt>
      <trkpt lat="45.16528" lon="5.58661">
        <ele>1505.239</ele>
        <time>2022-05-29T09:08:19Z</time>
      </trkpt>
      <trkpt lat="45.16535" lon="5.58659">
        <ele>1508.046</ele>
        <time>2022-05-29T09:08:24Z</time>
      </trkpt>
      <trkpt lat="45.16544" lon="5.58658">
        <ele>1509.276</ele>
        <time>2022-05-29T09:08:29Z</time>
      </trkpt>
      <trkpt lat="45.16552" lon="5.58656">
        <ele>1511.383</ele>
        <time>2022-05-29T09:08:34Z</time>
      </trkpt>
      <trkpt lat="45.1656" lon="5.58654">
        <ele>1514.017</ele>
        <time>2022-05-29T09:08:39Z</time>
      </trkpt>
      <trkpt lat="45.16567" lon="5.58653">
        <ele>1514.752</ele>
        <time>2022-05-29T09:08:44Z</time>
      </trkpt>
      <trkpt lat="45.16575" lon="5.58653">
        <ele>1514.688</ele>
        <time>2022-05-29T09:08:49Z</time>
      </trkpt>
      <trkpt lat="45.16583" lon="5.58653">
        <ele>1516.031</ele>
        <time>2022-05-29T09:08:54Z</time>
      </trkpt>
      <trkpt lat="45.1659" lon="5.58653">
        <ele>1517.999</ele>
        <time>2022-05-29T09:08:59Z</time>
      </trkpt>
      <trkpt lat="45.16598" lon="5.58653">
        <ele>1518.154</ele>
        <time>2022-05-29T09:09:04Z</time>
      </trkpt>
      <trkpt lat="45.16605" lon="5.58652">
        <ele>1518.539</ele>
        <time>2022-05-29T09:09:09Z</time>
      </trkpt>
      <trkpt lat="45.16613" lon="5.58652">
        <ele>1519.409</ele>
        <time>2022-05-29T09:09:14Z</time>
      </trkpt>
      <trkpt lat="45.1662" lon="5.58652">
        <ele>1520.8</ele>
        <time>2022-05-29T09:09:19Z</time>
      </trkpt>
      <trkpt lat="45.16626" lon="5.58652">
        <ele>1521.378</ele>
        <time>2022-05-29T09:09:24Z</time>
      </trkpt>
      <trkpt lat="45.16634" lon="5.58653">
        <ele>1521.498</ele>
        <time>2022-05-29T09:09:29Z</time>
      </trkpt>
      <trkpt lat="45.1664" lon="5.58653">
        <ele>1522.532</ele>
        <time>2022-05-29T09:09:34Z</time>
      </trkpt>
      <trkpt lat="45.16647" lon="5.58653">
        <ele>1524.236</ele>
        <time>2022-05-29T09:09:39Z</time>
      </trkpt>
      <trkpt lat="45.16654" lon="5.58651">
        <ele>1525.134</ele>
        <time>2022-05-29T09:09:44Z</time>
      </trkpt>
      <trkpt lat="45.16661" lon="5.5865">
        <ele>1526.447</ele>
        <time>2022-05-29T09:09:49Z</time>
      </trkpt>
      <trkpt lat="45.16668" lon="5.5865">
        <ele>1529.05</ele>
        <time>2022-05-29T09:09:54Z</time>
      </trkpt>
      <trkpt lat="45.16675" lon="5.58649">
        <ele>1531.382</ele>
        <time>2022-05-29T09:09:59Z</time>
      </trkpt>
      <trkpt lat="45.16681" lon="5.58649">
        <ele>1533.296</ele>
        <time>2022-05-29T09:10:04Z</time>
      </trkpt>
      <trkpt lat="45.1669" lon="5.58652">
        <ele>1532.533</ele>
        <time>2022-05-29T09:10:09Z</time>
      </trkpt>
      <trkpt lat="45.16697" lon="5.58652">
        <ele>1534.52</ele>
        <time>2022-05-29T09:10:14Z</time>
      </trkpt>
      <trkpt lat="45.16704" lon="5.58649">
        <ele>1538.181</ele>
        <time>2022-05-29T09:10:19Z</time>
      </trkpt>
      <trkpt lat="45.16711" lon="5.58644">
        <ele>1541.024</ele>
        <time>2022-05-29T09:10:24Z</time>
      </trkpt>
      <trkpt lat="45.16717" lon="5.58638">
        <ele>1542.305</ele>
        <time>2022-05-29T09:10:29Z</time>
      </trkpt>
      <trkpt lat="45.16722" lon="5.58635">
        <ele>1540.954</ele>
        <time>2022-05-29T09:10:34Z</time>
      </trkpt>
      <trkpt lat="45.16727" lon="5.58631">
        <ele>1543.461</ele>
        <time>2022-05-29T09:10:39Z</time>
      </trkpt>
      <trkpt lat="45.16733" lon="5.58631">
        <ele>1544.228</ele>
        <time>2022-05-29T09:10:44Z</time>
      </trkpt>
      <trkpt lat="45.1674" lon="5.58631">
        <ele>1547.164</ele>
        <time>2022-05-29T09:10:49Z</time>
      </trkpt>
      <trkpt lat="45.16748" lon="5.5863">
        <ele>1544.27</ele>
        <time>2022-05-29T09:10:54Z</time>
      </trkpt>
      <trkpt lat="45.16757" lon="5.5863">
        <ele>1543.942</ele>
        <time>2022-05-29T09:10:59Z</time>
      </trkpt>
      <trkpt lat="45.16765" lon="5.58631">
        <ele>1542.703</ele>
        <time>2022-05-29T09:11:04Z</time>
      </trkpt>
      <trkpt lat="45.16771" lon="5.58632">
        <ele>1540.737</ele>
        <time>2022-05-29T09:11:09Z</time>
      </trkpt>
      <trkpt lat="45.16779" lon="5.58635">
        <ele>1539.951</ele>
        <time>2022-05-29T09:11:14Z</time>
      </trkpt>
      <trkpt lat="45.16787" lon="5.58635">
        <ele>1540.152</ele>
        <time>2022-05-29T09:11:19Z</time>
      </trkpt>
      <trkpt lat="45.16795" lon="5.58636">
        <ele>1542.137</ele>
        <time>2022-05-29T09:11:24Z</time>
      </trkpt>
      <trkpt lat="45.16803" lon="5.58641">
        <ele>1542.128</ele>
        <time>2022-05-29T09:11:29Z</time>
      </trkpt>
      <trkpt lat="45.16811" lon="5.58648">
        <ele>1545.128</ele>
        <time>2022-05-29T09:11:34Z</time>
      </trkpt>
      <trkpt lat="45.16819" lon="5.58649">
        <ele>1547.248</ele>
        <time>2022-05-29T09:11:39Z</time>
      </trkpt>
      <trkpt lat="45.16827" lon="5.5865">
        <ele>1548.073</ele>
        <time>2022-05-29T09:11:44Z</time>
      </trkpt>
      <trkpt lat="45.16835" lon="5.58653">
        <ele>1550.595</ele>
        <time>2022-05-29T09:11:49Z</time>
      </trkpt>
      <trkpt lat="45.16843" lon="5.58653">
        <ele>1551.797</ele>
        <time>2022-05-29T09:11:54Z</time>
      </trkpt>
      <trkpt lat="45.1685" lon="5.58656">
        <ele>1552.601</ele>
        <time>2022-05-29T09:11:59Z</time>
      </trkpt>
      <trkpt lat="45.16857" lon="5.5866">
        <ele>1553.224</ele>
        <time>2022-05-29T09:12:04Z</time>
      </trkpt>
      <trkpt lat="45.16863" lon="5.58663">
        <ele>1553.55</ele>
        <time>2022-05-29T09:12:09Z</time>
      </trkpt>
      <trkpt lat="45.1687" lon="5.58663">
        <ele>1554.331</ele>
        <time>2022-05-29T09:12:14Z</time>
      </trkpt>
      <trkpt lat="45.16877" lon="5.58663">
        <ele>1554.863</ele>
        <time>2022-05-29T09:12:19Z</time>
      </trkpt>
      <trkpt lat="45.16883" lon="5.58661">
        <ele>1554.024</ele>
        <time>2022-05-29T09:12:24Z</time>
      </trkpt>
      <trkpt lat="45.1689" lon="5.58659">
        <ele>1555.509</ele>
        <time>2022-05-29T09:12:29Z</time>
      </trkpt>
      <trkpt lat="45.16896" lon="5.58659">
        <ele>1556.495</ele>
        <time>2022-05-29T09:12:34Z</time>
      </trkpt>
      <trkpt lat="45.16903" lon="5.58658">
        <ele>1557.479</ele>
        <time>2022-05-29T09:12:39Z</time>
      </trkpt>
      <trkpt lat="45.1691" lon="5.58657">
        <ele>1558.782</ele>
        <time>2022-05-29T09:12:44Z</time>
      </trkpt>
      <trkpt lat="45.16916" lon="5.58657">
        <ele>1559.55</ele>
        <time>2022-05-29T09:12:49Z</time>
      </trkpt>
      <trkpt lat="45.16924" lon="5.58657">
        <ele>1560.927</ele>
        <time>2022-05-29T09:12:54Z</time>
      </trkpt>
      <trkpt lat="45.16931" lon="5.58659">
        <ele>1562.027</ele>
        <time>2022-05-29T09:12:59Z</time>
      </trkpt>
      <trkpt lat="45.16939" lon="5.58662">
        <ele>1562.646</ele>
        <time>2022-05-29T09:13:04Z</time>
      </trkpt>
      <trkpt lat="45.16946" lon="5.58666">
        <ele>1563.772</ele>
        <time>2022-05-29T09:13:09Z</time>
      </trkpt>
      <trkpt lat="45.16954" lon="5.58667">
        <ele>1564.724</ele>
        <time>2022-05-29T09:13:14Z</time>
      </trkpt>
      <trkpt lat="45.16962" lon="5.58667">
        <ele>1565.978</ele>
        <time>2022-05-29T09:13:19Z</time>
      </trkpt>
      <trkpt lat="45.16971" lon="5.58668">
        <ele>1567.671</ele>
        <time>2022-05-29T09:13:24Z</time>
      </trkpt>
      <trkpt lat="45.1698" lon="5.5867">
        <ele>1568.405</ele>
        <time>2022-05-29T09:13:29Z</time>
      </trkpt>
      <trkpt lat="45.16988" lon="5.58673">
        <ele>1570.05</ele>
        <time>2022-05-29T09:13:34Z</time>
      </trkpt>
      <trkpt lat="45.16996" lon="5.58678">
        <ele>1571.365</ele>
        <time>2022-05-29T09:13:39Z</time>
      </trkpt>
      <trkpt lat="45.17003" lon="5.58684">
        <ele>1573.531</ele>
        <time>2022-05-29T09:13:44Z</time>
      </trkpt>
      <trkpt lat="45.17011" lon="5.58689">
        <ele>1574.995</ele>
        <time>2022-05-29T09:13:49Z</time>
      </trkpt>
      <trkpt lat="45.17019" lon="5.58692">
        <ele>1577.542</ele>
        <time>2022-05-29T09:13:54Z</time>
      </trkpt>
      <trkpt lat="45.17028" lon="5.58693">
        <ele>1578.011</ele>
        <time>2022-05-29T09:13:59Z</time>
      </trkpt>
      <trkpt lat="45.17036" lon="5.58689">
        <ele>1578.043</ele>
        <time>2022-05-29T09:14:04Z</time>
      </trkpt>
      <trkpt lat="45.17042" lon="5.58684">
        <ele>1578.608</ele>
        <time>2022-05-29T09:14:09Z</time>
      </trkpt>
      <trkpt lat="45.17048" lon="5.58681">
        <ele>1574.825</ele>
        <time>2022-05-29T09:14:14Z</time>
      </trkpt>
      <trkpt lat="45.17055" lon="5.58679">
        <ele>1573.852</ele>
        <time>2022-05-29T09:14:19Z</time>
      </trkpt>
      <trkpt lat="45.17064" lon="5.58678">
        <ele>1576.321</ele>
        <time>2022-05-29T09:14:24Z</time>
      </trkpt>
      <trkpt lat="45.17073" lon="5.58674">
        <ele>1577.703</ele>
        <time>2022-05-29T09:14:29Z</time>
      </trkpt>
      <trkpt lat="45.17081" lon="5.58667">
        <ele>1578.688</ele>
        <time>2022-05-29T09:14:34Z</time>
      </trkpt>
      <trkpt lat="45.1709" lon="5.58662">
        <ele>1578.798</ele>
        <time>2022-05-29T09:14:39Z</time>
      </trkpt>
      <trkpt lat="45.171" lon="5.58661">
        <ele>1577.893</ele>
        <time>2022-05-29T09:14:44Z</time>
      </trkpt>
      <trkpt lat="45.17111" lon="5.58662">
        <ele>1580.438</ele>
        <time>2022-05-29T09:14:49Z</time>
      </trkpt>
      <trkpt lat="45.1712" lon="5.58665">
        <ele>1582.997</ele>
        <time>2022-05-29T09:14:54Z</time>
      </trkpt>
      <trkpt lat="45.17128" lon="5.58669">
        <ele>1585.974</ele>
        <time>2022-05-29T09:14:59Z</time>
      </trkpt>
      <trkpt lat="45.17137" lon="5.58665">
        <ele>1584.427</ele>
        <time>2022-05-29T09:15:04Z</time>
      </trkpt>
      <trkpt lat="45.17144" lon="5.58663">
        <ele>1583.211</ele>
        <time>2022-05-29T09:15:09Z</time>
      </trkpt>
      <trkpt lat="45.1715" lon="5.58661">
        <ele>1582.398</ele>
        <time>2022-05-29T09:15:14Z</time>
      </trkpt>
      <trkpt lat="45.17157" lon="5.58659">
        <ele>1583.229</ele>
        <time>2022-05-29T09:15:19Z</time>
      </trkpt>
      <trkpt lat="45.17167" lon="5.58657">
        <ele>1585.826</ele>
        <time>2022-05-29T09:15:24Z</time>
      </trkpt>
      <trkpt lat="45.17175" lon="5.58659">
        <ele>1587.507</ele>
        <time>2022-05-29T09:15:29Z</time>
      </trkpt>
      <trkpt lat="45.17183" lon="5.58661">
        <ele>1587.788</ele>
        <time>2022-05-29T09:15:34Z</time>
      </trkpt>
      <trkpt lat="45.17191" lon="5.58667">
        <ele>1588.562</ele>
        <time>2022-05-29T09:15:39Z</time>
      </trkpt>
      <trkpt lat="45.17198" lon="5.5867">
        <ele>1589.732</ele>
        <time>2022-05-29T09:15:44Z</time>
      </trkpt>
      <trkpt lat="45.17204" lon="5.58679">
        <ele>1590.318</ele>
        <time>2022-05-29T09:15:49Z</time>
      </trkpt>
      <trkpt lat="45.17211" lon="5.58686">
        <ele>1592.236</ele>
        <time>2022-05-29T09:15:54Z</time>
      </trkpt>
      <trkpt lat="45.17216" lon="5.58693">
        <ele>1591.39</ele>
        <time>2022-05-29T09:15:59Z</time>
      </trkpt>
      <trkpt lat="45.17218" lon="5.58691">
        <ele>1592.606</ele>
        <time>2022-05-29T09:16:04Z</time>
      </trkpt>
      <trkpt lat="45.17224" lon="5.58699">
        <ele>1592.963</ele>
        <time>2022-05-29T09:16:09Z</time>
      </trkpt>
      <trkpt lat="45.17231" lon="5.58708">
        <ele>1592.906</ele>
        <time>2022-05-29T09:16:14Z</time>
      </trkpt>
      <trkpt lat="45.17237" lon="5.58712">
        <ele>1594.923</ele>
        <time>2022-05-29T09:16:19Z</time>
      </trkpt>
      <trkpt lat="45.17246" lon="5.58712">
        <ele>1594.098</ele>
        <time>2022-05-29T09:16:24Z</time>
      </trkpt>
      <trkpt lat="45.17253" lon="5.58711">
        <ele>1594.904</ele>
        <time>2022-05-29T09:16:29Z</time>
      </trkpt>
      <trkpt lat="45.17258" lon="5.58708">
        <ele>1593.059</ele>
        <time>2022-05-29T09:16:34Z</time>
      </trkpt>
      <trkpt lat="45.1726" lon="5.58702">
        <ele>1591.973</ele>
        <time>2022-05-29T09:16:39Z</time>
      </trkpt>
      <trkpt lat="45.1726" lon="5.58694">
        <ele>1591.066</ele>
        <time>2022-05-29T09:16:44Z</time>
      </trkpt>
      <trkpt lat="45.17263" lon="5.58687">
        <ele>1591.011</ele>
        <time>2022-05-29T09:16:49Z</time>
      </trkpt>
      <trkpt lat="45.17267" lon="5.58682">
        <ele>1590.847</ele>
        <time>2022-05-29T09:16:54Z</time>
      </trkpt>
      <trkpt lat="45.17271" lon="5.58678">
        <ele>1591.87</ele>
        <time>2022-05-29T09:16:59Z</time>
      </trkpt>
      <trkpt lat="45.17276" lon="5.58674">
        <ele>1593.051</ele>
        <time>2022-05-29T09:17:04Z</time>
      </trkpt>
      <trkpt lat="45.17281" lon="5.58669">
        <ele>1594.034</ele>
        <time>2022-05-29T09:17:09Z</time>
      </trkpt>
      <trkpt lat="45.17287" lon="5.58669">
        <ele>1595.685</ele>
        <time>2022-05-29T09:17:14Z</time>
      </trkpt>
      <trkpt lat="45.17293" lon="5.58669">
        <ele>1596.087</ele>
        <time>2022-05-29T09:17:19Z</time>
      </trkpt>
      <trkpt lat="45.17299" lon="5.58665">
        <ele>1597.302</ele>
        <time>2022-05-29T09:17:24Z</time>
      </trkpt>
      <trkpt lat="45.17306" lon="5.58663">
        <ele>1599.063</ele>
        <time>2022-05-29T09:17:29Z</time>
      </trkpt>
      <trkpt lat="45.17312" lon="5.58664">
        <ele>1600.179</ele>
        <time>2022-05-29T09:17:34Z</time>
      </trkpt>
      <trkpt lat="45.17319" lon="5.58668">
        <ele>1600.827</ele>
        <time>2022-05-29T09:17:39Z</time>
      </trkpt>
      <trkpt lat="45.17326" lon="5.58671">
        <ele>1601.836</ele>
        <time>2022-05-29T09:17:44Z</time>
      </trkpt>
      <trkpt lat="45.17333" lon="5.58676">
        <ele>1601.494</ele>
        <time>2022-05-29T09:17:49Z</time>
      </trkpt>
      <trkpt lat="45.17342" lon="5.58678">
        <ele>1602.525</ele>
        <time>2022-05-29T09:17:54Z</time>
      </trkpt>
      <trkpt lat="45.1735" lon="5.58678">
        <ele>1603.078</ele>
        <time>2022-05-29T09:17:59Z</time>
      </trkpt>
      <trkpt lat="45.17356" lon="5.58675">
        <ele>1603.523</ele>
        <time>2022-05-29T09:18:04Z</time>
      </trkpt>
      <trkpt lat="45.17362" lon="5.58671">
        <ele>1603.487</ele>
        <time>2022-05-29T09:18:09Z</time>
      </trkpt>
      <trkpt lat="45.17367" lon="5.58667">
        <ele>1602.18</ele>
        <time>2022-05-29T09:18:14Z</time>
      </trkpt>
      <trkpt lat="45.17367" lon="5.5866">
        <ele>1599.677</ele>
        <time>2022-05-29T09:18:19Z</time>
      </trkpt>
      <trkpt lat="45.17359" lon="5.58654">
        <ele>1598.635</ele>
        <time>2022-05-29T09:18:24Z</time>
      </trkpt>
      <trkpt lat="45.17348" lon="5.58643">
        <ele>1596.688</ele>
        <time>2022-05-29T09:18:29Z</time>
      </trkpt>
      <trkpt lat="45.17337" lon="5.58633">
        <ele>1596.345</ele>
        <time>2022-05-29T09:18:34Z</time>
      </trkpt>
      <trkpt lat="45.17328" lon="5.58626">
        <ele>1596.768</ele>
        <time>2022-05-29T09:18:39Z</time>
      </trkpt>
      <trkpt lat="45.17319" lon="5.58619">
        <ele>1596.452</ele>
        <time>2022-05-29T09:18:44Z</time>
      </trkpt>
      <trkpt lat="45.17319" lon="5.58623">
        <ele>1595.754</ele>
        <time>2022-05-29T09:18:49Z</time>
      </trkpt>
      <trkpt lat="45.17318" lon="5.58634">
        <ele>1594.519</ele>
        <time>2022-05-29T09:18:54Z</time>
      </trkpt>
      <trkpt lat="45.1732" lon="5.58645">
        <ele>1595.458</ele>
        <time>2022-05-29T09:18:59Z</time>
      </trkpt>
      <trkpt lat="45.17319" lon="5.58655">
        <ele>1596.996</ele>
        <time>2022-05-29T09:19:04Z</time>
      </trkpt>
      <trkpt lat="45.17318" lon="5.58662">
        <ele>1597.015</ele>
        <time>2022-05-29T09:19:09Z</time>
      </trkpt>
      <trkpt lat="45.17318" lon="5.58668">
        <ele>1597.017</ele>
        <time>2022-05-29T09:19:14Z</time>
      </trkpt>
      <trkpt lat="45.17318" lon="5.58668">
        <ele>1597.004</ele>
        <time>2022-05-29T09:19:19Z</time>
      </trkpt>
      <trkpt lat="45.17318" lon="5.58669">
        <ele>1596.674</ele>
        <time>2022-05-29T09:19:24Z</time>
      </trkpt>
      <trkpt lat="45.17319" lon="5.58669">
        <ele>1597.072</ele>
        <time>2022-05-29T09:19:29Z</time>
      </trkpt>
      <trkpt lat="45.17319" lon="5.58669">
        <ele>1597.146</ele>
        <time>2022-05-29T09:19:34Z</time>
      </trkpt>
      <trkpt lat="45.17319" lon="5.5867">
        <ele>1597.615</ele>
        <time>2022-05-29T09:19:39Z</time>
      </trkpt>
      <trkpt lat="45.17322" lon="5.58669">
        <ele>1597.318</ele>
        <time>2022-05-29T09:19:44Z</time>
      </trkpt>
      <trkpt lat="45.17324" lon="5.58669">
        <ele>1597.696</ele>
        <time>2022-05-29T09:19:49Z</time>
      </trkpt>
      <trkpt lat="45.17324" lon="5.5867">
        <ele>1597.718</ele>
        <time>2022-05-29T09:19:54Z</time>
      </trkpt>
      <trkpt lat="45.17325" lon="5.58669">
        <ele>1598.066</ele>
        <time>2022-05-29T09:19:59Z</time>
      </trkpt>
      <trkpt lat="45.17325" lon="5.58667">
        <ele>1598.37</ele>
        <time>2022-05-29T09:20:04Z</time>
      </trkpt>
      <trkpt lat="45.17325" lon="5.58666">
        <ele>1598.156</ele>
        <time>2022-05-29T09:20:09Z</time>
      </trkpt>
      <trkpt lat="45.17325" lon="5.58667">
        <ele>1598.513</ele>
        <time>2022-05-29T09:20:14Z</time>
      </trkpt>
      <trkpt lat="45.17325" lon="5.58667">
        <ele>1597.757</ele>
        <time>2022-05-29T09:20:19Z</time>
      </trkpt>
      <trkpt lat="45.17325" lon="5.58666">
        <ele>1597.617</ele>
        <time>2022-05-29T09:20:24Z</time>
      </trkpt>
      <trkpt lat="45.17324" lon="5.58661">
        <ele>1597.814</ele>
        <time>2022-05-29T09:20:29Z</time>
      </trkpt>
      <trkpt lat="45.17323" lon="5.58658">
        <ele>1597.969</ele>
        <time>2022-05-29T09:20:34Z</time>
      </trkpt>
      <trkpt lat="45.17322" lon="5.58651">
        <ele>1598.844</ele>
        <time>2022-05-29T09:20:39Z</time>
      </trkpt>
      <trkpt lat="45.17319" lon="5.58646">
        <ele>1599.016</ele>
        <time>2022-05-29T09:20:44Z</time>
      </trkpt>
      <trkpt lat="45.17318" lon="5.58638">
        <ele>1598.069</ele>
        <time>2022-05-29T09:20:49Z</time>
      </trkpt>
      <trkpt lat="45.17319" lon="5.5863">
        <ele>1597.677</ele>
        <time>2022-05-29T09:20:54Z</time>
      </trkpt>
      <trkpt lat="45.1732" lon="5.58624">
        <ele>1598.236</ele>
        <time>2022-05-29T09:20:59Z</time>
      </trkpt>
      <trkpt lat="45.17321" lon="5.58619">
        <ele>1599.311</ele>
        <time>2022-05-29T09:21:04Z</time>
      </trkpt>
      <trkpt lat="45.1732" lon="5.58619">
        <ele>1598.582</ele>
        <time>2022-05-29T09:21:09Z</time>
      </trkpt>
      <trkpt lat="45.17317" lon="5.58617">
        <ele>1598.949</ele>
        <time>2022-05-29T09:21:14Z</time>
      </trkpt>
      <trkpt lat="45.17307" lon="5.58608">
        <ele>1598.265</ele>
        <time>2022-05-29T09:21:19Z</time>
      </trkpt>
      <trkpt lat="45.17296" lon="5.58595">
        <ele>1598.103</ele>
        <time>2022-05-29T09:21:24Z</time>
      </trkpt>
      <trkpt lat="45.17288" lon="5.58587">
        <ele>1598.3</ele>
        <time>2022-05-29T09:21:29Z</time>
      </trkpt>
      <trkpt lat="45.17281" lon="5.5857">
        <ele>1598.043</ele>
        <time>2022-05-29T09:21:34Z</time>
      </trkpt>
      <trkpt lat="45.17277" lon="5.58556">
        <ele>1597.693</ele>
        <time>2022-05-29T09:21:39Z</time>
      </trkpt>
      <trkpt lat="45.17272" lon="5.58541">
        <ele>1598.367</ele>
        <time>2022-05-29T09:21:44Z</time>
      </trkpt>
      <trkpt lat="45.17267" lon="5.58528">
        <ele>1598.732</ele>
        <time>2022-05-29T09:21:49Z</time>
      </trkpt>
      <trkpt lat="45.17262" lon="5.58517">
        <ele>1599.711</ele>
        <time>2022-05-29T09:21:54Z</time>
      </trkpt>
      <trkpt lat="45.17254" lon="5.58507">
        <ele>1600.444</ele>
        <time>2022-05-29T09:21:59Z</time>
      </trkpt>
      <trkpt lat="45.17248" lon="5.58501">
        <ele>1601.17</ele>
        <time>2022-05-29T09:22:04Z</time>
      </trkpt>
      <trkpt lat="45.17242" lon="5.58494">
        <ele>1602.039</ele>
        <time>2022-05-29T09:22:09Z</time>
      </trkpt>
      <trkpt lat="45.17234" lon="5.58484">
        <ele>1603.175</ele>
        <time>2022-05-29T09:22:14Z</time>
      </trkpt>
      <trkpt lat="45.17226" lon="5.58478">
        <ele>1603.93</ele>
        <time>2022-05-29T09:22:19Z</time>
      </trkpt>
      <trkpt lat="45.17218" lon="5.58472">
        <ele>1604.618</ele>
        <time>2022-05-29T09:22:24Z</time>
      </trkpt>
      <trkpt lat="45.17215" lon="5.58469">
        <ele>1605.404</ele>
        <time>2022-05-29T09:22:29Z</time>
      </trkpt>
      <trkpt lat="45.17215" lon="5.58469">
        <ele>1605.083</ele>
        <time>2022-05-29T09:22:34Z</time>
      </trkpt>
      <trkpt lat="45.17215" lon="5.58469">
        <ele>1604.664</ele>
        <time>2022-05-29T09:22:39Z</time>
      </trkpt>
      <trkpt lat="45.17215" lon="5.58468">
        <ele>1604.668</ele>
        <time>2022-05-29T09:22:44Z</time>
      </trkpt>
      <trkpt lat="45.17212" lon="5.58466">
        <ele>1604.43</ele>
        <time>2022-05-29T09:22:49Z</time>
      </trkpt>
      <trkpt lat="45.17207" lon="5.5846">
        <ele>1604.66</ele>
        <time>2022-05-29T09:22:54Z</time>
      </trkpt>
      <trkpt lat="45.17199" lon="5.58458">
        <ele>1605.444</ele>
        <time>2022-05-29T09:22:59Z</time>
      </trkpt>
      <trkpt lat="45.17192" lon="5.58456">
        <ele>1606.61</ele>
        <time>2022-05-29T09:23:04Z</time>
      </trkpt>
      <trkpt lat="45.17186" lon="5.58453">
        <ele>1608.06</ele>
        <time>2022-05-29T09:23:09Z</time>
      </trkpt>
      <trkpt lat="45.17179" lon="5.58449">
        <ele>1609.335</ele>
        <time>2022-05-29T09:23:14Z</time>
      </trkpt>
      <trkpt lat="45.17175" lon="5.58448">
        <ele>1609.612</ele>
        <time>2022-05-29T09:23:19Z</time>
      </trkpt>
      <trkpt lat="45.17172" lon="5.58447">
        <ele>1611.663</ele>
        <time>2022-05-29T09:23:24Z</time>
      </trkpt>
      <trkpt lat="45.17168" lon="5.58443">
        <ele>1612.873</ele>
        <time>2022-05-29T09:23:29Z</time>
      </trkpt>
      <trkpt lat="45.17166" lon="5.58442">
        <ele>1613.992</ele>
        <time>2022-05-29T09:23:34Z</time>
      </trkpt>
      <trkpt lat="45.17163" lon="5.58439">
        <ele>1614.95</ele>
        <time>2022-05-29T09:23:39Z</time>
      </trkpt>
      <trkpt lat="45.1716" lon="5.58437">
        <ele>1616.262</ele>
        <time>2022-05-29T09:23:44Z</time>
      </trkpt>
      <trkpt lat="45.17157" lon="5.58434">
        <ele>1617.034</ele>
        <time>2022-05-29T09:23:49Z</time>
      </trkpt>
      <trkpt lat="45.17154" lon="5.58431">
        <ele>1617.698</ele>
        <time>2022-05-29T09:23:54Z</time>
      </trkpt>
      <trkpt lat="45.17152" lon="5.58429">
        <ele>1617.308</ele>
        <time>2022-05-29T09:23:59Z</time>
      </trkpt>
      <trkpt lat="45.1715" lon="5.58425">
        <ele>1619.024</ele>
        <time>2022-05-29T09:24:04Z</time>
      </trkpt>
      <trkpt lat="45.17148" lon="5.58422">
        <ele>1619.278</ele>
        <time>2022-05-29T09:24:09Z</time>
      </trkpt>
      <trkpt lat="45.17146" lon="5.58421">
        <ele>1619.491</ele>
        <time>2022-05-29T09:24:14Z</time>
      </trkpt>
      <trkpt lat="45.17146" lon="5.58421">
        <ele>1619.284</ele>
        <time>2022-05-29T09:24:19Z</time>
      </trkpt>
      <trkpt lat="45.17145" lon="5.5842">
        <ele>1619.223</ele>
        <time>2022-05-29T09:24:24Z</time>
      </trkpt>
      <trkpt lat="45.17143" lon="5.58418">
        <ele>1620.089</ele>
        <time>2022-05-29T09:24:29Z</time>
      </trkpt>
      <trkpt lat="45.17139" lon="5.58414">
        <ele>1621.654</ele>
        <time>2022-05-29T09:24:34Z</time>
      </trkpt>
      <trkpt lat="45.17137" lon="5.58412">
        <ele>1622.054</ele>
        <time>2022-05-29T09:24:39Z</time>
      </trkpt>
      <trkpt lat="45.17134" lon="5.58408">
        <ele>1623.477</ele>
        <time>2022-05-29T09:24:44Z</time>
      </trkpt>
      <trkpt lat="45.17129" lon="5.58401">
        <ele>1623.972</ele>
        <time>2022-05-29T09:24:49Z</time>
      </trkpt>
      <trkpt lat="45.17124" lon="5.58393">
        <ele>1625.118</ele>
        <time>2022-05-29T09:24:54Z</time>
      </trkpt>
      <trkpt lat="45.17117" lon="5.58389">
        <ele>1627.676</ele>
        <time>2022-05-29T09:24:59Z</time>
      </trkpt>
      <trkpt lat="45.17111" lon="5.58383">
        <ele>1630.454</ele>
        <time>2022-05-29T09:25:04Z</time>
      </trkpt>
      <trkpt lat="45.17106" lon="5.58379">
        <ele>1633.071</ele>
        <time>2022-05-29T09:25:09Z</time>
      </trkpt>
      <trkpt lat="45.17105" lon="5.58378">
        <ele>1633.874</ele>
        <time>2022-05-29T09:25:14Z</time>
      </trkpt>
      <trkpt lat="45.17103" lon="5.58376">
        <ele>1634.551</ele>
        <time>2022-05-29T09:25:19Z</time>
      </trkpt>
      <trkpt lat="45.171" lon="5.58373">
        <ele>1634.719</ele>
        <time>2022-05-29T09:25:24Z</time>
      </trkpt>
      <trkpt lat="45.17099" lon="5.58372">
        <ele>1633.992</ele>
        <time>2022-05-29T09:25:29Z</time>
      </trkpt>
      <trkpt lat="45.17097" lon="5.58369">
        <ele>1634.78</ele>
        <time>2022-05-29T09:25:34Z</time>
      </trkpt>
      <trkpt lat="45.17096" lon="5.58368">
        <ele>1636.066</ele>
        <time>2022-05-29T09:25:39Z</time>
      </trkpt>
      <trkpt lat="45.17097" lon="5.58366">
        <ele>1636.204</ele>
        <time>2022-05-29T09:25:44Z</time>
      </trkpt>
      <trkpt lat="45.17097" lon="5.58365">
        <ele>1636.504</ele>
        <time>2022-05-29T09:25:49Z</time>
      </trkpt>
      <trkpt lat="45.17097" lon="5.58366">
        <ele>1635.39</ele>
        <time>2022-05-29T09:25:54Z</time>
      </trkpt>
      <trkpt lat="45.17097" lon="5.58365">
        <ele>1635.087</ele>
        <time>2022-05-29T09:25:59Z</time>
      </trkpt>
      <trkpt lat="45.17097" lon="5.58365">
        <ele>1634.986</ele>
        <time>2022-05-29T09:26:04Z</time>
      </trkpt>
      <trkpt lat="45.17097" lon="5.58364">
        <ele>1636.57</ele>
        <time>2022-05-29T09:26:09Z</time>
      </trkpt>
      <trkpt lat="45.17097" lon="5.58364">
        <ele>1636.43</ele>
        <time>2022-05-29T09:26:14Z</time>
      </trkpt>
      <trkpt lat="45.17097" lon="5.58364">
        <ele>1635.662</ele>
        <time>2022-05-29T09:26:19Z</time>
      </trkpt>
      <trkpt lat="45.17097" lon="5.58364">
        <ele>1635.373</ele>
        <time>2022-05-29T09:26:24Z</time>
      </trkpt>
      <trkpt lat="45.17097" lon="5.58364">
        <ele>1636.27</ele>
        <time>2022-05-29T09:26:29Z</time>
      </trkpt>
      <trkpt lat="45.17097" lon="5.58364">
        <ele>1636.314</ele>
        <time>2022-05-29T09:26:34Z</time>
      </trkpt>
      <trkpt lat="45.17097" lon="5.58364">
        <ele>1636.315</ele>
        <time>2022-05-29T09:26:39Z</time>
      </trkpt>
      <trkpt lat="45.17097" lon="5.58364">
        <ele>1636.32</ele>
        <time>2022-05-29T09:26:44Z</time>
      </trkpt>
      <trkpt lat="45.17097" lon="5.58364">
        <ele>1635.776</ele>
        <time>2022-05-29T09:26:49Z</time>
      </trkpt>
      <trkpt lat="45.17097" lon="5.58365">
        <ele>1635.713</ele>
        <time>2022-05-29T09:26:54Z</time>
      </trkpt>
      <trkpt lat="45.17097" lon="5.58365">
        <ele>1636.038</ele>
        <time>2022-05-29T09:26:59Z</time>
      </trkpt>
      <trkpt lat="45.17097" lon="5.58365">
        <ele>1636.04</ele>
        <time>2022-05-29T09:27:04Z</time>
      </trkpt>
      <trkpt lat="45.17097" lon="5.58365">
        <ele>1636.035</ele>
        <time>2022-05-29T09:27:09Z</time>
      </trkpt>
      <trkpt lat="45.17097" lon="5.58365">
        <ele>1636.029</ele>
        <time>2022-05-29T09:27:14Z</time>
      </trkpt>
      <trkpt lat="45.17096" lon="5.58366">
        <ele>1636.241</ele>
        <time>2022-05-29T09:27:19Z</time>
      </trkpt>
      <trkpt lat="45.17095" lon="5.58366">
        <ele>1636.314</ele>
        <time>2022-05-29T09:27:24Z</time>
      </trkpt>
      <trkpt lat="45.17093" lon="5.58364">
        <ele>1636.526</ele>
        <time>2022-05-29T09:27:29Z</time>
      </trkpt>
      <trkpt lat="45.1709" lon="5.58365">
        <ele>1637.538</ele>
        <time>2022-05-29T09:27:34Z</time>
      </trkpt>
      <trkpt lat="45.17086" lon="5.58365">
        <ele>1638.292</ele>
        <time>2022-05-29T09:27:39Z</time>
      </trkpt>
      <trkpt lat="45.17086" lon="5.58364">
        <ele>1638.876</ele>
        <time>2022-05-29T09:27:44Z</time>
      </trkpt>
      <trkpt lat="45.17085" lon="5.58363">
        <ele>1639.742</ele>
        <time>2022-05-29T09:27:49Z</time>
      </trkpt>
      <trkpt lat="45.17079" lon="5.58361">
        <ele>1640.888</ele>
        <time>2022-05-29T09:27:54Z</time>
      </trkpt>
      <trkpt lat="45.17073" lon="5.58359">
        <ele>1641.65</ele>
        <time>2022-05-29T09:27:59Z</time>
      </trkpt>
      <trkpt lat="45.17067" lon="5.58357">
        <ele>1642.173</ele>
        <time>2022-05-29T09:28:04Z</time>
      </trkpt>
      <trkpt lat="45.17063" lon="5.58354">
        <ele>1643.063</ele>
        <time>2022-05-29T09:28:09Z</time>
      </trkpt>
      <trkpt lat="45.17059" lon="5.58351">
        <ele>1643.296</ele>
        <time>2022-05-29T09:28:14Z</time>
      </trkpt>
      <trkpt lat="45.17055" lon="5.5835">
        <ele>1643.143</ele>
        <time>2022-05-29T09:28:19Z</time>
      </trkpt>
      <trkpt lat="45.17047" lon="5.58347">
        <ele>1644.573</ele>
        <time>2022-05-29T09:28:24Z</time>
      </trkpt>
      <trkpt lat="45.17041" lon="5.58346">
        <ele>1646.405</ele>
        <time>2022-05-29T09:28:29Z</time>
      </trkpt>
      <trkpt lat="45.17034" lon="5.58348">
        <ele>1648.843</ele>
        <time>2022-05-29T09:28:34Z</time>
      </trkpt>
      <trkpt lat="45.17027" lon="5.58351">
        <ele>1652.014</ele>
        <time>2022-05-29T09:28:39Z</time>
      </trkpt>
      <trkpt lat="45.17021" lon="5.58351">
        <ele>1652.899</ele>
        <time>2022-05-29T09:28:44Z</time>
      </trkpt>
      <trkpt lat="45.17015" lon="5.58351">
        <ele>1655.116</ele>
        <time>2022-05-29T09:28:49Z</time>
      </trkpt>
      <trkpt lat="45.17009" lon="5.58353">
        <ele>1656.438</ele>
        <time>2022-05-29T09:28:54Z</time>
      </trkpt>
      <trkpt lat="45.17003" lon="5.58354">
        <ele>1658.539</ele>
        <time>2022-05-29T09:28:59Z</time>
      </trkpt>
      <trkpt lat="45.16997" lon="5.58357">
        <ele>1659.521</ele>
        <time>2022-05-29T09:29:04Z</time>
      </trkpt>
      <trkpt lat="45.16991" lon="5.58361">
        <ele>1661.352</ele>
        <time>2022-05-29T09:29:09Z</time>
      </trkpt>
      <trkpt lat="45.16986" lon="5.58365">
        <ele>1662.552</ele>
        <time>2022-05-29T09:29:14Z</time>
      </trkpt>
      <trkpt lat="45.16982" lon="5.58371">
        <ele>1664.087</ele>
        <time>2022-05-29T09:29:19Z</time>
      </trkpt>
      <trkpt lat="45.16981" lon="5.58378">
        <ele>1665.401</ele>
        <time>2022-05-29T09:29:24Z</time>
      </trkpt>
      <trkpt lat="45.16984" lon="5.58383">
        <ele>1665.718</ele>
        <time>2022-05-29T09:29:29Z</time>
      </trkpt>
      <trkpt lat="45.16986" lon="5.58386">
        <ele>1665.95</ele>
        <time>2022-05-29T09:29:34Z</time>
      </trkpt>
      <trkpt lat="45.16987" lon="5.58389">
        <ele>1665.384</ele>
        <time>2022-05-29T09:29:39Z</time>
      </trkpt>
      <trkpt lat="45.16986" lon="5.58389">
        <ele>1665.343</ele>
        <time>2022-05-29T09:29:44Z</time>
      </trkpt>
      <trkpt lat="45.16986" lon="5.5839">
        <ele>1664.929</ele>
        <time>2022-05-29T09:29:49Z</time>
      </trkpt>
      <trkpt lat="45.16986" lon="5.5839">
        <ele>1664.906</ele>
        <time>2022-05-29T09:29:54Z</time>
      </trkpt>
      <trkpt lat="45.16986" lon="5.5839">
        <ele>1664.922</ele>
        <time>2022-05-29T09:29:59Z</time>
      </trkpt>
      <trkpt lat="45.16987" lon="5.5839">
        <ele>1665.809</ele>
        <time>2022-05-29T09:30:04Z</time>
      </trkpt>
      <trkpt lat="45.16987" lon="5.5839">
        <ele>1666.729</ele>
        <time>2022-05-29T09:30:09Z</time>
      </trkpt>
      <trkpt lat="45.16987" lon="5.58391">
        <ele>1667.362</ele>
        <time>2022-05-29T09:30:14Z</time>
      </trkpt>
      <trkpt lat="45.16988" lon="5.58391">
        <ele>1667.376</ele>
        <time>2022-05-29T09:30:19Z</time>
      </trkpt>
      <trkpt lat="45.16988" lon="5.58391">
        <ele>1667.373</ele>
        <time>2022-05-29T09:30:24Z</time>
      </trkpt>
      <trkpt lat="45.16988" lon="5.58391">
        <ele>1667.376</ele>
        <time>2022-05-29T09:30:29Z</time>
      </trkpt>
      <trkpt lat="45.16988" lon="5.58391">
        <ele>1667.381</ele>
        <time>2022-05-29T09:30:34Z</time>
      </trkpt>
      <trkpt lat="45.16988" lon="5.58391">
        <ele>1667.384</ele>
        <time>2022-05-29T09:30:39Z</time>
      </trkpt>
      <trkpt lat="45.16987" lon="5.58391">
        <ele>1666.311</ele>
        <time>2022-05-29T09:30:44Z</time>
      </trkpt>
      <trkpt lat="45.16986" lon="5.58391">
        <ele>1665.295</ele>
        <time>2022-05-29T09:30:49Z</time>
      </trkpt>
      <trkpt lat="45.16986" lon="5.58391">
        <ele>1665.266</ele>
        <time>2022-05-29T09:30:54Z</time>
      </trkpt>
      <trkpt lat="45.16986" lon="5.58391">
        <ele>1665.261</ele>
        <time>2022-05-29T09:30:59Z</time>
      </trkpt>
      <trkpt lat="45.16986" lon="5.58391">
        <ele>1665.258</ele>
        <time>2022-05-29T09:31:04Z</time>
      </trkpt>
      <trkpt lat="45.16986" lon="5.58391">
        <ele>1665.251</ele>
        <time>2022-05-29T09:31:09Z</time>
      </trkpt>
      <trkpt lat="45.16986" lon="5.58391">
        <ele>1665.249</ele>
        <time>2022-05-29T09:31:14Z</time>
      </trkpt>
      <trkpt lat="45.16986" lon="5.58391">
        <ele>1665.244</ele>
        <time>2022-05-29T09:31:19Z</time>
      </trkpt>
      <trkpt lat="45.16986" lon="5.58391">
        <ele>1665.237</ele>
        <time>2022-05-29T09:31:24Z</time>
      </trkpt>
      <trkpt lat="45.16986" lon="5.58391">
        <ele>1665.232</ele>
        <time>2022-05-29T09:31:29Z</time>
      </trkpt>
      <trkpt lat="45.16986" lon="5.58391">
        <ele>1665.224</ele>
        <time>2022-05-29T09:31:34Z</time>
      </trkpt>
      <trkpt lat="45.16986" lon="5.58391">
        <ele>1665.227</ele>
        <time>2022-05-29T09:31:39Z</time>
      </trkpt>
      <trkpt lat="45.16986" lon="5.58391">
        <ele>1665.233</ele>
        <time>2022-05-29T09:31:44Z</time>
      </trkpt>
      <trkpt lat="45.16986" lon="5.58391">
        <ele>1665.239</ele>
        <time>2022-05-29T09:31:49Z</time>
      </trkpt>
      <trkpt lat="45.16986" lon="5.58391">
        <ele>1665.24</ele>
        <time>2022-05-29T09:31:54Z</time>
      </trkpt>
      <trkpt lat="45.16986" lon="5.58391">
        <ele>1665.244</ele>
        <time>2022-05-29T09:31:59Z</time>
      </trkpt>
      <trkpt lat="45.16986" lon="5.58391">
        <ele>1665.248</ele>
        <time>2022-05-29T09:32:04Z</time>
      </trkpt>
      <trkpt lat="45.16986" lon="5.58391">
        <ele>1665.258</ele>
        <time>2022-05-29T09:32:09Z</time>
      </trkpt>
      <trkpt lat="45.16986" lon="5.58391">
        <ele>1665.267</ele>
        <time>2022-05-29T09:32:14Z</time>
      </trkpt>
      <trkpt lat="45.16986" lon="5.58391">
        <ele>1665.275</ele>
        <time>2022-05-29T09:32:19Z</time>
      </trkpt>
      <trkpt lat="45.16986" lon="5.58391">
        <ele>1665.29</ele>
        <time>2022-05-29T09:32:24Z</time>
      </trkpt>
      <trkpt lat="45.16986" lon="5.58391">
        <ele>1666.024</ele>
        <time>2022-05-29T09:32:29Z</time>
      </trkpt>
      <trkpt lat="45.16986" lon="5.5839">
        <ele>1666.636</ele>
        <time>2022-05-29T09:32:34Z</time>
      </trkpt>
      <trkpt lat="45.16986" lon="5.5839">
        <ele>1667.366</ele>
        <time>2022-05-29T09:32:39Z</time>
      </trkpt>
      <trkpt lat="45.16987" lon="5.5839">
        <ele>1667.471</ele>
        <time>2022-05-29T09:32:44Z</time>
      </trkpt>
      <trkpt lat="45.16986" lon="5.5839">
        <ele>1667.174</ele>
        <time>2022-05-29T09:32:49Z</time>
      </trkpt>
      <trkpt lat="45.16986" lon="5.5839">
        <ele>1668.932</ele>
        <time>2022-05-29T09:32:54Z</time>
      </trkpt>
      <trkpt lat="45.16987" lon="5.5839">
        <ele>1669.044</ele>
        <time>2022-05-29T09:32:59Z</time>
      </trkpt>
      <trkpt lat="45.16986" lon="5.58391">
        <ele>1669.646</ele>
        <time>2022-05-29T09:33:04Z</time>
      </trkpt>
      <trkpt lat="45.16986" lon="5.5839">
        <ele>1669.735</ele>
        <time>2022-05-29T09:33:09Z</time>
      </trkpt>
      <trkpt lat="45.16986" lon="5.58389">
        <ele>1670.233</ele>
        <time>2022-05-29T09:33:14Z</time>
      </trkpt>
      <trkpt lat="45.16986" lon="5.58389">
        <ele>1670.24</ele>
        <time>2022-05-29T09:33:19Z</time>
      </trkpt>
      <trkpt lat="45.16986" lon="5.58386">
        <ele>1669.798</ele>
        <time>2022-05-29T09:33:24Z</time>
      </trkpt>
      <trkpt lat="45.16985" lon="5.58387">
        <ele>1669.528</ele>
        <time>2022-05-29T09:33:29Z</time>
      </trkpt>
      <trkpt lat="45.16985" lon="5.58386">
        <ele>1668.864</ele>
        <time>2022-05-29T09:33:34Z</time>
      </trkpt>
      <trkpt lat="45.16986" lon="5.58386">
        <ele>1668.997</ele>
        <time>2022-05-29T09:33:39Z</time>
      </trkpt>
      <trkpt lat="45.16986" lon="5.58386">
        <ele>1668.984</ele>
        <time>2022-05-29T09:33:44Z</time>
      </trkpt>
      <trkpt lat="45.16986" lon="5.58386">
        <ele>1668.985</ele>
        <time>2022-05-29T09:33:49Z</time>
      </trkpt>
      <trkpt lat="45.16985" lon="5.58387">
        <ele>1668.843</ele>
        <time>2022-05-29T09:33:54Z</time>
      </trkpt>
      <trkpt lat="45.16986" lon="5.58388">
        <ele>1668.94</ele>
        <time>2022-05-29T09:33:59Z</time>
      </trkpt>
      <trkpt lat="45.16986" lon="5.58388">
        <ele>1668.724</ele>
        <time>2022-05-29T09:34:04Z</time>
      </trkpt>
      <trkpt lat="45.16986" lon="5.58389">
        <ele>1668.988</ele>
        <time>2022-05-29T09:34:09Z</time>
      </trkpt>
      <trkpt lat="45.16986" lon="5.58389">
        <ele>1669.483</ele>
        <time>2022-05-29T09:34:14Z</time>
      </trkpt>
      <trkpt lat="45.16987" lon="5.58389">
        <ele>1669.507</ele>
        <time>2022-05-29T09:34:19Z</time>
      </trkpt>
      <trkpt lat="45.16986" lon="5.58388">
        <ele>1668.76</ele>
        <time>2022-05-29T09:34:24Z</time>
      </trkpt>
      <trkpt lat="45.16987" lon="5.58387">
        <ele>1668.557</ele>
        <time>2022-05-29T09:34:29Z</time>
      </trkpt>
      <trkpt lat="45.16987" lon="5.58386">
        <ele>1668.607</ele>
        <time>2022-05-29T09:34:34Z</time>
      </trkpt>
      <trkpt lat="45.16987" lon="5.58386">
        <ele>1668.606</ele>
        <time>2022-05-29T09:34:39Z</time>
      </trkpt>
      <trkpt lat="45.16987" lon="5.58386">
        <ele>1668.612</ele>
        <time>2022-05-29T09:34:44Z</time>
      </trkpt>
      <trkpt lat="45.16987" lon="5.58386">
        <ele>1668.604</ele>
        <time>2022-05-29T09:34:49Z</time>
      </trkpt>
      <trkpt lat="45.16987" lon="5.58386">
        <ele>1668.597</ele>
        <time>2022-05-29T09:34:54Z</time>
      </trkpt>
      <trkpt lat="45.16987" lon="5.58386">
        <ele>1668.59</ele>
        <time>2022-05-29T09:34:59Z</time>
      </trkpt>
      <trkpt lat="45.16986" lon="5.58386">
        <ele>1668.5</ele>
        <time>2022-05-29T09:35:04Z</time>
      </trkpt>
      <trkpt lat="45.16987" lon="5.58385">
        <ele>1669.035</ele>
        <time>2022-05-29T09:35:09Z</time>
      </trkpt>
      <trkpt lat="45.16988" lon="5.58385">
        <ele>1669.325</ele>
        <time>2022-05-29T09:35:14Z</time>
      </trkpt>
      <trkpt lat="45.16988" lon="5.58385">
        <ele>1669.487</ele>
        <time>2022-05-29T09:35:19Z</time>
      </trkpt>
      <trkpt lat="45.16988" lon="5.58385">
        <ele>1669.508</ele>
        <time>2022-05-29T09:35:24Z</time>
      </trkpt>
      <trkpt lat="45.16988" lon="5.58385">
        <ele>1669.504</ele>
        <time>2022-05-29T09:35:29Z</time>
      </trkpt>
      <trkpt lat="45.16988" lon="5.58385">
        <ele>1669.037</ele>
        <time>2022-05-29T09:35:34Z</time>
      </trkpt>
      <trkpt lat="45.16986" lon="5.58384">
        <ele>1668.273</ele>
        <time>2022-05-29T09:35:39Z</time>
      </trkpt>
      <trkpt lat="45.16985" lon="5.58385">
        <ele>1667.92</ele>
        <time>2022-05-29T09:35:44Z</time>
      </trkpt>
      <trkpt lat="45.16985" lon="5.58385">
        <ele>1667.954</ele>
        <time>2022-05-29T09:35:49Z</time>
      </trkpt>
      <trkpt lat="45.16985" lon="5.58385">
        <ele>1667.999</ele>
        <time>2022-05-29T09:35:54Z</time>
      </trkpt>
      <trkpt lat="45.16985" lon="5.58385">
        <ele>1668.001</ele>
        <time>2022-05-29T09:35:59Z</time>
      </trkpt>
      <trkpt lat="45.16985" lon="5.58385">
        <ele>1668.002</ele>
        <time>2022-05-29T09:36:04Z</time>
      </trkpt>
      <trkpt lat="45.16985" lon="5.58385">
        <ele>1668.003</ele>
        <time>2022-05-29T09:36:09Z</time>
      </trkpt>
      <trkpt lat="45.16986" lon="5.58385">
        <ele>1667.857</ele>
        <time>2022-05-29T09:36:14Z</time>
      </trkpt>
      <trkpt lat="45.16986" lon="5.58385">
        <ele>1667.941</ele>
        <time>2022-05-29T09:36:19Z</time>
      </trkpt>
      <trkpt lat="45.16987" lon="5.58385">
        <ele>1667.988</ele>
        <time>2022-05-29T09:36:24Z</time>
      </trkpt>
      <trkpt lat="45.16988" lon="5.58385">
        <ele>1667.982</ele>
        <time>2022-05-29T09:36:29Z</time>
      </trkpt>
      <trkpt lat="45.16988" lon="5.58385">
        <ele>1667.986</ele>
        <time>2022-05-29T09:36:34Z</time>
      </trkpt>
      <trkpt lat="45.16988" lon="5.58385">
        <ele>1667.99</ele>
        <time>2022-05-29T09:36:39Z</time>
      </trkpt>
      <trkpt lat="45.16988" lon="5.58385">
        <ele>1667.992</ele>
        <time>2022-05-29T09:36:44Z</time>
      </trkpt>
      <trkpt lat="45.16988" lon="5.58385">
        <ele>1668.003</ele>
        <time>2022-05-29T09:36:49Z</time>
      </trkpt>
      <trkpt lat="45.16988" lon="5.58385">
        <ele>1668.01</ele>
        <time>2022-05-29T09:36:54Z</time>
      </trkpt>
      <trkpt lat="45.16988" lon="5.58385">
        <ele>1668.02</ele>
        <time>2022-05-29T09:36:59Z</time>
      </trkpt>
      <trkpt lat="45.16988" lon="5.58385">
        <ele>1668.03</ele>
        <time>2022-05-29T09:37:04Z</time>
      </trkpt>
      <trkpt lat="45.16988" lon="5.58385">
        <ele>1668.042</ele>
        <time>2022-05-29T09:37:09Z</time>
      </trkpt>
      <trkpt lat="45.16988" lon="5.58385">
        <ele>1668.056</ele>
        <time>2022-05-29T09:37:14Z</time>
      </trkpt>
      <trkpt lat="45.16988" lon="5.58385">
        <ele>1668.065</ele>
        <time>2022-05-29T09:37:19Z</time>
      </trkpt>
      <trkpt lat="45.16988" lon="5.58385">
        <ele>1668.075</ele>
        <time>2022-05-29T09:37:24Z</time>
      </trkpt>
      <trkpt lat="45.16988" lon="5.58385">
        <ele>1668.085</ele>
        <time>2022-05-29T09:37:29Z</time>
      </trkpt>
      <trkpt lat="45.16988" lon="5.58385">
        <ele>1668.086</ele>
        <time>2022-05-29T09:37:34Z</time>
      </trkpt>
      <trkpt lat="45.16988" lon="5.58385">
        <ele>1668.091</ele>
        <time>2022-05-29T09:37:39Z</time>
      </trkpt>
      <trkpt lat="45.16988" lon="5.58385">
        <ele>1668.091</ele>
        <time>2022-05-29T09:37:44Z</time>
      </trkpt>
      <trkpt lat="45.16988" lon="5.58385">
        <ele>1668.095</ele>
        <time>2022-05-29T09:37:49Z</time>
      </trkpt>
      <trkpt lat="45.16988" lon="5.58385">
        <ele>1668.435</ele>
        <time>2022-05-29T09:37:54Z</time>
      </trkpt>
      <trkpt lat="45.16988" lon="5.58385">
        <ele>1669.241</ele>
        <time>2022-05-29T09:37:59Z</time>
      </trkpt>
      <trkpt lat="45.16988" lon="5.58385">
        <ele>1669.773</ele>
        <time>2022-05-29T09:38:04Z</time>
      </trkpt>
      <trkpt lat="45.16988" lon="5.58385">
        <ele>1669.672</ele>
        <time>2022-05-29T09:38:09Z</time>
      </trkpt>
      <trkpt lat="45.16988" lon="5.58385">
        <ele>1669.667</ele>
        <time>2022-05-29T09:38:14Z</time>
      </trkpt>
      <trkpt lat="45.16988" lon="5.58385">
        <ele>1669.666</ele>
        <time>2022-05-29T09:38:19Z</time>
      </trkpt>
      <trkpt lat="45.16988" lon="5.58385">
        <ele>1669.668</ele>
        <time>2022-05-29T09:38:24Z</time>
      </trkpt>
      <trkpt lat="45.16988" lon="5.58385">
        <ele>1669.671</ele>
        <time>2022-05-29T09:38:29Z</time>
      </trkpt>
      <trkpt lat="45.16988" lon="5.58385">
        <ele>1669.671</ele>
        <time>2022-05-29T09:38:34Z</time>
      </trkpt>
      <trkpt lat="45.16988" lon="5.58385">
        <ele>1669.668</ele>
        <time>2022-05-29T09:38:39Z</time>
      </trkpt>
      <trkpt lat="45.16988" lon="5.58385">
        <ele>1669.665</ele>
        <time>2022-05-29T09:38:44Z</time>
      </trkpt>
      <trkpt lat="45.16988" lon="5.58385">
        <ele>1669.656</ele>
        <time>2022-05-29T09:38:49Z</time>
      </trkpt>
      <trkpt lat="45.16988" lon="5.58385">
        <ele>1669.634</ele>
        <time>2022-05-29T09:38:54Z</time>
      </trkpt>
      <trkpt lat="45.16987" lon="5.58385">
        <ele>1668.217</ele>
        <time>2022-05-29T09:38:59Z</time>
      </trkpt>
      <trkpt lat="45.16986" lon="5.58385">
        <ele>1667.269</ele>
        <time>2022-05-29T09:39:04Z</time>
      </trkpt>
      <trkpt lat="45.16986" lon="5.58384">
        <ele>1667.807</ele>
        <time>2022-05-29T09:39:09Z</time>
      </trkpt>
      <trkpt lat="45.16985" lon="5.58384">
        <ele>1667.938</ele>
        <time>2022-05-29T09:39:14Z</time>
      </trkpt>
      <trkpt lat="45.16985" lon="5.58384">
        <ele>1667.943</ele>
        <time>2022-05-29T09:39:19Z</time>
      </trkpt>
      <trkpt lat="45.16985" lon="5.58384">
        <ele>1667.944</ele>
        <time>2022-05-29T09:39:24Z</time>
      </trkpt>
      <trkpt lat="45.16985" lon="5.58384">
        <ele>1667.945</ele>
        <time>2022-05-29T09:39:29Z</time>
      </trkpt>
      <trkpt lat="45.16985" lon="5.58384">
        <ele>1667.946</ele>
        <time>2022-05-29T09:39:34Z</time>
      </trkpt>
      <trkpt lat="45.16985" lon="5.58384">
        <ele>1667.946</ele>
        <time>2022-05-29T09:39:39Z</time>
      </trkpt>
      <trkpt lat="45.16985" lon="5.58384">
        <ele>1667.947</ele>
        <time>2022-05-29T09:39:44Z</time>
      </trkpt>
      <trkpt lat="45.16985" lon="5.58384">
        <ele>1667.954</ele>
        <time>2022-05-29T09:39:49Z</time>
      </trkpt>
      <trkpt lat="45.16985" lon="5.58384">
        <ele>1667.954</ele>
        <time>2022-05-29T09:39:54Z</time>
      </trkpt>
      <trkpt lat="45.16985" lon="5.58384">
        <ele>1667.954</ele>
        <time>2022-05-29T09:39:59Z</time>
      </trkpt>
      <trkpt lat="45.16985" lon="5.58384">
        <ele>1667.958</ele>
        <time>2022-05-29T09:40:04Z</time>
      </trkpt>
      <trkpt lat="45.16985" lon="5.58384">
        <ele>1667.961</ele>
        <time>2022-05-29T09:40:09Z</time>
      </trkpt>
      <trkpt lat="45.16985" lon="5.58384">
        <ele>1667.964</ele>
        <time>2022-05-29T09:40:14Z</time>
      </trkpt>
      <trkpt lat="45.16985" lon="5.58384">
        <ele>1667.975</ele>
        <time>2022-05-29T09:40:19Z</time>
      </trkpt>
      <trkpt lat="45.16985" lon="5.58384">
        <ele>1667.969</ele>
        <time>2022-05-29T09:40:24Z</time>
      </trkpt>
      <trkpt lat="45.16985" lon="5.58384">
        <ele>1667.946</ele>
        <time>2022-05-29T09:40:29Z</time>
      </trkpt>
      <trkpt lat="45.16985" lon="5.58384">
        <ele>1667.936</ele>
        <time>2022-05-29T09:40:34Z</time>
      </trkpt>
      <trkpt lat="45.16985" lon="5.58384">
        <ele>1667.928</ele>
        <time>2022-05-29T09:40:39Z</time>
      </trkpt>
      <trkpt lat="45.16985" lon="5.58384">
        <ele>1667.924</ele>
        <time>2022-05-29T09:40:44Z</time>
      </trkpt>
      <trkpt lat="45.16985" lon="5.58384">
        <ele>1667.921</ele>
        <time>2022-05-29T09:40:49Z</time>
      </trkpt>
      <trkpt lat="45.16985" lon="5.58384">
        <ele>1667.908</ele>
        <time>2022-05-29T09:40:54Z</time>
      </trkpt>
      <trkpt lat="45.16985" lon="5.58384">
        <ele>1667.906</ele>
        <time>2022-05-29T09:40:59Z</time>
      </trkpt>
      <trkpt lat="45.16985" lon="5.58384">
        <ele>1667.904</ele>
        <time>2022-05-29T09:41:04Z</time>
      </trkpt>
      <trkpt lat="45.16985" lon="5.58384">
        <ele>1667.895</ele>
        <time>2022-05-29T09:41:09Z</time>
      </trkpt>
      <trkpt lat="45.16985" lon="5.58384">
        <ele>1667.891</ele>
        <time>2022-05-29T09:41:14Z</time>
      </trkpt>
      <trkpt lat="45.16985" lon="5.58384">
        <ele>1667.894</ele>
        <time>2022-05-29T09:41:19Z</time>
      </trkpt>
      <trkpt lat="45.16985" lon="5.58384">
        <ele>1667.89</ele>
        <time>2022-05-29T09:41:24Z</time>
      </trkpt>
      <trkpt lat="45.16985" lon="5.58384">
        <ele>1667.89</ele>
        <time>2022-05-29T09:41:29Z</time>
      </trkpt>
      <trkpt lat="45.16985" lon="5.58384">
        <ele>1668.178</ele>
        <time>2022-05-29T09:41:34Z</time>
      </trkpt>
      <trkpt lat="45.16985" lon="5.58383">
        <ele>1666.81</ele>
        <time>2022-05-29T09:41:39Z</time>
      </trkpt>
      <trkpt lat="45.16985" lon="5.58383">
        <ele>1666.79</ele>
        <time>2022-05-29T09:41:44Z</time>
      </trkpt>
      <trkpt lat="45.16985" lon="5.58383">
        <ele>1666.806</ele>
        <time>2022-05-29T09:41:49Z</time>
      </trkpt>
      <trkpt lat="45.16985" lon="5.58383">
        <ele>1666.48</ele>
        <time>2022-05-29T09:41:54Z</time>
      </trkpt>
      <trkpt lat="45.16985" lon="5.58383">
        <ele>1666.627</ele>
        <time>2022-05-29T09:41:59Z</time>
      </trkpt>
      <trkpt lat="45.16985" lon="5.58383">
        <ele>1666.919</ele>
        <time>2022-05-29T09:42:04Z</time>
      </trkpt>
      <trkpt lat="45.16985" lon="5.58383">
        <ele>1667.038</ele>
        <time>2022-05-29T09:42:09Z</time>
      </trkpt>
      <trkpt lat="45.16985" lon="5.58383">
        <ele>1667.057</ele>
        <time>2022-05-29T09:42:14Z</time>
      </trkpt>
      <trkpt lat="45.16985" lon="5.58383">
        <ele>1667.166</ele>
        <time>2022-05-29T09:42:19Z</time>
      </trkpt>
      <trkpt lat="45.16985" lon="5.58383">
        <ele>1667.096</ele>
        <time>2022-05-29T09:42:24Z</time>
      </trkpt>
      <trkpt lat="45.16985" lon="5.58383">
        <ele>1667.632</ele>
        <time>2022-05-29T09:42:29Z</time>
      </trkpt>
      <trkpt lat="45.16985" lon="5.58383">
        <ele>1668.681</ele>
        <time>2022-05-29T09:42:34Z</time>
      </trkpt>
      <trkpt lat="45.16985" lon="5.58383">
        <ele>1668.112</ele>
        <time>2022-05-29T09:42:39Z</time>
      </trkpt>
      <trkpt lat="45.16985" lon="5.58383">
        <ele>1667.696</ele>
        <time>2022-05-29T09:42:44Z</time>
      </trkpt>
      <trkpt lat="45.16985" lon="5.58383">
        <ele>1667.669</ele>
        <time>2022-05-29T09:42:49Z</time>
      </trkpt>
      <trkpt lat="45.16985" lon="5.58383">
        <ele>1667.663</ele>
        <time>2022-05-29T09:42:54Z</time>
      </trkpt>
      <trkpt lat="45.16985" lon="5.58383">
        <ele>1667.652</ele>
        <time>2022-05-29T09:42:59Z</time>
      </trkpt>
      <trkpt lat="45.16985" lon="5.58383">
        <ele>1667.646</ele>
        <time>2022-05-29T09:43:04Z</time>
      </trkpt>
      <trkpt lat="45.16985" lon="5.58383">
        <ele>1667.634</ele>
        <time>2022-05-29T09:43:09Z</time>
      </trkpt>
      <trkpt lat="45.16985" lon="5.58383">
        <ele>1667.627</ele>
        <time>2022-05-29T09:43:14Z</time>
      </trkpt>
      <trkpt lat="45.16985" lon="5.58383">
        <ele>1667.613</ele>
        <time>2022-05-29T09:43:19Z</time>
      </trkpt>
      <trkpt lat="45.16985" lon="5.58383">
        <ele>1667.613</ele>
        <time>2022-05-29T09:43:24Z</time>
      </trkpt>
      <trkpt lat="45.16985" lon="5.58384">
        <ele>1667.496</ele>
        <time>2022-05-29T09:43:29Z</time>
      </trkpt>
      <trkpt lat="45.16984" lon="5.58385">
        <ele>1666.996</ele>
        <time>2022-05-29T09:43:34Z</time>
      </trkpt>
      <trkpt lat="45.16984" lon="5.58385">
        <ele>1667.196</ele>
        <time>2022-05-29T09:43:39Z</time>
      </trkpt>
      <trkpt lat="45.16984" lon="5.58385">
        <ele>1667.683</ele>
        <time>2022-05-29T09:43:44Z</time>
      </trkpt>
      <trkpt lat="45.16984" lon="5.58385">
        <ele>1667.704</ele>
        <time>2022-05-29T09:43:49Z</time>
      </trkpt>
      <trkpt lat="45.16984" lon="5.58385">
        <ele>1667.659</ele>
        <time>2022-05-29T09:43:54Z</time>
      </trkpt>
      <trkpt lat="45.16983" lon="5.58384">
        <ele>1667.859</ele>
        <time>2022-05-29T09:43:59Z</time>
      </trkpt>
      <trkpt lat="45.16984" lon="5.58384">
        <ele>1668.165</ele>
        <time>2022-05-29T09:44:04Z</time>
      </trkpt>
      <trkpt lat="45.16984" lon="5.58385">
        <ele>1668.187</ele>
        <time>2022-05-29T09:44:09Z</time>
      </trkpt>
      <trkpt lat="45.16984" lon="5.58385">
        <ele>1668.233</ele>
        <time>2022-05-29T09:44:14Z</time>
      </trkpt>
      <trkpt lat="45.16984" lon="5.58385">
        <ele>1668.235</ele>
        <time>2022-05-29T09:44:19Z</time>
      </trkpt>
      <trkpt lat="45.16984" lon="5.58385">
        <ele>1668.232</ele>
        <time>2022-05-29T09:44:24Z</time>
      </trkpt>
      <trkpt lat="45.16984" lon="5.58385">
        <ele>1668.232</ele>
        <time>2022-05-29T09:44:29Z</time>
      </trkpt>
      <trkpt lat="45.16984" lon="5.58385">
        <ele>1667.851</ele>
        <time>2022-05-29T09:44:34Z</time>
      </trkpt>
      <trkpt lat="45.16984" lon="5.58385">
        <ele>1666.489</ele>
        <time>2022-05-29T09:44:39Z</time>
      </trkpt>
      <trkpt lat="45.16985" lon="5.58384">
        <ele>1666.259</ele>
        <time>2022-05-29T09:44:44Z</time>
      </trkpt>
      <trkpt lat="45.16984" lon="5.58384">
        <ele>1666.397</ele>
        <time>2022-05-29T09:44:49Z</time>
      </trkpt>
      <trkpt lat="45.16978" lon="5.58376">
        <ele>1666.937</ele>
        <time>2022-05-29T09:44:54Z</time>
      </trkpt>
      <trkpt lat="45.16969" lon="5.58374">
        <ele>1666.994</ele>
        <time>2022-05-29T09:44:59Z</time>
      </trkpt>
      <trkpt lat="45.16958" lon="5.58372">
        <ele>1667.088</ele>
        <time>2022-05-29T09:45:04Z</time>
      </trkpt>
      <trkpt lat="45.16946" lon="5.58369">
        <ele>1666.146</ele>
        <time>2022-05-29T09:45:09Z</time>
      </trkpt>
      <trkpt lat="45.16932" lon="5.58366">
        <ele>1665.855</ele>
        <time>2022-05-29T09:45:14Z</time>
      </trkpt>
      <trkpt lat="45.16915" lon="5.58361">
        <ele>1664.641</ele>
        <time>2022-05-29T09:45:19Z</time>
      </trkpt>
      <trkpt lat="45.16899" lon="5.58356">
        <ele>1662.595</ele>
        <time>2022-05-29T09:45:24Z</time>
      </trkpt>
      <trkpt lat="45.16877" lon="5.58348">
        <ele>1661.22</ele>
        <time>2022-05-29T09:45:29Z</time>
      </trkpt>
      <trkpt lat="45.16852" lon="5.5834">
        <ele>1659.999</ele>
        <time>2022-05-29T09:45:34Z</time>
      </trkpt>
      <trkpt lat="45.1683" lon="5.5833">
        <ele>1654.652</ele>
        <time>2022-05-29T09:45:39Z</time>
      </trkpt>
      <trkpt lat="45.168" lon="5.58331">
        <ele>1652.196</ele>
        <time>2022-05-29T09:45:44Z</time>
      </trkpt>
      <trkpt lat="45.16766" lon="5.58318">
        <ele>1650.947</ele>
        <time>2022-05-29T09:45:49Z</time>
      </trkpt>
      <trkpt lat="45.16728" lon="5.58313">
        <ele>1648.634</ele>
        <time>2022-05-29T09:45:54Z</time>
      </trkpt>
      <trkpt lat="45.16703" lon="5.58308">
        <ele>1649.353</ele>
        <time>2022-05-29T09:45:59Z</time>
      </trkpt>
      <trkpt lat="45.16686" lon="5.58305">
        <ele>1652.218</ele>
        <time>2022-05-29T09:46:04Z</time>
      </trkpt>
      <trkpt lat="45.16676" lon="5.58301">
        <ele>1652.078</ele>
        <time>2022-05-29T09:46:09Z</time>
      </trkpt>
      <trkpt lat="45.16667" lon="5.58299">
        <ele>1652.946</ele>
        <time>2022-05-29T09:46:14Z</time>
      </trkpt>
      <trkpt lat="45.16658" lon="5.58295">
        <ele>1654.921</ele>
        <time>2022-05-29T09:46:19Z</time>
      </trkpt>
      <trkpt lat="45.16649" lon="5.58293">
        <ele>1656.863</ele>
        <time>2022-05-29T09:46:24Z</time>
      </trkpt>
      <trkpt lat="45.1664" lon="5.58293">
        <ele>1657.922</ele>
        <time>2022-05-29T09:46:29Z</time>
      </trkpt>
      <trkpt lat="45.16631" lon="5.58292">
        <ele>1659.842</ele>
        <time>2022-05-29T09:46:34Z</time>
      </trkpt>
      <trkpt lat="45.16623" lon="5.58289">
        <ele>1660.398</ele>
        <time>2022-05-29T09:46:39Z</time>
      </trkpt>
      <trkpt lat="45.16613" lon="5.58283">
        <ele>1660.073</ele>
        <time>2022-05-29T09:46:44Z</time>
      </trkpt>
      <trkpt lat="45.16601" lon="5.58282">
        <ele>1660.386</ele>
        <time>2022-05-29T09:46:49Z</time>
      </trkpt>
      <trkpt lat="45.16587" lon="5.58276">
        <ele>1660.629</ele>
        <time>2022-05-29T09:46:54Z</time>
      </trkpt>
      <trkpt lat="45.16572" lon="5.58272">
        <ele>1662.478</ele>
        <time>2022-05-29T09:46:59Z</time>
      </trkpt>
      <trkpt lat="45.16555" lon="5.58266">
        <ele>1661.014</ele>
        <time>2022-05-29T09:47:04Z</time>
      </trkpt>
      <trkpt lat="45.1653" lon="5.58257">
        <ele>1659.518</ele>
        <time>2022-05-29T09:47:09Z</time>
      </trkpt>
      <trkpt lat="45.16502" lon="5.58247">
        <ele>1657.546</ele>
        <time>2022-05-29T09:47:14Z</time>
      </trkpt>
      <trkpt lat="45.16476" lon="5.58233">
        <ele>1655.621</ele>
        <time>2022-05-29T09:47:19Z</time>
      </trkpt>
      <trkpt lat="45.16449" lon="5.58213">
        <ele>1653.296</ele>
        <time>2022-05-29T09:47:24Z</time>
      </trkpt>
      <trkpt lat="45.16427" lon="5.58188">
        <ele>1653.963</ele>
        <time>2022-05-29T09:47:29Z</time>
      </trkpt>
      <trkpt lat="45.1641" lon="5.58167">
        <ele>1654.75</ele>
        <time>2022-05-29T09:47:34Z</time>
      </trkpt>
      <trkpt lat="45.16396" lon="5.58148">
        <ele>1653.481</ele>
        <time>2022-05-29T09:47:39Z</time>
      </trkpt>
      <trkpt lat="45.16385" lon="5.58125">
        <ele>1654.69</ele>
        <time>2022-05-29T09:47:44Z</time>
      </trkpt>
      <trkpt lat="45.16379" lon="5.58111">
        <ele>1655.474</ele>
        <time>2022-05-29T09:47:49Z</time>
      </trkpt>
      <trkpt lat="45.16369" lon="5.58103">
        <ele>1657.656</ele>
        <time>2022-05-29T09:47:54Z</time>
      </trkpt>
      <trkpt lat="45.16361" lon="5.58095">
        <ele>1657.293</ele>
        <time>2022-05-29T09:47:59Z</time>
      </trkpt>
      <trkpt lat="45.16351" lon="5.58087">
        <ele>1656.929</ele>
        <time>2022-05-29T09:48:04Z</time>
      </trkpt>
      <trkpt lat="45.16338" lon="5.58079">
        <ele>1656.819</ele>
        <time>2022-05-29T09:48:09Z</time>
      </trkpt>
      <trkpt lat="45.16324" lon="5.58076">
        <ele>1655.582</ele>
        <time>2022-05-29T09:48:14Z</time>
      </trkpt>
      <trkpt lat="45.16313" lon="5.58069">
        <ele>1657.732</ele>
        <time>2022-05-29T09:48:19Z</time>
      </trkpt>
      <trkpt lat="45.16306" lon="5.58066">
        <ele>1658.373</ele>
        <time>2022-05-29T09:48:24Z</time>
      </trkpt>
      <trkpt lat="45.16299" lon="5.58068">
        <ele>1659.355</ele>
        <time>2022-05-29T09:48:29Z</time>
      </trkpt>
      <trkpt lat="45.16291" lon="5.5807">
        <ele>1659.389</ele>
        <time>2022-05-29T09:48:34Z</time>
      </trkpt>
      <trkpt lat="45.16282" lon="5.58072">
        <ele>1658.335</ele>
        <time>2022-05-29T09:48:39Z</time>
      </trkpt>
      <trkpt lat="45.16274" lon="5.58068">
        <ele>1658.38</ele>
        <time>2022-05-29T09:48:44Z</time>
      </trkpt>
      <trkpt lat="45.16273" lon="5.58066">
        <ele>1657.748</ele>
        <time>2022-05-29T09:48:49Z</time>
      </trkpt>
      <trkpt lat="45.16272" lon="5.58066">
        <ele>1658.05</ele>
        <time>2022-05-29T09:48:54Z</time>
      </trkpt>
      <trkpt lat="45.16272" lon="5.58066">
        <ele>1658.04</ele>
        <time>2022-05-29T09:48:59Z</time>
      </trkpt>
      <trkpt lat="45.16272" lon="5.58065">
        <ele>1658.214</ele>
        <time>2022-05-29T09:49:04Z</time>
      </trkpt>
      <trkpt lat="45.16272" lon="5.58065">
        <ele>1658.241</ele>
        <time>2022-05-29T09:49:09Z</time>
      </trkpt>
      <trkpt lat="45.16272" lon="5.58065">
        <ele>1658.248</ele>
        <time>2022-05-29T09:49:14Z</time>
      </trkpt>
      <trkpt lat="45.16272" lon="5.58065">
        <ele>1658.282</ele>
        <time>2022-05-29T09:49:19Z</time>
      </trkpt>
      <trkpt lat="45.16272" lon="5.58065">
        <ele>1658.312</ele>
        <time>2022-05-29T09:49:24Z</time>
      </trkpt>
      <trkpt lat="45.16272" lon="5.58065">
        <ele>1659.702</ele>
        <time>2022-05-29T09:49:29Z</time>
      </trkpt>
      <trkpt lat="45.16272" lon="5.58066">
        <ele>1661.124</ele>
        <time>2022-05-29T09:49:34Z</time>
      </trkpt>
      <trkpt lat="45.16272" lon="5.58066">
        <ele>1662.571</ele>
        <time>2022-05-29T09:49:39Z</time>
      </trkpt>
      <trkpt lat="45.16272" lon="5.58066">
        <ele>1662.585</ele>
        <time>2022-05-29T09:49:44Z</time>
      </trkpt>
      <trkpt lat="45.16272" lon="5.58066">
        <ele>1662.597</ele>
        <time>2022-05-29T09:49:49Z</time>
      </trkpt>
      <trkpt lat="45.16272" lon="5.58066">
        <ele>1662.6</ele>
        <time>2022-05-29T09:49:54Z</time>
      </trkpt>
      <trkpt lat="45.16272" lon="5.58066">
        <ele>1662.592</ele>
        <time>2022-05-29T09:49:59Z</time>
      </trkpt>
      <trkpt lat="45.16272" lon="5.58066">
        <ele>1662.592</ele>
        <time>2022-05-29T09:50:04Z</time>
      </trkpt>
      <trkpt lat="45.16271" lon="5.58065">
        <ele>1663.922</ele>
        <time>2022-05-29T09:50:09Z</time>
      </trkpt>
      <trkpt lat="45.16271" lon="5.58064">
        <ele>1665.612</ele>
        <time>2022-05-29T09:50:14Z</time>
      </trkpt>
      <trkpt lat="45.1627" lon="5.58064">
        <ele>1666.024</ele>
        <time>2022-05-29T09:50:19Z</time>
      </trkpt>
      <trkpt lat="45.1627" lon="5.58064">
        <ele>1666.012</ele>
        <time>2022-05-29T09:50:24Z</time>
      </trkpt>
      <trkpt lat="45.1627" lon="5.58064">
        <ele>1665.981</ele>
        <time>2022-05-29T09:50:29Z</time>
      </trkpt>
      <trkpt lat="45.1627" lon="5.58064">
        <ele>1665.197</ele>
        <time>2022-05-29T09:50:34Z</time>
      </trkpt>
      <trkpt lat="45.16269" lon="5.58064">
        <ele>1664.357</ele>
        <time>2022-05-29T09:50:39Z</time>
      </trkpt>
      <trkpt lat="45.16268" lon="5.58063">
        <ele>1664.796</ele>
        <time>2022-05-29T09:50:44Z</time>
      </trkpt>
      <trkpt lat="45.16268" lon="5.58063">
        <ele>1664.993</ele>
        <time>2022-05-29T09:50:49Z</time>
      </trkpt>
      <trkpt lat="45.16268" lon="5.58063">
        <ele>1665.001</ele>
        <time>2022-05-29T09:50:54Z</time>
      </trkpt>
      <trkpt lat="45.16268" lon="5.58063">
        <ele>1665.004</ele>
        <time>2022-05-29T09:50:59Z</time>
      </trkpt>
      <trkpt lat="45.16268" lon="5.58063">
        <ele>1665.008</ele>
        <time>2022-05-29T09:51:04Z</time>
      </trkpt>
      <trkpt lat="45.16268" lon="5.58063">
        <ele>1665.005</ele>
        <time>2022-05-29T09:51:09Z</time>
      </trkpt>
      <trkpt lat="45.16268" lon="5.58063">
        <ele>1665.026</ele>
        <time>2022-05-29T09:51:14Z</time>
      </trkpt>
      <trkpt lat="45.16268" lon="5.58063">
        <ele>1665.013</ele>
        <time>2022-05-29T09:51:19Z</time>
      </trkpt>
      <trkpt lat="45.16268" lon="5.58063">
        <ele>1665.012</ele>
        <time>2022-05-29T09:51:24Z</time>
      </trkpt>
      <trkpt lat="45.16268" lon="5.58063">
        <ele>1665.01</ele>
        <time>2022-05-29T09:51:29Z</time>
      </trkpt>
      <trkpt lat="45.16268" lon="5.58063">
        <ele>1665.008</ele>
        <time>2022-05-29T09:51:34Z</time>
      </trkpt>
      <trkpt lat="45.16268" lon="5.58063">
        <ele>1665.012</ele>
        <time>2022-05-29T09:51:39Z</time>
      </trkpt>
      <trkpt lat="45.16268" lon="5.58063">
        <ele>1665.018</ele>
        <time>2022-05-29T09:51:44Z</time>
      </trkpt>
      <trkpt lat="45.16268" lon="5.58063">
        <ele>1665.022</ele>
        <time>2022-05-29T09:51:49Z</time>
      </trkpt>
      <trkpt lat="45.16268" lon="5.58063">
        <ele>1665.022</ele>
        <time>2022-05-29T09:51:54Z</time>
      </trkpt>
      <trkpt lat="45.16268" lon="5.58063">
        <ele>1665.023</ele>
        <time>2022-05-29T09:51:59Z</time>
      </trkpt>
      <trkpt lat="45.16265" lon="5.5806">
        <ele>1663.419</ele>
        <time>2022-05-29T09:52:04Z</time>
      </trkpt>
      <trkpt lat="45.16253" lon="5.58059">
        <ele>1662.116</ele>
        <time>2022-05-29T09:52:09Z</time>
      </trkpt>
      <trkpt lat="45.16229" lon="5.58058">
        <ele>1663.144</ele>
        <time>2022-05-29T09:52:14Z</time>
      </trkpt>
      <trkpt lat="45.16203" lon="5.5805">
        <ele>1660.115</ele>
        <time>2022-05-29T09:52:19Z</time>
      </trkpt>
      <trkpt lat="45.16177" lon="5.58041">
        <ele>1659.031</ele>
        <time>2022-05-29T09:52:24Z</time>
      </trkpt>
      <trkpt lat="45.16155" lon="5.5803">
        <ele>1658.454</ele>
        <time>2022-05-29T09:52:29Z</time>
      </trkpt>
      <trkpt lat="45.16123" lon="5.58041">
        <ele>1656.967</ele>
        <time>2022-05-29T09:52:34Z</time>
      </trkpt>
      <trkpt lat="45.16088" lon="5.58043">
        <ele>1654.856</ele>
        <time>2022-05-29T09:52:39Z</time>
      </trkpt>
      <trkpt lat="45.16046" lon="5.58031">
        <ele>1648.001</ele>
        <time>2022-05-29T09:52:44Z</time>
      </trkpt>
      <trkpt lat="45.16004" lon="5.5802">
        <ele>1644.974</ele>
        <time>2022-05-29T09:52:49Z</time>
      </trkpt>
      <trkpt lat="45.15974" lon="5.58004">
        <ele>1647.508</ele>
        <time>2022-05-29T09:52:54Z</time>
      </trkpt>
      <trkpt lat="45.15955" lon="5.57994">
        <ele>1647.068</ele>
        <time>2022-05-29T09:52:59Z</time>
      </trkpt>
      <trkpt lat="45.15931" lon="5.57984">
        <ele>1645.835</ele>
        <time>2022-05-29T09:53:04Z</time>
      </trkpt>
      <trkpt lat="45.15912" lon="5.57951">
        <ele>1644.403</ele>
        <time>2022-05-29T09:53:09Z</time>
      </trkpt>
      <trkpt lat="45.15885" lon="5.57921">
        <ele>1641.814</ele>
        <time>2022-05-29T09:53:14Z</time>
      </trkpt>
      <trkpt lat="45.15856" lon="5.57907">
        <ele>1642.621</ele>
        <time>2022-05-29T09:53:19Z</time>
      </trkpt>
      <trkpt lat="45.15842" lon="5.57893">
        <ele>1640.442</ele>
        <time>2022-05-29T09:53:24Z</time>
      </trkpt>
      <trkpt lat="45.15822" lon="5.5789">
        <ele>1639.796</ele>
        <time>2022-05-29T09:53:29Z</time>
      </trkpt>
      <trkpt lat="45.15797" lon="5.57881">
        <ele>1639.067</ele>
        <time>2022-05-29T09:53:34Z</time>
      </trkpt>
      <trkpt lat="45.15764" lon="5.57865">
        <ele>1636.506</ele>
        <time>2022-05-29T09:53:39Z</time>
      </trkpt>
      <trkpt lat="45.15719" lon="5.57856">
        <ele>1631.158</ele>
        <time>2022-05-29T09:53:44Z</time>
      </trkpt>
      <trkpt lat="45.15672" lon="5.57866">
        <ele>1630.749</ele>
        <time>2022-05-29T09:53:49Z</time>
      </trkpt>
      <trkpt lat="45.15647" lon="5.57871">
        <ele>1629.858</ele>
        <time>2022-05-29T09:53:54Z</time>
      </trkpt>
      <trkpt lat="45.15622" lon="5.5787">
        <ele>1625.669</ele>
        <time>2022-05-29T09:53:59Z</time>
      </trkpt>
      <trkpt lat="45.15594" lon="5.57876">
        <ele>1623.117</ele>
        <time>2022-05-29T09:54:04Z</time>
      </trkpt>
      <trkpt lat="45.15566" lon="5.57863">
        <ele>1621.543</ele>
        <time>2022-05-29T09:54:09Z</time>
      </trkpt>
      <trkpt lat="45.15549" lon="5.57845">
        <ele>1621.802</ele>
        <time>2022-05-29T09:54:14Z</time>
      </trkpt>
      <trkpt lat="45.15535" lon="5.57831">
        <ele>1621.619</ele>
        <time>2022-05-29T09:54:19Z</time>
      </trkpt>
      <trkpt lat="45.15521" lon="5.57821">
        <ele>1624.686</ele>
        <time>2022-05-29T09:54:24Z</time>
      </trkpt>
      <trkpt lat="45.15508" lon="5.57808">
        <ele>1626.432</ele>
        <time>2022-05-29T09:54:29Z</time>
      </trkpt>
      <trkpt lat="45.15494" lon="5.57793">
        <ele>1625.93</ele>
        <time>2022-05-29T09:54:34Z</time>
      </trkpt>
      <trkpt lat="45.15481" lon="5.57784">
        <ele>1627.159</ele>
        <time>2022-05-29T09:54:39Z</time>
      </trkpt>
      <trkpt lat="45.15465" lon="5.5778">
        <ele>1627.536</ele>
        <time>2022-05-29T09:54:44Z</time>
      </trkpt>
      <trkpt lat="45.15447" lon="5.5778">
        <ele>1625.92</ele>
        <time>2022-05-29T09:54:49Z</time>
      </trkpt>
      <trkpt lat="45.15425" lon="5.57784">
        <ele>1624.412</ele>
        <time>2022-05-29T09:54:54Z</time>
      </trkpt>
      <trkpt lat="45.15408" lon="5.5779">
        <ele>1622.618</ele>
        <time>2022-05-29T09:54:59Z</time>
      </trkpt>
      <trkpt lat="45.1538" lon="5.57787">
        <ele>1618.418</ele>
        <time>2022-05-29T09:55:04Z</time>
      </trkpt>
      <trkpt lat="45.15344" lon="5.57773">
        <ele>1615.443</ele>
        <time>2022-05-29T09:55:09Z</time>
      </trkpt>
      <trkpt lat="45.15305" lon="5.57755">
        <ele>1612.737</ele>
        <time>2022-05-29T09:55:14Z</time>
      </trkpt>
      <trkpt lat="45.15273" lon="5.57753">
        <ele>1610.089</ele>
        <time>2022-05-29T09:55:19Z</time>
      </trkpt>
      <trkpt lat="45.15237" lon="5.57737">
        <ele>1603.547</ele>
        <time>2022-05-29T09:55:24Z</time>
      </trkpt>
      <trkpt lat="45.15192" lon="5.5772">
        <ele>1601.389</ele>
        <time>2022-05-29T09:55:29Z</time>
      </trkpt>
      <trkpt lat="45.15159" lon="5.57695">
        <ele>1596.461</ele>
        <time>2022-05-29T09:55:34Z</time>
      </trkpt>
      <trkpt lat="45.15124" lon="5.5768">
        <ele>1593.239</ele>
        <time>2022-05-29T09:55:39Z</time>
      </trkpt>
      <trkpt lat="45.15088" lon="5.57674">
        <ele>1588.948</ele>
        <time>2022-05-29T09:55:44Z</time>
      </trkpt>
      <trkpt lat="45.15052" lon="5.57685">
        <ele>1582.689</ele>
        <time>2022-05-29T09:55:49Z</time>
      </trkpt>
      <trkpt lat="45.1502" lon="5.57683">
        <ele>1577.974</ele>
        <time>2022-05-29T09:55:54Z</time>
      </trkpt>
      <trkpt lat="45.14983" lon="5.57686">
        <ele>1575.894</ele>
        <time>2022-05-29T09:55:59Z</time>
      </trkpt>
      <trkpt lat="45.14954" lon="5.57671">
        <ele>1574.084</ele>
        <time>2022-05-29T09:56:04Z</time>
      </trkpt>
      <trkpt lat="45.1493" lon="5.57659">
        <ele>1572.793</ele>
        <time>2022-05-29T09:56:09Z</time>
      </trkpt>
      <trkpt lat="45.14922" lon="5.57658">
        <ele>1572.747</ele>
        <time>2022-05-29T09:56:14Z</time>
      </trkpt>
      <trkpt lat="45.14921" lon="5.57658">
        <ele>1573.786</ele>
        <time>2022-05-29T09:56:19Z</time>
      </trkpt>
      <trkpt lat="45.14922" lon="5.57657">
        <ele>1573.985</ele>
        <time>2022-05-29T09:56:24Z</time>
      </trkpt>
      <trkpt lat="45.14922" lon="5.57658">
        <ele>1573.8</ele>
        <time>2022-05-29T09:56:29Z</time>
      </trkpt>
      <trkpt lat="45.14921" lon="5.57658">
        <ele>1573.341</ele>
        <time>2022-05-29T09:56:34Z</time>
      </trkpt>
      <trkpt lat="45.14921" lon="5.57658">
        <ele>1573.24</ele>
        <time>2022-05-29T09:56:39Z</time>
      </trkpt>
      <trkpt lat="45.14921" lon="5.57658">
        <ele>1573.243</ele>
        <time>2022-05-29T09:56:44Z</time>
      </trkpt>
      <trkpt lat="45.14921" lon="5.57658">
        <ele>1573.25</ele>
        <time>2022-05-29T09:56:49Z</time>
      </trkpt>
      <trkpt lat="45.14921" lon="5.57658">
        <ele>1573.268</ele>
        <time>2022-05-29T09:56:54Z</time>
      </trkpt>
      <trkpt lat="45.14921" lon="5.57658">
        <ele>1573.276</ele>
        <time>2022-05-29T09:56:59Z</time>
      </trkpt>
      <trkpt lat="45.14921" lon="5.57658">
        <ele>1573.274</ele>
        <time>2022-05-29T09:57:04Z</time>
      </trkpt>
      <trkpt lat="45.14921" lon="5.57658">
        <ele>1573.269</ele>
        <time>2022-05-29T09:57:09Z</time>
      </trkpt>
      <trkpt lat="45.14921" lon="5.57658">
        <ele>1573.264</ele>
        <time>2022-05-29T09:57:14Z</time>
      </trkpt>
      <trkpt lat="45.14921" lon="5.57658">
        <ele>1573.263</ele>
        <time>2022-05-29T09:57:19Z</time>
      </trkpt>
      <trkpt lat="45.14921" lon="5.57658">
        <ele>1573.265</ele>
        <time>2022-05-29T09:57:24Z</time>
      </trkpt>
      <trkpt lat="45.14921" lon="5.57658">
        <ele>1573.266</ele>
        <time>2022-05-29T09:57:29Z</time>
      </trkpt>
      <trkpt lat="45.14921" lon="5.57658">
        <ele>1573.263</ele>
        <time>2022-05-29T09:57:34Z</time>
      </trkpt>
      <trkpt lat="45.14921" lon="5.57658">
        <ele>1573.257</ele>
        <time>2022-05-29T09:57:39Z</time>
      </trkpt>
      <trkpt lat="45.14921" lon="5.57658">
        <ele>1573.255</ele>
        <time>2022-05-29T09:57:44Z</time>
      </trkpt>
      <trkpt lat="45.14921" lon="5.57658">
        <ele>1573.256</ele>
        <time>2022-05-29T09:57:49Z</time>
      </trkpt>
      <trkpt lat="45.14921" lon="5.57658">
        <ele>1573.264</ele>
        <time>2022-05-29T09:57:54Z</time>
      </trkpt>
      <trkpt lat="45.14921" lon="5.57658">
        <ele>1573.266</ele>
        <time>2022-05-29T09:57:59Z</time>
      </trkpt>
      <trkpt lat="45.14921" lon="5.57658">
        <ele>1573.265</ele>
        <time>2022-05-29T09:58:04Z</time>
      </trkpt>
      <trkpt lat="45.14921" lon="5.57658">
        <ele>1573.261</ele>
        <time>2022-05-29T09:58:09Z</time>
      </trkpt>
      <trkpt lat="45.14921" lon="5.57658">
        <ele>1573.259</ele>
        <time>2022-05-29T09:58:14Z</time>
      </trkpt>
      <trkpt lat="45.14921" lon="5.57658">
        <ele>1573.257</ele>
        <time>2022-05-29T09:58:19Z</time>
      </trkpt>
      <trkpt lat="45.14921" lon="5.57658">
        <ele>1573.256</ele>
        <time>2022-05-29T09:58:24Z</time>
      </trkpt>
      <trkpt lat="45.14921" lon="5.57658">
        <ele>1573.259</ele>
        <time>2022-05-29T09:58:29Z</time>
      </trkpt>
      <trkpt lat="45.14921" lon="5.57658">
        <ele>1573.266</ele>
        <time>2022-05-29T09:58:34Z</time>
      </trkpt>
      <trkpt lat="45.14915" lon="5.57656">
        <ele>1573.415</ele>
        <time>2022-05-29T09:58:39Z</time>
      </trkpt>
      <trkpt lat="45.14892" lon="5.57648">
        <ele>1571.273</ele>
        <time>2022-05-29T09:58:44Z</time>
      </trkpt>
      <trkpt lat="45.14862" lon="5.57631">
        <ele>1570.135</ele>
        <time>2022-05-29T09:58:49Z</time>
      </trkpt>
      <trkpt lat="45.1484" lon="5.57593">
        <ele>1565.369</ele>
        <time>2022-05-29T09:58:54Z</time>
      </trkpt>
      <trkpt lat="45.14805" lon="5.57589">
        <ele>1559.655</ele>
        <time>2022-05-29T09:58:59Z</time>
      </trkpt>
      <trkpt lat="45.14762" lon="5.57575">
        <ele>1556.618</ele>
        <time>2022-05-29T09:59:04Z</time>
      </trkpt>
      <trkpt lat="45.14718" lon="5.57571">
        <ele>1552.746</ele>
        <time>2022-05-29T09:59:09Z</time>
      </trkpt>
      <trkpt lat="45.14675" lon="5.57568">
        <ele>1551.169</ele>
        <time>2022-05-29T09:59:14Z</time>
      </trkpt>
      <trkpt lat="45.14636" lon="5.57566">
        <ele>1546.795</ele>
        <time>2022-05-29T09:59:19Z</time>
      </trkpt>
      <trkpt lat="45.14592" lon="5.57567">
        <ele>1540.893</ele>
        <time>2022-05-29T09:59:24Z</time>
      </trkpt>
      <trkpt lat="45.14557" lon="5.57533">
        <ele>1533.855</ele>
        <time>2022-05-29T09:59:29Z</time>
      </trkpt>
      <trkpt lat="45.14524" lon="5.5753">
        <ele>1531.944</ele>
        <time>2022-05-29T09:59:34Z</time>
      </trkpt>
      <trkpt lat="45.14488" lon="5.57526">
        <ele>1529.294</ele>
        <time>2022-05-29T09:59:39Z</time>
      </trkpt>
      <trkpt lat="45.14455" lon="5.57526">
        <ele>1526.654</ele>
        <time>2022-05-29T09:59:44Z</time>
      </trkpt>
      <trkpt lat="45.14415" lon="5.57536">
        <ele>1520.981</ele>
        <time>2022-05-29T09:59:49Z</time>
      </trkpt>
      <trkpt lat="45.14374" lon="5.57551">
        <ele>1519.876</ele>
        <time>2022-05-29T09:59:54Z</time>
      </trkpt>
      <trkpt lat="45.14345" lon="5.57554">
        <ele>1517.456</ele>
        <time>2022-05-29T09:59:59Z</time>
      </trkpt>
      <trkpt lat="45.14325" lon="5.57562">
        <ele>1517.738</ele>
        <time>2022-05-29T10:00:04Z</time>
      </trkpt>
      <trkpt lat="45.14313" lon="5.57563">
        <ele>1519.074</ele>
        <time>2022-05-29T10:00:09Z</time>
      </trkpt>
      <trkpt lat="45.14313" lon="5.57561">
        <ele>1519.655</ele>
        <time>2022-05-29T10:00:14Z</time>
      </trkpt>
      <trkpt lat="45.14313" lon="5.5756">
        <ele>1520.1</ele>
        <time>2022-05-29T10:00:19Z</time>
      </trkpt>
      <trkpt lat="45.14313" lon="5.5756">
        <ele>1519.776</ele>
        <time>2022-05-29T10:00:24Z</time>
      </trkpt>
      <trkpt lat="45.1431" lon="5.57559">
        <ele>1516.068</ele>
        <time>2022-05-29T10:00:29Z</time>
      </trkpt>
      <trkpt lat="45.14297" lon="5.57555">
        <ele>1514.494</ele>
        <time>2022-05-29T10:00:34Z</time>
      </trkpt>
      <trkpt lat="45.14277" lon="5.57548">
        <ele>1512.706</ele>
        <time>2022-05-29T10:00:39Z</time>
      </trkpt>
      <trkpt lat="45.14267" lon="5.57538">
        <ele>1513.17</ele>
        <time>2022-05-29T10:00:44Z</time>
      </trkpt>
      <trkpt lat="45.1425" lon="5.57522">
        <ele>1511.579</ele>
        <time>2022-05-29T10:00:49Z</time>
      </trkpt>
      <trkpt lat="45.14234" lon="5.575">
        <ele>1508.958</ele>
        <time>2022-05-29T10:00:54Z</time>
      </trkpt>
      <trkpt lat="45.14221" lon="5.57489">
        <ele>1507.806</ele>
        <time>2022-05-29T10:00:59Z</time>
      </trkpt>
      <trkpt lat="45.14207" lon="5.57481">
        <ele>1508.051</ele>
        <time>2022-05-29T10:01:04Z</time>
      </trkpt>
      <trkpt lat="45.14188" lon="5.57478">
        <ele>1505.77</ele>
        <time>2022-05-29T10:01:09Z</time>
      </trkpt>
      <trkpt lat="45.14153" lon="5.57486">
        <ele>1501.087</ele>
        <time>2022-05-29T10:01:14Z</time>
      </trkpt>
      <trkpt lat="45.14142" lon="5.57488">
        <ele>1500.85</ele>
        <time>2022-05-29T10:01:19Z</time>
      </trkpt>
      <trkpt lat="45.1413" lon="5.57486">
        <ele>1498.658</ele>
        <time>2022-05-29T10:01:24Z</time>
      </trkpt>
      <trkpt lat="45.14114" lon="5.57482">
        <ele>1499.352</ele>
        <time>2022-05-29T10:01:29Z</time>
      </trkpt>
      <trkpt lat="45.14105" lon="5.57479">
        <ele>1498.218</ele>
        <time>2022-05-29T10:01:34Z</time>
      </trkpt>
      <trkpt lat="45.14105" lon="5.5747">
        <ele>1496.436</ele>
        <time>2022-05-29T10:01:39Z</time>
      </trkpt>
      <trkpt lat="45.14097" lon="5.57458">
        <ele>1499.371</ele>
        <time>2022-05-29T10:01:44Z</time>
      </trkpt>
      <trkpt lat="45.14094" lon="5.57442">
        <ele>1495.999</ele>
        <time>2022-05-29T10:01:49Z</time>
      </trkpt>
      <trkpt lat="45.14081" lon="5.57431">
        <ele>1494.867</ele>
        <time>2022-05-29T10:01:54Z</time>
      </trkpt>
      <trkpt lat="45.14063" lon="5.57416">
        <ele>1489.997</ele>
        <time>2022-05-29T10:01:59Z</time>
      </trkpt>
      <trkpt lat="45.14056" lon="5.57422">
        <ele>1489.369</ele>
        <time>2022-05-29T10:02:04Z</time>
      </trkpt>
      <trkpt lat="45.14045" lon="5.5742">
        <ele>1486.194</ele>
        <time>2022-05-29T10:02:09Z</time>
      </trkpt>
      <trkpt lat="45.14029" lon="5.57416">
        <ele>1485.428</ele>
        <time>2022-05-29T10:02:14Z</time>
      </trkpt>
      <trkpt lat="45.14013" lon="5.5739">
        <ele>1482.738</ele>
        <time>2022-05-29T10:02:19Z</time>
      </trkpt>
      <trkpt lat="45.13991" lon="5.57363">
        <ele>1480.866</ele>
        <time>2022-05-29T10:02:24Z</time>
      </trkpt>
      <trkpt lat="45.13961" lon="5.57351">
        <ele>1474.951</ele>
        <time>2022-05-29T10:02:29Z</time>
      </trkpt>
      <trkpt lat="45.13946" lon="5.57356">
        <ele>1470.955</ele>
        <time>2022-05-29T10:02:34Z</time>
      </trkpt>
      <trkpt lat="45.13939" lon="5.57349">
        <ele>1468.106</ele>
        <time>2022-05-29T10:02:39Z</time>
      </trkpt>
      <trkpt lat="45.13932" lon="5.5736">
        <ele>1463.402</ele>
        <time>2022-05-29T10:02:44Z</time>
      </trkpt>
      <trkpt lat="45.13917" lon="5.57369">
        <ele>1460.155</ele>
        <time>2022-05-29T10:02:49Z</time>
      </trkpt>
      <trkpt lat="45.13902" lon="5.57379">
        <ele>1457.023</ele>
        <time>2022-05-29T10:02:54Z</time>
      </trkpt>
      <trkpt lat="45.13881" lon="5.57378">
        <ele>1455.599</ele>
        <time>2022-05-29T10:02:59Z</time>
      </trkpt>
      <trkpt lat="45.13858" lon="5.57367">
        <ele>1453.656</ele>
        <time>2022-05-29T10:03:04Z</time>
      </trkpt>
      <trkpt lat="45.13832" lon="5.57361">
        <ele>1448.334</ele>
        <time>2022-05-29T10:03:09Z</time>
      </trkpt>
      <trkpt lat="45.13806" lon="5.57363">
        <ele>1443.464</ele>
        <time>2022-05-29T10:03:14Z</time>
      </trkpt>
      <trkpt lat="45.13791" lon="5.5738">
        <ele>1441.659</ele>
        <time>2022-05-29T10:03:19Z</time>
      </trkpt>
      <trkpt lat="45.1378" lon="5.57394">
        <ele>1439.111</ele>
        <time>2022-05-29T10:03:24Z</time>
      </trkpt>
      <trkpt lat="45.13764" lon="5.57405">
        <ele>1434.712</ele>
        <time>2022-05-29T10:03:29Z</time>
      </trkpt>
      <trkpt lat="45.13749" lon="5.57411">
        <ele>1431.838</ele>
        <time>2022-05-29T10:03:34Z</time>
      </trkpt>
      <trkpt lat="45.13741" lon="5.57412">
        <ele>1431.64</ele>
        <time>2022-05-29T10:03:39Z</time>
      </trkpt>
      <trkpt lat="45.13741" lon="5.57412">
        <ele>1432.18</ele>
        <time>2022-05-29T10:03:44Z</time>
      </trkpt>
      <trkpt lat="45.13741" lon="5.57411">
        <ele>1433.395</ele>
        <time>2022-05-29T10:03:49Z</time>
      </trkpt>
      <trkpt lat="45.1374" lon="5.57411">
        <ele>1435.33</ele>
        <time>2022-05-29T10:03:54Z</time>
      </trkpt>
      <trkpt lat="45.13738" lon="5.57411">
        <ele>1436.445</ele>
        <time>2022-05-29T10:03:59Z</time>
      </trkpt>
      <trkpt lat="45.13739" lon="5.57412">
        <ele>1434.641</ele>
        <time>2022-05-29T10:04:04Z</time>
      </trkpt>
      <trkpt lat="45.13739" lon="5.57412">
        <ele>1434.374</ele>
        <time>2022-05-29T10:04:09Z</time>
      </trkpt>
      <trkpt lat="45.1374" lon="5.57413">
        <ele>1433.77</ele>
        <time>2022-05-29T10:04:14Z</time>
      </trkpt>
      <trkpt lat="45.1374" lon="5.57414">
        <ele>1433.39</ele>
        <time>2022-05-29T10:04:19Z</time>
      </trkpt>
      <trkpt lat="45.13739" lon="5.57414">
        <ele>1433.682</ele>
        <time>2022-05-29T10:04:24Z</time>
      </trkpt>
      <trkpt lat="45.1374" lon="5.57414">
        <ele>1433.054</ele>
        <time>2022-05-29T10:04:29Z</time>
      </trkpt>
      <trkpt lat="45.1374" lon="5.57414">
        <ele>1432.752</ele>
        <time>2022-05-29T10:04:34Z</time>
      </trkpt>
      <trkpt lat="45.1374" lon="5.57413">
        <ele>1432.935</ele>
        <time>2022-05-29T10:04:39Z</time>
      </trkpt>
      <trkpt lat="45.1374" lon="5.57413">
        <ele>1432.943</ele>
        <time>2022-05-29T10:04:44Z</time>
      </trkpt>
      <trkpt lat="45.13732" lon="5.57406">
        <ele>1431.401</ele>
        <time>2022-05-29T10:04:49Z</time>
      </trkpt>
      <trkpt lat="45.13707" lon="5.57396">
        <ele>1428.635</ele>
        <time>2022-05-29T10:04:54Z</time>
      </trkpt>
      <trkpt lat="45.13684" lon="5.57386">
        <ele>1428.461</ele>
        <time>2022-05-29T10:04:59Z</time>
      </trkpt>
      <trkpt lat="45.13671" lon="5.57381">
        <ele>1430.764</ele>
        <time>2022-05-29T10:05:04Z</time>
      </trkpt>
      <trkpt lat="45.13661" lon="5.57372">
        <ele>1431.992</ele>
        <time>2022-05-29T10:05:09Z</time>
      </trkpt>
      <trkpt lat="45.13638" lon="5.57356">
        <ele>1426.633</ele>
        <time>2022-05-29T10:05:14Z</time>
      </trkpt>
      <trkpt lat="45.13612" lon="5.57343">
        <ele>1428.227</ele>
        <time>2022-05-29T10:05:19Z</time>
      </trkpt>
      <trkpt lat="45.13596" lon="5.57337">
        <ele>1430.496</ele>
        <time>2022-05-29T10:05:24Z</time>
      </trkpt>
      <trkpt lat="45.13579" lon="5.57334">
        <ele>1430.657</ele>
        <time>2022-05-29T10:05:29Z</time>
      </trkpt>
      <trkpt lat="45.13555" lon="5.57326">
        <ele>1428.187</ele>
        <time>2022-05-29T10:05:34Z</time>
      </trkpt>
      <trkpt lat="45.13523" lon="5.57307">
        <ele>1421.445</ele>
        <time>2022-05-29T10:05:39Z</time>
      </trkpt>
      <trkpt lat="45.13489" lon="5.5729">
        <ele>1417.797</ele>
        <time>2022-05-29T10:05:44Z</time>
      </trkpt>
      <trkpt lat="45.13459" lon="5.57281">
        <ele>1416.956</ele>
        <time>2022-05-29T10:05:49Z</time>
      </trkpt>
      <trkpt lat="45.13428" lon="5.57263">
        <ele>1411.06</ele>
        <time>2022-05-29T10:05:54Z</time>
      </trkpt>
      <trkpt lat="45.1339" lon="5.57236">
        <ele>1408.407</ele>
        <time>2022-05-29T10:05:59Z</time>
      </trkpt>
      <trkpt lat="45.13361" lon="5.57214">
        <ele>1408.586</ele>
        <time>2022-05-29T10:06:04Z</time>
      </trkpt>
      <trkpt lat="45.13335" lon="5.57202">
        <ele>1409.656</ele>
        <time>2022-05-29T10:06:09Z</time>
      </trkpt>
      <trkpt lat="45.13312" lon="5.57177">
        <ele>1405.971</ele>
        <time>2022-05-29T10:06:14Z</time>
      </trkpt>
      <trkpt lat="45.13289" lon="5.57158">
        <ele>1405.197</ele>
        <time>2022-05-29T10:06:19Z</time>
      </trkpt>
      <trkpt lat="45.13268" lon="5.57148">
        <ele>1406.254</ele>
        <time>2022-05-29T10:06:24Z</time>
      </trkpt>
      <trkpt lat="45.13254" lon="5.57148">
        <ele>1404.26</ele>
        <time>2022-05-29T10:06:29Z</time>
      </trkpt>
      <trkpt lat="45.13247" lon="5.5714">
        <ele>1401.235</ele>
        <time>2022-05-29T10:06:34Z</time>
      </trkpt>
      <trkpt lat="45.13235" lon="5.57135">
        <ele>1403.195</ele>
        <time>2022-05-29T10:06:39Z</time>
      </trkpt>
      <trkpt lat="45.13211" lon="5.57129">
        <ele>1401.795</ele>
        <time>2022-05-29T10:06:44Z</time>
      </trkpt>
      <trkpt lat="45.13189" lon="5.57132">
        <ele>1396.565</ele>
        <time>2022-05-29T10:06:49Z</time>
      </trkpt>
      <trkpt lat="45.13172" lon="5.57119">
        <ele>1394.044</ele>
        <time>2022-05-29T10:06:54Z</time>
      </trkpt>
      <trkpt lat="45.13149" lon="5.57108">
        <ele>1391.436</ele>
        <time>2022-05-29T10:06:59Z</time>
      </trkpt>
      <trkpt lat="45.13127" lon="5.57092">
        <ele>1387.275</ele>
        <time>2022-05-29T10:07:04Z</time>
      </trkpt>
      <trkpt lat="45.13107" lon="5.57097">
        <ele>1387.44</ele>
        <time>2022-05-29T10:07:09Z</time>
      </trkpt>
      <trkpt lat="45.13093" lon="5.57079">
        <ele>1384.012</ele>
        <time>2022-05-29T10:07:14Z</time>
      </trkpt>
      <trkpt lat="45.13069" lon="5.57083">
        <ele>1380.128</ele>
        <time>2022-05-29T10:07:19Z</time>
      </trkpt>
      <trkpt lat="45.1305" lon="5.57075">
        <ele>1376.602</ele>
        <time>2022-05-29T10:07:24Z</time>
      </trkpt>
      <trkpt lat="45.1303" lon="5.57083">
        <ele>1372.349</ele>
        <time>2022-05-29T10:07:29Z</time>
      </trkpt>
      <trkpt lat="45.13023" lon="5.57091">
        <ele>1368.677</ele>
        <time>2022-05-29T10:07:34Z</time>
      </trkpt>
      <trkpt lat="45.13012" lon="5.5709">
        <ele>1363.333</ele>
        <time>2022-05-29T10:07:39Z</time>
      </trkpt>
      <trkpt lat="45.12998" lon="5.57078">
        <ele>1358.306</ele>
        <time>2022-05-29T10:07:44Z</time>
      </trkpt>
      <trkpt lat="45.12982" lon="5.5707">
        <ele>1353.827</ele>
        <time>2022-05-29T10:07:49Z</time>
      </trkpt>
      <trkpt lat="45.12954" lon="5.57074">
        <ele>1347.962</ele>
        <time>2022-05-29T10:07:54Z</time>
      </trkpt>
      <trkpt lat="45.1293" lon="5.57052">
        <ele>1344.232</ele>
        <time>2022-05-29T10:07:59Z</time>
      </trkpt>
      <trkpt lat="45.12916" lon="5.57039">
        <ele>1342.39</ele>
        <time>2022-05-29T10:08:04Z</time>
      </trkpt>
      <trkpt lat="45.12895" lon="5.57029">
        <ele>1340.357</ele>
        <time>2022-05-29T10:08:09Z</time>
      </trkpt>
      <trkpt lat="45.12884" lon="5.57041">
        <ele>1337.141</ele>
        <time>2022-05-29T10:08:14Z</time>
      </trkpt>
      <trkpt lat="45.1287" lon="5.57032">
        <ele>1334.056</ele>
        <time>2022-05-29T10:08:19Z</time>
      </trkpt>
      <trkpt lat="45.12847" lon="5.57023">
        <ele>1326.544</ele>
        <time>2022-05-29T10:08:24Z</time>
      </trkpt>
      <trkpt lat="45.12827" lon="5.57014">
        <ele>1323.992</ele>
        <time>2022-05-29T10:08:29Z</time>
      </trkpt>
      <trkpt lat="45.12808" lon="5.57003">
        <ele>1323.846</ele>
        <time>2022-05-29T10:08:34Z</time>
      </trkpt>
      <trkpt lat="45.1279" lon="5.56988">
        <ele>1323.137</ele>
        <time>2022-05-29T10:08:39Z</time>
      </trkpt>
      <trkpt lat="45.12774" lon="5.56981">
        <ele>1322.951</ele>
        <time>2022-05-29T10:08:44Z</time>
      </trkpt>
      <trkpt lat="45.12761" lon="5.56974">
        <ele>1321.304</ele>
        <time>2022-05-29T10:08:49Z</time>
      </trkpt>
      <trkpt lat="45.12751" lon="5.56959">
        <ele>1323.08</ele>
        <time>2022-05-29T10:08:54Z</time>
      </trkpt>
      <trkpt lat="45.12749" lon="5.56954">
        <ele>1321.649</ele>
        <time>2022-05-29T10:08:59Z</time>
      </trkpt>
      <trkpt lat="45.12747" lon="5.56953">
        <ele>1322.757</ele>
        <time>2022-05-29T10:09:04Z</time>
      </trkpt>
      <trkpt lat="45.12747" lon="5.56951">
        <ele>1322.193</ele>
        <time>2022-05-29T10:09:09Z</time>
      </trkpt>
      <trkpt lat="45.12747" lon="5.56952">
        <ele>1322.747</ele>
        <time>2022-05-29T10:09:14Z</time>
      </trkpt>
      <trkpt lat="45.12747" lon="5.56952">
        <ele>1322.717</ele>
        <time>2022-05-29T10:09:19Z</time>
      </trkpt>
      <trkpt lat="45.12747" lon="5.56952">
        <ele>1322.746</ele>
        <time>2022-05-29T10:09:24Z</time>
      </trkpt>
      <trkpt lat="45.12747" lon="5.56952">
        <ele>1323.278</ele>
        <time>2022-05-29T10:09:29Z</time>
      </trkpt>
      <trkpt lat="45.12748" lon="5.56952">
        <ele>1323.859</ele>
        <time>2022-05-29T10:09:34Z</time>
      </trkpt>
      <trkpt lat="45.12748" lon="5.56952">
        <ele>1324.097</ele>
        <time>2022-05-29T10:09:39Z</time>
      </trkpt>
      <trkpt lat="45.12748" lon="5.56952">
        <ele>1324.11</ele>
        <time>2022-05-29T10:09:44Z</time>
      </trkpt>
      <trkpt lat="45.12748" lon="5.56952">
        <ele>1324.127</ele>
        <time>2022-05-29T10:09:49Z</time>
      </trkpt>
      <trkpt lat="45.12748" lon="5.56952">
        <ele>1324.13</ele>
        <time>2022-05-29T10:09:54Z</time>
      </trkpt>
      <trkpt lat="45.12748" lon="5.56952">
        <ele>1324.13</ele>
        <time>2022-05-29T10:09:59Z</time>
      </trkpt>
      <trkpt lat="45.12748" lon="5.56952">
        <ele>1324.107</ele>
        <time>2022-05-29T10:10:04Z</time>
      </trkpt>
      <trkpt lat="45.12747" lon="5.56953">
        <ele>1324.027</ele>
        <time>2022-05-29T10:10:09Z</time>
      </trkpt>
      <trkpt lat="45.12733" lon="5.56953">
        <ele>1321.052</ele>
        <time>2022-05-29T10:10:14Z</time>
      </trkpt>
      <trkpt lat="45.12718" lon="5.56947">
        <ele>1319.349</ele>
        <time>2022-05-29T10:10:19Z</time>
      </trkpt>
      <trkpt lat="45.12719" lon="5.56946">
        <ele>1318.727</ele>
        <time>2022-05-29T10:10:24Z</time>
      </trkpt>
      <trkpt lat="45.12714" lon="5.56941">
        <ele>1316.026</ele>
        <time>2022-05-29T10:10:29Z</time>
      </trkpt>
      <trkpt lat="45.12714" lon="5.56941">
        <ele>1316.117</ele>
        <time>2022-05-29T10:10:34Z</time>
      </trkpt>
      <trkpt lat="45.12714" lon="5.56941">
        <ele>1316.175</ele>
        <time>2022-05-29T10:10:39Z</time>
      </trkpt>
      <trkpt lat="45.12714" lon="5.56937">
        <ele>1315.129</ele>
        <time>2022-05-29T10:10:44Z</time>
      </trkpt>
      <trkpt lat="45.12716" lon="5.56919">
        <ele>1317.384</ele>
        <time>2022-05-29T10:10:49Z</time>
      </trkpt>
      <trkpt lat="45.12724" lon="5.56894">
        <ele>1315.358</ele>
        <time>2022-05-29T10:10:54Z</time>
      </trkpt>
      <trkpt lat="45.1273" lon="5.56869">
        <ele>1312.139</ele>
        <time>2022-05-29T10:10:59Z</time>
      </trkpt>
      <trkpt lat="45.12735" lon="5.56857">
        <ele>1311.198</ele>
        <time>2022-05-29T10:11:04Z</time>
      </trkpt>
      <trkpt lat="45.12724" lon="5.56854">
        <ele>1308.53</ele>
        <time>2022-05-29T10:11:09Z</time>
      </trkpt>
      <trkpt lat="45.12729" lon="5.56826">
        <ele>1307.003</ele>
        <time>2022-05-29T10:11:14Z</time>
      </trkpt>
      <trkpt lat="45.12731" lon="5.56811">
        <ele>1302.383</ele>
        <time>2022-05-29T10:11:19Z</time>
      </trkpt>
      <trkpt lat="45.1273" lon="5.56814">
        <ele>1300.842</ele>
        <time>2022-05-29T10:11:24Z</time>
      </trkpt>
      <trkpt lat="45.12732" lon="5.56811">
        <ele>1302.127</ele>
        <time>2022-05-29T10:11:29Z</time>
      </trkpt>
      <trkpt lat="45.12733" lon="5.56811">
        <ele>1301.758</ele>
        <time>2022-05-29T10:11:34Z</time>
      </trkpt>
      <trkpt lat="45.12734" lon="5.56813">
        <ele>1301.44</ele>
        <time>2022-05-29T10:11:39Z</time>
      </trkpt>
      <trkpt lat="45.12737" lon="5.56813">
        <ele>1299.088</ele>
        <time>2022-05-29T10:11:44Z</time>
      </trkpt>
      <trkpt lat="45.12739" lon="5.56814">
        <ele>1301.029</ele>
        <time>2022-05-29T10:11:49Z</time>
      </trkpt>
      <trkpt lat="45.12739" lon="5.56814">
        <ele>1301.706</ele>
        <time>2022-05-29T10:11:54Z</time>
      </trkpt>
      <trkpt lat="45.1274" lon="5.56814">
        <ele>1302.012</ele>
        <time>2022-05-29T10:11:59Z</time>
      </trkpt>
      <trkpt lat="45.1274" lon="5.56814">
        <ele>1302.442</ele>
        <time>2022-05-29T10:12:04Z</time>
      </trkpt>
      <trkpt lat="45.12739" lon="5.56813">
        <ele>1302.594</ele>
        <time>2022-05-29T10:12:09Z</time>
      </trkpt>
      <trkpt lat="45.12739" lon="5.56813">
        <ele>1302.621</ele>
        <time>2022-05-29T10:12:14Z</time>
      </trkpt>
      <trkpt lat="45.12739" lon="5.56813">
        <ele>1302.646</ele>
        <time>2022-05-29T10:12:19Z</time>
      </trkpt>
      <trkpt lat="45.12739" lon="5.56813">
        <ele>1302.645</ele>
        <time>2022-05-29T10:12:24Z</time>
      </trkpt>
      <trkpt lat="45.12739" lon="5.56813">
        <ele>1302.68</ele>
        <time>2022-05-29T10:12:29Z</time>
      </trkpt>
      <trkpt lat="45.12739" lon="5.56813">
        <ele>1302.686</ele>
        <time>2022-05-29T10:12:34Z</time>
      </trkpt>
      <trkpt lat="45.12737" lon="5.56816">
        <ele>1302.631</ele>
        <time>2022-05-29T10:12:39Z</time>
      </trkpt>
      <trkpt lat="45.12731" lon="5.56817">
        <ele>1298.479</ele>
        <time>2022-05-29T10:12:44Z</time>
      </trkpt>
      <trkpt lat="45.12731" lon="5.56818">
        <ele>1298.557</ele>
        <time>2022-05-29T10:12:49Z</time>
      </trkpt>
      <trkpt lat="45.1273" lon="5.56818">
        <ele>1298.757</ele>
        <time>2022-05-29T10:12:54Z</time>
      </trkpt>
      <trkpt lat="45.1273" lon="5.56818">
        <ele>1298.599</ele>
        <time>2022-05-29T10:12:59Z</time>
      </trkpt>
      <trkpt lat="45.1273" lon="5.56818">
        <ele>1298.591</ele>
        <time>2022-05-29T10:13:04Z</time>
      </trkpt>
      <trkpt lat="45.1273" lon="5.56818">
        <ele>1298.589</ele>
        <time>2022-05-29T10:13:09Z</time>
      </trkpt>
      <trkpt lat="45.1273" lon="5.56818">
        <ele>1298.597</ele>
        <time>2022-05-29T10:13:14Z</time>
      </trkpt>
      <trkpt lat="45.1273" lon="5.56818">
        <ele>1298.604</ele>
        <time>2022-05-29T10:13:19Z</time>
      </trkpt>
      <trkpt lat="45.1273" lon="5.56818">
        <ele>1298.636</ele>
        <time>2022-05-29T10:13:24Z</time>
      </trkpt>
      <trkpt lat="45.1273" lon="5.56818">
        <ele>1298.65</ele>
        <time>2022-05-29T10:13:29Z</time>
      </trkpt>
      <trkpt lat="45.12729" lon="5.56818">
        <ele>1299.111</ele>
        <time>2022-05-29T10:13:34Z</time>
      </trkpt>
      <trkpt lat="45.1271" lon="5.56817">
        <ele>1297.154</ele>
        <time>2022-05-29T10:13:39Z</time>
      </trkpt>
      <trkpt lat="45.12681" lon="5.56806">
        <ele>1290.816</ele>
        <time>2022-05-29T10:13:44Z</time>
      </trkpt>
      <trkpt lat="45.12651" lon="5.56803">
        <ele>1284.387</ele>
        <time>2022-05-29T10:13:49Z</time>
      </trkpt>
      <trkpt lat="45.12625" lon="5.5678">
        <ele>1286.508</ele>
        <time>2022-05-29T10:13:54Z</time>
      </trkpt>
      <trkpt lat="45.12609" lon="5.56778">
        <ele>1281.976</ele>
        <time>2022-05-29T10:13:59Z</time>
      </trkpt>
      <trkpt lat="45.12607" lon="5.56778">
        <ele>1277.619</ele>
        <time>2022-05-29T10:14:04Z</time>
      </trkpt>
      <trkpt lat="45.12606" lon="5.56778">
        <ele>1277.745</ele>
        <time>2022-05-29T10:14:09Z</time>
      </trkpt>
      <trkpt lat="45.12606" lon="5.56779">
        <ele>1277.198</ele>
        <time>2022-05-29T10:14:14Z</time>
      </trkpt>
      <trkpt lat="45.12606" lon="5.56779">
        <ele>1277.191</ele>
        <time>2022-05-29T10:14:19Z</time>
      </trkpt>
      <trkpt lat="45.126" lon="5.56781">
        <ele>1278.495</ele>
        <time>2022-05-29T10:14:24Z</time>
      </trkpt>
      <trkpt lat="45.12576" lon="5.56784">
        <ele>1273.551</ele>
        <time>2022-05-29T10:14:29Z</time>
      </trkpt>
      <trkpt lat="45.12541" lon="5.56791">
        <ele>1270.028</ele>
        <time>2022-05-29T10:14:34Z</time>
      </trkpt>
      <trkpt lat="45.12507" lon="5.56791">
        <ele>1269.093</ele>
        <time>2022-05-29T10:14:39Z</time>
      </trkpt>
      <trkpt lat="45.12487" lon="5.56774">
        <ele>1263.338</ele>
        <time>2022-05-29T10:14:44Z</time>
      </trkpt>
      <trkpt lat="45.12461" lon="5.56772">
        <ele>1255.525</ele>
        <time>2022-05-29T10:14:49Z</time>
      </trkpt>
      <trkpt lat="45.1244" lon="5.56777">
        <ele>1257.798</ele>
        <time>2022-05-29T10:14:54Z</time>
      </trkpt>
      <trkpt lat="45.12422" lon="5.56786">
        <ele>1254.515</ele>
        <time>2022-05-29T10:14:59Z</time>
      </trkpt>
      <trkpt lat="45.12401" lon="5.56797">
        <ele>1253.567</ele>
        <time>2022-05-29T10:15:04Z</time>
      </trkpt>
      <trkpt lat="45.1239" lon="5.5681">
        <ele>1252.735</ele>
        <time>2022-05-29T10:15:09Z</time>
      </trkpt>
      <trkpt lat="45.12388" lon="5.56823">
        <ele>1253.185</ele>
        <time>2022-05-29T10:15:14Z</time>
      </trkpt>
      <trkpt lat="45.12381" lon="5.56833">
        <ele>1252.58</ele>
        <time>2022-05-29T10:15:19Z</time>
      </trkpt>
      <trkpt lat="45.12375" lon="5.56834">
        <ele>1250.012</ele>
        <time>2022-05-29T10:15:24Z</time>
      </trkpt>
      <trkpt lat="45.12374" lon="5.56835">
        <ele>1250.382</ele>
        <time>2022-05-29T10:15:29Z</time>
      </trkpt>
      <trkpt lat="45.12374" lon="5.56835">
        <ele>1250.603</ele>
        <time>2022-05-29T10:15:34Z</time>
      </trkpt>
      <trkpt lat="45.12361" lon="5.56835">
        <ele>1249.039</ele>
        <time>2022-05-29T10:15:39Z</time>
      </trkpt>
      <trkpt lat="45.12343" lon="5.56837">
        <ele>1246.391</ele>
        <time>2022-05-29T10:15:44Z</time>
      </trkpt>
      <trkpt lat="45.12326" lon="5.56834">
        <ele>1242.201</ele>
        <time>2022-05-29T10:15:49Z</time>
      </trkpt>
      <trkpt lat="45.12303" lon="5.56828">
        <ele>1237.434</ele>
        <time>2022-05-29T10:15:54Z</time>
      </trkpt>
      <trkpt lat="45.12288" lon="5.56821">
        <ele>1234.965</ele>
        <time>2022-05-29T10:15:59Z</time>
      </trkpt>
      <trkpt lat="45.12281" lon="5.56843">
        <ele>1229.924</ele>
        <time>2022-05-29T10:16:04Z</time>
      </trkpt>
      <trkpt lat="45.12257" lon="5.56849">
        <ele>1226.962</ele>
        <time>2022-05-29T10:16:09Z</time>
      </trkpt>
      <trkpt lat="45.12241" lon="5.56851">
        <ele>1221.978</ele>
        <time>2022-05-29T10:16:14Z</time>
      </trkpt>
      <trkpt lat="45.12215" lon="5.56852">
        <ele>1217.351</ele>
        <time>2022-05-29T10:16:19Z</time>
      </trkpt>
      <trkpt lat="45.12195" lon="5.56848">
        <ele>1211.828</ele>
        <time>2022-05-29T10:16:24Z</time>
      </trkpt>
      <trkpt lat="45.12186" lon="5.56853">
        <ele>1208.901</ele>
        <time>2022-05-29T10:16:29Z</time>
      </trkpt>
      <trkpt lat="45.12167" lon="5.56855">
        <ele>1204.583</ele>
        <time>2022-05-29T10:16:34Z</time>
      </trkpt>
      <trkpt lat="45.12162" lon="5.56863">
        <ele>1200.516</ele>
        <time>2022-05-29T10:16:39Z</time>
      </trkpt>
      <trkpt lat="45.12148" lon="5.56863">
        <ele>1193.415</ele>
        <time>2022-05-29T10:16:44Z</time>
      </trkpt>
      <trkpt lat="45.12137" lon="5.56867">
        <ele>1188.83</ele>
        <time>2022-05-29T10:16:49Z</time>
      </trkpt>
      <trkpt lat="45.12126" lon="5.56874">
        <ele>1187.067</ele>
        <time>2022-05-29T10:16:54Z</time>
      </trkpt>
      <trkpt lat="45.12121" lon="5.56877">
        <ele>1184.958</ele>
        <time>2022-05-29T10:16:59Z</time>
      </trkpt>
      <trkpt lat="45.12095" lon="5.56867">
        <ele>1178.129</ele>
        <time>2022-05-29T10:17:04Z</time>
      </trkpt>
      <trkpt lat="45.12074" lon="5.56847">
        <ele>1177.971</ele>
        <time>2022-05-29T10:17:09Z</time>
      </trkpt>
      <trkpt lat="45.12063" lon="5.56839">
        <ele>1178.376</ele>
        <time>2022-05-29T10:17:14Z</time>
      </trkpt>
      <trkpt lat="45.12049" lon="5.56834">
        <ele>1178.134</ele>
        <time>2022-05-29T10:17:19Z</time>
      </trkpt>
      <trkpt lat="45.12038" lon="5.56831">
        <ele>1176.754</ele>
        <time>2022-05-29T10:17:24Z</time>
      </trkpt>
      <trkpt lat="45.12037" lon="5.56831">
        <ele>1175.946</ele>
        <time>2022-05-29T10:17:29Z</time>
      </trkpt>
      <trkpt lat="45.12037" lon="5.56831">
        <ele>1176.432</ele>
        <time>2022-05-29T10:17:34Z</time>
      </trkpt>
      <trkpt lat="45.12038" lon="5.56831">
        <ele>1176.937</ele>
        <time>2022-05-29T10:17:39Z</time>
      </trkpt>
      <trkpt lat="45.12037" lon="5.56832">
        <ele>1177.332</ele>
        <time>2022-05-29T10:17:44Z</time>
      </trkpt>
      <trkpt lat="45.12037" lon="5.56832">
        <ele>1177.606</ele>
        <time>2022-05-29T10:17:49Z</time>
      </trkpt>
      <trkpt lat="45.12037" lon="5.56832">
        <ele>1177.781</ele>
        <time>2022-05-29T10:17:54Z</time>
      </trkpt>
      <trkpt lat="45.12037" lon="5.56831">
        <ele>1177.111</ele>
        <time>2022-05-29T10:17:59Z</time>
      </trkpt>
      <trkpt lat="45.12037" lon="5.56831">
        <ele>1176.296</ele>
        <time>2022-05-29T10:18:04Z</time>
      </trkpt>
      <trkpt lat="45.12037" lon="5.56832">
        <ele>1176.351</ele>
        <time>2022-05-29T10:18:09Z</time>
      </trkpt>
      <trkpt lat="45.12037" lon="5.56832">
        <ele>1176.355</ele>
        <time>2022-05-29T10:18:14Z</time>
      </trkpt>
      <trkpt lat="45.12037" lon="5.56832">
        <ele>1176.367</ele>
        <time>2022-05-29T10:18:19Z</time>
      </trkpt>
      <trkpt lat="45.12037" lon="5.56832">
        <ele>1176.374</ele>
        <time>2022-05-29T10:18:24Z</time>
      </trkpt>
      <trkpt lat="45.12037" lon="5.56832">
        <ele>1176.377</ele>
        <time>2022-05-29T10:18:29Z</time>
      </trkpt>
      <trkpt lat="45.12037" lon="5.56832">
        <ele>1176.384</ele>
        <time>2022-05-29T10:18:34Z</time>
      </trkpt>
      <trkpt lat="45.12035" lon="5.56831">
        <ele>1177.549</ele>
        <time>2022-05-29T10:18:39Z</time>
      </trkpt>
      <trkpt lat="45.12022" lon="5.56831">
        <ele>1176.892</ele>
        <time>2022-05-29T10:18:44Z</time>
      </trkpt>
      <trkpt lat="45.11997" lon="5.56832">
        <ele>1170.551</ele>
        <time>2022-05-29T10:18:49Z</time>
      </trkpt>
      <trkpt lat="45.11979" lon="5.5684">
        <ele>1165.607</ele>
        <time>2022-05-29T10:18:54Z</time>
      </trkpt>
      <trkpt lat="45.11967" lon="5.56834">
        <ele>1164.496</ele>
        <time>2022-05-29T10:18:59Z</time>
      </trkpt>
      <trkpt lat="45.11961" lon="5.56836">
        <ele>1161.353</ele>
        <time>2022-05-29T10:19:04Z</time>
      </trkpt>
      <trkpt lat="45.11954" lon="5.5684">
        <ele>1155.745</ele>
        <time>2022-05-29T10:19:09Z</time>
      </trkpt>
      <trkpt lat="45.11945" lon="5.56844">
        <ele>1152.837</ele>
        <time>2022-05-29T10:19:14Z</time>
      </trkpt>
      <trkpt lat="45.11936" lon="5.56853">
        <ele>1150.092</ele>
        <time>2022-05-29T10:19:19Z</time>
      </trkpt>
      <trkpt lat="45.11937" lon="5.56851">
        <ele>1150.443</ele>
        <time>2022-05-29T10:19:24Z</time>
      </trkpt>
      <trkpt lat="45.11937" lon="5.56851">
        <ele>1152.262</ele>
        <time>2022-05-29T10:19:29Z</time>
      </trkpt>
      <trkpt lat="45.11936" lon="5.5685">
        <ele>1153.244</ele>
        <time>2022-05-29T10:19:34Z</time>
      </trkpt>
      <trkpt lat="45.11936" lon="5.5685">
        <ele>1153.118</ele>
        <time>2022-05-29T10:19:39Z</time>
      </trkpt>
      <trkpt lat="45.11935" lon="5.56846">
        <ele>1152.411</ele>
        <time>2022-05-29T10:19:44Z</time>
      </trkpt>
      <trkpt lat="45.11931" lon="5.56842">
        <ele>1150.622</ele>
        <time>2022-05-29T10:19:49Z</time>
      </trkpt>
      <trkpt lat="45.11925" lon="5.56841">
        <ele>1148.536</ele>
        <time>2022-05-29T10:19:54Z</time>
      </trkpt>
      <trkpt lat="45.11914" lon="5.56848">
        <ele>1143.679</ele>
        <time>2022-05-29T10:19:59Z</time>
      </trkpt>
      <trkpt lat="45.11913" lon="5.5684">
        <ele>1144.921</ele>
        <time>2022-05-29T10:20:04Z</time>
      </trkpt>
      <trkpt lat="45.11897" lon="5.56852">
        <ele>1141.601</ele>
        <time>2022-05-29T10:20:09Z</time>
      </trkpt>
      <trkpt lat="45.11884" lon="5.56858">
        <ele>1138.123</ele>
        <time>2022-05-29T10:20:14Z</time>
      </trkpt>
      <trkpt lat="45.11878" lon="5.56859">
        <ele>1134.796</ele>
        <time>2022-05-29T10:20:19Z</time>
      </trkpt>
      <trkpt lat="45.11868" lon="5.56858">
        <ele>1131.716</ele>
        <time>2022-05-29T10:20:24Z</time>
      </trkpt>
      <trkpt lat="45.11871" lon="5.56854">
        <ele>1132.703</ele>
        <time>2022-05-29T10:20:29Z</time>
      </trkpt>
      <trkpt lat="45.11871" lon="5.56855">
        <ele>1133.145</ele>
        <time>2022-05-29T10:20:34Z</time>
      </trkpt>
      <trkpt lat="45.11871" lon="5.56855">
        <ele>1133.302</ele>
        <time>2022-05-29T10:20:39Z</time>
      </trkpt>
      <trkpt lat="45.11871" lon="5.56855">
        <ele>1134.249</ele>
        <time>2022-05-29T10:20:44Z</time>
      </trkpt>
      <trkpt lat="45.1187" lon="5.56856">
        <ele>1134.891</ele>
        <time>2022-05-29T10:20:49Z</time>
      </trkpt>
      <trkpt lat="45.11869" lon="5.56855">
        <ele>1135.113</ele>
        <time>2022-05-29T10:20:54Z</time>
      </trkpt>
      <trkpt lat="45.1187" lon="5.56855">
        <ele>1136.059</ele>
        <time>2022-05-29T10:20:59Z</time>
      </trkpt>
      <trkpt lat="45.1187" lon="5.56855">
        <ele>1135.325</ele>
        <time>2022-05-29T10:21:04Z</time>
      </trkpt>
      <trkpt lat="45.11871" lon="5.56855">
        <ele>1134.174</ele>
        <time>2022-05-29T10:21:09Z</time>
      </trkpt>
      <trkpt lat="45.1187" lon="5.56855">
        <ele>1133.483</ele>
        <time>2022-05-29T10:21:14Z</time>
      </trkpt>
      <trkpt lat="45.1187" lon="5.56855">
        <ele>1133.591</ele>
        <time>2022-05-29T10:21:19Z</time>
      </trkpt>
      <trkpt lat="45.11871" lon="5.56857">
        <ele>1132.184</ele>
        <time>2022-05-29T10:21:24Z</time>
      </trkpt>
      <trkpt lat="45.11872" lon="5.56856">
        <ele>1131.369</ele>
        <time>2022-05-29T10:21:29Z</time>
      </trkpt>
      <trkpt lat="45.11872" lon="5.56857">
        <ele>1131.315</ele>
        <time>2022-05-29T10:21:34Z</time>
      </trkpt>
      <trkpt lat="45.11872" lon="5.56857">
        <ele>1131.324</ele>
        <time>2022-05-29T10:21:39Z</time>
      </trkpt>
      <trkpt lat="45.11872" lon="5.56857">
        <ele>1131.323</ele>
        <time>2022-05-29T10:21:44Z</time>
      </trkpt>
      <trkpt lat="45.11872" lon="5.56857">
        <ele>1131.325</ele>
        <time>2022-05-29T10:21:49Z</time>
      </trkpt>
      <trkpt lat="45.11872" lon="5.56857">
        <ele>1131.326</ele>
        <time>2022-05-29T10:21:54Z</time>
      </trkpt>
      <trkpt lat="45.11872" lon="5.56857">
        <ele>1131.327</ele>
        <time>2022-05-29T10:21:59Z</time>
      </trkpt>
      <trkpt lat="45.11872" lon="5.56857">
        <ele>1131.326</ele>
        <time>2022-05-29T10:22:04Z</time>
      </trkpt>
      <trkpt lat="45.11872" lon="5.56857">
        <ele>1131.329</ele>
        <time>2022-05-29T10:22:09Z</time>
      </trkpt>
      <trkpt lat="45.11872" lon="5.56856">
        <ele>1131.248</ele>
        <time>2022-05-29T10:22:14Z</time>
      </trkpt>
      <trkpt lat="45.11872" lon="5.56854">
        <ele>1131.924</ele>
        <time>2022-05-29T10:22:19Z</time>
      </trkpt>
      <trkpt lat="45.11876" lon="5.56848">
        <ele>1133.853</ele>
        <time>2022-05-29T10:22:24Z</time>
      </trkpt>
      <trkpt lat="45.11879" lon="5.5684">
        <ele>1135.94</ele>
        <time>2022-05-29T10:22:29Z</time>
      </trkpt>
      <trkpt lat="45.11884" lon="5.56833">
        <ele>1137.268</ele>
        <time>2022-05-29T10:22:34Z</time>
      </trkpt>
      <trkpt lat="45.1189" lon="5.56826">
        <ele>1139.014</ele>
        <time>2022-05-29T10:22:39Z</time>
      </trkpt>
      <trkpt lat="45.11895" lon="5.56816">
        <ele>1140.339</ele>
        <time>2022-05-29T10:22:44Z</time>
      </trkpt>
      <trkpt lat="45.11897" lon="5.56807">
        <ele>1141.184</ele>
        <time>2022-05-29T10:22:49Z</time>
      </trkpt>
      <trkpt lat="45.11897" lon="5.56798">
        <ele>1139.959</ele>
        <time>2022-05-29T10:22:54Z</time>
      </trkpt>
      <trkpt lat="45.119" lon="5.56788">
        <ele>1140.428</ele>
        <time>2022-05-29T10:22:59Z</time>
      </trkpt>
      <trkpt lat="45.11903" lon="5.56776">
        <ele>1141.571</ele>
        <time>2022-05-29T10:23:04Z</time>
      </trkpt>
      <trkpt lat="45.11907" lon="5.56765">
        <ele>1141.297</ele>
        <time>2022-05-29T10:23:09Z</time>
      </trkpt>
      <trkpt lat="45.11911" lon="5.56753">
        <ele>1142.106</ele>
        <time>2022-05-29T10:23:14Z</time>
      </trkpt>
      <trkpt lat="45.11915" lon="5.56742">
        <ele>1142.778</ele>
        <time>2022-05-29T10:23:19Z</time>
      </trkpt>
      <trkpt lat="45.11919" lon="5.56733">
        <ele>1143.55</ele>
        <time>2022-05-29T10:23:24Z</time>
      </trkpt>
      <trkpt lat="45.11923" lon="5.56723">
        <ele>1144.527</ele>
        <time>2022-05-29T10:23:29Z</time>
      </trkpt>
      <trkpt lat="45.11926" lon="5.56713">
        <ele>1144.775</ele>
        <time>2022-05-29T10:23:34Z</time>
      </trkpt>
      <trkpt lat="45.11931" lon="5.56703">
        <ele>1145.995</ele>
        <time>2022-05-29T10:23:39Z</time>
      </trkpt>
      <trkpt lat="45.11935" lon="5.56694">
        <ele>1145.951</ele>
        <time>2022-05-29T10:23:44Z</time>
      </trkpt>
      <trkpt lat="45.11939" lon="5.56685">
        <ele>1147.027</ele>
        <time>2022-05-29T10:23:49Z</time>
      </trkpt>
      <trkpt lat="45.11944" lon="5.56676">
        <ele>1147.206</ele>
        <time>2022-05-29T10:23:54Z</time>
      </trkpt>
      <trkpt lat="45.11949" lon="5.56668">
        <ele>1147.506</ele>
        <time>2022-05-29T10:23:59Z</time>
      </trkpt>
      <trkpt lat="45.11953" lon="5.56661">
        <ele>1148.752</ele>
        <time>2022-05-29T10:24:04Z</time>
      </trkpt>
      <trkpt lat="45.11958" lon="5.56654">
        <ele>1149.182</ele>
        <time>2022-05-29T10:24:09Z</time>
      </trkpt>
      <trkpt lat="45.11964" lon="5.56646">
        <ele>1150.144</ele>
        <time>2022-05-29T10:24:14Z</time>
      </trkpt>
      <trkpt lat="45.1197" lon="5.56637">
        <ele>1150.346</ele>
        <time>2022-05-29T10:24:19Z</time>
      </trkpt>
      <trkpt lat="45.11975" lon="5.56629">
        <ele>1151.098</ele>
        <time>2022-05-29T10:24:24Z</time>
      </trkpt>
      <trkpt lat="45.1198" lon="5.5662">
        <ele>1152.302</ele>
        <time>2022-05-29T10:24:29Z</time>
      </trkpt>
      <trkpt lat="45.11985" lon="5.56611">
        <ele>1153.951</ele>
        <time>2022-05-29T10:24:34Z</time>
      </trkpt>
      <trkpt lat="45.11991" lon="5.56603">
        <ele>1154.27</ele>
        <time>2022-05-29T10:24:39Z</time>
      </trkpt>
      <trkpt lat="45.11997" lon="5.56596">
        <ele>1154.028</ele>
        <time>2022-05-29T10:24:44Z</time>
      </trkpt>
      <trkpt lat="45.12005" lon="5.5659">
        <ele>1154.522</ele>
        <time>2022-05-29T10:24:49Z</time>
      </trkpt>
      <trkpt lat="45.12014" lon="5.56585">
        <ele>1154.991</ele>
        <time>2022-05-29T10:24:54Z</time>
      </trkpt>
      <trkpt lat="45.12021" lon="5.56583">
        <ele>1155.802</ele>
        <time>2022-05-29T10:24:59Z</time>
      </trkpt>
      <trkpt lat="45.12028" lon="5.56582">
        <ele>1154.035</ele>
        <time>2022-05-29T10:25:04Z</time>
      </trkpt>
      <trkpt lat="45.12038" lon="5.56583">
        <ele>1155.354</ele>
        <time>2022-05-29T10:25:09Z</time>
      </trkpt>
      <trkpt lat="45.12045" lon="5.56581">
        <ele>1157.915</ele>
        <time>2022-05-29T10:25:14Z</time>
      </trkpt>
      <trkpt lat="45.12053" lon="5.56577">
        <ele>1157.96</ele>
        <time>2022-05-29T10:25:19Z</time>
      </trkpt>
      <trkpt lat="45.12058" lon="5.56569">
        <ele>1159.905</ele>
        <time>2022-05-29T10:25:24Z</time>
      </trkpt>
      <trkpt lat="45.1206" lon="5.56561">
        <ele>1160.884</ele>
        <time>2022-05-29T10:25:29Z</time>
      </trkpt>
      <trkpt lat="45.12057" lon="5.56555">
        <ele>1163.237</ele>
        <time>2022-05-29T10:25:34Z</time>
      </trkpt>
      <trkpt lat="45.12052" lon="5.5655">
        <ele>1164.305</ele>
        <time>2022-05-29T10:25:39Z</time>
      </trkpt>
      <trkpt lat="45.12045" lon="5.56548">
        <ele>1166.747</ele>
        <time>2022-05-29T10:25:44Z</time>
      </trkpt>
      <trkpt lat="45.12038" lon="5.56545">
        <ele>1167.4</ele>
        <time>2022-05-29T10:25:49Z</time>
      </trkpt>
      <trkpt lat="45.12034" lon="5.56534">
        <ele>1166.542</ele>
        <time>2022-05-29T10:25:54Z</time>
      </trkpt>
      <trkpt lat="45.12032" lon="5.56523">
        <ele>1167.986</ele>
        <time>2022-05-29T10:25:59Z</time>
      </trkpt>
      <trkpt lat="45.12029" lon="5.56513">
        <ele>1170.43</ele>
        <time>2022-05-29T10:26:04Z</time>
      </trkpt>
      <trkpt lat="45.12023" lon="5.56506">
        <ele>1174.188</ele>
        <time>2022-05-29T10:26:09Z</time>
      </trkpt>
      <trkpt lat="45.12017" lon="5.56499">
        <ele>1173.807</ele>
        <time>2022-05-29T10:26:14Z</time>
      </trkpt>
      <trkpt lat="45.1201" lon="5.56493">
        <ele>1172.611</ele>
        <time>2022-05-29T10:26:19Z</time>
      </trkpt>
      <trkpt lat="45.12003" lon="5.56488">
        <ele>1173.473</ele>
        <time>2022-05-29T10:26:24Z</time>
      </trkpt>
      <trkpt lat="45.11996" lon="5.56484">
        <ele>1174.46</ele>
        <time>2022-05-29T10:26:29Z</time>
      </trkpt>
      <trkpt lat="45.11989" lon="5.56478">
        <ele>1173.883</ele>
        <time>2022-05-29T10:26:34Z</time>
      </trkpt>
      <trkpt lat="45.11983" lon="5.56471">
        <ele>1176.696</ele>
        <time>2022-05-29T10:26:39Z</time>
      </trkpt>
      <trkpt lat="45.11978" lon="5.56462">
        <ele>1177.221</ele>
        <time>2022-05-29T10:26:44Z</time>
      </trkpt>
      <trkpt lat="45.11975" lon="5.5645">
        <ele>1178.801</ele>
        <time>2022-05-29T10:26:49Z</time>
      </trkpt>
      <trkpt lat="45.11974" lon="5.56437">
        <ele>1180.246</ele>
        <time>2022-05-29T10:26:54Z</time>
      </trkpt>
      <trkpt lat="45.11974" lon="5.56423">
        <ele>1180.694</ele>
        <time>2022-05-29T10:26:59Z</time>
      </trkpt>
      <trkpt lat="45.11977" lon="5.5641">
        <ele>1180.841</ele>
        <time>2022-05-29T10:27:04Z</time>
      </trkpt>
      <trkpt lat="45.11983" lon="5.56399">
        <ele>1180.085</ele>
        <time>2022-05-29T10:27:09Z</time>
      </trkpt>
      <trkpt lat="45.1199" lon="5.56388">
        <ele>1180.737</ele>
        <time>2022-05-29T10:27:14Z</time>
      </trkpt>
      <trkpt lat="45.11999" lon="5.56383">
        <ele>1181.503</ele>
        <time>2022-05-29T10:27:19Z</time>
      </trkpt>
      <trkpt lat="45.12008" lon="5.56381">
        <ele>1182.444</ele>
        <time>2022-05-29T10:27:24Z</time>
      </trkpt>
      <trkpt lat="45.12015" lon="5.5638">
        <ele>1182.908</ele>
        <time>2022-05-29T10:27:29Z</time>
      </trkpt>
      <trkpt lat="45.12017" lon="5.56379">
        <ele>1181.338</ele>
        <time>2022-05-29T10:27:34Z</time>
      </trkpt>
      <trkpt lat="45.12018" lon="5.5638">
        <ele>1179.359</ele>
        <time>2022-05-29T10:27:39Z</time>
      </trkpt>
      <trkpt lat="45.12019" lon="5.56376">
        <ele>1179.411</ele>
        <time>2022-05-29T10:27:44Z</time>
      </trkpt>
      <trkpt lat="45.1202" lon="5.56372">
        <ele>1180.166</ele>
        <time>2022-05-29T10:27:49Z</time>
      </trkpt>
      <trkpt lat="45.12028" lon="5.56369">
        <ele>1179.975</ele>
        <time>2022-05-29T10:27:54Z</time>
      </trkpt>
      <trkpt lat="45.12038" lon="5.56363">
        <ele>1182.09</ele>
        <time>2022-05-29T10:27:59Z</time>
      </trkpt>
      <trkpt lat="45.12049" lon="5.5636">
        <ele>1182.425</ele>
        <time>2022-05-29T10:28:04Z</time>
      </trkpt>
      <trkpt lat="45.12062" lon="5.56355">
        <ele>1182.665</ele>
        <time>2022-05-29T10:28:09Z</time>
      </trkpt>
      <trkpt lat="45.12075" lon="5.56352">
        <ele>1182.624</ele>
        <time>2022-05-29T10:28:14Z</time>
      </trkpt>
      <trkpt lat="45.12089" lon="5.56348">
        <ele>1182.604</ele>
        <time>2022-05-29T10:28:19Z</time>
      </trkpt>
      <trkpt lat="45.12104" lon="5.56344">
        <ele>1181.432</ele>
        <time>2022-05-29T10:28:24Z</time>
      </trkpt>
      <trkpt lat="45.12119" lon="5.56338">
        <ele>1180.863</ele>
        <time>2022-05-29T10:28:29Z</time>
      </trkpt>
      <trkpt lat="45.12133" lon="5.56327">
        <ele>1179.994</ele>
        <time>2022-05-29T10:28:34Z</time>
      </trkpt>
      <trkpt lat="45.12145" lon="5.56311">
        <ele>1179.904</ele>
        <time>2022-05-29T10:28:39Z</time>
      </trkpt>
      <trkpt lat="45.12152" lon="5.56288">
        <ele>1179.957</ele>
        <time>2022-05-29T10:28:44Z</time>
      </trkpt>
      <trkpt lat="45.12148" lon="5.56262">
        <ele>1180.112</ele>
        <time>2022-05-29T10:28:49Z</time>
      </trkpt>
      <trkpt lat="45.12137" lon="5.56242">
        <ele>1180.16</ele>
        <time>2022-05-29T10:28:54Z</time>
      </trkpt>
      <trkpt lat="45.12127" lon="5.56221">
        <ele>1180.467</ele>
        <time>2022-05-29T10:28:59Z</time>
      </trkpt>
      <trkpt lat="45.12131" lon="5.56194">
        <ele>1181.767</ele>
        <time>2022-05-29T10:29:04Z</time>
      </trkpt>
      <trkpt lat="45.12149" lon="5.56179">
        <ele>1182.505</ele>
        <time>2022-05-29T10:29:09Z</time>
      </trkpt>
      <trkpt lat="45.12167" lon="5.56165">
        <ele>1183.436</ele>
        <time>2022-05-29T10:29:14Z</time>
      </trkpt>
      <trkpt lat="45.12182" lon="5.5615">
        <ele>1183.238</ele>
        <time>2022-05-29T10:29:19Z</time>
      </trkpt>
      <trkpt lat="45.122" lon="5.56133">
        <ele>1184.234</ele>
        <time>2022-05-29T10:29:24Z</time>
      </trkpt>
      <trkpt lat="45.1222" lon="5.56119">
        <ele>1185.447</ele>
        <time>2022-05-29T10:29:29Z</time>
      </trkpt>
      <trkpt lat="45.1224" lon="5.56107">
        <ele>1184.797</ele>
        <time>2022-05-29T10:29:34Z</time>
      </trkpt>
      <trkpt lat="45.1226" lon="5.56096">
        <ele>1184.591</ele>
        <time>2022-05-29T10:29:39Z</time>
      </trkpt>
      <trkpt lat="45.1228" lon="5.56087">
        <ele>1180.292</ele>
        <time>2022-05-29T10:29:44Z</time>
      </trkpt>
      <trkpt lat="45.12299" lon="5.56084">
        <ele>1179.686</ele>
        <time>2022-05-29T10:29:49Z</time>
      </trkpt>
      <trkpt lat="45.12319" lon="5.56089">
        <ele>1179.745</ele>
        <time>2022-05-29T10:29:54Z</time>
      </trkpt>
      <trkpt lat="45.12338" lon="5.561">
        <ele>1180.397</ele>
        <time>2022-05-29T10:29:59Z</time>
      </trkpt>
      <trkpt lat="45.12356" lon="5.56111">
        <ele>1180.173</ele>
        <time>2022-05-29T10:30:04Z</time>
      </trkpt>
      <trkpt lat="45.12375" lon="5.56124">
        <ele>1180.074</ele>
        <time>2022-05-29T10:30:09Z</time>
      </trkpt>
      <trkpt lat="45.12392" lon="5.5612">
        <ele>1179.375</ele>
        <time>2022-05-29T10:30:14Z</time>
      </trkpt>
      <trkpt lat="45.12408" lon="5.56112">
        <ele>1180.135</ele>
        <time>2022-05-29T10:30:19Z</time>
      </trkpt>
      <trkpt lat="45.12415" lon="5.5611">
        <ele>1180.618</ele>
        <time>2022-05-29T10:30:24Z</time>
      </trkpt>
      <trkpt lat="45.12424" lon="5.56106">
        <ele>1181.732</ele>
        <time>2022-05-29T10:30:29Z</time>
      </trkpt>
      <trkpt lat="45.1243" lon="5.56098">
        <ele>1185.082</ele>
        <time>2022-05-29T10:30:34Z</time>
      </trkpt>
      <trkpt lat="45.12434" lon="5.56094">
        <ele>1183.13</ele>
        <time>2022-05-29T10:30:39Z</time>
      </trkpt>
      <trkpt lat="45.12435" lon="5.56097">
        <ele>1182.554</ele>
        <time>2022-05-29T10:30:44Z</time>
      </trkpt>
      <trkpt lat="45.12436" lon="5.56099">
        <ele>1183.041</ele>
        <time>2022-05-29T10:30:49Z</time>
      </trkpt>
      <trkpt lat="45.12437" lon="5.56101">
        <ele>1182.627</ele>
        <time>2022-05-29T10:30:54Z</time>
      </trkpt>
      <trkpt lat="45.12437" lon="5.56101">
        <ele>1182.678</ele>
        <time>2022-05-29T10:30:59Z</time>
      </trkpt>
      <trkpt lat="45.12437" lon="5.561">
        <ele>1183.913</ele>
        <time>2022-05-29T10:31:04Z</time>
      </trkpt>
      <trkpt lat="45.12437" lon="5.56101">
        <ele>1183.631</ele>
        <time>2022-05-29T10:31:09Z</time>
      </trkpt>
      <trkpt lat="45.12436" lon="5.56101">
        <ele>1183.48</ele>
        <time>2022-05-29T10:31:14Z</time>
      </trkpt>
      <trkpt lat="45.12436" lon="5.561">
        <ele>1183.599</ele>
        <time>2022-05-29T10:31:19Z</time>
      </trkpt>
      <trkpt lat="45.12436" lon="5.56101">
        <ele>1183.788</ele>
        <time>2022-05-29T10:31:24Z</time>
      </trkpt>
      <trkpt lat="45.12436" lon="5.561">
        <ele>1183.335</ele>
        <time>2022-05-29T10:31:29Z</time>
      </trkpt>
      <trkpt lat="45.12436" lon="5.561">
        <ele>1183.456</ele>
        <time>2022-05-29T10:31:34Z</time>
      </trkpt>
      <trkpt lat="45.12436" lon="5.561">
        <ele>1183.542</ele>
        <time>2022-05-29T10:31:39Z</time>
      </trkpt>
      <trkpt lat="45.12436" lon="5.561">
        <ele>1183.56</ele>
        <time>2022-05-29T10:31:44Z</time>
      </trkpt>
      <trkpt lat="45.12436" lon="5.561">
        <ele>1183.588</ele>
        <time>2022-05-29T10:31:49Z</time>
      </trkpt>
      <trkpt lat="45.12436" lon="5.561">
        <ele>1183.588</ele>
        <time>2022-05-29T10:31:54Z</time>
      </trkpt>
      <trkpt lat="45.12436" lon="5.561">
        <ele>1183.624</ele>
        <time>2022-05-29T10:31:59Z</time>
      </trkpt>
      <trkpt lat="45.12436" lon="5.561">
        <ele>1183.626</ele>
        <time>2022-05-29T10:32:04Z</time>
      </trkpt>
      <trkpt lat="45.12436" lon="5.561">
        <ele>1183.673</ele>
        <time>2022-05-29T10:32:09Z</time>
      </trkpt>
      <trkpt lat="45.12436" lon="5.561">
        <ele>1183.73</ele>
        <time>2022-05-29T10:32:14Z</time>
      </trkpt>
      <trkpt lat="45.12436" lon="5.561">
        <ele>1183.748</ele>
        <time>2022-05-29T10:32:19Z</time>
      </trkpt>
      <trkpt lat="45.12436" lon="5.561">
        <ele>1183.779</ele>
        <time>2022-05-29T10:32:24Z</time>
      </trkpt>
      <trkpt lat="45.12436" lon="5.561">
        <ele>1183.801</ele>
        <time>2022-05-29T10:32:29Z</time>
      </trkpt>
      <trkpt lat="45.12436" lon="5.561">
        <ele>1183.821</ele>
        <time>2022-05-29T10:32:34Z</time>
      </trkpt>
      <trkpt lat="45.12436" lon="5.561">
        <ele>1183.821</ele>
        <time>2022-05-29T10:32:39Z</time>
      </trkpt>
      <trkpt lat="45.12436" lon="5.561">
        <ele>1183.822</ele>
        <time>2022-05-29T10:32:44Z</time>
      </trkpt>
      <trkpt lat="45.12436" lon="5.561">
        <ele>1183.807</ele>
        <time>2022-05-29T10:32:49Z</time>
      </trkpt>
      <trkpt lat="45.12436" lon="5.561">
        <ele>1183.811</ele>
        <time>2022-05-29T10:32:54Z</time>
      </trkpt>
      <trkpt lat="45.12436" lon="5.561">
        <ele>1183.828</ele>
        <time>2022-05-29T10:32:59Z</time>
      </trkpt>
      <trkpt lat="45.12436" lon="5.561">
        <ele>1183.834</ele>
        <time>2022-05-29T10:33:04Z</time>
      </trkpt>
      <trkpt lat="45.12436" lon="5.561">
        <ele>1183.836</ele>
        <time>2022-05-29T10:33:09Z</time>
      </trkpt>
      <trkpt lat="45.12436" lon="5.56101">
        <ele>1183.846</ele>
        <time>2022-05-29T10:33:14Z</time>
      </trkpt>
      <trkpt lat="45.12436" lon="5.56101">
        <ele>1183.862</ele>
        <time>2022-05-29T10:33:19Z</time>
      </trkpt>
      <trkpt lat="45.12436" lon="5.56101">
        <ele>1183.873</ele>
        <time>2022-05-29T10:33:24Z</time>
      </trkpt>
      <trkpt lat="45.12436" lon="5.56101">
        <ele>1183.879</ele>
        <time>2022-05-29T10:33:29Z</time>
      </trkpt>
      <trkpt lat="45.12436" lon="5.56101">
        <ele>1183.882</ele>
        <time>2022-05-29T10:33:34Z</time>
      </trkpt>
      <trkpt lat="45.12436" lon="5.56101">
        <ele>1183.891</ele>
        <time>2022-05-29T10:33:39Z</time>
      </trkpt>
      <trkpt lat="45.12436" lon="5.56101">
        <ele>1183.896</ele>
        <time>2022-05-29T10:33:44Z</time>
      </trkpt>
      <trkpt lat="45.12436" lon="5.56101">
        <ele>1183.903</ele>
        <time>2022-05-29T10:33:49Z</time>
      </trkpt>
      <trkpt lat="45.12436" lon="5.56101">
        <ele>1183.907</ele>
        <time>2022-05-29T10:33:54Z</time>
      </trkpt>
      <trkpt lat="45.12436" lon="5.56101">
        <ele>1183.914</ele>
        <time>2022-05-29T10:33:59Z</time>
      </trkpt>
      <trkpt lat="45.12436" lon="5.56101">
        <ele>1183.923</ele>
        <time>2022-05-29T10:34:04Z</time>
      </trkpt>
      <trkpt lat="45.12436" lon="5.56101">
        <ele>1183.937</ele>
        <time>2022-05-29T10:34:09Z</time>
      </trkpt>
      <trkpt lat="45.12436" lon="5.56101">
        <ele>1183.946</ele>
        <time>2022-05-29T10:34:14Z</time>
      </trkpt>
      <trkpt lat="45.12436" lon="5.56101">
        <ele>1183.956</ele>
        <time>2022-05-29T10:34:19Z</time>
      </trkpt>
      <trkpt lat="45.12436" lon="5.56101">
        <ele>1183.962</ele>
        <time>2022-05-29T10:34:24Z</time>
      </trkpt>
      <trkpt lat="45.12436" lon="5.56101">
        <ele>1183.969</ele>
        <time>2022-05-29T10:34:29Z</time>
      </trkpt>
      <trkpt lat="45.12436" lon="5.56101">
        <ele>1183.98</ele>
        <time>2022-05-29T10:34:34Z</time>
      </trkpt>
      <trkpt lat="45.12436" lon="5.56101">
        <ele>1184.008</ele>
        <time>2022-05-29T10:34:39Z</time>
      </trkpt>
      <trkpt lat="45.12436" lon="5.56101">
        <ele>1184.022</ele>
        <time>2022-05-29T10:34:44Z</time>
      </trkpt>
      <trkpt lat="45.12436" lon="5.56101">
        <ele>1184.044</ele>
        <time>2022-05-29T10:34:49Z</time>
      </trkpt>
      <trkpt lat="45.12436" lon="5.56101">
        <ele>1184.07</ele>
        <time>2022-05-29T10:34:54Z</time>
      </trkpt>
      <trkpt lat="45.12436" lon="5.56101">
        <ele>1184.085</ele>
        <time>2022-05-29T10:34:59Z</time>
      </trkpt>
      <trkpt lat="45.12436" lon="5.56101">
        <ele>1184.124</ele>
        <time>2022-05-29T10:35:04Z</time>
      </trkpt>
      <trkpt lat="45.12435" lon="5.56101">
        <ele>1184.149</ele>
        <time>2022-05-29T10:35:09Z</time>
      </trkpt>
      <trkpt lat="45.12435" lon="5.56101">
        <ele>1184.182</ele>
        <time>2022-05-29T10:35:14Z</time>
      </trkpt>
      <trkpt lat="45.12435" lon="5.56101">
        <ele>1184.192</ele>
        <time>2022-05-29T10:35:19Z</time>
      </trkpt>
      <trkpt lat="45.12435" lon="5.56101">
        <ele>1184.218</ele>
        <time>2022-05-29T10:35:24Z</time>
      </trkpt>
      <trkpt lat="45.12435" lon="5.56101">
        <ele>1184.232</ele>
        <time>2022-05-29T10:35:29Z</time>
      </trkpt>
      <trkpt lat="45.12435" lon="5.56101">
        <ele>1184.243</ele>
        <time>2022-05-29T10:35:34Z</time>
      </trkpt>
      <trkpt lat="45.12435" lon="5.56101">
        <ele>1184.272</ele>
        <time>2022-05-29T10:35:39Z</time>
      </trkpt>
      <trkpt lat="45.12435" lon="5.56101">
        <ele>1184.305</ele>
        <time>2022-05-29T10:35:44Z</time>
      </trkpt>
      <trkpt lat="45.12435" lon="5.56101">
        <ele>1184.335</ele>
        <time>2022-05-29T10:35:49Z</time>
      </trkpt>
      <trkpt lat="45.12435" lon="5.56101">
        <ele>1184.343</ele>
        <time>2022-05-29T10:35:54Z</time>
      </trkpt>
      <trkpt lat="45.12435" lon="5.56101">
        <ele>1184.341</ele>
        <time>2022-05-29T10:35:59Z</time>
      </trkpt>
      <trkpt lat="45.12435" lon="5.56101">
        <ele>1184.343</ele>
        <time>2022-05-29T10:36:04Z</time>
      </trkpt>
      <trkpt lat="45.12435" lon="5.56101">
        <ele>1184.336</ele>
        <time>2022-05-29T10:36:09Z</time>
      </trkpt>
      <trkpt lat="45.12435" lon="5.56101">
        <ele>1184.334</ele>
        <time>2022-05-29T10:36:14Z</time>
      </trkpt>
      <trkpt lat="45.12435" lon="5.56101">
        <ele>1184.325</ele>
        <time>2022-05-29T10:36:19Z</time>
      </trkpt>
      <trkpt lat="45.12435" lon="5.56101">
        <ele>1184.344</ele>
        <time>2022-05-29T10:36:24Z</time>
      </trkpt>
      <trkpt lat="45.12435" lon="5.56101">
        <ele>1184.354</ele>
        <time>2022-05-29T10:36:29Z</time>
      </trkpt>
      <trkpt lat="45.12435" lon="5.56101">
        <ele>1184.376</ele>
        <time>2022-05-29T10:36:34Z</time>
      </trkpt>
      <trkpt lat="45.12435" lon="5.56101">
        <ele>1184.392</ele>
        <time>2022-05-29T10:36:39Z</time>
      </trkpt>
      <trkpt lat="45.12435" lon="5.56101">
        <ele>1184.425</ele>
        <time>2022-05-29T10:36:44Z</time>
      </trkpt>
      <trkpt lat="45.12435" lon="5.56101">
        <ele>1184.447</ele>
        <time>2022-05-29T10:36:49Z</time>
      </trkpt>
      <trkpt lat="45.12435" lon="5.56101">
        <ele>1184.447</ele>
        <time>2022-05-29T10:36:54Z</time>
      </trkpt>
      <trkpt lat="45.12435" lon="5.56101">
        <ele>1184.476</ele>
        <time>2022-05-29T10:36:59Z</time>
      </trkpt>
      <trkpt lat="45.12435" lon="5.56101">
        <ele>1184.481</ele>
        <time>2022-05-29T10:37:04Z</time>
      </trkpt>
      <trkpt lat="45.12435" lon="5.56101">
        <ele>1184.477</ele>
        <time>2022-05-29T10:37:09Z</time>
      </trkpt>
      <trkpt lat="45.12435" lon="5.56101">
        <ele>1184.47</ele>
        <time>2022-05-29T10:37:14Z</time>
      </trkpt>
      <trkpt lat="45.12436" lon="5.561">
        <ele>1185.147</ele>
        <time>2022-05-29T10:37:19Z</time>
      </trkpt>
      <trkpt lat="45.12436" lon="5.56101">
        <ele>1185.34</ele>
        <time>2022-05-29T10:37:24Z</time>
      </trkpt>
      <trkpt lat="45.12435" lon="5.56101">
        <ele>1185.501</ele>
        <time>2022-05-29T10:37:29Z</time>
      </trkpt>
      <trkpt lat="45.12435" lon="5.56101">
        <ele>1185.549</ele>
        <time>2022-05-29T10:37:34Z</time>
      </trkpt>
      <trkpt lat="45.12435" lon="5.561">
        <ele>1185.596</ele>
        <time>2022-05-29T10:37:39Z</time>
      </trkpt>
      <trkpt lat="45.12435" lon="5.561">
        <ele>1185.645</ele>
        <time>2022-05-29T10:37:44Z</time>
      </trkpt>
      <trkpt lat="45.12435" lon="5.561">
        <ele>1185.641</ele>
        <time>2022-05-29T10:37:49Z</time>
      </trkpt>
      <trkpt lat="45.12435" lon="5.56101">
        <ele>1185.649</ele>
        <time>2022-05-29T10:37:54Z</time>
      </trkpt>
      <trkpt lat="45.12435" lon="5.56101">
        <ele>1185.632</ele>
        <time>2022-05-29T10:37:59Z</time>
      </trkpt>
      <trkpt lat="45.12435" lon="5.56101">
        <ele>1185.607</ele>
        <time>2022-05-29T10:38:04Z</time>
      </trkpt>
      <trkpt lat="45.12435" lon="5.561">
        <ele>1184.903</ele>
        <time>2022-05-29T10:38:09Z</time>
      </trkpt>
      <trkpt lat="45.12436" lon="5.561">
        <ele>1185.318</ele>
        <time>2022-05-29T10:38:14Z</time>
      </trkpt>
      <trkpt lat="45.12436" lon="5.561">
        <ele>1185.006</ele>
        <time>2022-05-29T10:38:19Z</time>
      </trkpt>
      <trkpt lat="45.12436" lon="5.561">
        <ele>1185.003</ele>
        <time>2022-05-29T10:38:24Z</time>
      </trkpt>
      <trkpt lat="45.12437" lon="5.561">
        <ele>1184.422</ele>
        <time>2022-05-29T10:38:29Z</time>
      </trkpt>
      <trkpt lat="45.12438" lon="5.561">
        <ele>1184.82</ele>
        <time>2022-05-29T10:38:34Z</time>
      </trkpt>
      <trkpt lat="45.12438" lon="5.561">
        <ele>1185.361</ele>
        <time>2022-05-29T10:38:39Z</time>
      </trkpt>
      <trkpt lat="45.12437" lon="5.561">
        <ele>1185.377</ele>
        <time>2022-05-29T10:38:44Z</time>
      </trkpt>
      <trkpt lat="45.12437" lon="5.561">
        <ele>1184.688</ele>
        <time>2022-05-29T10:38:49Z</time>
      </trkpt>
      <trkpt lat="45.12437" lon="5.56101">
        <ele>1183.602</ele>
        <time>2022-05-29T10:38:54Z</time>
      </trkpt>
      <trkpt lat="45.12437" lon="5.561">
        <ele>1184.205</ele>
        <time>2022-05-29T10:38:59Z</time>
      </trkpt>
      <trkpt lat="45.12437" lon="5.56098">
        <ele>1184.325</ele>
        <time>2022-05-29T10:39:04Z</time>
      </trkpt>
      <trkpt lat="45.12438" lon="5.56097">
        <ele>1183.492</ele>
        <time>2022-05-29T10:39:09Z</time>
      </trkpt>
      <trkpt lat="45.12445" lon="5.56093">
        <ele>1183.554</ele>
        <time>2022-05-29T10:39:14Z</time>
      </trkpt>
      <trkpt lat="45.12447" lon="5.56093">
        <ele>1184.425</ele>
        <time>2022-05-29T10:39:19Z</time>
      </trkpt>
      <trkpt lat="45.12451" lon="5.56092">
        <ele>1185.1</ele>
        <time>2022-05-29T10:39:24Z</time>
      </trkpt>
      <trkpt lat="45.12464" lon="5.56092">
        <ele>1185.202</ele>
        <time>2022-05-29T10:39:29Z</time>
      </trkpt>
      <trkpt lat="45.12478" lon="5.56079">
        <ele>1184.673</ele>
        <time>2022-05-29T10:39:34Z</time>
      </trkpt>
      <trkpt lat="45.12489" lon="5.56062">
        <ele>1185.005</ele>
        <time>2022-05-29T10:39:39Z</time>
      </trkpt>
      <trkpt lat="45.12501" lon="5.56046">
        <ele>1185.088</ele>
        <time>2022-05-29T10:39:44Z</time>
      </trkpt>
      <trkpt lat="45.12513" lon="5.5603">
        <ele>1185.652</ele>
        <time>2022-05-29T10:39:49Z</time>
      </trkpt>
      <trkpt lat="45.12523" lon="5.56015">
        <ele>1187.662</ele>
        <time>2022-05-29T10:39:54Z</time>
      </trkpt>
      <trkpt lat="45.12533" lon="5.56001">
        <ele>1188.508</ele>
        <time>2022-05-29T10:39:59Z</time>
      </trkpt>
      <trkpt lat="45.12543" lon="5.55985">
        <ele>1189.285</ele>
        <time>2022-05-29T10:40:04Z</time>
      </trkpt>
      <trkpt lat="45.12553" lon="5.5597">
        <ele>1188.144</ele>
        <time>2022-05-29T10:40:09Z</time>
      </trkpt>
      <trkpt lat="45.12564" lon="5.55954">
        <ele>1188.386</ele>
        <time>2022-05-29T10:40:14Z</time>
      </trkpt>
      <trkpt lat="45.12574" lon="5.55939">
        <ele>1189.536</ele>
        <time>2022-05-29T10:40:19Z</time>
      </trkpt>
      <trkpt lat="45.12587" lon="5.5593">
        <ele>1190.402</ele>
        <time>2022-05-29T10:40:24Z</time>
      </trkpt>
      <trkpt lat="45.12601" lon="5.55923">
        <ele>1191.181</ele>
        <time>2022-05-29T10:40:29Z</time>
      </trkpt>
      <trkpt lat="45.12616" lon="5.55919">
        <ele>1191.622</ele>
        <time>2022-05-29T10:40:34Z</time>
      </trkpt>
      <trkpt lat="45.12631" lon="5.55917">
        <ele>1191.279</ele>
        <time>2022-05-29T10:40:39Z</time>
      </trkpt>
      <trkpt lat="45.12647" lon="5.55916">
        <ele>1192.01</ele>
        <time>2022-05-29T10:40:44Z</time>
      </trkpt>
      <trkpt lat="45.12662" lon="5.55919">
        <ele>1192.259</ele>
        <time>2022-05-29T10:40:49Z</time>
      </trkpt>
      <trkpt lat="45.12675" lon="5.55926">
        <ele>1196.005</ele>
        <time>2022-05-29T10:40:54Z</time>
      </trkpt>
      <trkpt lat="45.12687" lon="5.55933">
        <ele>1200.099</ele>
        <time>2022-05-29T10:40:59Z</time>
      </trkpt>
      <trkpt lat="45.12699" lon="5.55941">
        <ele>1199.568</ele>
        <time>2022-05-29T10:41:04Z</time>
      </trkpt>
      <trkpt lat="45.12711" lon="5.55949">
        <ele>1200.934</ele>
        <time>2022-05-29T10:41:09Z</time>
      </trkpt>
      <trkpt lat="45.12723" lon="5.55955">
        <ele>1202.674</ele>
        <time>2022-05-29T10:41:14Z</time>
      </trkpt>
      <trkpt lat="45.12736" lon="5.55962">
        <ele>1203.33</ele>
        <time>2022-05-29T10:41:19Z</time>
      </trkpt>
      <trkpt lat="45.12748" lon="5.55967">
        <ele>1204.902</ele>
        <time>2022-05-29T10:41:24Z</time>
      </trkpt>
      <trkpt lat="45.12761" lon="5.55969">
        <ele>1206.557</ele>
        <time>2022-05-29T10:41:29Z</time>
      </trkpt>
      <trkpt lat="45.12773" lon="5.55971">
        <ele>1208.063</ele>
        <time>2022-05-29T10:41:34Z</time>
      </trkpt>
      <trkpt lat="45.12785" lon="5.55975">
        <ele>1209.059</ele>
        <time>2022-05-29T10:41:39Z</time>
      </trkpt>
      <trkpt lat="45.12797" lon="5.55978">
        <ele>1210.13</ele>
        <time>2022-05-29T10:41:44Z</time>
      </trkpt>
      <trkpt lat="45.1281" lon="5.55982">
        <ele>1210.202</ele>
        <time>2022-05-29T10:41:49Z</time>
      </trkpt>
      <trkpt lat="45.12822" lon="5.55984">
        <ele>1210.502</ele>
        <time>2022-05-29T10:41:54Z</time>
      </trkpt>
      <trkpt lat="45.12835" lon="5.55988">
        <ele>1210.278</ele>
        <time>2022-05-29T10:41:59Z</time>
      </trkpt>
      <trkpt lat="45.12846" lon="5.5599">
        <ele>1211.731</ele>
        <time>2022-05-29T10:42:04Z</time>
      </trkpt>
      <trkpt lat="45.12857" lon="5.55992">
        <ele>1211.663</ele>
        <time>2022-05-29T10:42:09Z</time>
      </trkpt>
      <trkpt lat="45.12869" lon="5.55993">
        <ele>1212.373</ele>
        <time>2022-05-29T10:42:14Z</time>
      </trkpt>
      <trkpt lat="45.12881" lon="5.55992">
        <ele>1214.186</ele>
        <time>2022-05-29T10:42:19Z</time>
      </trkpt>
      <trkpt lat="45.12893" lon="5.55991">
        <ele>1215.665</ele>
        <time>2022-05-29T10:42:24Z</time>
      </trkpt>
      <trkpt lat="45.12905" lon="5.5599">
        <ele>1217.556</ele>
        <time>2022-05-29T10:42:29Z</time>
      </trkpt>
      <trkpt lat="45.12916" lon="5.55988">
        <ele>1218.196</ele>
        <time>2022-05-29T10:42:34Z</time>
      </trkpt>
      <trkpt lat="45.12927" lon="5.55987">
        <ele>1219.72</ele>
        <time>2022-05-29T10:42:39Z</time>
      </trkpt>
      <trkpt lat="45.12939" lon="5.55987">
        <ele>1219.9</ele>
        <time>2022-05-29T10:42:44Z</time>
      </trkpt>
      <trkpt lat="45.1295" lon="5.55986">
        <ele>1220.614</ele>
        <time>2022-05-29T10:42:49Z</time>
      </trkpt>
      <trkpt lat="45.12961" lon="5.55986">
        <ele>1220.401</ele>
        <time>2022-05-29T10:42:54Z</time>
      </trkpt>
      <trkpt lat="45.12972" lon="5.55987">
        <ele>1221.451</ele>
        <time>2022-05-29T10:42:59Z</time>
      </trkpt>
      <trkpt lat="45.12983" lon="5.55986">
        <ele>1222.163</ele>
        <time>2022-05-29T10:43:04Z</time>
      </trkpt>
      <trkpt lat="45.12993" lon="5.55985">
        <ele>1223.21</ele>
        <time>2022-05-29T10:43:09Z</time>
      </trkpt>
      <trkpt lat="45.13003" lon="5.55984">
        <ele>1223.928</ele>
        <time>2022-05-29T10:43:14Z</time>
      </trkpt>
      <trkpt lat="45.13012" lon="5.55983">
        <ele>1224.251</ele>
        <time>2022-05-29T10:43:19Z</time>
      </trkpt>
      <trkpt lat="45.13021" lon="5.55987">
        <ele>1224.124</ele>
        <time>2022-05-29T10:43:24Z</time>
      </trkpt>
      <trkpt lat="45.13023" lon="5.55998">
        <ele>1223.745</ele>
        <time>2022-05-29T10:43:29Z</time>
      </trkpt>
      <trkpt lat="45.13024" lon="5.55992">
        <ele>1223.039</ele>
        <time>2022-05-29T10:43:34Z</time>
      </trkpt>
      <trkpt lat="45.13021" lon="5.55987">
        <ele>1222.933</ele>
        <time>2022-05-29T10:43:39Z</time>
      </trkpt>
      <trkpt lat="45.1302" lon="5.55987">
        <ele>1223.113</ele>
        <time>2022-05-29T10:43:44Z</time>
      </trkpt>
      <trkpt lat="45.13015" lon="5.55981">
        <ele>1223.492</ele>
        <time>2022-05-29T10:43:49Z</time>
      </trkpt>
      <trkpt lat="45.13" lon="5.55979">
        <ele>1223.326</ele>
        <time>2022-05-29T10:43:54Z</time>
      </trkpt>
      <trkpt lat="45.12979" lon="5.55984">
        <ele>1222.204</ele>
        <time>2022-05-29T10:43:59Z</time>
      </trkpt>
      <trkpt lat="45.12947" lon="5.55986">
        <ele>1219.573</ele>
        <time>2022-05-29T10:44:04Z</time>
      </trkpt>
      <trkpt lat="45.12904" lon="5.55989">
        <ele>1216.516</ele>
        <time>2022-05-29T10:44:09Z</time>
      </trkpt>
      <trkpt lat="45.12854" lon="5.55987">
        <ele>1212.357</ele>
        <time>2022-05-29T10:44:14Z</time>
      </trkpt>
      <trkpt lat="45.12798" lon="5.55974">
        <ele>1207.967</ele>
        <time>2022-05-29T10:44:19Z</time>
      </trkpt>
      <trkpt lat="45.1274" lon="5.55956">
        <ele>1202.428</ele>
        <time>2022-05-29T10:44:24Z</time>
      </trkpt>
      <trkpt lat="45.1268" lon="5.55925">
        <ele>1197.332</ele>
        <time>2022-05-29T10:44:29Z</time>
      </trkpt>
      <trkpt lat="45.1262" lon="5.55921">
        <ele>1193.187</ele>
        <time>2022-05-29T10:44:34Z</time>
      </trkpt>
      <trkpt lat="45.12565" lon="5.55955">
        <ele>1192.814</ele>
        <time>2022-05-29T10:44:39Z</time>
      </trkpt>
      <trkpt lat="45.1252" lon="5.56019">
        <ele>1189.863</ele>
        <time>2022-05-29T10:44:44Z</time>
      </trkpt>
      <trkpt lat="45.12477" lon="5.56074">
        <ele>1187.3</ele>
        <time>2022-05-29T10:44:49Z</time>
      </trkpt>
      <trkpt lat="45.12444" lon="5.56096">
        <ele>1185.742</ele>
        <time>2022-05-29T10:44:54Z</time>
      </trkpt>
      <trkpt lat="45.12439" lon="5.56098">
        <ele>1185.825</ele>
        <time>2022-05-29T10:44:59Z</time>
      </trkpt>
      <trkpt lat="45.12439" lon="5.56097">
        <ele>1185.371</ele>
        <time>2022-05-29T10:45:04Z</time>
      </trkpt>
      <trkpt lat="45.12439" lon="5.56097">
        <ele>1185.165</ele>
        <time>2022-05-29T10:45:09Z</time>
      </trkpt>
      <trkpt lat="45.12439" lon="5.56097">
        <ele>1185.166</ele>
        <time>2022-05-29T10:45:14Z</time>
      </trkpt>
      <trkpt lat="45.12439" lon="5.56097">
        <ele>1185.166</ele>
        <time>2022-05-29T10:45:19Z</time>
      </trkpt>
      <trkpt lat="45.12439" lon="5.56097">
        <ele>1185.164</ele>
        <time>2022-05-29T10:45:24Z</time>
      </trkpt>
      <trkpt lat="45.12439" lon="5.56097">
        <ele>1185.165</ele>
        <time>2022-05-29T10:45:29Z</time>
      </trkpt>
      <trkpt lat="45.12439" lon="5.56097">
        <ele>1185.169</ele>
        <time>2022-05-29T10:45:34Z</time>
      </trkpt>
      <trkpt lat="45.12439" lon="5.56097">
        <ele>1185.175</ele>
        <time>2022-05-29T10:45:39Z</time>
      </trkpt>
      <trkpt lat="45.12439" lon="5.56097">
        <ele>1185.19</ele>
        <time>2022-05-29T10:45:44Z</time>
      </trkpt>
      <trkpt lat="45.12439" lon="5.56097">
        <ele>1185.191</ele>
        <time>2022-05-29T10:45:49Z</time>
      </trkpt>
      <trkpt lat="45.12439" lon="5.56097">
        <ele>1184.827</ele>
        <time>2022-05-29T10:45:54Z</time>
      </trkpt>
      <trkpt lat="45.12439" lon="5.56096">
        <ele>1184.823</ele>
        <time>2022-05-29T10:45:59Z</time>
      </trkpt>
      <trkpt lat="45.1244" lon="5.56096">
        <ele>1185.137</ele>
        <time>2022-05-29T10:46:04Z</time>
      </trkpt>
      <trkpt lat="45.12438" lon="5.56096">
        <ele>1185.288</ele>
        <time>2022-05-29T10:46:09Z</time>
      </trkpt>
      <trkpt lat="45.12437" lon="5.56095">
        <ele>1184.259</ele>
        <time>2022-05-29T10:46:14Z</time>
      </trkpt>
      <trkpt lat="45.12437" lon="5.56095">
        <ele>1183.941</ele>
        <time>2022-05-29T10:46:19Z</time>
      </trkpt>
      <trkpt lat="45.12436" lon="5.56095">
        <ele>1185.182</ele>
        <time>2022-05-29T10:46:24Z</time>
      </trkpt>
      <trkpt lat="45.12435" lon="5.56098">
        <ele>1185.467</ele>
        <time>2022-05-29T10:46:29Z</time>
      </trkpt>
      <trkpt lat="45.1244" lon="5.56093">
        <ele>1184.388</ele>
        <time>2022-05-29T10:46:34Z</time>
      </trkpt>
      <trkpt lat="45.12436" lon="5.56083">
        <ele>1184.048</ele>
        <time>2022-05-29T10:46:39Z</time>
      </trkpt>
      <trkpt lat="45.1243" lon="5.56072">
        <ele>1186.776</ele>
        <time>2022-05-29T10:46:44Z</time>
      </trkpt>
      <trkpt lat="45.12424" lon="5.5606">
        <ele>1187.853</ele>
        <time>2022-05-29T10:46:49Z</time>
      </trkpt>
      <trkpt lat="45.12418" lon="5.56046">
        <ele>1188.656</ele>
        <time>2022-05-29T10:46:54Z</time>
      </trkpt>
      <trkpt lat="45.12411" lon="5.56033">
        <ele>1188.152</ele>
        <time>2022-05-29T10:46:59Z</time>
      </trkpt>
      <trkpt lat="45.124" lon="5.56024">
        <ele>1189.306</ele>
        <time>2022-05-29T10:47:04Z</time>
      </trkpt>
      <trkpt lat="45.12391" lon="5.56014">
        <ele>1191.271</ele>
        <time>2022-05-29T10:47:09Z</time>
      </trkpt>
      <trkpt lat="45.1238" lon="5.56002">
        <ele>1194.088</ele>
        <time>2022-05-29T10:47:14Z</time>
      </trkpt>
      <trkpt lat="45.12369" lon="5.55986">
        <ele>1194.569</ele>
        <time>2022-05-29T10:47:19Z</time>
      </trkpt>
      <trkpt lat="45.12363" lon="5.55965">
        <ele>1195.87</ele>
        <time>2022-05-29T10:47:24Z</time>
      </trkpt>
      <trkpt lat="45.12361" lon="5.55941">
        <ele>1197.742</ele>
        <time>2022-05-29T10:47:29Z</time>
      </trkpt>
      <trkpt lat="45.12362" lon="5.55924">
        <ele>1199.795</ele>
        <time>2022-05-29T10:47:34Z</time>
      </trkpt>
      <trkpt lat="45.12362" lon="5.55909">
        <ele>1199.249</ele>
        <time>2022-05-29T10:47:39Z</time>
      </trkpt>
      <trkpt lat="45.12365" lon="5.55894">
        <ele>1199.526</ele>
        <time>2022-05-29T10:47:44Z</time>
      </trkpt>
      <trkpt lat="45.12369" lon="5.55883">
        <ele>1198.454</ele>
        <time>2022-05-29T10:47:49Z</time>
      </trkpt>
      <trkpt lat="45.12373" lon="5.55873">
        <ele>1198.663</ele>
        <time>2022-05-29T10:47:54Z</time>
      </trkpt>
      <trkpt lat="45.12377" lon="5.55864">
        <ele>1201.182</ele>
        <time>2022-05-29T10:47:59Z</time>
      </trkpt>
      <trkpt lat="45.1238" lon="5.55852">
        <ele>1200.307</ele>
        <time>2022-05-29T10:48:04Z</time>
      </trkpt>
      <trkpt lat="45.12385" lon="5.55842">
        <ele>1197.372</ele>
        <time>2022-05-29T10:48:09Z</time>
      </trkpt>
      <trkpt lat="45.12389" lon="5.5583">
        <ele>1201.74</ele>
        <time>2022-05-29T10:48:14Z</time>
      </trkpt>
      <trkpt lat="45.12391" lon="5.55818">
        <ele>1201.042</ele>
        <time>2022-05-29T10:48:19Z</time>
      </trkpt>
      <trkpt lat="45.12393" lon="5.55808">
        <ele>1202.038</ele>
        <time>2022-05-29T10:48:24Z</time>
      </trkpt>
      <trkpt lat="45.12395" lon="5.558">
        <ele>1201.526</ele>
        <time>2022-05-29T10:48:29Z</time>
      </trkpt>
      <trkpt lat="45.12399" lon="5.55791">
        <ele>1203.726</ele>
        <time>2022-05-29T10:48:34Z</time>
      </trkpt>
      <trkpt lat="45.12407" lon="5.55784">
        <ele>1206.834</ele>
        <time>2022-05-29T10:48:39Z</time>
      </trkpt>
      <trkpt lat="45.12417" lon="5.55779">
        <ele>1204.548</ele>
        <time>2022-05-29T10:48:44Z</time>
      </trkpt>
      <trkpt lat="45.12424" lon="5.55771">
        <ele>1207.459</ele>
        <time>2022-05-29T10:48:49Z</time>
      </trkpt>
      <trkpt lat="45.12432" lon="5.55763">
        <ele>1209.122</ele>
        <time>2022-05-29T10:48:54Z</time>
      </trkpt>
      <trkpt lat="45.12439" lon="5.55754">
        <ele>1209.437</ele>
        <time>2022-05-29T10:48:59Z</time>
      </trkpt>
      <trkpt lat="45.12445" lon="5.55744">
        <ele>1208.953</ele>
        <time>2022-05-29T10:49:04Z</time>
      </trkpt>
      <trkpt lat="45.12445" lon="5.55735">
        <ele>1211.791</ele>
        <time>2022-05-29T10:49:09Z</time>
      </trkpt>
      <trkpt lat="45.12439" lon="5.55724">
        <ele>1212.294</ele>
        <time>2022-05-29T10:49:14Z</time>
      </trkpt>
      <trkpt lat="45.12432" lon="5.55717">
        <ele>1211.193</ele>
        <time>2022-05-29T10:49:19Z</time>
      </trkpt>
      <trkpt lat="45.12425" lon="5.55713">
        <ele>1211.894</ele>
        <time>2022-05-29T10:49:24Z</time>
      </trkpt>
      <trkpt lat="45.12416" lon="5.55711">
        <ele>1213.064</ele>
        <time>2022-05-29T10:49:29Z</time>
      </trkpt>
      <trkpt lat="45.12408" lon="5.55708">
        <ele>1213.798</ele>
        <time>2022-05-29T10:49:34Z</time>
      </trkpt>
      <trkpt lat="45.12397" lon="5.55705">
        <ele>1214.445</ele>
        <time>2022-05-29T10:49:39Z</time>
      </trkpt>
      <trkpt lat="45.12389" lon="5.55699">
        <ele>1213.345</ele>
        <time>2022-05-29T10:49:44Z</time>
      </trkpt>
      <trkpt lat="45.1238" lon="5.55692">
        <ele>1217.984</ele>
        <time>2022-05-29T10:49:49Z</time>
      </trkpt>
      <trkpt lat="45.12374" lon="5.55683">
        <ele>1218.357</ele>
        <time>2022-05-29T10:49:54Z</time>
      </trkpt>
      <trkpt lat="45.12372" lon="5.55671">
        <ele>1219.313</ele>
        <time>2022-05-29T10:49:59Z</time>
      </trkpt>
      <trkpt lat="45.12371" lon="5.55657">
        <ele>1217.986</ele>
        <time>2022-05-29T10:50:04Z</time>
      </trkpt>
      <trkpt lat="45.12371" lon="5.55639">
        <ele>1217.024</ele>
        <time>2022-05-29T10:50:09Z</time>
      </trkpt>
      <trkpt lat="45.12371" lon="5.5562">
        <ele>1218.035</ele>
        <time>2022-05-29T10:50:14Z</time>
      </trkpt>
      <trkpt lat="45.1237" lon="5.55603">
        <ele>1217.522</ele>
        <time>2022-05-29T10:50:19Z</time>
      </trkpt>
      <trkpt lat="45.12371" lon="5.55586">
        <ele>1217.468</ele>
        <time>2022-05-29T10:50:24Z</time>
      </trkpt>
      <trkpt lat="45.1237" lon="5.55568">
        <ele>1218.282</ele>
        <time>2022-05-29T10:50:29Z</time>
      </trkpt>
      <trkpt lat="45.12372" lon="5.55548">
        <ele>1220.601</ele>
        <time>2022-05-29T10:50:34Z</time>
      </trkpt>
      <trkpt lat="45.12374" lon="5.5553">
        <ele>1220.799</ele>
        <time>2022-05-29T10:50:39Z</time>
      </trkpt>
      <trkpt lat="45.12375" lon="5.55513">
        <ele>1222.613</ele>
        <time>2022-05-29T10:50:44Z</time>
      </trkpt>
      <trkpt lat="45.12377" lon="5.55498">
        <ele>1225.316</ele>
        <time>2022-05-29T10:50:49Z</time>
      </trkpt>
      <trkpt lat="45.12379" lon="5.55482">
        <ele>1226.432</ele>
        <time>2022-05-29T10:50:54Z</time>
      </trkpt>
      <trkpt lat="45.12383" lon="5.55464">
        <ele>1227.126</ele>
        <time>2022-05-29T10:50:59Z</time>
      </trkpt>
      <trkpt lat="45.12388" lon="5.55448">
        <ele>1226.755</ele>
        <time>2022-05-29T10:51:04Z</time>
      </trkpt>
      <trkpt lat="45.12394" lon="5.55431">
        <ele>1226.57</ele>
        <time>2022-05-29T10:51:09Z</time>
      </trkpt>
      <trkpt lat="45.124" lon="5.55415">
        <ele>1229.056</ele>
        <time>2022-05-29T10:51:14Z</time>
      </trkpt>
      <trkpt lat="45.12406" lon="5.55397">
        <ele>1231.216</ele>
        <time>2022-05-29T10:51:19Z</time>
      </trkpt>
      <trkpt lat="45.12413" lon="5.55382">
        <ele>1232.987</ele>
        <time>2022-05-29T10:51:24Z</time>
      </trkpt>
      <trkpt lat="45.12422" lon="5.55368">
        <ele>1229.492</ele>
        <time>2022-05-29T10:51:29Z</time>
      </trkpt>
      <trkpt lat="45.12431" lon="5.55356">
        <ele>1227.139</ele>
        <time>2022-05-29T10:51:34Z</time>
      </trkpt>
      <trkpt lat="45.12441" lon="5.5534">
        <ele>1228.82</ele>
        <time>2022-05-29T10:51:39Z</time>
      </trkpt>
      <trkpt lat="45.1245" lon="5.55323">
        <ele>1231.468</ele>
        <time>2022-05-29T10:51:44Z</time>
      </trkpt>
      <trkpt lat="45.12461" lon="5.55306">
        <ele>1234.369</ele>
        <time>2022-05-29T10:51:49Z</time>
      </trkpt>
      <trkpt lat="45.12467" lon="5.55284">
        <ele>1234.641</ele>
        <time>2022-05-29T10:51:54Z</time>
      </trkpt>
      <trkpt lat="45.12474" lon="5.55263">
        <ele>1236.761</ele>
        <time>2022-05-29T10:51:59Z</time>
      </trkpt>
      <trkpt lat="45.12481" lon="5.55243">
        <ele>1236.534</ele>
        <time>2022-05-29T10:52:04Z</time>
      </trkpt>
      <trkpt lat="45.12483" lon="5.55222">
        <ele>1235.72</ele>
        <time>2022-05-29T10:52:09Z</time>
      </trkpt>
      <trkpt lat="45.12486" lon="5.55201">
        <ele>1235.111</ele>
        <time>2022-05-29T10:52:14Z</time>
      </trkpt>
      <trkpt lat="45.12491" lon="5.5518">
        <ele>1234.892</ele>
        <time>2022-05-29T10:52:19Z</time>
      </trkpt>
      <trkpt lat="45.12496" lon="5.55168">
        <ele>1235.467</ele>
        <time>2022-05-29T10:52:24Z</time>
      </trkpt>
      <trkpt lat="45.12497" lon="5.5517">
        <ele>1235.012</ele>
        <time>2022-05-29T10:52:29Z</time>
      </trkpt>
      <trkpt lat="45.125" lon="5.55172">
        <ele>1234.892</ele>
        <time>2022-05-29T10:52:34Z</time>
      </trkpt>
      <trkpt lat="45.12502" lon="5.5517">
        <ele>1234.551</ele>
        <time>2022-05-29T10:52:39Z</time>
      </trkpt>
      <trkpt lat="45.12501" lon="5.5517">
        <ele>1235.435</ele>
        <time>2022-05-29T10:52:44Z</time>
      </trkpt>
      <trkpt lat="45.12501" lon="5.5517">
        <ele>1236.08</ele>
        <time>2022-05-29T10:52:49Z</time>
      </trkpt>
      <trkpt lat="45.12501" lon="5.5517">
        <ele>1236.131</ele>
        <time>2022-05-29T10:52:54Z</time>
      </trkpt>
      <trkpt lat="45.12501" lon="5.5517">
        <ele>1236.157</ele>
        <time>2022-05-29T10:52:59Z</time>
      </trkpt>
      <trkpt lat="45.12501" lon="5.5517">
        <ele>1236.171</ele>
        <time>2022-05-29T10:53:04Z</time>
      </trkpt>
      <trkpt lat="45.12501" lon="5.5517">
        <ele>1236.178</ele>
        <time>2022-05-29T10:53:09Z</time>
      </trkpt>
      <trkpt lat="45.12501" lon="5.5517">
        <ele>1236.189</ele>
        <time>2022-05-29T10:53:14Z</time>
      </trkpt>
      <trkpt lat="45.12501" lon="5.5517">
        <ele>1237.034</ele>
        <time>2022-05-29T10:53:19Z</time>
      </trkpt>
      <trkpt lat="45.12501" lon="5.55171">
        <ele>1238.547</ele>
        <time>2022-05-29T10:53:24Z</time>
      </trkpt>
      <trkpt lat="45.12501" lon="5.55172">
        <ele>1238.008</ele>
        <time>2022-05-29T10:53:29Z</time>
      </trkpt>
      <trkpt lat="45.12501" lon="5.55172">
        <ele>1238.018</ele>
        <time>2022-05-29T10:53:34Z</time>
      </trkpt>
      <trkpt lat="45.12501" lon="5.55172">
        <ele>1238.02</ele>
        <time>2022-05-29T10:53:39Z</time>
      </trkpt>
      <trkpt lat="45.12501" lon="5.55172">
        <ele>1238.024</ele>
        <time>2022-05-29T10:53:44Z</time>
      </trkpt>
      <trkpt lat="45.12501" lon="5.55172">
        <ele>1238.026</ele>
        <time>2022-05-29T10:53:49Z</time>
      </trkpt>
      <trkpt lat="45.12501" lon="5.55172">
        <ele>1238.031</ele>
        <time>2022-05-29T10:53:54Z</time>
      </trkpt>
      <trkpt lat="45.12501" lon="5.55172">
        <ele>1238.025</ele>
        <time>2022-05-29T10:53:59Z</time>
      </trkpt>
      <trkpt lat="45.12501" lon="5.55172">
        <ele>1238.015</ele>
        <time>2022-05-29T10:54:04Z</time>
      </trkpt>
      <trkpt lat="45.12501" lon="5.55172">
        <ele>1238.014</ele>
        <time>2022-05-29T10:54:09Z</time>
      </trkpt>
      <trkpt lat="45.12501" lon="5.55172">
        <ele>1238.02</ele>
        <time>2022-05-29T10:54:14Z</time>
      </trkpt>
      <trkpt lat="45.12501" lon="5.55172">
        <ele>1238.015</ele>
        <time>2022-05-29T10:54:19Z</time>
      </trkpt>
      <trkpt lat="45.12501" lon="5.55172">
        <ele>1238.01</ele>
        <time>2022-05-29T10:54:24Z</time>
      </trkpt>
      <trkpt lat="45.12501" lon="5.55172">
        <ele>1238.016</ele>
        <time>2022-05-29T10:54:29Z</time>
      </trkpt>
      <trkpt lat="45.12501" lon="5.55172">
        <ele>1238.032</ele>
        <time>2022-05-29T10:54:34Z</time>
      </trkpt>
      <trkpt lat="45.12501" lon="5.55172">
        <ele>1238.05</ele>
        <time>2022-05-29T10:54:39Z</time>
      </trkpt>
      <trkpt lat="45.12501" lon="5.55172">
        <ele>1238.065</ele>
        <time>2022-05-29T10:54:44Z</time>
      </trkpt>
      <trkpt lat="45.12501" lon="5.55172">
        <ele>1238.074</ele>
        <time>2022-05-29T10:54:49Z</time>
      </trkpt>
      <trkpt lat="45.12501" lon="5.55172">
        <ele>1238.088</ele>
        <time>2022-05-29T10:54:54Z</time>
      </trkpt>
      <trkpt lat="45.12501" lon="5.55172">
        <ele>1238.089</ele>
        <time>2022-05-29T10:54:59Z</time>
      </trkpt>
      <trkpt lat="45.12501" lon="5.55172">
        <ele>1238.087</ele>
        <time>2022-05-29T10:55:04Z</time>
      </trkpt>
      <trkpt lat="45.12501" lon="5.55172">
        <ele>1238.093</ele>
        <time>2022-05-29T10:55:09Z</time>
      </trkpt>
      <trkpt lat="45.12501" lon="5.55172">
        <ele>1238.093</ele>
        <time>2022-05-29T10:55:14Z</time>
      </trkpt>
      <trkpt lat="45.12501" lon="5.55172">
        <ele>1238.091</ele>
        <time>2022-05-29T10:55:19Z</time>
      </trkpt>
      <trkpt lat="45.12501" lon="5.55172">
        <ele>1238.086</ele>
        <time>2022-05-29T10:55:24Z</time>
      </trkpt>
      <trkpt lat="45.12501" lon="5.55172">
        <ele>1238.092</ele>
        <time>2022-05-29T10:55:29Z</time>
      </trkpt>
      <trkpt lat="45.12501" lon="5.55172">
        <ele>1238.099</ele>
        <time>2022-05-29T10:55:34Z</time>
      </trkpt>
      <trkpt lat="45.12501" lon="5.55172">
        <ele>1238.101</ele>
        <time>2022-05-29T10:55:39Z</time>
      </trkpt>
      <trkpt lat="45.12501" lon="5.55172">
        <ele>1238.1</ele>
        <time>2022-05-29T10:55:44Z</time>
      </trkpt>
      <trkpt lat="45.12501" lon="5.55172">
        <ele>1238.109</ele>
        <time>2022-05-29T10:55:49Z</time>
      </trkpt>
      <trkpt lat="45.12501" lon="5.55172">
        <ele>1238.118</ele>
        <time>2022-05-29T10:55:54Z</time>
      </trkpt>
      <trkpt lat="45.12501" lon="5.55172">
        <ele>1238.124</ele>
        <time>2022-05-29T10:55:59Z</time>
      </trkpt>
      <trkpt lat="45.12501" lon="5.55172">
        <ele>1238.121</ele>
        <time>2022-05-29T10:56:04Z</time>
      </trkpt>
      <trkpt lat="45.12501" lon="5.55172">
        <ele>1238.143</ele>
        <time>2022-05-29T10:56:09Z</time>
      </trkpt>
      <trkpt lat="45.12501" lon="5.55172">
        <ele>1238.165</ele>
        <time>2022-05-29T10:56:14Z</time>
      </trkpt>
      <trkpt lat="45.12502" lon="5.55172">
        <ele>1238.203</ele>
        <time>2022-05-29T10:56:19Z</time>
      </trkpt>
      <trkpt lat="45.12502" lon="5.55172">
        <ele>1238.242</ele>
        <time>2022-05-29T10:56:24Z</time>
      </trkpt>
      <trkpt lat="45.12502" lon="5.55172">
        <ele>1238.278</ele>
        <time>2022-05-29T10:56:29Z</time>
      </trkpt>
      <trkpt lat="45.12502" lon="5.55172">
        <ele>1238.302</ele>
        <time>2022-05-29T10:56:34Z</time>
      </trkpt>
      <trkpt lat="45.12502" lon="5.55172">
        <ele>1238.316</ele>
        <time>2022-05-29T10:56:39Z</time>
      </trkpt>
      <trkpt lat="45.12502" lon="5.55172">
        <ele>1238.323</ele>
        <time>2022-05-29T10:56:44Z</time>
      </trkpt>
      <trkpt lat="45.12502" lon="5.55172">
        <ele>1238.336</ele>
        <time>2022-05-29T10:56:49Z</time>
      </trkpt>
      <trkpt lat="45.12502" lon="5.55172">
        <ele>1238.344</ele>
        <time>2022-05-29T10:56:54Z</time>
      </trkpt>
      <trkpt lat="45.12502" lon="5.55172">
        <ele>1238.354</ele>
        <time>2022-05-29T10:56:59Z</time>
      </trkpt>
      <trkpt lat="45.12501" lon="5.55172">
        <ele>1238.355</ele>
        <time>2022-05-29T10:57:04Z</time>
      </trkpt>
      <trkpt lat="45.12501" lon="5.55172">
        <ele>1238.353</ele>
        <time>2022-05-29T10:57:09Z</time>
      </trkpt>
      <trkpt lat="45.12501" lon="5.55172">
        <ele>1238.349</ele>
        <time>2022-05-29T10:57:14Z</time>
      </trkpt>
      <trkpt lat="45.12501" lon="5.55172">
        <ele>1238.341</ele>
        <time>2022-05-29T10:57:19Z</time>
      </trkpt>
      <trkpt lat="45.12501" lon="5.55172">
        <ele>1238.339</ele>
        <time>2022-05-29T10:57:24Z</time>
      </trkpt>
      <trkpt lat="45.12501" lon="5.55172">
        <ele>1238.338</ele>
        <time>2022-05-29T10:57:29Z</time>
      </trkpt>
      <trkpt lat="45.12501" lon="5.55172">
        <ele>1238.345</ele>
        <time>2022-05-29T10:57:34Z</time>
      </trkpt>
      <trkpt lat="45.12501" lon="5.55172">
        <ele>1238.347</ele>
        <time>2022-05-29T10:57:39Z</time>
      </trkpt>
      <trkpt lat="45.12501" lon="5.55172">
        <ele>1238.333</ele>
        <time>2022-05-29T10:57:44Z</time>
      </trkpt>
      <trkpt lat="45.12501" lon="5.55172">
        <ele>1238.327</ele>
        <time>2022-05-29T10:57:49Z</time>
      </trkpt>
      <trkpt lat="45.12501" lon="5.55172">
        <ele>1238.321</ele>
        <time>2022-05-29T10:57:54Z</time>
      </trkpt>
      <trkpt lat="45.12501" lon="5.55172">
        <ele>1238.319</ele>
        <time>2022-05-29T10:57:59Z</time>
      </trkpt>
      <trkpt lat="45.12501" lon="5.55172">
        <ele>1238.319</ele>
        <time>2022-05-29T10:58:04Z</time>
      </trkpt>
      <trkpt lat="45.12501" lon="5.55172">
        <ele>1238.315</ele>
        <time>2022-05-29T10:58:09Z</time>
      </trkpt>
      <trkpt lat="45.12501" lon="5.55172">
        <ele>1238.319</ele>
        <time>2022-05-29T10:58:14Z</time>
      </trkpt>
      <trkpt lat="45.12501" lon="5.55172">
        <ele>1238.322</ele>
        <time>2022-05-29T10:58:19Z</time>
      </trkpt>
      <trkpt lat="45.12501" lon="5.55172">
        <ele>1238.33</ele>
        <time>2022-05-29T10:58:24Z</time>
      </trkpt>
      <trkpt lat="45.12501" lon="5.55172">
        <ele>1238.333</ele>
        <time>2022-05-29T10:58:29Z</time>
      </trkpt>
      <trkpt lat="45.12501" lon="5.55172">
        <ele>1238.333</ele>
        <time>2022-05-29T10:58:34Z</time>
      </trkpt>
      <trkpt lat="45.12501" lon="5.55172">
        <ele>1238.335</ele>
        <time>2022-05-29T10:58:39Z</time>
      </trkpt>
      <trkpt lat="45.12501" lon="5.55172">
        <ele>1238.338</ele>
        <time>2022-05-29T10:58:44Z</time>
      </trkpt>
      <trkpt lat="45.12501" lon="5.55172">
        <ele>1238.344</ele>
        <time>2022-05-29T10:58:49Z</time>
      </trkpt>
      <trkpt lat="45.12502" lon="5.55172">
        <ele>1238.356</ele>
        <time>2022-05-29T10:58:54Z</time>
      </trkpt>
      <trkpt lat="45.12502" lon="5.55172">
        <ele>1238.376</ele>
        <time>2022-05-29T10:58:59Z</time>
      </trkpt>
      <trkpt lat="45.12502" lon="5.55172">
        <ele>1238.389</ele>
        <time>2022-05-29T10:59:04Z</time>
      </trkpt>
      <trkpt lat="45.12502" lon="5.55172">
        <ele>1238.407</ele>
        <time>2022-05-29T10:59:09Z</time>
      </trkpt>
      <trkpt lat="45.12502" lon="5.55172">
        <ele>1238.416</ele>
        <time>2022-05-29T10:59:14Z</time>
      </trkpt>
      <trkpt lat="45.12502" lon="5.55172">
        <ele>1238.419</ele>
        <time>2022-05-29T10:59:19Z</time>
      </trkpt>
      <trkpt lat="45.12502" lon="5.55172">
        <ele>1238.421</ele>
        <time>2022-05-29T10:59:24Z</time>
      </trkpt>
      <trkpt lat="45.12502" lon="5.55172">
        <ele>1238.438</ele>
        <time>2022-05-29T10:59:29Z</time>
      </trkpt>
      <trkpt lat="45.12502" lon="5.55172">
        <ele>1238.451</ele>
        <time>2022-05-29T10:59:34Z</time>
      </trkpt>
      <trkpt lat="45.12502" lon="5.55172">
        <ele>1238.457</ele>
        <time>2022-05-29T10:59:39Z</time>
      </trkpt>
      <trkpt lat="45.12502" lon="5.55172">
        <ele>1238.463</ele>
        <time>2022-05-29T10:59:44Z</time>
      </trkpt>
      <trkpt lat="45.12502" lon="5.55172">
        <ele>1238.474</ele>
        <time>2022-05-29T10:59:49Z</time>
      </trkpt>
      <trkpt lat="45.12502" lon="5.55172">
        <ele>1238.471</ele>
        <time>2022-05-29T10:59:54Z</time>
      </trkpt>
      <trkpt lat="45.12502" lon="5.55172">
        <ele>1238.481</ele>
        <time>2022-05-29T10:59:59Z</time>
      </trkpt>
      <trkpt lat="45.12502" lon="5.55172">
        <ele>1238.494</ele>
        <time>2022-05-29T11:00:04Z</time>
      </trkpt>
      <trkpt lat="45.12502" lon="5.55172">
        <ele>1238.492</ele>
        <time>2022-05-29T11:00:09Z</time>
      </trkpt>
      <trkpt lat="45.12502" lon="5.55172">
        <ele>1238.494</ele>
        <time>2022-05-29T11:00:14Z</time>
      </trkpt>
      <trkpt lat="45.12502" lon="5.55172">
        <ele>1238.499</ele>
        <time>2022-05-29T11:00:19Z</time>
      </trkpt>
      <trkpt lat="45.12502" lon="5.55172">
        <ele>1238.507</ele>
        <time>2022-05-29T11:00:24Z</time>
      </trkpt>
      <trkpt lat="45.12502" lon="5.55172">
        <ele>1238.518</ele>
        <time>2022-05-29T11:00:29Z</time>
      </trkpt>
      <trkpt lat="45.12502" lon="5.55172">
        <ele>1238.53</ele>
        <time>2022-05-29T11:00:34Z</time>
      </trkpt>
      <trkpt lat="45.12502" lon="5.55172">
        <ele>1238.546</ele>
        <time>2022-05-29T11:00:39Z</time>
      </trkpt>
      <trkpt lat="45.12502" lon="5.55172">
        <ele>1238.558</ele>
        <time>2022-05-29T11:00:44Z</time>
      </trkpt>
      <trkpt lat="45.12502" lon="5.55172">
        <ele>1238.574</ele>
        <time>2022-05-29T11:00:49Z</time>
      </trkpt>
      <trkpt lat="45.12502" lon="5.55172">
        <ele>1238.606</ele>
        <time>2022-05-29T11:00:54Z</time>
      </trkpt>
      <trkpt lat="45.12502" lon="5.55172">
        <ele>1238.624</ele>
        <time>2022-05-29T11:00:59Z</time>
      </trkpt>
      <trkpt lat="45.12502" lon="5.55172">
        <ele>1238.636</ele>
        <time>2022-05-29T11:01:04Z</time>
      </trkpt>
      <trkpt lat="45.12502" lon="5.55172">
        <ele>1238.653</ele>
        <time>2022-05-29T11:01:09Z</time>
      </trkpt>
      <trkpt lat="45.12502" lon="5.55172">
        <ele>1238.666</ele>
        <time>2022-05-29T11:01:14Z</time>
      </trkpt>
      <trkpt lat="45.12502" lon="5.55172">
        <ele>1238.69</ele>
        <time>2022-05-29T11:01:19Z</time>
      </trkpt>
      <trkpt lat="45.12502" lon="5.55172">
        <ele>1238.685</ele>
        <time>2022-05-29T11:01:24Z</time>
      </trkpt>
      <trkpt lat="45.12502" lon="5.55172">
        <ele>1238.683</ele>
        <time>2022-05-29T11:01:29Z</time>
      </trkpt>
      <trkpt lat="45.12502" lon="5.55172">
        <ele>1238.681</ele>
        <time>2022-05-29T11:01:34Z</time>
      </trkpt>
      <trkpt lat="45.12502" lon="5.55172">
        <ele>1238.694</ele>
        <time>2022-05-29T11:01:39Z</time>
      </trkpt>
      <trkpt lat="45.12502" lon="5.55172">
        <ele>1238.691</ele>
        <time>2022-05-29T11:01:44Z</time>
      </trkpt>
      <trkpt lat="45.12502" lon="5.55172">
        <ele>1238.69</ele>
        <time>2022-05-29T11:01:49Z</time>
      </trkpt>
      <trkpt lat="45.12502" lon="5.55172">
        <ele>1238.693</ele>
        <time>2022-05-29T11:01:54Z</time>
      </trkpt>
      <trkpt lat="45.12502" lon="5.55172">
        <ele>1238.705</ele>
        <time>2022-05-29T11:01:59Z</time>
      </trkpt>
      <trkpt lat="45.12502" lon="5.55172">
        <ele>1238.704</ele>
        <time>2022-05-29T11:02:04Z</time>
      </trkpt>
      <trkpt lat="45.12502" lon="5.5517">
        <ele>1239.39</ele>
        <time>2022-05-29T11:02:09Z</time>
      </trkpt>
      <trkpt lat="45.12504" lon="5.55169">
        <ele>1239.553</ele>
        <time>2022-05-29T11:02:14Z</time>
      </trkpt>
      <trkpt lat="45.12505" lon="5.5517">
        <ele>1240.003</ele>
        <time>2022-05-29T11:02:19Z</time>
      </trkpt>
      <trkpt lat="45.12505" lon="5.55171">
        <ele>1240.363</ele>
        <time>2022-05-29T11:02:24Z</time>
      </trkpt>
      <trkpt lat="45.12505" lon="5.55171">
        <ele>1240.344</ele>
        <time>2022-05-29T11:02:29Z</time>
      </trkpt>
      <trkpt lat="45.12505" lon="5.55171">
        <ele>1240.346</ele>
        <time>2022-05-29T11:02:34Z</time>
      </trkpt>
      <trkpt lat="45.12505" lon="5.55171">
        <ele>1240.381</ele>
        <time>2022-05-29T11:02:39Z</time>
      </trkpt>
      <trkpt lat="45.12505" lon="5.55171">
        <ele>1240.403</ele>
        <time>2022-05-29T11:02:44Z</time>
      </trkpt>
      <trkpt lat="45.12505" lon="5.55171">
        <ele>1240.408</ele>
        <time>2022-05-29T11:02:49Z</time>
      </trkpt>
      <trkpt lat="45.12505" lon="5.55171">
        <ele>1240.404</ele>
        <time>2022-05-29T11:02:54Z</time>
      </trkpt>
      <trkpt lat="45.12505" lon="5.55171">
        <ele>1240.407</ele>
        <time>2022-05-29T11:02:59Z</time>
      </trkpt>
      <trkpt lat="45.12505" lon="5.55171">
        <ele>1240.409</ele>
        <time>2022-05-29T11:03:04Z</time>
      </trkpt>
      <trkpt lat="45.12505" lon="5.55171">
        <ele>1240.398</ele>
        <time>2022-05-29T11:03:09Z</time>
      </trkpt>
      <trkpt lat="45.12505" lon="5.55171">
        <ele>1240.387</ele>
        <time>2022-05-29T11:03:14Z</time>
      </trkpt>
      <trkpt lat="45.12505" lon="5.55171">
        <ele>1240.375</ele>
        <time>2022-05-29T11:03:19Z</time>
      </trkpt>
      <trkpt lat="45.12505" lon="5.55171">
        <ele>1240.38</ele>
        <time>2022-05-29T11:03:24Z</time>
      </trkpt>
      <trkpt lat="45.12505" lon="5.55171">
        <ele>1240.389</ele>
        <time>2022-05-29T11:03:29Z</time>
      </trkpt>
      <trkpt lat="45.12505" lon="5.55171">
        <ele>1240.389</ele>
        <time>2022-05-29T11:03:34Z</time>
      </trkpt>
      <trkpt lat="45.12505" lon="5.55171">
        <ele>1240.387</ele>
        <time>2022-05-29T11:03:39Z</time>
      </trkpt>
      <trkpt lat="45.12505" lon="5.55171">
        <ele>1240.388</ele>
        <time>2022-05-29T11:03:44Z</time>
      </trkpt>
      <trkpt lat="45.12505" lon="5.55171">
        <ele>1240.386</ele>
        <time>2022-05-29T11:03:49Z</time>
      </trkpt>
      <trkpt lat="45.12505" lon="5.55171">
        <ele>1240.388</ele>
        <time>2022-05-29T11:03:54Z</time>
      </trkpt>
      <trkpt lat="45.12505" lon="5.55171">
        <ele>1240.382</ele>
        <time>2022-05-29T11:03:59Z</time>
      </trkpt>
      <trkpt lat="45.12505" lon="5.55171">
        <ele>1240.357</ele>
        <time>2022-05-29T11:04:04Z</time>
      </trkpt>
      <trkpt lat="45.12505" lon="5.55171">
        <ele>1240.332</ele>
        <time>2022-05-29T11:04:09Z</time>
      </trkpt>
      <trkpt lat="45.12505" lon="5.55171">
        <ele>1240.315</ele>
        <time>2022-05-29T11:04:14Z</time>
      </trkpt>
      <trkpt lat="45.12505" lon="5.55171">
        <ele>1240.307</ele>
        <time>2022-05-29T11:04:19Z</time>
      </trkpt>
      <trkpt lat="45.12505" lon="5.55171">
        <ele>1240.314</ele>
        <time>2022-05-29T11:04:24Z</time>
      </trkpt>
      <trkpt lat="45.12505" lon="5.55171">
        <ele>1240.324</ele>
        <time>2022-05-29T11:04:29Z</time>
      </trkpt>
      <trkpt lat="45.12505" lon="5.55171">
        <ele>1240.34</ele>
        <time>2022-05-29T11:04:34Z</time>
      </trkpt>
      <trkpt lat="45.12505" lon="5.55171">
        <ele>1240.344</ele>
        <time>2022-05-29T11:04:39Z</time>
      </trkpt>
      <trkpt lat="45.12505" lon="5.55171">
        <ele>1240.342</ele>
        <time>2022-05-29T11:04:44Z</time>
      </trkpt>
      <trkpt lat="45.12505" lon="5.55171">
        <ele>1240.346</ele>
        <time>2022-05-29T11:04:49Z</time>
      </trkpt>
      <trkpt lat="45.12505" lon="5.55171">
        <ele>1240.351</ele>
        <time>2022-05-29T11:04:54Z</time>
      </trkpt>
      <trkpt lat="45.12505" lon="5.55171">
        <ele>1240.344</ele>
        <time>2022-05-29T11:04:59Z</time>
      </trkpt>
      <trkpt lat="45.12505" lon="5.55171">
        <ele>1240.338</ele>
        <time>2022-05-29T11:05:04Z</time>
      </trkpt>
      <trkpt lat="45.12505" lon="5.55171">
        <ele>1240.328</ele>
        <time>2022-05-29T11:05:09Z</time>
      </trkpt>
      <trkpt lat="45.12505" lon="5.55171">
        <ele>1240.312</ele>
        <time>2022-05-29T11:05:14Z</time>
      </trkpt>
      <trkpt lat="45.12505" lon="5.55171">
        <ele>1240.284</ele>
        <time>2022-05-29T11:05:19Z</time>
      </trkpt>
      <trkpt lat="45.12505" lon="5.55171">
        <ele>1240.258</ele>
        <time>2022-05-29T11:05:24Z</time>
      </trkpt>
      <trkpt lat="45.12505" lon="5.55171">
        <ele>1240.25</ele>
        <time>2022-05-29T11:05:29Z</time>
      </trkpt>
      <trkpt lat="45.12505" lon="5.55171">
        <ele>1240.235</ele>
        <time>2022-05-29T11:05:34Z</time>
      </trkpt>
      <trkpt lat="45.12505" lon="5.55171">
        <ele>1240.248</ele>
        <time>2022-05-29T11:05:39Z</time>
      </trkpt>
      <trkpt lat="45.12505" lon="5.55171">
        <ele>1240.257</ele>
        <time>2022-05-29T11:05:44Z</time>
      </trkpt>
      <trkpt lat="45.12505" lon="5.55171">
        <ele>1240.256</ele>
        <time>2022-05-29T11:05:49Z</time>
      </trkpt>
      <trkpt lat="45.12505" lon="5.55171">
        <ele>1240.251</ele>
        <time>2022-05-29T11:05:54Z</time>
      </trkpt>
      <trkpt lat="45.12505" lon="5.55171">
        <ele>1240.249</ele>
        <time>2022-05-29T11:05:59Z</time>
      </trkpt>
      <trkpt lat="45.12505" lon="5.55171">
        <ele>1240.251</ele>
        <time>2022-05-29T11:06:04Z</time>
      </trkpt>
      <trkpt lat="45.12505" lon="5.55171">
        <ele>1240.254</ele>
        <time>2022-05-29T11:06:09Z</time>
      </trkpt>
      <trkpt lat="45.12505" lon="5.55171">
        <ele>1240.252</ele>
        <time>2022-05-29T11:06:14Z</time>
      </trkpt>
      <trkpt lat="45.12505" lon="5.55171">
        <ele>1240.254</ele>
        <time>2022-05-29T11:06:19Z</time>
      </trkpt>
      <trkpt lat="45.12505" lon="5.55171">
        <ele>1240.261</ele>
        <time>2022-05-29T11:06:24Z</time>
      </trkpt>
      <trkpt lat="45.12505" lon="5.55171">
        <ele>1240.272</ele>
        <time>2022-05-29T11:06:29Z</time>
      </trkpt>
      <trkpt lat="45.12505" lon="5.55171">
        <ele>1240.279</ele>
        <time>2022-05-29T11:06:34Z</time>
      </trkpt>
      <trkpt lat="45.12505" lon="5.55171">
        <ele>1240.283</ele>
        <time>2022-05-29T11:06:39Z</time>
      </trkpt>
      <trkpt lat="45.12505" lon="5.55171">
        <ele>1240.297</ele>
        <time>2022-05-29T11:06:44Z</time>
      </trkpt>
      <trkpt lat="45.12505" lon="5.55171">
        <ele>1240.313</ele>
        <time>2022-05-29T11:06:49Z</time>
      </trkpt>
      <trkpt lat="45.12505" lon="5.55171">
        <ele>1240.322</ele>
        <time>2022-05-29T11:06:54Z</time>
      </trkpt>
      <trkpt lat="45.12505" lon="5.55171">
        <ele>1240.343</ele>
        <time>2022-05-29T11:06:59Z</time>
      </trkpt>
      <trkpt lat="45.12505" lon="5.55171">
        <ele>1240.365</ele>
        <time>2022-05-29T11:07:04Z</time>
      </trkpt>
      <trkpt lat="45.12505" lon="5.55171">
        <ele>1240.375</ele>
        <time>2022-05-29T11:07:09Z</time>
      </trkpt>
      <trkpt lat="45.12505" lon="5.55171">
        <ele>1240.376</ele>
        <time>2022-05-29T11:07:14Z</time>
      </trkpt>
      <trkpt lat="45.12505" lon="5.55171">
        <ele>1240.377</ele>
        <time>2022-05-29T11:07:19Z</time>
      </trkpt>
      <trkpt lat="45.12505" lon="5.55171">
        <ele>1240.376</ele>
        <time>2022-05-29T11:07:24Z</time>
      </trkpt>
      <trkpt lat="45.12505" lon="5.55171">
        <ele>1240.372</ele>
        <time>2022-05-29T11:07:29Z</time>
      </trkpt>
      <trkpt lat="45.12505" lon="5.55171">
        <ele>1240.374</ele>
        <time>2022-05-29T11:07:34Z</time>
      </trkpt>
      <trkpt lat="45.12505" lon="5.55171">
        <ele>1240.367</ele>
        <time>2022-05-29T11:07:39Z</time>
      </trkpt>
      <trkpt lat="45.12505" lon="5.55171">
        <ele>1240.369</ele>
        <time>2022-05-29T11:07:44Z</time>
      </trkpt>
      <trkpt lat="45.12505" lon="5.55171">
        <ele>1240.358</ele>
        <time>2022-05-29T11:07:49Z</time>
      </trkpt>
      <trkpt lat="45.12505" lon="5.55171">
        <ele>1240.343</ele>
        <time>2022-05-29T11:07:54Z</time>
      </trkpt>
      <trkpt lat="45.12505" lon="5.55171">
        <ele>1240.334</ele>
        <time>2022-05-29T11:07:59Z</time>
      </trkpt>
      <trkpt lat="45.12505" lon="5.55171">
        <ele>1240.338</ele>
        <time>2022-05-29T11:08:04Z</time>
      </trkpt>
      <trkpt lat="45.12505" lon="5.55171">
        <ele>1240.34</ele>
        <time>2022-05-29T11:08:09Z</time>
      </trkpt>
      <trkpt lat="45.12505" lon="5.55171">
        <ele>1240.337</ele>
        <time>2022-05-29T11:08:14Z</time>
      </trkpt>
      <trkpt lat="45.12505" lon="5.55171">
        <ele>1240.346</ele>
        <time>2022-05-29T11:08:19Z</time>
      </trkpt>
      <trkpt lat="45.12505" lon="5.55171">
        <ele>1240.358</ele>
        <time>2022-05-29T11:08:24Z</time>
      </trkpt>
      <trkpt lat="45.12505" lon="5.55171">
        <ele>1240.354</ele>
        <time>2022-05-29T11:08:29Z</time>
      </trkpt>
      <trkpt lat="45.12505" lon="5.55171">
        <ele>1240.352</ele>
        <time>2022-05-29T11:08:34Z</time>
      </trkpt>
      <trkpt lat="45.12505" lon="5.55171">
        <ele>1240.359</ele>
        <time>2022-05-29T11:08:39Z</time>
      </trkpt>
      <trkpt lat="45.12505" lon="5.55171">
        <ele>1240.356</ele>
        <time>2022-05-29T11:08:44Z</time>
      </trkpt>
      <trkpt lat="45.12505" lon="5.55171">
        <ele>1240.359</ele>
        <time>2022-05-29T11:08:49Z</time>
      </trkpt>
      <trkpt lat="45.12505" lon="5.55171">
        <ele>1240.354</ele>
        <time>2022-05-29T11:08:54Z</time>
      </trkpt>
      <trkpt lat="45.12505" lon="5.55171">
        <ele>1240.355</ele>
        <time>2022-05-29T11:08:59Z</time>
      </trkpt>
      <trkpt lat="45.12505" lon="5.55171">
        <ele>1240.357</ele>
        <time>2022-05-29T11:09:04Z</time>
      </trkpt>
      <trkpt lat="45.12505" lon="5.55171">
        <ele>1240.361</ele>
        <time>2022-05-29T11:09:09Z</time>
      </trkpt>
      <trkpt lat="45.12505" lon="5.55171">
        <ele>1240.366</ele>
        <time>2022-05-29T11:09:14Z</time>
      </trkpt>
      <trkpt lat="45.12505" lon="5.55171">
        <ele>1240.398</ele>
        <time>2022-05-29T11:09:19Z</time>
      </trkpt>
      <trkpt lat="45.12505" lon="5.55171">
        <ele>1240.401</ele>
        <time>2022-05-29T11:09:24Z</time>
      </trkpt>
      <trkpt lat="45.12505" lon="5.55171">
        <ele>1240.403</ele>
        <time>2022-05-29T11:09:29Z</time>
      </trkpt>
      <trkpt lat="45.12505" lon="5.55171">
        <ele>1240.41</ele>
        <time>2022-05-29T11:09:34Z</time>
      </trkpt>
      <trkpt lat="45.12505" lon="5.55171">
        <ele>1240.405</ele>
        <time>2022-05-29T11:09:39Z</time>
      </trkpt>
      <trkpt lat="45.12505" lon="5.55171">
        <ele>1240.4</ele>
        <time>2022-05-29T11:09:44Z</time>
      </trkpt>
      <trkpt lat="45.12505" lon="5.55171">
        <ele>1240.396</ele>
        <time>2022-05-29T11:09:49Z</time>
      </trkpt>
      <trkpt lat="45.12505" lon="5.55171">
        <ele>1240.396</ele>
        <time>2022-05-29T11:09:54Z</time>
      </trkpt>
      <trkpt lat="45.12505" lon="5.55171">
        <ele>1240.393</ele>
        <time>2022-05-29T11:09:59Z</time>
      </trkpt>
      <trkpt lat="45.12505" lon="5.55171">
        <ele>1240.389</ele>
        <time>2022-05-29T11:10:04Z</time>
      </trkpt>
      <trkpt lat="45.12505" lon="5.55171">
        <ele>1240.383</ele>
        <time>2022-05-29T11:10:09Z</time>
      </trkpt>
      <trkpt lat="45.12505" lon="5.55171">
        <ele>1240.373</ele>
        <time>2022-05-29T11:10:14Z</time>
      </trkpt>
      <trkpt lat="45.12505" lon="5.55171">
        <ele>1240.366</ele>
        <time>2022-05-29T11:10:19Z</time>
      </trkpt>
      <trkpt lat="45.12505" lon="5.55171">
        <ele>1240.364</ele>
        <time>2022-05-29T11:10:24Z</time>
      </trkpt>
      <trkpt lat="45.12505" lon="5.55171">
        <ele>1240.364</ele>
        <time>2022-05-29T11:10:29Z</time>
      </trkpt>
      <trkpt lat="45.12505" lon="5.55171">
        <ele>1240.353</ele>
        <time>2022-05-29T11:10:34Z</time>
      </trkpt>
      <trkpt lat="45.12505" lon="5.55171">
        <ele>1240.346</ele>
        <time>2022-05-29T11:10:39Z</time>
      </trkpt>
      <trkpt lat="45.12505" lon="5.55171">
        <ele>1240.341</ele>
        <time>2022-05-29T11:10:44Z</time>
      </trkpt>
      <trkpt lat="45.12505" lon="5.55171">
        <ele>1240.34</ele>
        <time>2022-05-29T11:10:49Z</time>
      </trkpt>
      <trkpt lat="45.12505" lon="5.55171">
        <ele>1240.34</ele>
        <time>2022-05-29T11:10:54Z</time>
      </trkpt>
      <trkpt lat="45.12505" lon="5.55171">
        <ele>1240.337</ele>
        <time>2022-05-29T11:10:59Z</time>
      </trkpt>
      <trkpt lat="45.12505" lon="5.55171">
        <ele>1240.337</ele>
        <time>2022-05-29T11:11:04Z</time>
      </trkpt>
      <trkpt lat="45.12505" lon="5.55171">
        <ele>1240.337</ele>
        <time>2022-05-29T11:11:09Z</time>
      </trkpt>
      <trkpt lat="45.12505" lon="5.55171">
        <ele>1240.339</ele>
        <time>2022-05-29T11:11:14Z</time>
      </trkpt>
      <trkpt lat="45.12505" lon="5.55171">
        <ele>1240.353</ele>
        <time>2022-05-29T11:11:19Z</time>
      </trkpt>
      <trkpt lat="45.12505" lon="5.55171">
        <ele>1240.37</ele>
        <time>2022-05-29T11:11:24Z</time>
      </trkpt>
      <trkpt lat="45.12505" lon="5.55171">
        <ele>1240.382</ele>
        <time>2022-05-29T11:11:29Z</time>
      </trkpt>
      <trkpt lat="45.12505" lon="5.55171">
        <ele>1240.385</ele>
        <time>2022-05-29T11:11:34Z</time>
      </trkpt>
      <trkpt lat="45.12505" lon="5.55171">
        <ele>1240.369</ele>
        <time>2022-05-29T11:11:39Z</time>
      </trkpt>
      <trkpt lat="45.12505" lon="5.55171">
        <ele>1240.355</ele>
        <time>2022-05-29T11:11:44Z</time>
      </trkpt>
      <trkpt lat="45.12505" lon="5.55171">
        <ele>1240.333</ele>
        <time>2022-05-29T11:11:49Z</time>
      </trkpt>
      <trkpt lat="45.12505" lon="5.55171">
        <ele>1240.316</ele>
        <time>2022-05-29T11:11:54Z</time>
      </trkpt>
      <trkpt lat="45.12505" lon="5.55171">
        <ele>1240.309</ele>
        <time>2022-05-29T11:11:59Z</time>
      </trkpt>
      <trkpt lat="45.12505" lon="5.55171">
        <ele>1240.305</ele>
        <time>2022-05-29T11:12:04Z</time>
      </trkpt>
      <trkpt lat="45.12505" lon="5.55171">
        <ele>1240.301</ele>
        <time>2022-05-29T11:12:09Z</time>
      </trkpt>
      <trkpt lat="45.12505" lon="5.55171">
        <ele>1240.302</ele>
        <time>2022-05-29T11:12:14Z</time>
      </trkpt>
      <trkpt lat="45.12505" lon="5.55171">
        <ele>1240.297</ele>
        <time>2022-05-29T11:12:19Z</time>
      </trkpt>
      <trkpt lat="45.12509" lon="5.55169">
        <ele>1239.994</ele>
        <time>2022-05-29T11:12:24Z</time>
      </trkpt>
      <trkpt lat="45.12512" lon="5.55167">
        <ele>1241.513</ele>
        <time>2022-05-29T11:12:29Z</time>
      </trkpt>
      <trkpt lat="45.12515" lon="5.55163">
        <ele>1240.476</ele>
        <time>2022-05-29T11:12:34Z</time>
      </trkpt>
      <trkpt lat="45.12514" lon="5.55161">
        <ele>1240.748</ele>
        <time>2022-05-29T11:12:39Z</time>
      </trkpt>
      <trkpt lat="45.12515" lon="5.5516">
        <ele>1242.063</ele>
        <time>2022-05-29T11:12:44Z</time>
      </trkpt>
      <trkpt lat="45.12515" lon="5.5516">
        <ele>1242.375</ele>
        <time>2022-05-29T11:12:49Z</time>
      </trkpt>
      <trkpt lat="45.12515" lon="5.5516">
        <ele>1242.539</ele>
        <time>2022-05-29T11:12:54Z</time>
      </trkpt>
      <trkpt lat="45.12515" lon="5.55159">
        <ele>1242.67</ele>
        <time>2022-05-29T11:12:59Z</time>
      </trkpt>
      <trkpt lat="45.12515" lon="5.55159">
        <ele>1242.751</ele>
        <time>2022-05-29T11:13:04Z</time>
      </trkpt>
      <trkpt lat="45.12515" lon="5.55159">
        <ele>1242.798</ele>
        <time>2022-05-29T11:13:09Z</time>
      </trkpt>
      <trkpt lat="45.12515" lon="5.55159">
        <ele>1242.813</ele>
        <time>2022-05-29T11:13:14Z</time>
      </trkpt>
      <trkpt lat="45.12515" lon="5.55159">
        <ele>1242.902</ele>
        <time>2022-05-29T11:13:19Z</time>
      </trkpt>
      <trkpt lat="45.12513" lon="5.55163">
        <ele>1241.662</ele>
        <time>2022-05-29T11:13:24Z</time>
      </trkpt>
      <trkpt lat="45.12508" lon="5.55169">
        <ele>1242.509</ele>
        <time>2022-05-29T11:13:29Z</time>
      </trkpt>
      <trkpt lat="45.12503" lon="5.55171">
        <ele>1242.427</ele>
        <time>2022-05-29T11:13:34Z</time>
      </trkpt>
      <trkpt lat="45.12503" lon="5.55173">
        <ele>1240.633</ele>
        <time>2022-05-29T11:13:39Z</time>
      </trkpt>
      <trkpt lat="45.12503" lon="5.55173">
        <ele>1240.167</ele>
        <time>2022-05-29T11:13:44Z</time>
      </trkpt>
      <trkpt lat="45.12503" lon="5.55173">
        <ele>1239.909</ele>
        <time>2022-05-29T11:13:49Z</time>
      </trkpt>
      <trkpt lat="45.12503" lon="5.55173">
        <ele>1239.914</ele>
        <time>2022-05-29T11:13:54Z</time>
      </trkpt>
      <trkpt lat="45.12503" lon="5.55173">
        <ele>1239.917</ele>
        <time>2022-05-29T11:13:59Z</time>
      </trkpt>
      <trkpt lat="45.12503" lon="5.55173">
        <ele>1239.923</ele>
        <time>2022-05-29T11:14:04Z</time>
      </trkpt>
      <trkpt lat="45.12503" lon="5.55173">
        <ele>1239.918</ele>
        <time>2022-05-29T11:14:09Z</time>
      </trkpt>
      <trkpt lat="45.12503" lon="5.55173">
        <ele>1239.909</ele>
        <time>2022-05-29T11:14:14Z</time>
      </trkpt>
      <trkpt lat="45.12502" lon="5.55172">
        <ele>1239.022</ele>
        <time>2022-05-29T11:14:19Z</time>
      </trkpt>
      <trkpt lat="45.12502" lon="5.55172">
        <ele>1238.306</ele>
        <time>2022-05-29T11:14:24Z</time>
      </trkpt>
      <trkpt lat="45.12502" lon="5.55172">
        <ele>1237.853</ele>
        <time>2022-05-29T11:14:29Z</time>
      </trkpt>
      <trkpt lat="45.12503" lon="5.55173">
        <ele>1238.04</ele>
        <time>2022-05-29T11:14:34Z</time>
      </trkpt>
      <trkpt lat="45.12503" lon="5.55173">
        <ele>1238.111</ele>
        <time>2022-05-29T11:14:39Z</time>
      </trkpt>
      <trkpt lat="45.12503" lon="5.55173">
        <ele>1238.141</ele>
        <time>2022-05-29T11:14:44Z</time>
      </trkpt>
      <trkpt lat="45.12503" lon="5.55173">
        <ele>1238.163</ele>
        <time>2022-05-29T11:14:49Z</time>
      </trkpt>
      <trkpt lat="45.12503" lon="5.55173">
        <ele>1238.177</ele>
        <time>2022-05-29T11:14:54Z</time>
      </trkpt>
      <trkpt lat="45.12503" lon="5.55173">
        <ele>1238.186</ele>
        <time>2022-05-29T11:14:59Z</time>
      </trkpt>
      <trkpt lat="45.12503" lon="5.55173">
        <ele>1238.185</ele>
        <time>2022-05-29T11:15:04Z</time>
      </trkpt>
      <trkpt lat="45.12503" lon="5.55173">
        <ele>1238.182</ele>
        <time>2022-05-29T11:15:09Z</time>
      </trkpt>
      <trkpt lat="45.12503" lon="5.55173">
        <ele>1238.194</ele>
        <time>2022-05-29T11:15:14Z</time>
      </trkpt>
      <trkpt lat="45.12503" lon="5.55173">
        <ele>1238.206</ele>
        <time>2022-05-29T11:15:19Z</time>
      </trkpt>
      <trkpt lat="45.12503" lon="5.55173">
        <ele>1238.216</ele>
        <time>2022-05-29T11:15:24Z</time>
      </trkpt>
      <trkpt lat="45.12503" lon="5.55173">
        <ele>1238.228</ele>
        <time>2022-05-29T11:15:29Z</time>
      </trkpt>
      <trkpt lat="45.12503" lon="5.55173">
        <ele>1238.241</ele>
        <time>2022-05-29T11:15:34Z</time>
      </trkpt>
      <trkpt lat="45.12503" lon="5.55173">
        <ele>1238.249</ele>
        <time>2022-05-29T11:15:39Z</time>
      </trkpt>
      <trkpt lat="45.12503" lon="5.55173">
        <ele>1238.243</ele>
        <time>2022-05-29T11:15:44Z</time>
      </trkpt>
      <trkpt lat="45.12503" lon="5.55173">
        <ele>1238.244</ele>
        <time>2022-05-29T11:15:49Z</time>
      </trkpt>
      <trkpt lat="45.12503" lon="5.55173">
        <ele>1238.243</ele>
        <time>2022-05-29T11:15:54Z</time>
      </trkpt>
      <trkpt lat="45.12503" lon="5.55173">
        <ele>1238.252</ele>
        <time>2022-05-29T11:15:59Z</time>
      </trkpt>
      <trkpt lat="45.12503" lon="5.55173">
        <ele>1238.27</ele>
        <time>2022-05-29T11:16:04Z</time>
      </trkpt>
      <trkpt lat="45.12503" lon="5.55173">
        <ele>1238.321</ele>
        <time>2022-05-29T11:16:09Z</time>
      </trkpt>
      <trkpt lat="45.12502" lon="5.55173">
        <ele>1238.354</ele>
        <time>2022-05-29T11:16:14Z</time>
      </trkpt>
      <trkpt lat="45.12502" lon="5.55173">
        <ele>1238.373</ele>
        <time>2022-05-29T11:16:19Z</time>
      </trkpt>
      <trkpt lat="45.12502" lon="5.55173">
        <ele>1238.39</ele>
        <time>2022-05-29T11:16:24Z</time>
      </trkpt>
      <trkpt lat="45.12502" lon="5.55173">
        <ele>1238.415</ele>
        <time>2022-05-29T11:16:29Z</time>
      </trkpt>
      <trkpt lat="45.12502" lon="5.55173">
        <ele>1238.427</ele>
        <time>2022-05-29T11:16:34Z</time>
      </trkpt>
      <trkpt lat="45.12502" lon="5.55173">
        <ele>1238.437</ele>
        <time>2022-05-29T11:16:39Z</time>
      </trkpt>
      <trkpt lat="45.12502" lon="5.55173">
        <ele>1238.438</ele>
        <time>2022-05-29T11:16:44Z</time>
      </trkpt>
      <trkpt lat="45.12502" lon="5.55173">
        <ele>1238.439</ele>
        <time>2022-05-29T11:16:49Z</time>
      </trkpt>
      <trkpt lat="45.12502" lon="5.55173">
        <ele>1238.44</ele>
        <time>2022-05-29T11:16:54Z</time>
      </trkpt>
      <trkpt lat="45.12502" lon="5.55173">
        <ele>1238.453</ele>
        <time>2022-05-29T11:16:59Z</time>
      </trkpt>
      <trkpt lat="45.12502" lon="5.55173">
        <ele>1238.472</ele>
        <time>2022-05-29T11:17:04Z</time>
      </trkpt>
      <trkpt lat="45.12502" lon="5.55173">
        <ele>1238.531</ele>
        <time>2022-05-29T11:17:09Z</time>
      </trkpt>
      <trkpt lat="45.12502" lon="5.55173">
        <ele>1238.529</ele>
        <time>2022-05-29T11:17:14Z</time>
      </trkpt>
      <trkpt lat="45.12501" lon="5.55172">
        <ele>1235.768</ele>
        <time>2022-05-29T11:17:19Z</time>
      </trkpt>
      <trkpt lat="45.12502" lon="5.5517">
        <ele>1236.21</ele>
        <time>2022-05-29T11:17:24Z</time>
      </trkpt>
      <trkpt lat="45.12503" lon="5.55168">
        <ele>1234.645</ele>
        <time>2022-05-29T11:17:29Z</time>
      </trkpt>
      <trkpt lat="45.12503" lon="5.55168">
        <ele>1234.498</ele>
        <time>2022-05-29T11:17:34Z</time>
      </trkpt>
      <trkpt lat="45.12503" lon="5.55168">
        <ele>1234.502</ele>
        <time>2022-05-29T11:17:39Z</time>
      </trkpt>
      <trkpt lat="45.12503" lon="5.55168">
        <ele>1234.511</ele>
        <time>2022-05-29T11:17:44Z</time>
      </trkpt>
      <trkpt lat="45.12503" lon="5.55168">
        <ele>1234.513</ele>
        <time>2022-05-29T11:17:49Z</time>
      </trkpt>
      <trkpt lat="45.12503" lon="5.55168">
        <ele>1235.939</ele>
        <time>2022-05-29T11:17:54Z</time>
      </trkpt>
      <trkpt lat="45.12502" lon="5.55167">
        <ele>1238.938</ele>
        <time>2022-05-29T11:17:59Z</time>
      </trkpt>
      <trkpt lat="45.12502" lon="5.55166">
        <ele>1239.084</ele>
        <time>2022-05-29T11:18:04Z</time>
      </trkpt>
      <trkpt lat="45.12502" lon="5.55166">
        <ele>1238.875</ele>
        <time>2022-05-29T11:18:09Z</time>
      </trkpt>
      <trkpt lat="45.12503" lon="5.55166">
        <ele>1238.881</ele>
        <time>2022-05-29T11:18:14Z</time>
      </trkpt>
      <trkpt lat="45.12502" lon="5.55166">
        <ele>1238.878</ele>
        <time>2022-05-29T11:18:19Z</time>
      </trkpt>
      <trkpt lat="45.12501" lon="5.55169">
        <ele>1235.096</ele>
        <time>2022-05-29T11:18:24Z</time>
      </trkpt>
      <trkpt lat="45.12493" lon="5.55168">
        <ele>1234.855</ele>
        <time>2022-05-29T11:18:29Z</time>
      </trkpt>
      <trkpt lat="45.1249" lon="5.55182">
        <ele>1233.235</ele>
        <time>2022-05-29T11:18:34Z</time>
      </trkpt>
      <trkpt lat="45.12497" lon="5.55174">
        <ele>1234.356</ele>
        <time>2022-05-29T11:18:39Z</time>
      </trkpt>
      <trkpt lat="45.12498" lon="5.55161">
        <ele>1235.652</ele>
        <time>2022-05-29T11:18:44Z</time>
      </trkpt>
      <trkpt lat="45.12498" lon="5.5515">
        <ele>1236.206</ele>
        <time>2022-05-29T11:18:49Z</time>
      </trkpt>
      <trkpt lat="45.125" lon="5.55141">
        <ele>1236.465</ele>
        <time>2022-05-29T11:18:54Z</time>
      </trkpt>
      <trkpt lat="45.12497" lon="5.55138">
        <ele>1232.45</ele>
        <time>2022-05-29T11:18:59Z</time>
      </trkpt>
      <trkpt lat="45.12495" lon="5.55155">
        <ele>1232.785</ele>
        <time>2022-05-29T11:19:04Z</time>
      </trkpt>
      <trkpt lat="45.12493" lon="5.55172">
        <ele>1233.493</ele>
        <time>2022-05-29T11:19:09Z</time>
      </trkpt>
      <trkpt lat="45.12488" lon="5.5518">
        <ele>1232.158</ele>
        <time>2022-05-29T11:19:14Z</time>
      </trkpt>
      <trkpt lat="45.12494" lon="5.55178">
        <ele>1232.891</ele>
        <time>2022-05-29T11:19:19Z</time>
      </trkpt>
      <trkpt lat="45.12497" lon="5.55169">
        <ele>1233.297</ele>
        <time>2022-05-29T11:19:24Z</time>
      </trkpt>
      <trkpt lat="45.12496" lon="5.55163">
        <ele>1232.89</ele>
        <time>2022-05-29T11:19:29Z</time>
      </trkpt>
      <trkpt lat="45.12494" lon="5.5517">
        <ele>1233.348</ele>
        <time>2022-05-29T11:19:34Z</time>
      </trkpt>
      <trkpt lat="45.12494" lon="5.55176">
        <ele>1233.771</ele>
        <time>2022-05-29T11:19:39Z</time>
      </trkpt>
      <trkpt lat="45.12496" lon="5.55173">
        <ele>1234.679</ele>
        <time>2022-05-29T11:19:44Z</time>
      </trkpt>
      <trkpt lat="45.12495" lon="5.55167">
        <ele>1235.521</ele>
        <time>2022-05-29T11:19:49Z</time>
      </trkpt>
      <trkpt lat="45.12489" lon="5.55176">
        <ele>1233.956</ele>
        <time>2022-05-29T11:19:54Z</time>
      </trkpt>
      <trkpt lat="45.1249" lon="5.55188">
        <ele>1232.649</ele>
        <time>2022-05-29T11:19:59Z</time>
      </trkpt>
      <trkpt lat="45.12496" lon="5.55182">
        <ele>1233.477</ele>
        <time>2022-05-29T11:20:04Z</time>
      </trkpt>
      <trkpt lat="45.12498" lon="5.55169">
        <ele>1234.551</ele>
        <time>2022-05-29T11:20:09Z</time>
      </trkpt>
      <trkpt lat="45.12499" lon="5.55155">
        <ele>1233.942</ele>
        <time>2022-05-29T11:20:14Z</time>
      </trkpt>
      <trkpt lat="45.12493" lon="5.55162">
        <ele>1233.319</ele>
        <time>2022-05-29T11:20:19Z</time>
      </trkpt>
      <trkpt lat="45.12494" lon="5.55171">
        <ele>1232.58</ele>
        <time>2022-05-29T11:20:24Z</time>
      </trkpt>
      <trkpt lat="45.12496" lon="5.5517">
        <ele>1232.966</ele>
        <time>2022-05-29T11:20:29Z</time>
      </trkpt>
      <trkpt lat="45.12496" lon="5.5517">
        <ele>1233.144</ele>
        <time>2022-05-29T11:20:34Z</time>
      </trkpt>
      <trkpt lat="45.12495" lon="5.5517">
        <ele>1232.565</ele>
        <time>2022-05-29T11:20:39Z</time>
      </trkpt>
      <trkpt lat="45.12496" lon="5.55169">
        <ele>1232.511</ele>
        <time>2022-05-29T11:20:44Z</time>
      </trkpt>
      <trkpt lat="45.12496" lon="5.55169">
        <ele>1232.517</ele>
        <time>2022-05-29T11:20:49Z</time>
      </trkpt>
      <trkpt lat="45.12496" lon="5.55169">
        <ele>1232.523</ele>
        <time>2022-05-29T11:20:54Z</time>
      </trkpt>
      <trkpt lat="45.12496" lon="5.55169">
        <ele>1232.539</ele>
        <time>2022-05-29T11:20:59Z</time>
      </trkpt>
      <trkpt lat="45.12496" lon="5.55169">
        <ele>1232.547</ele>
        <time>2022-05-29T11:21:04Z</time>
      </trkpt>
      <trkpt lat="45.12496" lon="5.55169">
        <ele>1232.554</ele>
        <time>2022-05-29T11:21:09Z</time>
      </trkpt>
      <trkpt lat="45.12496" lon="5.55169">
        <ele>1232.563</ele>
        <time>2022-05-29T11:21:14Z</time>
      </trkpt>
      <trkpt lat="45.12496" lon="5.55169">
        <ele>1232.574</ele>
        <time>2022-05-29T11:21:19Z</time>
      </trkpt>
      <trkpt lat="45.12496" lon="5.55169">
        <ele>1232.577</ele>
        <time>2022-05-29T11:21:24Z</time>
      </trkpt>
      <trkpt lat="45.12498" lon="5.55168">
        <ele>1232.982</ele>
        <time>2022-05-29T11:21:29Z</time>
      </trkpt>
      <trkpt lat="45.12499" lon="5.55167">
        <ele>1232.049</ele>
        <time>2022-05-29T11:21:34Z</time>
      </trkpt>
      <trkpt lat="45.12499" lon="5.55167">
        <ele>1232.405</ele>
        <time>2022-05-29T11:21:39Z</time>
      </trkpt>
      <trkpt lat="45.125" lon="5.55167">
        <ele>1232.642</ele>
        <time>2022-05-29T11:21:44Z</time>
      </trkpt>
      <trkpt lat="45.125" lon="5.55167">
        <ele>1232.614</ele>
        <time>2022-05-29T11:21:49Z</time>
      </trkpt>
      <trkpt lat="45.125" lon="5.55167">
        <ele>1232.635</ele>
        <time>2022-05-29T11:21:54Z</time>
      </trkpt>
      <trkpt lat="45.125" lon="5.55167">
        <ele>1232.637</ele>
        <time>2022-05-29T11:21:59Z</time>
      </trkpt>
      <trkpt lat="45.12499" lon="5.55169">
        <ele>1231.447</ele>
        <time>2022-05-29T11:22:04Z</time>
      </trkpt>
      <trkpt lat="45.12495" lon="5.5517">
        <ele>1232.372</ele>
        <time>2022-05-29T11:22:09Z</time>
      </trkpt>
      <trkpt lat="45.12495" lon="5.55171">
        <ele>1233.738</ele>
        <time>2022-05-29T11:22:14Z</time>
      </trkpt>
      <trkpt lat="45.12495" lon="5.5517">
        <ele>1235.354</ele>
        <time>2022-05-29T11:22:19Z</time>
      </trkpt>
      <trkpt lat="45.12495" lon="5.5517">
        <ele>1236.177</ele>
        <time>2022-05-29T11:22:24Z</time>
      </trkpt>
      <trkpt lat="45.12495" lon="5.5517">
        <ele>1236.269</ele>
        <time>2022-05-29T11:22:29Z</time>
      </trkpt>
      <trkpt lat="45.12495" lon="5.5517">
        <ele>1236.277</ele>
        <time>2022-05-29T11:22:34Z</time>
      </trkpt>
      <trkpt lat="45.12488" lon="5.55168">
        <ele>1234.709</ele>
        <time>2022-05-29T11:22:39Z</time>
      </trkpt>
      <trkpt lat="45.12484" lon="5.55157">
        <ele>1232.488</ele>
        <time>2022-05-29T11:22:44Z</time>
      </trkpt>
      <trkpt lat="45.12482" lon="5.55145">
        <ele>1233.295</ele>
        <time>2022-05-29T11:22:49Z</time>
      </trkpt>
      <trkpt lat="45.12479" lon="5.55126">
        <ele>1234.572</ele>
        <time>2022-05-29T11:22:54Z</time>
      </trkpt>
      <trkpt lat="45.12476" lon="5.55105">
        <ele>1233.98</ele>
        <time>2022-05-29T11:22:59Z</time>
      </trkpt>
      <trkpt lat="45.12474" lon="5.55087">
        <ele>1236.703</ele>
        <time>2022-05-29T11:23:04Z</time>
      </trkpt>
      <trkpt lat="45.12471" lon="5.55071">
        <ele>1237.397</ele>
        <time>2022-05-29T11:23:09Z</time>
      </trkpt>
      <trkpt lat="45.1247" lon="5.55056">
        <ele>1238.889</ele>
        <time>2022-05-29T11:23:14Z</time>
      </trkpt>
      <trkpt lat="45.12468" lon="5.55041">
        <ele>1236.944</ele>
        <time>2022-05-29T11:23:19Z</time>
      </trkpt>
      <trkpt lat="45.12465" lon="5.55025">
        <ele>1236.18</ele>
        <time>2022-05-29T11:23:24Z</time>
      </trkpt>
      <trkpt lat="45.12458" lon="5.55013">
        <ele>1241.623</ele>
        <time>2022-05-29T11:23:29Z</time>
      </trkpt>
      <trkpt lat="45.12447" lon="5.55005">
        <ele>1243.382</ele>
        <time>2022-05-29T11:23:34Z</time>
      </trkpt>
      <trkpt lat="45.12436" lon="5.54997">
        <ele>1242.43</ele>
        <time>2022-05-29T11:23:39Z</time>
      </trkpt>
      <trkpt lat="45.12425" lon="5.54992">
        <ele>1241.335</ele>
        <time>2022-05-29T11:23:44Z</time>
      </trkpt>
      <trkpt lat="45.12411" lon="5.54985">
        <ele>1239.853</ele>
        <time>2022-05-29T11:23:49Z</time>
      </trkpt>
      <trkpt lat="45.12393" lon="5.54979">
        <ele>1240.693</ele>
        <time>2022-05-29T11:23:54Z</time>
      </trkpt>
      <trkpt lat="45.12376" lon="5.54972">
        <ele>1242.086</ele>
        <time>2022-05-29T11:23:59Z</time>
      </trkpt>
      <trkpt lat="45.12358" lon="5.54963">
        <ele>1241.254</ele>
        <time>2022-05-29T11:24:04Z</time>
      </trkpt>
      <trkpt lat="45.1234" lon="5.54954">
        <ele>1241.36</ele>
        <time>2022-05-29T11:24:09Z</time>
      </trkpt>
      <trkpt lat="45.12322" lon="5.54946">
        <ele>1242.528</ele>
        <time>2022-05-29T11:24:14Z</time>
      </trkpt>
      <trkpt lat="45.12303" lon="5.54939">
        <ele>1243.207</ele>
        <time>2022-05-29T11:24:19Z</time>
      </trkpt>
      <trkpt lat="45.12285" lon="5.54932">
        <ele>1244.683</ele>
        <time>2022-05-29T11:24:24Z</time>
      </trkpt>
      <trkpt lat="45.12271" lon="5.54926">
        <ele>1246.778</ele>
        <time>2022-05-29T11:24:29Z</time>
      </trkpt>
      <trkpt lat="45.12259" lon="5.54921">
        <ele>1246.968</ele>
        <time>2022-05-29T11:24:34Z</time>
      </trkpt>
      <trkpt lat="45.12246" lon="5.54917">
        <ele>1247.001</ele>
        <time>2022-05-29T11:24:39Z</time>
      </trkpt>
      <trkpt lat="45.12234" lon="5.54909">
        <ele>1246.793</ele>
        <time>2022-05-29T11:24:44Z</time>
      </trkpt>
      <trkpt lat="45.12219" lon="5.54904">
        <ele>1250.504</ele>
        <time>2022-05-29T11:24:49Z</time>
      </trkpt>
      <trkpt lat="45.12206" lon="5.54898">
        <ele>1249.997</ele>
        <time>2022-05-29T11:24:54Z</time>
      </trkpt>
      <trkpt lat="45.12193" lon="5.54893">
        <ele>1250.153</ele>
        <time>2022-05-29T11:24:59Z</time>
      </trkpt>
      <trkpt lat="45.12179" lon="5.54885">
        <ele>1250.74</ele>
        <time>2022-05-29T11:25:04Z</time>
      </trkpt>
      <trkpt lat="45.12166" lon="5.54877">
        <ele>1249.981</ele>
        <time>2022-05-29T11:25:09Z</time>
      </trkpt>
      <trkpt lat="45.12156" lon="5.54869">
        <ele>1247.961</ele>
        <time>2022-05-29T11:25:14Z</time>
      </trkpt>
      <trkpt lat="45.12145" lon="5.54863">
        <ele>1247.203</ele>
        <time>2022-05-29T11:25:19Z</time>
      </trkpt>
      <trkpt lat="45.12134" lon="5.54858">
        <ele>1247.69</ele>
        <time>2022-05-29T11:25:24Z</time>
      </trkpt>
      <trkpt lat="45.12122" lon="5.54854">
        <ele>1247.032</ele>
        <time>2022-05-29T11:25:29Z</time>
      </trkpt>
      <trkpt lat="45.12109" lon="5.54851">
        <ele>1246.418</ele>
        <time>2022-05-29T11:25:34Z</time>
      </trkpt>
      <trkpt lat="45.12099" lon="5.54851">
        <ele>1246.041</ele>
        <time>2022-05-29T11:25:39Z</time>
      </trkpt>
      <trkpt lat="45.12088" lon="5.54849">
        <ele>1249.006</ele>
        <time>2022-05-29T11:25:44Z</time>
      </trkpt>
      <trkpt lat="45.12076" lon="5.5485">
        <ele>1250.472</ele>
        <time>2022-05-29T11:25:49Z</time>
      </trkpt>
      <trkpt lat="45.12062" lon="5.5485">
        <ele>1248.778</ele>
        <time>2022-05-29T11:25:54Z</time>
      </trkpt>
      <trkpt lat="45.1205" lon="5.54852">
        <ele>1246.419</ele>
        <time>2022-05-29T11:25:59Z</time>
      </trkpt>
      <trkpt lat="45.12039" lon="5.5486">
        <ele>1247.494</ele>
        <time>2022-05-29T11:26:04Z</time>
      </trkpt>
      <trkpt lat="45.12027" lon="5.54868">
        <ele>1247.274</ele>
        <time>2022-05-29T11:26:09Z</time>
      </trkpt>
      <trkpt lat="45.12015" lon="5.54875">
        <ele>1247.804</ele>
        <time>2022-05-29T11:26:14Z</time>
      </trkpt>
      <trkpt lat="45.11999" lon="5.54882">
        <ele>1250.809</ele>
        <time>2022-05-29T11:26:19Z</time>
      </trkpt>
      <trkpt lat="45.11983" lon="5.54885">
        <ele>1248.548</ele>
        <time>2022-05-29T11:26:24Z</time>
      </trkpt>
      <trkpt lat="45.11971" lon="5.54881">
        <ele>1250.981</ele>
        <time>2022-05-29T11:26:29Z</time>
      </trkpt>
      <trkpt lat="45.11963" lon="5.54868">
        <ele>1251.817</ele>
        <time>2022-05-29T11:26:34Z</time>
      </trkpt>
      <trkpt lat="45.11957" lon="5.54851">
        <ele>1254.284</ele>
        <time>2022-05-29T11:26:39Z</time>
      </trkpt>
      <trkpt lat="45.11956" lon="5.54833">
        <ele>1253.209</ele>
        <time>2022-05-29T11:26:44Z</time>
      </trkpt>
      <trkpt lat="45.11955" lon="5.54818">
        <ele>1252.175</ele>
        <time>2022-05-29T11:26:49Z</time>
      </trkpt>
      <trkpt lat="45.11952" lon="5.54801">
        <ele>1252.499</ele>
        <time>2022-05-29T11:26:54Z</time>
      </trkpt>
      <trkpt lat="45.11942" lon="5.54788">
        <ele>1253.887</ele>
        <time>2022-05-29T11:26:59Z</time>
      </trkpt>
      <trkpt lat="45.11928" lon="5.54781">
        <ele>1253.526</ele>
        <time>2022-05-29T11:27:04Z</time>
      </trkpt>
      <trkpt lat="45.11914" lon="5.5478">
        <ele>1253.963</ele>
        <time>2022-05-29T11:27:09Z</time>
      </trkpt>
      <trkpt lat="45.11904" lon="5.54783">
        <ele>1253.745</ele>
        <time>2022-05-29T11:27:14Z</time>
      </trkpt>
      <trkpt lat="45.11893" lon="5.54786">
        <ele>1255.592</ele>
        <time>2022-05-29T11:27:19Z</time>
      </trkpt>
      <trkpt lat="45.11881" lon="5.54788">
        <ele>1255.701</ele>
        <time>2022-05-29T11:27:24Z</time>
      </trkpt>
      <trkpt lat="45.1187" lon="5.54792">
        <ele>1257.014</ele>
        <time>2022-05-29T11:27:29Z</time>
      </trkpt>
      <trkpt lat="45.11859" lon="5.54797">
        <ele>1257.396</ele>
        <time>2022-05-29T11:27:34Z</time>
      </trkpt>
      <trkpt lat="45.11849" lon="5.54803">
        <ele>1257.22</ele>
        <time>2022-05-29T11:27:39Z</time>
      </trkpt>
      <trkpt lat="45.11836" lon="5.54808">
        <ele>1258.453</ele>
        <time>2022-05-29T11:27:44Z</time>
      </trkpt>
      <trkpt lat="45.11824" lon="5.54813">
        <ele>1258.987</ele>
        <time>2022-05-29T11:27:49Z</time>
      </trkpt>
      <trkpt lat="45.11814" lon="5.54817">
        <ele>1259.179</ele>
        <time>2022-05-29T11:27:54Z</time>
      </trkpt>
      <trkpt lat="45.118" lon="5.54822">
        <ele>1260.268</ele>
        <time>2022-05-29T11:27:59Z</time>
      </trkpt>
      <trkpt lat="45.11787" lon="5.54824">
        <ele>1258.661</ele>
        <time>2022-05-29T11:28:04Z</time>
      </trkpt>
      <trkpt lat="45.11775" lon="5.54825">
        <ele>1260.434</ele>
        <time>2022-05-29T11:28:09Z</time>
      </trkpt>
      <trkpt lat="45.11762" lon="5.54827">
        <ele>1262.001</ele>
        <time>2022-05-29T11:28:14Z</time>
      </trkpt>
      <trkpt lat="45.11748" lon="5.54827">
        <ele>1262.176</ele>
        <time>2022-05-29T11:28:19Z</time>
      </trkpt>
      <trkpt lat="45.11736" lon="5.5483">
        <ele>1262.324</ele>
        <time>2022-05-29T11:28:24Z</time>
      </trkpt>
      <trkpt lat="45.11723" lon="5.54835">
        <ele>1261.913</ele>
        <time>2022-05-29T11:28:29Z</time>
      </trkpt>
      <trkpt lat="45.11709" lon="5.54842">
        <ele>1259.262</ele>
        <time>2022-05-29T11:28:34Z</time>
      </trkpt>
      <trkpt lat="45.11695" lon="5.54846">
        <ele>1259.512</ele>
        <time>2022-05-29T11:28:39Z</time>
      </trkpt>
      <trkpt lat="45.11683" lon="5.54851">
        <ele>1259.867</ele>
        <time>2022-05-29T11:28:44Z</time>
      </trkpt>
      <trkpt lat="45.11669" lon="5.54857">
        <ele>1261.673</ele>
        <time>2022-05-29T11:28:49Z</time>
      </trkpt>
      <trkpt lat="45.11655" lon="5.54865">
        <ele>1260.174</ele>
        <time>2022-05-29T11:28:54Z</time>
      </trkpt>
      <trkpt lat="45.1164" lon="5.54871">
        <ele>1260.742</ele>
        <time>2022-05-29T11:28:59Z</time>
      </trkpt>
      <trkpt lat="45.11624" lon="5.54875">
        <ele>1261.697</ele>
        <time>2022-05-29T11:29:04Z</time>
      </trkpt>
      <trkpt lat="45.1161" lon="5.54877">
        <ele>1261.164</ele>
        <time>2022-05-29T11:29:09Z</time>
      </trkpt>
      <trkpt lat="45.11597" lon="5.54877">
        <ele>1261.852</ele>
        <time>2022-05-29T11:29:14Z</time>
      </trkpt>
      <trkpt lat="45.11586" lon="5.54875">
        <ele>1261.046</ele>
        <time>2022-05-29T11:29:19Z</time>
      </trkpt>
      <trkpt lat="45.11575" lon="5.5487">
        <ele>1262.732</ele>
        <time>2022-05-29T11:29:24Z</time>
      </trkpt>
      <trkpt lat="45.11566" lon="5.54867">
        <ele>1260.377</ele>
        <time>2022-05-29T11:29:29Z</time>
      </trkpt>
      <trkpt lat="45.1156" lon="5.54849">
        <ele>1261.248</ele>
        <time>2022-05-29T11:29:34Z</time>
      </trkpt>
      <trkpt lat="45.11554" lon="5.54842">
        <ele>1263.54</ele>
        <time>2022-05-29T11:29:39Z</time>
      </trkpt>
      <trkpt lat="45.11546" lon="5.54839">
        <ele>1264.647</ele>
        <time>2022-05-29T11:29:44Z</time>
      </trkpt>
      <trkpt lat="45.11541" lon="5.5483">
        <ele>1268.077</ele>
        <time>2022-05-29T11:29:49Z</time>
      </trkpt>
      <trkpt lat="45.11534" lon="5.54823">
        <ele>1269.396</ele>
        <time>2022-05-29T11:29:54Z</time>
      </trkpt>
      <trkpt lat="45.11526" lon="5.54819">
        <ele>1269.838</ele>
        <time>2022-05-29T11:29:59Z</time>
      </trkpt>
      <trkpt lat="45.11518" lon="5.54818">
        <ele>1268.339</ele>
        <time>2022-05-29T11:30:04Z</time>
      </trkpt>
      <trkpt lat="45.1151" lon="5.54819">
        <ele>1269.284</ele>
        <time>2022-05-29T11:30:09Z</time>
      </trkpt>
      <trkpt lat="45.11501" lon="5.54819">
        <ele>1271.6</ele>
        <time>2022-05-29T11:30:14Z</time>
      </trkpt>
      <trkpt lat="45.11492" lon="5.54816">
        <ele>1269.505</ele>
        <time>2022-05-29T11:30:19Z</time>
      </trkpt>
      <trkpt lat="45.11484" lon="5.54811">
        <ele>1271.203</ele>
        <time>2022-05-29T11:30:24Z</time>
      </trkpt>
      <trkpt lat="45.11476" lon="5.54805">
        <ele>1271.475</ele>
        <time>2022-05-29T11:30:29Z</time>
      </trkpt>
      <trkpt lat="45.11468" lon="5.54796">
        <ele>1270.959</ele>
        <time>2022-05-29T11:30:34Z</time>
      </trkpt>
      <trkpt lat="45.11459" lon="5.54793">
        <ele>1271.024</ele>
        <time>2022-05-29T11:30:39Z</time>
      </trkpt>
      <trkpt lat="45.1145" lon="5.54798">
        <ele>1269.573</ele>
        <time>2022-05-29T11:30:44Z</time>
      </trkpt>
      <trkpt lat="45.11441" lon="5.54799">
        <ele>1268.951</ele>
        <time>2022-05-29T11:30:49Z</time>
      </trkpt>
      <trkpt lat="45.11433" lon="5.54796">
        <ele>1269.425</ele>
        <time>2022-05-29T11:30:54Z</time>
      </trkpt>
      <trkpt lat="45.11429" lon="5.54787">
        <ele>1268.06</ele>
        <time>2022-05-29T11:30:59Z</time>
      </trkpt>
      <trkpt lat="45.11428" lon="5.54784">
        <ele>1269.336</ele>
        <time>2022-05-29T11:31:04Z</time>
      </trkpt>
      <trkpt lat="45.11428" lon="5.54784">
        <ele>1270.489</ele>
        <time>2022-05-29T11:31:09Z</time>
      </trkpt>
      <trkpt lat="45.11428" lon="5.54784">
        <ele>1270.485</ele>
        <time>2022-05-29T11:31:14Z</time>
      </trkpt>
      <trkpt lat="45.11428" lon="5.54784">
        <ele>1270.534</ele>
        <time>2022-05-29T11:31:19Z</time>
      </trkpt>
      <trkpt lat="45.11428" lon="5.54784">
        <ele>1270.626</ele>
        <time>2022-05-29T11:31:24Z</time>
      </trkpt>
      <trkpt lat="45.11428" lon="5.54784">
        <ele>1270.684</ele>
        <time>2022-05-29T11:31:29Z</time>
      </trkpt>
      <trkpt lat="45.11428" lon="5.54784">
        <ele>1270.785</ele>
        <time>2022-05-29T11:31:34Z</time>
      </trkpt>
      <trkpt lat="45.11428" lon="5.54784">
        <ele>1270.855</ele>
        <time>2022-05-29T11:31:39Z</time>
      </trkpt>
      <trkpt lat="45.11427" lon="5.54784">
        <ele>1270.843</ele>
        <time>2022-05-29T11:31:44Z</time>
      </trkpt>
      <trkpt lat="45.11427" lon="5.54784">
        <ele>1270.856</ele>
        <time>2022-05-29T11:31:49Z</time>
      </trkpt>
      <trkpt lat="45.11427" lon="5.54784">
        <ele>1270.872</ele>
        <time>2022-05-29T11:31:54Z</time>
      </trkpt>
      <trkpt lat="45.11427" lon="5.54784">
        <ele>1270.878</ele>
        <time>2022-05-29T11:31:59Z</time>
      </trkpt>
      <trkpt lat="45.11427" lon="5.54784">
        <ele>1270.887</ele>
        <time>2022-05-29T11:32:04Z</time>
      </trkpt>
      <trkpt lat="45.11427" lon="5.54784">
        <ele>1270.891</ele>
        <time>2022-05-29T11:32:09Z</time>
      </trkpt>
      <trkpt lat="45.11427" lon="5.54783">
        <ele>1270.892</ele>
        <time>2022-05-29T11:32:14Z</time>
      </trkpt>
      <trkpt lat="45.11427" lon="5.54783">
        <ele>1270.894</ele>
        <time>2022-05-29T11:32:19Z</time>
      </trkpt>
      <trkpt lat="45.11427" lon="5.54783">
        <ele>1270.911</ele>
        <time>2022-05-29T11:32:24Z</time>
      </trkpt>
      <trkpt lat="45.11427" lon="5.54783">
        <ele>1270.929</ele>
        <time>2022-05-29T11:32:29Z</time>
      </trkpt>
      <trkpt lat="45.11427" lon="5.54783">
        <ele>1270.947</ele>
        <time>2022-05-29T11:32:34Z</time>
      </trkpt>
      <trkpt lat="45.11427" lon="5.54783">
        <ele>1270.959</ele>
        <time>2022-05-29T11:32:39Z</time>
      </trkpt>
      <trkpt lat="45.11427" lon="5.54783">
        <ele>1270.979</ele>
        <time>2022-05-29T11:32:44Z</time>
      </trkpt>
      <trkpt lat="45.11427" lon="5.54783">
        <ele>1270.997</ele>
        <time>2022-05-29T11:32:49Z</time>
      </trkpt>
      <trkpt lat="45.11427" lon="5.54783">
        <ele>1270.999</ele>
        <time>2022-05-29T11:32:54Z</time>
      </trkpt>
      <trkpt lat="45.11427" lon="5.54783">
        <ele>1271.003</ele>
        <time>2022-05-29T11:32:59Z</time>
      </trkpt>
      <trkpt lat="45.11427" lon="5.54784">
        <ele>1270.642</ele>
        <time>2022-05-29T11:33:04Z</time>
      </trkpt>
      <trkpt lat="45.11426" lon="5.54784">
        <ele>1272.173</ele>
        <time>2022-05-29T11:33:09Z</time>
      </trkpt>
      <trkpt lat="45.11426" lon="5.54784">
        <ele>1273.168</ele>
        <time>2022-05-29T11:33:14Z</time>
      </trkpt>
      <trkpt lat="45.11425" lon="5.54784">
        <ele>1273.313</ele>
        <time>2022-05-29T11:33:19Z</time>
      </trkpt>
      <trkpt lat="45.11425" lon="5.54784">
        <ele>1273.314</ele>
        <time>2022-05-29T11:33:24Z</time>
      </trkpt>
      <trkpt lat="45.11425" lon="5.54784">
        <ele>1273.316</ele>
        <time>2022-05-29T11:33:29Z</time>
      </trkpt>
      <trkpt lat="45.11425" lon="5.54784">
        <ele>1273.332</ele>
        <time>2022-05-29T11:33:34Z</time>
      </trkpt>
      <trkpt lat="45.11425" lon="5.54784">
        <ele>1273.34</ele>
        <time>2022-05-29T11:33:39Z</time>
      </trkpt>
      <trkpt lat="45.11425" lon="5.54784">
        <ele>1273.345</ele>
        <time>2022-05-29T11:33:44Z</time>
      </trkpt>
      <trkpt lat="45.11425" lon="5.54784">
        <ele>1273.345</ele>
        <time>2022-05-29T11:33:49Z</time>
      </trkpt>
      <trkpt lat="45.11425" lon="5.54784">
        <ele>1273.345</ele>
        <time>2022-05-29T11:33:54Z</time>
      </trkpt>
      <trkpt lat="45.11425" lon="5.54784">
        <ele>1273.348</ele>
        <time>2022-05-29T11:33:59Z</time>
      </trkpt>
      <trkpt lat="45.11425" lon="5.54784">
        <ele>1273.362</ele>
        <time>2022-05-29T11:34:04Z</time>
      </trkpt>
      <trkpt lat="45.11425" lon="5.54782">
        <ele>1272.95</ele>
        <time>2022-05-29T11:34:09Z</time>
      </trkpt>
      <trkpt lat="45.1142" lon="5.54777">
        <ele>1272.532</ele>
        <time>2022-05-29T11:34:14Z</time>
      </trkpt>
      <trkpt lat="45.11413" lon="5.54782">
        <ele>1270.447</ele>
        <time>2022-05-29T11:34:19Z</time>
      </trkpt>
      <trkpt lat="45.11404" lon="5.54778">
        <ele>1269.839</ele>
        <time>2022-05-29T11:34:24Z</time>
      </trkpt>
      <trkpt lat="45.11394" lon="5.54774">
        <ele>1270.554</ele>
        <time>2022-05-29T11:34:29Z</time>
      </trkpt>
      <trkpt lat="45.11384" lon="5.54769">
        <ele>1271.132</ele>
        <time>2022-05-29T11:34:34Z</time>
      </trkpt>
      <trkpt lat="45.11383" lon="5.54768">
        <ele>1272.062</ele>
        <time>2022-05-29T11:34:39Z</time>
      </trkpt>
      <trkpt lat="45.11382" lon="5.54768">
        <ele>1272.655</ele>
        <time>2022-05-29T11:34:44Z</time>
      </trkpt>
      <trkpt lat="45.11382" lon="5.54768">
        <ele>1272.685</ele>
        <time>2022-05-29T11:34:49Z</time>
      </trkpt>
      <trkpt lat="45.11382" lon="5.54768">
        <ele>1272.655</ele>
        <time>2022-05-29T11:34:54Z</time>
      </trkpt>
      <trkpt lat="45.11377" lon="5.54765">
        <ele>1271.161</ele>
        <time>2022-05-29T11:34:59Z</time>
      </trkpt>
      <trkpt lat="45.1136" lon="5.54761">
        <ele>1267.327</ele>
        <time>2022-05-29T11:35:04Z</time>
      </trkpt>
      <trkpt lat="45.11345" lon="5.54754">
        <ele>1268.239</ele>
        <time>2022-05-29T11:35:09Z</time>
      </trkpt>
      <trkpt lat="45.11328" lon="5.54761">
        <ele>1267.829</ele>
        <time>2022-05-29T11:35:14Z</time>
      </trkpt>
      <trkpt lat="45.11308" lon="5.54758">
        <ele>1261.149</ele>
        <time>2022-05-29T11:35:19Z</time>
      </trkpt>
      <trkpt lat="45.11289" lon="5.54749">
        <ele>1256.712</ele>
        <time>2022-05-29T11:35:24Z</time>
      </trkpt>
      <trkpt lat="45.11255" lon="5.54748">
        <ele>1255.486</ele>
        <time>2022-05-29T11:35:29Z</time>
      </trkpt>
      <trkpt lat="45.11233" lon="5.54757">
        <ele>1255.24</ele>
        <time>2022-05-29T11:35:34Z</time>
      </trkpt>
      <trkpt lat="45.11219" lon="5.54766">
        <ele>1259.172</ele>
        <time>2022-05-29T11:35:39Z</time>
      </trkpt>
      <trkpt lat="45.11201" lon="5.54775">
        <ele>1257.683</ele>
        <time>2022-05-29T11:35:44Z</time>
      </trkpt>
      <trkpt lat="45.11177" lon="5.54772">
        <ele>1258.395</ele>
        <time>2022-05-29T11:35:49Z</time>
      </trkpt>
      <trkpt lat="45.11155" lon="5.54763">
        <ele>1259.756</ele>
        <time>2022-05-29T11:35:54Z</time>
      </trkpt>
      <trkpt lat="45.11133" lon="5.54741">
        <ele>1257.103</ele>
        <time>2022-05-29T11:35:59Z</time>
      </trkpt>
      <trkpt lat="45.11118" lon="5.54742">
        <ele>1258.273</ele>
        <time>2022-05-29T11:36:04Z</time>
      </trkpt>
      <trkpt lat="45.11107" lon="5.54747">
        <ele>1257.733</ele>
        <time>2022-05-29T11:36:09Z</time>
      </trkpt>
      <trkpt lat="45.11095" lon="5.54747">
        <ele>1255.832</ele>
        <time>2022-05-29T11:36:14Z</time>
      </trkpt>
      <trkpt lat="45.11079" lon="5.54752">
        <ele>1255.012</ele>
        <time>2022-05-29T11:36:19Z</time>
      </trkpt>
      <trkpt lat="45.11061" lon="5.54751">
        <ele>1254.553</ele>
        <time>2022-05-29T11:36:24Z</time>
      </trkpt>
      <trkpt lat="45.11044" lon="5.54752">
        <ele>1252.248</ele>
        <time>2022-05-29T11:36:29Z</time>
      </trkpt>
      <trkpt lat="45.11028" lon="5.54753">
        <ele>1248.843</ele>
        <time>2022-05-29T11:36:34Z</time>
      </trkpt>
      <trkpt lat="45.11005" lon="5.54756">
        <ele>1248.38</ele>
        <time>2022-05-29T11:36:39Z</time>
      </trkpt>
      <trkpt lat="45.10984" lon="5.54749">
        <ele>1244.412</ele>
        <time>2022-05-29T11:36:44Z</time>
      </trkpt>
      <trkpt lat="45.10968" lon="5.54754">
        <ele>1246.21</ele>
        <time>2022-05-29T11:36:49Z</time>
      </trkpt>
      <trkpt lat="45.10944" lon="5.54738">
        <ele>1241.881</ele>
        <time>2022-05-29T11:36:54Z</time>
      </trkpt>
      <trkpt lat="45.10924" lon="5.54734">
        <ele>1241.149</ele>
        <time>2022-05-29T11:36:59Z</time>
      </trkpt>
      <trkpt lat="45.10916" lon="5.54738">
        <ele>1241.508</ele>
        <time>2022-05-29T11:37:04Z</time>
      </trkpt>
      <trkpt lat="45.10902" lon="5.5474">
        <ele>1240.424</ele>
        <time>2022-05-29T11:37:09Z</time>
      </trkpt>
      <trkpt lat="45.10888" lon="5.54736">
        <ele>1239.318</ele>
        <time>2022-05-29T11:37:14Z</time>
      </trkpt>
      <trkpt lat="45.1088" lon="5.54741">
        <ele>1238.378</ele>
        <time>2022-05-29T11:37:19Z</time>
      </trkpt>
      <trkpt lat="45.10871" lon="5.54742">
        <ele>1237.337</ele>
        <time>2022-05-29T11:37:24Z</time>
      </trkpt>
      <trkpt lat="45.10859" lon="5.54741">
        <ele>1235.984</ele>
        <time>2022-05-29T11:37:29Z</time>
      </trkpt>
      <trkpt lat="45.10856" lon="5.5473">
        <ele>1234.808</ele>
        <time>2022-05-29T11:37:34Z</time>
      </trkpt>
      <trkpt lat="45.10836" lon="5.54718">
        <ele>1232.246</ele>
        <time>2022-05-29T11:37:39Z</time>
      </trkpt>
      <trkpt lat="45.1081" lon="5.54724">
        <ele>1230.31</ele>
        <time>2022-05-29T11:37:44Z</time>
      </trkpt>
      <trkpt lat="45.10793" lon="5.54721">
        <ele>1228.549</ele>
        <time>2022-05-29T11:37:48Z</time>
      </trkpt>
      <trkpt lat="45.10785" lon="5.54715">
        <ele>1228.779</ele>
        <time>2022-05-29T11:37:54Z</time>
      </trkpt>
      <trkpt lat="45.10774" lon="5.5471">
        <ele>1224.582</ele>
        <time>2022-05-29T11:37:59Z</time>
      </trkpt>
      <trkpt lat="45.10764" lon="5.54701">
        <ele>1223.355</ele>
        <time>2022-05-29T11:38:04Z</time>
      </trkpt>
      <trkpt lat="45.10754" lon="5.54698">
        <ele>1220.951</ele>
        <time>2022-05-29T11:38:09Z</time>
      </trkpt>
      <trkpt lat="45.10753" lon="5.54694">
        <ele>1220.301</ele>
        <time>2022-05-29T11:38:14Z</time>
      </trkpt>
      <trkpt lat="45.1075" lon="5.54691">
        <ele>1221.056</ele>
        <time>2022-05-29T11:38:19Z</time>
      </trkpt>
      <trkpt lat="45.10746" lon="5.54691">
        <ele>1218.013</ele>
        <time>2022-05-29T11:38:24Z</time>
      </trkpt>
      <trkpt lat="45.10746" lon="5.54692">
        <ele>1218.171</ele>
        <time>2022-05-29T11:38:29Z</time>
      </trkpt>
      <trkpt lat="45.10745" lon="5.54691">
        <ele>1218.607</ele>
        <time>2022-05-29T11:38:34Z</time>
      </trkpt>
      <trkpt lat="45.10745" lon="5.54691">
        <ele>1218.472</ele>
        <time>2022-05-29T11:38:39Z</time>
      </trkpt>
      <trkpt lat="45.10745" lon="5.54691">
        <ele>1217.592</ele>
        <time>2022-05-29T11:38:44Z</time>
      </trkpt>
      <trkpt lat="45.10745" lon="5.54691">
        <ele>1218.06</ele>
        <time>2022-05-29T11:38:49Z</time>
      </trkpt>
      <trkpt lat="45.10744" lon="5.54691">
        <ele>1219.103</ele>
        <time>2022-05-29T11:38:54Z</time>
      </trkpt>
      <trkpt lat="45.10745" lon="5.5469">
        <ele>1219.253</ele>
        <time>2022-05-29T11:38:59Z</time>
      </trkpt>
      <trkpt lat="45.10745" lon="5.5469">
        <ele>1220.364</ele>
        <time>2022-05-29T11:39:04Z</time>
      </trkpt>
      <trkpt lat="45.10745" lon="5.5469">
        <ele>1220.479</ele>
        <time>2022-05-29T11:39:09Z</time>
      </trkpt>
      <trkpt lat="45.10743" lon="5.54691">
        <ele>1220.01</ele>
        <time>2022-05-29T11:39:14Z</time>
      </trkpt>
      <trkpt lat="45.10744" lon="5.54691">
        <ele>1220.525</ele>
        <time>2022-05-29T11:39:19Z</time>
      </trkpt>
      <trkpt lat="45.10744" lon="5.54692">
        <ele>1219.406</ele>
        <time>2022-05-29T11:39:24Z</time>
      </trkpt>
      <trkpt lat="45.10743" lon="5.54693">
        <ele>1219.192</ele>
        <time>2022-05-29T11:39:29Z</time>
      </trkpt>
      <trkpt lat="45.10743" lon="5.54693">
        <ele>1220.756</ele>
        <time>2022-05-29T11:39:34Z</time>
      </trkpt>
      <trkpt lat="45.10742" lon="5.54693">
        <ele>1222.524</ele>
        <time>2022-05-29T11:39:39Z</time>
      </trkpt>
      <trkpt lat="45.10742" lon="5.54693">
        <ele>1223.116</ele>
        <time>2022-05-29T11:39:44Z</time>
      </trkpt>
      <trkpt lat="45.10742" lon="5.54691">
        <ele>1224.027</ele>
        <time>2022-05-29T11:39:49Z</time>
      </trkpt>
      <trkpt lat="45.10742" lon="5.54691">
        <ele>1224.056</ele>
        <time>2022-05-29T11:39:54Z</time>
      </trkpt>
      <trkpt lat="45.10742" lon="5.54691">
        <ele>1224.065</ele>
        <time>2022-05-29T11:39:59Z</time>
      </trkpt>
      <trkpt lat="45.10742" lon="5.54691">
        <ele>1224.074</ele>
        <time>2022-05-29T11:40:04Z</time>
      </trkpt>
      <trkpt lat="45.10742" lon="5.54691">
        <ele>1224.089</ele>
        <time>2022-05-29T11:40:09Z</time>
      </trkpt>
      <trkpt lat="45.10742" lon="5.54691">
        <ele>1224.094</ele>
        <time>2022-05-29T11:40:14Z</time>
      </trkpt>
      <trkpt lat="45.10742" lon="5.54691">
        <ele>1224.094</ele>
        <time>2022-05-29T11:40:19Z</time>
      </trkpt>
      <trkpt lat="45.10742" lon="5.5469">
        <ele>1222.117</ele>
        <time>2022-05-29T11:40:24Z</time>
      </trkpt>
      <trkpt lat="45.10733" lon="5.54682">
        <ele>1216.958</ele>
        <time>2022-05-29T11:40:29Z</time>
      </trkpt>
      <trkpt lat="45.10722" lon="5.54658">
        <ele>1218.514</ele>
        <time>2022-05-29T11:40:34Z</time>
      </trkpt>
      <trkpt lat="45.10708" lon="5.54652">
        <ele>1215.395</ele>
        <time>2022-05-29T11:40:39Z</time>
      </trkpt>
      <trkpt lat="45.10692" lon="5.54648">
        <ele>1218.432</ele>
        <time>2022-05-29T11:40:44Z</time>
      </trkpt>
      <trkpt lat="45.10677" lon="5.54645">
        <ele>1218.045</ele>
        <time>2022-05-29T11:40:49Z</time>
      </trkpt>
      <trkpt lat="45.10669" lon="5.54634">
        <ele>1219.234</ele>
        <time>2022-05-29T11:40:54Z</time>
      </trkpt>
      <trkpt lat="45.10668" lon="5.54629">
        <ele>1218.599</ele>
        <time>2022-05-29T11:40:59Z</time>
      </trkpt>
      <trkpt lat="45.10668" lon="5.54627">
        <ele>1217.913</ele>
        <time>2022-05-29T11:41:04Z</time>
      </trkpt>
      <trkpt lat="45.10668" lon="5.54627">
        <ele>1217.654</ele>
        <time>2022-05-29T11:41:09Z</time>
      </trkpt>
      <trkpt lat="45.10668" lon="5.54627">
        <ele>1217.736</ele>
        <time>2022-05-29T11:41:14Z</time>
      </trkpt>
      <trkpt lat="45.10659" lon="5.54622">
        <ele>1213.807</ele>
        <time>2022-05-29T11:41:19Z</time>
      </trkpt>
      <trkpt lat="45.10649" lon="5.54619">
        <ele>1212.5</ele>
        <time>2022-05-29T11:41:24Z</time>
      </trkpt>
      <trkpt lat="45.10644" lon="5.54602">
        <ele>1210.347</ele>
        <time>2022-05-29T11:41:29Z</time>
      </trkpt>
      <trkpt lat="45.10637" lon="5.54586">
        <ele>1211.74</ele>
        <time>2022-05-29T11:41:34Z</time>
      </trkpt>
      <trkpt lat="45.10629" lon="5.54573">
        <ele>1212.623</ele>
        <time>2022-05-29T11:41:39Z</time>
      </trkpt>
      <trkpt lat="45.10625" lon="5.54553">
        <ele>1212.375</ele>
        <time>2022-05-29T11:41:44Z</time>
      </trkpt>
      <trkpt lat="45.10618" lon="5.54539">
        <ele>1212.599</ele>
        <time>2022-05-29T11:41:49Z</time>
      </trkpt>
      <trkpt lat="45.10611" lon="5.54531">
        <ele>1214.17</ele>
        <time>2022-05-29T11:41:54Z</time>
      </trkpt>
      <trkpt lat="45.10606" lon="5.54517">
        <ele>1212.74</ele>
        <time>2022-05-29T11:41:59Z</time>
      </trkpt>
      <trkpt lat="45.10605" lon="5.54503">
        <ele>1214.05</ele>
        <time>2022-05-29T11:42:04Z</time>
      </trkpt>
      <trkpt lat="45.10604" lon="5.54486">
        <ele>1216.152</ele>
        <time>2022-05-29T11:42:09Z</time>
      </trkpt>
      <trkpt lat="45.10597" lon="5.54481">
        <ele>1218.549</ele>
        <time>2022-05-29T11:42:14Z</time>
      </trkpt>
      <trkpt lat="45.10589" lon="5.54477">
        <ele>1220.105</ele>
        <time>2022-05-29T11:42:19Z</time>
      </trkpt>
      <trkpt lat="45.10586" lon="5.54463">
        <ele>1219.082</ele>
        <time>2022-05-29T11:42:24Z</time>
      </trkpt>
      <trkpt lat="45.10581" lon="5.54451">
        <ele>1219.653</ele>
        <time>2022-05-29T11:42:29Z</time>
      </trkpt>
      <trkpt lat="45.10575" lon="5.54443">
        <ele>1220.926</ele>
        <time>2022-05-29T11:42:34Z</time>
      </trkpt>
      <trkpt lat="45.10574" lon="5.54428">
        <ele>1223.965</ele>
        <time>2022-05-29T11:42:39Z</time>
      </trkpt>
      <trkpt lat="45.10567" lon="5.54422">
        <ele>1226.044</ele>
        <time>2022-05-29T11:42:44Z</time>
      </trkpt>
      <trkpt lat="45.10565" lon="5.54411">
        <ele>1223.351</ele>
        <time>2022-05-29T11:42:49Z</time>
      </trkpt>
      <trkpt lat="45.10561" lon="5.54401">
        <ele>1222.507</ele>
        <time>2022-05-29T11:42:54Z</time>
      </trkpt>
      <trkpt lat="45.10555" lon="5.54388">
        <ele>1221.884</ele>
        <time>2022-05-29T11:42:59Z</time>
      </trkpt>
      <trkpt lat="45.10547" lon="5.54374">
        <ele>1221.062</ele>
        <time>2022-05-29T11:43:04Z</time>
      </trkpt>
      <trkpt lat="45.10538" lon="5.54369">
        <ele>1218.612</ele>
        <time>2022-05-29T11:43:09Z</time>
      </trkpt>
      <trkpt lat="45.10528" lon="5.54371">
        <ele>1217.834</ele>
        <time>2022-05-29T11:43:14Z</time>
      </trkpt>
      <trkpt lat="45.10518" lon="5.54366">
        <ele>1215.89</ele>
        <time>2022-05-29T11:43:19Z</time>
      </trkpt>
      <trkpt lat="45.10506" lon="5.54364">
        <ele>1219.3</ele>
        <time>2022-05-29T11:43:24Z</time>
      </trkpt>
      <trkpt lat="45.10493" lon="5.54357">
        <ele>1220.294</ele>
        <time>2022-05-29T11:43:29Z</time>
      </trkpt>
      <trkpt lat="45.10482" lon="5.54354">
        <ele>1224.102</ele>
        <time>2022-05-29T11:43:34Z</time>
      </trkpt>
      <trkpt lat="45.10473" lon="5.54348">
        <ele>1224.154</ele>
        <time>2022-05-29T11:43:39Z</time>
      </trkpt>
      <trkpt lat="45.10462" lon="5.54341">
        <ele>1223.987</ele>
        <time>2022-05-29T11:43:44Z</time>
      </trkpt>
      <trkpt lat="45.10452" lon="5.54335">
        <ele>1225.69</ele>
        <time>2022-05-29T11:43:49Z</time>
      </trkpt>
      <trkpt lat="45.10442" lon="5.54324">
        <ele>1226.699</ele>
        <time>2022-05-29T11:43:54Z</time>
      </trkpt>
      <trkpt lat="45.10438" lon="5.54301">
        <ele>1230.099</ele>
        <time>2022-05-29T11:43:59Z</time>
      </trkpt>
      <trkpt lat="45.1043" lon="5.5429">
        <ele>1229.51</ele>
        <time>2022-05-29T11:44:04Z</time>
      </trkpt>
      <trkpt lat="45.10427" lon="5.54273">
        <ele>1227.315</ele>
        <time>2022-05-29T11:44:09Z</time>
      </trkpt>
      <trkpt lat="45.10419" lon="5.54269">
        <ele>1230.876</ele>
        <time>2022-05-29T11:44:14Z</time>
      </trkpt>
      <trkpt lat="45.10412" lon="5.54262">
        <ele>1231.28</ele>
        <time>2022-05-29T11:44:19Z</time>
      </trkpt>
      <trkpt lat="45.10405" lon="5.54265">
        <ele>1234.054</ele>
        <time>2022-05-29T11:44:24Z</time>
      </trkpt>
      <trkpt lat="45.10398" lon="5.54268">
        <ele>1233.154</ele>
        <time>2022-05-29T11:44:29Z</time>
      </trkpt>
      <trkpt lat="45.10389" lon="5.5426">
        <ele>1233.176</ele>
        <time>2022-05-29T11:44:34Z</time>
      </trkpt>
      <trkpt lat="45.10385" lon="5.54251">
        <ele>1235.454</ele>
        <time>2022-05-29T11:44:39Z</time>
      </trkpt>
      <trkpt lat="45.10378" lon="5.54244">
        <ele>1235.47</ele>
        <time>2022-05-29T11:44:44Z</time>
      </trkpt>
      <trkpt lat="45.10373" lon="5.54241">
        <ele>1235.235</ele>
        <time>2022-05-29T11:44:49Z</time>
      </trkpt>
      <trkpt lat="45.10367" lon="5.54244">
        <ele>1235.457</ele>
        <time>2022-05-29T11:44:54Z</time>
      </trkpt>
      <trkpt lat="45.10359" lon="5.54238">
        <ele>1233.153</ele>
        <time>2022-05-29T11:44:59Z</time>
      </trkpt>
      <trkpt lat="45.1035" lon="5.54237">
        <ele>1234.922</ele>
        <time>2022-05-29T11:45:04Z</time>
      </trkpt>
      <trkpt lat="45.10343" lon="5.54228">
        <ele>1237.776</ele>
        <time>2022-05-29T11:45:09Z</time>
      </trkpt>
      <trkpt lat="45.10335" lon="5.54232">
        <ele>1239.025</ele>
        <time>2022-05-29T11:45:14Z</time>
      </trkpt>
      <trkpt lat="45.10325" lon="5.54235">
        <ele>1238.758</ele>
        <time>2022-05-29T11:45:19Z</time>
      </trkpt>
      <trkpt lat="45.10319" lon="5.5424">
        <ele>1238.736</ele>
        <time>2022-05-29T11:45:24Z</time>
      </trkpt>
      <trkpt lat="45.10309" lon="5.54242">
        <ele>1238.257</ele>
        <time>2022-05-29T11:45:29Z</time>
      </trkpt>
      <trkpt lat="45.103" lon="5.54242">
        <ele>1239.124</ele>
        <time>2022-05-29T11:45:34Z</time>
      </trkpt>
      <trkpt lat="45.10293" lon="5.54244">
        <ele>1240.125</ele>
        <time>2022-05-29T11:45:39Z</time>
      </trkpt>
      <trkpt lat="45.10288" lon="5.5425">
        <ele>1239.143</ele>
        <time>2022-05-29T11:45:44Z</time>
      </trkpt>
      <trkpt lat="45.10282" lon="5.54252">
        <ele>1237.933</ele>
        <time>2022-05-29T11:45:49Z</time>
      </trkpt>
      <trkpt lat="45.10274" lon="5.54254">
        <ele>1238.006</ele>
        <time>2022-05-29T11:45:54Z</time>
      </trkpt>
      <trkpt lat="45.10269" lon="5.54252">
        <ele>1239.941</ele>
        <time>2022-05-29T11:45:59Z</time>
      </trkpt>
      <trkpt lat="45.10265" lon="5.54252">
        <ele>1240.223</ele>
        <time>2022-05-29T11:46:04Z</time>
      </trkpt>
      <trkpt lat="45.10264" lon="5.54253">
        <ele>1242.111</ele>
        <time>2022-05-29T11:46:09Z</time>
      </trkpt>
      <trkpt lat="45.10263" lon="5.54253">
        <ele>1242.367</ele>
        <time>2022-05-29T11:46:14Z</time>
      </trkpt>
      <trkpt lat="45.10263" lon="5.54252">
        <ele>1242.413</ele>
        <time>2022-05-29T11:46:19Z</time>
      </trkpt>
      <trkpt lat="45.10263" lon="5.54252">
        <ele>1242.423</ele>
        <time>2022-05-29T11:46:24Z</time>
      </trkpt>
      <trkpt lat="45.10263" lon="5.54252">
        <ele>1242.376</ele>
        <time>2022-05-29T11:46:29Z</time>
      </trkpt>
      <trkpt lat="45.10263" lon="5.54252">
        <ele>1242.415</ele>
        <time>2022-05-29T11:46:34Z</time>
      </trkpt>
      <trkpt lat="45.10263" lon="5.54252">
        <ele>1242.441</ele>
        <time>2022-05-29T11:46:39Z</time>
      </trkpt>
      <trkpt lat="45.10263" lon="5.54252">
        <ele>1242.438</ele>
        <time>2022-05-29T11:46:44Z</time>
      </trkpt>
      <trkpt lat="45.10263" lon="5.54252">
        <ele>1242.481</ele>
        <time>2022-05-29T11:46:49Z</time>
      </trkpt>
      <trkpt lat="45.10263" lon="5.54252">
        <ele>1242.538</ele>
        <time>2022-05-29T11:46:54Z</time>
      </trkpt>
      <trkpt lat="45.10263" lon="5.54252">
        <ele>1242.669</ele>
        <time>2022-05-29T11:46:59Z</time>
      </trkpt>
      <trkpt lat="45.10263" lon="5.54252">
        <ele>1242.797</ele>
        <time>2022-05-29T11:47:04Z</time>
      </trkpt>
      <trkpt lat="45.10263" lon="5.54253">
        <ele>1242.857</ele>
        <time>2022-05-29T11:47:09Z</time>
      </trkpt>
      <trkpt lat="45.10263" lon="5.54252">
        <ele>1242.847</ele>
        <time>2022-05-29T11:47:14Z</time>
      </trkpt>
      <trkpt lat="45.10263" lon="5.54252">
        <ele>1242.856</ele>
        <time>2022-05-29T11:47:19Z</time>
      </trkpt>
      <trkpt lat="45.10263" lon="5.54252">
        <ele>1242.852</ele>
        <time>2022-05-29T11:47:24Z</time>
      </trkpt>
      <trkpt lat="45.10263" lon="5.54252">
        <ele>1242.884</ele>
        <time>2022-05-29T11:47:29Z</time>
      </trkpt>
      <trkpt lat="45.10263" lon="5.54253">
        <ele>1242.888</ele>
        <time>2022-05-29T11:47:34Z</time>
      </trkpt>
      <trkpt lat="45.10263" lon="5.54253">
        <ele>1242.898</ele>
        <time>2022-05-29T11:47:39Z</time>
      </trkpt>
      <trkpt lat="45.10263" lon="5.54253">
        <ele>1242.901</ele>
        <time>2022-05-29T11:47:44Z</time>
      </trkpt>
      <trkpt lat="45.10263" lon="5.54253">
        <ele>1242.911</ele>
        <time>2022-05-29T11:47:49Z</time>
      </trkpt>
      <trkpt lat="45.10263" lon="5.54253">
        <ele>1242.907</ele>
        <time>2022-05-29T11:47:54Z</time>
      </trkpt>
      <trkpt lat="45.10263" lon="5.54252">
        <ele>1242.9</ele>
        <time>2022-05-29T11:47:59Z</time>
      </trkpt>
      <trkpt lat="45.10263" lon="5.54252">
        <ele>1242.904</ele>
        <time>2022-05-29T11:48:04Z</time>
      </trkpt>
      <trkpt lat="45.10255" lon="5.54251">
        <ele>1243.905</ele>
        <time>2022-05-29T11:48:09Z</time>
      </trkpt>
      <trkpt lat="45.10243" lon="5.54247">
        <ele>1240.36</ele>
        <time>2022-05-29T11:48:14Z</time>
      </trkpt>
      <trkpt lat="45.10225" lon="5.54244">
        <ele>1242.179</ele>
        <time>2022-05-29T11:48:19Z</time>
      </trkpt>
      <trkpt lat="45.10212" lon="5.54225">
        <ele>1238.446</ele>
        <time>2022-05-29T11:48:24Z</time>
      </trkpt>
      <trkpt lat="45.10217" lon="5.54194">
        <ele>1237.54</ele>
        <time>2022-05-29T11:48:29Z</time>
      </trkpt>
      <trkpt lat="45.10217" lon="5.54193">
        <ele>1238.984</ele>
        <time>2022-05-29T11:48:34Z</time>
      </trkpt>
      <trkpt lat="45.10213" lon="5.54201">
        <ele>1238.7</ele>
        <time>2022-05-29T11:48:39Z</time>
      </trkpt>
      <trkpt lat="45.1021" lon="5.54206">
        <ele>1238.646</ele>
        <time>2022-05-29T11:48:44Z</time>
      </trkpt>
      <trkpt lat="45.10211" lon="5.54206">
        <ele>1238.048</ele>
        <time>2022-05-29T11:48:49Z</time>
      </trkpt>
      <trkpt lat="45.10212" lon="5.54205">
        <ele>1238.422</ele>
        <time>2022-05-29T11:48:54Z</time>
      </trkpt>
      <trkpt lat="45.10222" lon="5.5418">
        <ele>1235.622</ele>
        <time>2022-05-29T11:48:59Z</time>
      </trkpt>
      <trkpt lat="45.10228" lon="5.5417">
        <ele>1234.587</ele>
        <time>2022-05-29T11:49:04Z</time>
      </trkpt>
      <trkpt lat="45.10228" lon="5.54167">
        <ele>1234.419</ele>
        <time>2022-05-29T11:49:09Z</time>
      </trkpt>
      <trkpt lat="45.10222" lon="5.5415">
        <ele>1234.921</ele>
        <time>2022-05-29T11:49:14Z</time>
      </trkpt>
      <trkpt lat="45.10228" lon="5.54122">
        <ele>1232.741</ele>
        <time>2022-05-29T11:49:19Z</time>
      </trkpt>
      <trkpt lat="45.10248" lon="5.541">
        <ele>1232.491</ele>
        <time>2022-05-29T11:49:24Z</time>
      </trkpt>
      <trkpt lat="45.10264" lon="5.54092">
        <ele>1235.85</ele>
        <time>2022-05-29T11:49:29Z</time>
      </trkpt>
      <trkpt lat="45.10273" lon="5.54092">
        <ele>1236.661</ele>
        <time>2022-05-29T11:49:34Z</time>
      </trkpt>
      <trkpt lat="45.10279" lon="5.54094">
        <ele>1237.911</ele>
        <time>2022-05-29T11:49:39Z</time>
      </trkpt>
      <trkpt lat="45.10283" lon="5.5409">
        <ele>1239.039</ele>
        <time>2022-05-29T11:49:44Z</time>
      </trkpt>
      <trkpt lat="45.10285" lon="5.5409">
        <ele>1239.66</ele>
        <time>2022-05-29T11:49:49Z</time>
      </trkpt>
      <trkpt lat="45.10286" lon="5.54091">
        <ele>1239.208</ele>
        <time>2022-05-29T11:49:54Z</time>
      </trkpt>
      <trkpt lat="45.10286" lon="5.54091">
        <ele>1239.084</ele>
        <time>2022-05-29T11:49:59Z</time>
      </trkpt>
      <trkpt lat="45.10286" lon="5.54091">
        <ele>1239.096</ele>
        <time>2022-05-29T11:50:04Z</time>
      </trkpt>
      <trkpt lat="45.10286" lon="5.54091">
        <ele>1239.031</ele>
        <time>2022-05-29T11:50:09Z</time>
      </trkpt>
      <trkpt lat="45.10279" lon="5.54101">
        <ele>1236.184</ele>
        <time>2022-05-29T11:50:14Z</time>
      </trkpt>
      <trkpt lat="45.10258" lon="5.54104">
        <ele>1232.958</ele>
        <time>2022-05-29T11:50:19Z</time>
      </trkpt>
      <trkpt lat="45.10238" lon="5.54114">
        <ele>1229.301</ele>
        <time>2022-05-29T11:50:24Z</time>
      </trkpt>
      <trkpt lat="45.10233" lon="5.54125">
        <ele>1232.848</ele>
        <time>2022-05-29T11:50:29Z</time>
      </trkpt>
      <trkpt lat="45.10233" lon="5.54137">
        <ele>1235.652</ele>
        <time>2022-05-29T11:50:34Z</time>
      </trkpt>
      <trkpt lat="45.1023" lon="5.54148">
        <ele>1236.616</ele>
        <time>2022-05-29T11:50:39Z</time>
      </trkpt>
      <trkpt lat="45.10231" lon="5.54155">
        <ele>1238.264</ele>
        <time>2022-05-29T11:50:44Z</time>
      </trkpt>
      <trkpt lat="45.10235" lon="5.54166">
        <ele>1238.212</ele>
        <time>2022-05-29T11:50:49Z</time>
      </trkpt>
      <trkpt lat="45.1023" lon="5.54178">
        <ele>1236.384</ele>
        <time>2022-05-29T11:50:54Z</time>
      </trkpt>
      <trkpt lat="45.10223" lon="5.54186">
        <ele>1235.45</ele>
        <time>2022-05-29T11:50:59Z</time>
      </trkpt>
      <trkpt lat="45.10219" lon="5.54197">
        <ele>1239.57</ele>
        <time>2022-05-29T11:51:04Z</time>
      </trkpt>
      <trkpt lat="45.10215" lon="5.54204">
        <ele>1240.278</ele>
        <time>2022-05-29T11:51:09Z</time>
      </trkpt>
      <trkpt lat="45.10215" lon="5.54205">
        <ele>1240.466</ele>
        <time>2022-05-29T11:51:14Z</time>
      </trkpt>
      <trkpt lat="45.10214" lon="5.54206">
        <ele>1239.582</ele>
        <time>2022-05-29T11:51:19Z</time>
      </trkpt>
      <trkpt lat="45.10213" lon="5.54207">
        <ele>1239.66</ele>
        <time>2022-05-29T11:51:24Z</time>
      </trkpt>
      <trkpt lat="45.1021" lon="5.54212">
        <ele>1237.477</ele>
        <time>2022-05-29T11:51:29Z</time>
      </trkpt>
      <trkpt lat="45.10207" lon="5.54221">
        <ele>1237.273</ele>
        <time>2022-05-29T11:51:34Z</time>
      </trkpt>
      <trkpt lat="45.10198" lon="5.54222">
        <ele>1236.33</ele>
        <time>2022-05-29T11:51:39Z</time>
      </trkpt>
      <trkpt lat="45.10189" lon="5.54221">
        <ele>1239.459</ele>
        <time>2022-05-29T11:51:44Z</time>
      </trkpt>
      <trkpt lat="45.10187" lon="5.54223">
        <ele>1239.42</ele>
        <time>2022-05-29T11:51:49Z</time>
      </trkpt>
      <trkpt lat="45.10187" lon="5.54223">
        <ele>1237.401</ele>
        <time>2022-05-29T11:51:54Z</time>
      </trkpt>
      <trkpt lat="45.10187" lon="5.54223">
        <ele>1236.589</ele>
        <time>2022-05-29T11:51:59Z</time>
      </trkpt>
      <trkpt lat="45.10186" lon="5.54225">
        <ele>1235.91</ele>
        <time>2022-05-29T11:52:04Z</time>
      </trkpt>
      <trkpt lat="45.10189" lon="5.54232">
        <ele>1235.309</ele>
        <time>2022-05-29T11:52:09Z</time>
      </trkpt>
      <trkpt lat="45.10194" lon="5.54243">
        <ele>1235.477</ele>
        <time>2022-05-29T11:52:14Z</time>
      </trkpt>
      <trkpt lat="45.10197" lon="5.54252">
        <ele>1235.821</ele>
        <time>2022-05-29T11:52:19Z</time>
      </trkpt>
      <trkpt lat="45.10196" lon="5.54262">
        <ele>1236.73</ele>
        <time>2022-05-29T11:52:24Z</time>
      </trkpt>
      <trkpt lat="45.10191" lon="5.54271">
        <ele>1237.696</ele>
        <time>2022-05-29T11:52:29Z</time>
      </trkpt>
      <trkpt lat="45.10186" lon="5.54278">
        <ele>1237.605</ele>
        <time>2022-05-29T11:52:34Z</time>
      </trkpt>
      <trkpt lat="45.10179" lon="5.54279">
        <ele>1235.201</ele>
        <time>2022-05-29T11:52:39Z</time>
      </trkpt>
      <trkpt lat="45.10173" lon="5.54282">
        <ele>1235.83</ele>
        <time>2022-05-29T11:52:44Z</time>
      </trkpt>
      <trkpt lat="45.10165" lon="5.54282">
        <ele>1237.965</ele>
        <time>2022-05-29T11:52:49Z</time>
      </trkpt>
      <trkpt lat="45.10157" lon="5.5428">
        <ele>1237.788</ele>
        <time>2022-05-29T11:52:54Z</time>
      </trkpt>
      <trkpt lat="45.1015" lon="5.5428">
        <ele>1238.004</ele>
        <time>2022-05-29T11:52:59Z</time>
      </trkpt>
      <trkpt lat="45.10146" lon="5.54278">
        <ele>1238.37</ele>
        <time>2022-05-29T11:53:04Z</time>
      </trkpt>
      <trkpt lat="45.1014" lon="5.54281">
        <ele>1240.852</ele>
        <time>2022-05-29T11:53:09Z</time>
      </trkpt>
      <trkpt lat="45.10129" lon="5.54284">
        <ele>1241.854</ele>
        <time>2022-05-29T11:53:14Z</time>
      </trkpt>
      <trkpt lat="45.10119" lon="5.54284">
        <ele>1243.447</ele>
        <time>2022-05-29T11:53:19Z</time>
      </trkpt>
      <trkpt lat="45.10106" lon="5.54283">
        <ele>1240.838</ele>
        <time>2022-05-29T11:53:24Z</time>
      </trkpt>
      <trkpt lat="45.10093" lon="5.5428">
        <ele>1239.439</ele>
        <time>2022-05-29T11:53:29Z</time>
      </trkpt>
      <trkpt lat="45.10081" lon="5.54276">
        <ele>1239.286</ele>
        <time>2022-05-29T11:53:34Z</time>
      </trkpt>
      <trkpt lat="45.10069" lon="5.54272">
        <ele>1239.034</ele>
        <time>2022-05-29T11:53:39Z</time>
      </trkpt>
      <trkpt lat="45.10058" lon="5.54268">
        <ele>1238.546</ele>
        <time>2022-05-29T11:53:44Z</time>
      </trkpt>
      <trkpt lat="45.10048" lon="5.54261">
        <ele>1240.868</ele>
        <time>2022-05-29T11:53:49Z</time>
      </trkpt>
      <trkpt lat="45.10036" lon="5.54254">
        <ele>1242.692</ele>
        <time>2022-05-29T11:53:54Z</time>
      </trkpt>
      <trkpt lat="45.10023" lon="5.54249">
        <ele>1244.75</ele>
        <time>2022-05-29T11:53:59Z</time>
      </trkpt>
      <trkpt lat="45.1001" lon="5.54244">
        <ele>1245.856</ele>
        <time>2022-05-29T11:54:04Z</time>
      </trkpt>
      <trkpt lat="45.1" lon="5.54241">
        <ele>1246.628</ele>
        <time>2022-05-29T11:54:09Z</time>
      </trkpt>
      <trkpt lat="45.0999" lon="5.5424">
        <ele>1247.874</ele>
        <time>2022-05-29T11:54:14Z</time>
      </trkpt>
      <trkpt lat="45.0998" lon="5.54238">
        <ele>1248.195</ele>
        <time>2022-05-29T11:54:19Z</time>
      </trkpt>
      <trkpt lat="45.0997" lon="5.54237">
        <ele>1249.206</ele>
        <time>2022-05-29T11:54:24Z</time>
      </trkpt>
      <trkpt lat="45.0996" lon="5.54233">
        <ele>1248.668</ele>
        <time>2022-05-29T11:54:29Z</time>
      </trkpt>
      <trkpt lat="45.0995" lon="5.54231">
        <ele>1248.118</ele>
        <time>2022-05-29T11:54:34Z</time>
      </trkpt>
      <trkpt lat="45.0994" lon="5.5423">
        <ele>1250.193</ele>
        <time>2022-05-29T11:54:39Z</time>
      </trkpt>
      <trkpt lat="45.0993" lon="5.54226">
        <ele>1248.011</ele>
        <time>2022-05-29T11:54:44Z</time>
      </trkpt>
      <trkpt lat="45.0992" lon="5.54222">
        <ele>1248.709</ele>
        <time>2022-05-29T11:54:49Z</time>
      </trkpt>
      <trkpt lat="45.09911" lon="5.5422">
        <ele>1249.255</ele>
        <time>2022-05-29T11:54:54Z</time>
      </trkpt>
      <trkpt lat="45.09903" lon="5.54219">
        <ele>1253.101</ele>
        <time>2022-05-29T11:54:59Z</time>
      </trkpt>
      <trkpt lat="45.09894" lon="5.54217">
        <ele>1255.736</ele>
        <time>2022-05-29T11:55:04Z</time>
      </trkpt>
      <trkpt lat="45.09888" lon="5.54215">
        <ele>1256.365</ele>
        <time>2022-05-29T11:55:09Z</time>
      </trkpt>
      <trkpt lat="45.09879" lon="5.54214">
        <ele>1258.555</ele>
        <time>2022-05-29T11:55:14Z</time>
      </trkpt>
      <trkpt lat="45.09871" lon="5.54212">
        <ele>1258.085</ele>
        <time>2022-05-29T11:55:19Z</time>
      </trkpt>
      <trkpt lat="45.09865" lon="5.54209">
        <ele>1259.929</ele>
        <time>2022-05-29T11:55:24Z</time>
      </trkpt>
      <trkpt lat="45.09857" lon="5.54206">
        <ele>1260.164</ele>
        <time>2022-05-29T11:55:29Z</time>
      </trkpt>
      <trkpt lat="45.0985" lon="5.54203">
        <ele>1260.116</ele>
        <time>2022-05-29T11:55:34Z</time>
      </trkpt>
      <trkpt lat="45.09843" lon="5.54201">
        <ele>1261.582</ele>
        <time>2022-05-29T11:55:39Z</time>
      </trkpt>
      <trkpt lat="45.09836" lon="5.54199">
        <ele>1261.785</ele>
        <time>2022-05-29T11:55:44Z</time>
      </trkpt>
      <trkpt lat="45.0983" lon="5.54195">
        <ele>1259.469</ele>
        <time>2022-05-29T11:55:49Z</time>
      </trkpt>
      <trkpt lat="45.09823" lon="5.54192">
        <ele>1261.863</ele>
        <time>2022-05-29T11:55:54Z</time>
      </trkpt>
      <trkpt lat="45.09816" lon="5.54195">
        <ele>1264.568</ele>
        <time>2022-05-29T11:55:59Z</time>
      </trkpt>
      <trkpt lat="45.09808" lon="5.54196">
        <ele>1265.485</ele>
        <time>2022-05-29T11:56:04Z</time>
      </trkpt>
      <trkpt lat="45.09802" lon="5.54196">
        <ele>1267.82</ele>
        <time>2022-05-29T11:56:09Z</time>
      </trkpt>
      <trkpt lat="45.09795" lon="5.54199">
        <ele>1267.234</ele>
        <time>2022-05-29T11:56:14Z</time>
      </trkpt>
      <trkpt lat="45.09788" lon="5.54198">
        <ele>1267.003</ele>
        <time>2022-05-29T11:56:19Z</time>
      </trkpt>
      <trkpt lat="45.09781" lon="5.54199">
        <ele>1267.745</ele>
        <time>2022-05-29T11:56:24Z</time>
      </trkpt>
      <trkpt lat="45.09774" lon="5.54202">
        <ele>1267.148</ele>
        <time>2022-05-29T11:56:29Z</time>
      </trkpt>
      <trkpt lat="45.09769" lon="5.54206">
        <ele>1269.984</ele>
        <time>2022-05-29T11:56:34Z</time>
      </trkpt>
      <trkpt lat="45.09762" lon="5.5421">
        <ele>1271.33</ele>
        <time>2022-05-29T11:56:39Z</time>
      </trkpt>
      <trkpt lat="45.09754" lon="5.54212">
        <ele>1272.327</ele>
        <time>2022-05-29T11:56:44Z</time>
      </trkpt>
      <trkpt lat="45.09746" lon="5.54215">
        <ele>1273</ele>
        <time>2022-05-29T11:56:49Z</time>
      </trkpt>
      <trkpt lat="45.09738" lon="5.54217">
        <ele>1271.805</ele>
        <time>2022-05-29T11:56:54Z</time>
      </trkpt>
      <trkpt lat="45.09731" lon="5.54216">
        <ele>1271.52</ele>
        <time>2022-05-29T11:56:59Z</time>
      </trkpt>
      <trkpt lat="45.09724" lon="5.54214">
        <ele>1270.985</ele>
        <time>2022-05-29T11:57:04Z</time>
      </trkpt>
      <trkpt lat="45.09719" lon="5.54215">
        <ele>1272.648</ele>
        <time>2022-05-29T11:57:09Z</time>
      </trkpt>
      <trkpt lat="45.09712" lon="5.54214">
        <ele>1274.323</ele>
        <time>2022-05-29T11:57:14Z</time>
      </trkpt>
      <trkpt lat="45.09705" lon="5.54212">
        <ele>1277.285</ele>
        <time>2022-05-29T11:57:19Z</time>
      </trkpt>
      <trkpt lat="45.09698" lon="5.54211">
        <ele>1277.677</ele>
        <time>2022-05-29T11:57:24Z</time>
      </trkpt>
      <trkpt lat="45.09691" lon="5.54208">
        <ele>1278.28</ele>
        <time>2022-05-29T11:57:29Z</time>
      </trkpt>
      <trkpt lat="45.09684" lon="5.54207">
        <ele>1280.249</ele>
        <time>2022-05-29T11:57:34Z</time>
      </trkpt>
      <trkpt lat="45.09678" lon="5.54205">
        <ele>1280.277</ele>
        <time>2022-05-29T11:57:39Z</time>
      </trkpt>
      <trkpt lat="45.09671" lon="5.54202">
        <ele>1280.068</ele>
        <time>2022-05-29T11:57:44Z</time>
      </trkpt>
      <trkpt lat="45.09663" lon="5.54203">
        <ele>1279.872</ele>
        <time>2022-05-29T11:57:49Z</time>
      </trkpt>
      <trkpt lat="45.09656" lon="5.54201">
        <ele>1281.203</ele>
        <time>2022-05-29T11:57:54Z</time>
      </trkpt>
      <trkpt lat="45.09649" lon="5.542">
        <ele>1282.035</ele>
        <time>2022-05-29T11:57:59Z</time>
      </trkpt>
      <trkpt lat="45.09643" lon="5.54198">
        <ele>1284.874</ele>
        <time>2022-05-29T11:58:04Z</time>
      </trkpt>
      <trkpt lat="45.09637" lon="5.54197">
        <ele>1285.598</ele>
        <time>2022-05-29T11:58:09Z</time>
      </trkpt>
      <trkpt lat="45.09629" lon="5.54194">
        <ele>1287.548</ele>
        <time>2022-05-29T11:58:14Z</time>
      </trkpt>
      <trkpt lat="45.09622" lon="5.54194">
        <ele>1287.258</ele>
        <time>2022-05-29T11:58:19Z</time>
      </trkpt>
      <trkpt lat="45.09615" lon="5.54193">
        <ele>1286.67</ele>
        <time>2022-05-29T11:58:24Z</time>
      </trkpt>
      <trkpt lat="45.09608" lon="5.54192">
        <ele>1288.873</ele>
        <time>2022-05-29T11:58:29Z</time>
      </trkpt>
      <trkpt lat="45.09602" lon="5.54191">
        <ele>1292.378</ele>
        <time>2022-05-29T11:58:34Z</time>
      </trkpt>
      <trkpt lat="45.09595" lon="5.5419">
        <ele>1291.162</ele>
        <time>2022-05-29T11:58:39Z</time>
      </trkpt>
      <trkpt lat="45.09589" lon="5.54186">
        <ele>1288.747</ele>
        <time>2022-05-29T11:58:44Z</time>
      </trkpt>
      <trkpt lat="45.09582" lon="5.54184">
        <ele>1292.276</ele>
        <time>2022-05-29T11:58:49Z</time>
      </trkpt>
      <trkpt lat="45.09576" lon="5.54181">
        <ele>1292.065</ele>
        <time>2022-05-29T11:58:54Z</time>
      </trkpt>
      <trkpt lat="45.0957" lon="5.54177">
        <ele>1289.752</ele>
        <time>2022-05-29T11:58:59Z</time>
      </trkpt>
      <trkpt lat="45.09563" lon="5.54174">
        <ele>1291.921</ele>
        <time>2022-05-29T11:59:04Z</time>
      </trkpt>
      <trkpt lat="45.09559" lon="5.54174">
        <ele>1294.338</ele>
        <time>2022-05-29T11:59:09Z</time>
      </trkpt>
      <trkpt lat="45.09553" lon="5.5417">
        <ele>1294.342</ele>
        <time>2022-05-29T11:59:14Z</time>
      </trkpt>
      <trkpt lat="45.09546" lon="5.54166">
        <ele>1295.791</ele>
        <time>2022-05-29T11:59:19Z</time>
      </trkpt>
      <trkpt lat="45.09539" lon="5.54162">
        <ele>1296.187</ele>
        <time>2022-05-29T11:59:24Z</time>
      </trkpt>
      <trkpt lat="45.09532" lon="5.54163">
        <ele>1302.076</ele>
        <time>2022-05-29T11:59:29Z</time>
      </trkpt>
      <trkpt lat="45.09526" lon="5.5416">
        <ele>1303.878</ele>
        <time>2022-05-29T11:59:34Z</time>
      </trkpt>
      <trkpt lat="45.09519" lon="5.54157">
        <ele>1303.621</ele>
        <time>2022-05-29T11:59:39Z</time>
      </trkpt>
      <trkpt lat="45.09513" lon="5.54154">
        <ele>1304.359</ele>
        <time>2022-05-29T11:59:44Z</time>
      </trkpt>
      <trkpt lat="45.09507" lon="5.5415">
        <ele>1303.495</ele>
        <time>2022-05-29T11:59:49Z</time>
      </trkpt>
      <trkpt lat="45.095" lon="5.54147">
        <ele>1303.145</ele>
        <time>2022-05-29T11:59:54Z</time>
      </trkpt>
      <trkpt lat="45.09494" lon="5.54143">
        <ele>1303.65</ele>
        <time>2022-05-29T11:59:59Z</time>
      </trkpt>
      <trkpt lat="45.09487" lon="5.54139">
        <ele>1304.902</ele>
        <time>2022-05-29T12:00:04Z</time>
      </trkpt>
      <trkpt lat="45.09482" lon="5.54135">
        <ele>1304.298</ele>
        <time>2022-05-29T12:00:09Z</time>
      </trkpt>
      <trkpt lat="45.09476" lon="5.54129">
        <ele>1306.803</ele>
        <time>2022-05-29T12:00:14Z</time>
      </trkpt>
      <trkpt lat="45.09469" lon="5.54125">
        <ele>1307.113</ele>
        <time>2022-05-29T12:00:19Z</time>
      </trkpt>
      <trkpt lat="45.09463" lon="5.5412">
        <ele>1310.701</ele>
        <time>2022-05-29T12:00:24Z</time>
      </trkpt>
      <trkpt lat="45.09458" lon="5.54114">
        <ele>1314.933</ele>
        <time>2022-05-29T12:00:29Z</time>
      </trkpt>
      <trkpt lat="45.09452" lon="5.5411">
        <ele>1315.509</ele>
        <time>2022-05-29T12:00:34Z</time>
      </trkpt>
      <trkpt lat="45.09446" lon="5.54105">
        <ele>1316.135</ele>
        <time>2022-05-29T12:00:39Z</time>
      </trkpt>
      <trkpt lat="45.09439" lon="5.541">
        <ele>1317.27</ele>
        <time>2022-05-29T12:00:44Z</time>
      </trkpt>
      <trkpt lat="45.09433" lon="5.54098">
        <ele>1319.505</ele>
        <time>2022-05-29T12:00:49Z</time>
      </trkpt>
      <trkpt lat="45.09425" lon="5.54099">
        <ele>1323.59</ele>
        <time>2022-05-29T12:00:54Z</time>
      </trkpt>
      <trkpt lat="45.09417" lon="5.54099">
        <ele>1322.216</ele>
        <time>2022-05-29T12:00:59Z</time>
      </trkpt>
      <trkpt lat="45.09406" lon="5.541">
        <ele>1319.338</ele>
        <time>2022-05-29T12:01:04Z</time>
      </trkpt>
      <trkpt lat="45.09393" lon="5.541">
        <ele>1318.849</ele>
        <time>2022-05-29T12:01:09Z</time>
      </trkpt>
      <trkpt lat="45.09384" lon="5.54098">
        <ele>1320.036</ele>
        <time>2022-05-29T12:01:14Z</time>
      </trkpt>
      <trkpt lat="45.09376" lon="5.54096">
        <ele>1317.858</ele>
        <time>2022-05-29T12:01:19Z</time>
      </trkpt>
      <trkpt lat="45.09366" lon="5.54094">
        <ele>1319.386</ele>
        <time>2022-05-29T12:01:24Z</time>
      </trkpt>
      <trkpt lat="45.09358" lon="5.54101">
        <ele>1318.042</ele>
        <time>2022-05-29T12:01:29Z</time>
      </trkpt>
      <trkpt lat="45.09357" lon="5.54102">
        <ele>1320.231</ele>
        <time>2022-05-29T12:01:34Z</time>
      </trkpt>
      <trkpt lat="45.09358" lon="5.54101">
        <ele>1321.456</ele>
        <time>2022-05-29T12:01:39Z</time>
      </trkpt>
      <trkpt lat="45.09358" lon="5.541">
        <ele>1321.676</ele>
        <time>2022-05-29T12:01:44Z</time>
      </trkpt>
      <trkpt lat="45.09357" lon="5.54099">
        <ele>1322.363</ele>
        <time>2022-05-29T12:01:49Z</time>
      </trkpt>
      <trkpt lat="45.09357" lon="5.54099">
        <ele>1322.406</ele>
        <time>2022-05-29T12:01:54Z</time>
      </trkpt>
      <trkpt lat="45.09357" lon="5.54099">
        <ele>1322.387</ele>
        <time>2022-05-29T12:01:59Z</time>
      </trkpt>
      <trkpt lat="45.09357" lon="5.54099">
        <ele>1322.561</ele>
        <time>2022-05-29T12:02:04Z</time>
      </trkpt>
      <trkpt lat="45.09357" lon="5.54099">
        <ele>1322.565</ele>
        <time>2022-05-29T12:02:09Z</time>
      </trkpt>
      <trkpt lat="45.09357" lon="5.54099">
        <ele>1322.57</ele>
        <time>2022-05-29T12:02:14Z</time>
      </trkpt>
      <trkpt lat="45.09357" lon="5.54099">
        <ele>1322.686</ele>
        <time>2022-05-29T12:02:19Z</time>
      </trkpt>
      <trkpt lat="45.09357" lon="5.54099">
        <ele>1322.687</ele>
        <time>2022-05-29T12:02:24Z</time>
      </trkpt>
      <trkpt lat="45.09357" lon="5.54099">
        <ele>1322.691</ele>
        <time>2022-05-29T12:02:29Z</time>
      </trkpt>
      <trkpt lat="45.09358" lon="5.541">
        <ele>1323.332</ele>
        <time>2022-05-29T12:02:34Z</time>
      </trkpt>
      <trkpt lat="45.09358" lon="5.54103">
        <ele>1321.653</ele>
        <time>2022-05-29T12:02:39Z</time>
      </trkpt>
      <trkpt lat="45.09357" lon="5.54104">
        <ele>1321.44</ele>
        <time>2022-05-29T12:02:44Z</time>
      </trkpt>
      <trkpt lat="45.09358" lon="5.54102">
        <ele>1321.572</ele>
        <time>2022-05-29T12:02:49Z</time>
      </trkpt>
      <trkpt lat="45.09357" lon="5.54101">
        <ele>1322.911</ele>
        <time>2022-05-29T12:02:54Z</time>
      </trkpt>
      <trkpt lat="45.09356" lon="5.54101">
        <ele>1323.168</ele>
        <time>2022-05-29T12:02:59Z</time>
      </trkpt>
      <trkpt lat="45.09356" lon="5.54101">
        <ele>1323.275</ele>
        <time>2022-05-29T12:03:04Z</time>
      </trkpt>
      <trkpt lat="45.09356" lon="5.541">
        <ele>1324.131</ele>
        <time>2022-05-29T12:03:09Z</time>
      </trkpt>
      <trkpt lat="45.09356" lon="5.54099">
        <ele>1325.675</ele>
        <time>2022-05-29T12:03:14Z</time>
      </trkpt>
      <trkpt lat="45.09355" lon="5.54099">
        <ele>1327.931</ele>
        <time>2022-05-29T12:03:19Z</time>
      </trkpt>
      <trkpt lat="45.09356" lon="5.54099">
        <ele>1328.596</ele>
        <time>2022-05-29T12:03:24Z</time>
      </trkpt>
      <trkpt lat="45.09357" lon="5.541">
        <ele>1327.975</ele>
        <time>2022-05-29T12:03:29Z</time>
      </trkpt>
      <trkpt lat="45.09356" lon="5.54101">
        <ele>1326.885</ele>
        <time>2022-05-29T12:03:34Z</time>
      </trkpt>
      <trkpt lat="45.09357" lon="5.54101">
        <ele>1326.713</ele>
        <time>2022-05-29T12:03:39Z</time>
      </trkpt>
      <trkpt lat="45.09358" lon="5.54102">
        <ele>1324.804</ele>
        <time>2022-05-29T12:03:44Z</time>
      </trkpt>
      <trkpt lat="45.09358" lon="5.54103">
        <ele>1324.657</ele>
        <time>2022-05-29T12:03:49Z</time>
      </trkpt>
      <trkpt lat="45.09357" lon="5.54103">
        <ele>1323.997</ele>
        <time>2022-05-29T12:03:54Z</time>
      </trkpt>
      <trkpt lat="45.09357" lon="5.54104">
        <ele>1324.399</ele>
        <time>2022-05-29T12:03:59Z</time>
      </trkpt>
      <trkpt lat="45.09356" lon="5.54104">
        <ele>1323.839</ele>
        <time>2022-05-29T12:04:04Z</time>
      </trkpt>
      <trkpt lat="45.09357" lon="5.54104">
        <ele>1323.866</ele>
        <time>2022-05-29T12:04:09Z</time>
      </trkpt>
      <trkpt lat="45.09358" lon="5.54102">
        <ele>1323.804</ele>
        <time>2022-05-29T12:04:14Z</time>
      </trkpt>
      <trkpt lat="45.09357" lon="5.54102">
        <ele>1324.57</ele>
        <time>2022-05-29T12:04:19Z</time>
      </trkpt>
      <trkpt lat="45.09358" lon="5.54104">
        <ele>1324.066</ele>
        <time>2022-05-29T12:04:24Z</time>
      </trkpt>
      <trkpt lat="45.09358" lon="5.54104">
        <ele>1323.377</ele>
        <time>2022-05-29T12:04:29Z</time>
      </trkpt>
      <trkpt lat="45.09358" lon="5.54104">
        <ele>1323.594</ele>
        <time>2022-05-29T12:04:34Z</time>
      </trkpt>
      <trkpt lat="45.09357" lon="5.54105">
        <ele>1324.594</ele>
        <time>2022-05-29T12:04:39Z</time>
      </trkpt>
      <trkpt lat="45.09357" lon="5.54102">
        <ele>1323.333</ele>
        <time>2022-05-29T12:04:44Z</time>
      </trkpt>
      <trkpt lat="45.09357" lon="5.54101">
        <ele>1323.677</ele>
        <time>2022-05-29T12:04:49Z</time>
      </trkpt>
      <trkpt lat="45.09358" lon="5.54101">
        <ele>1323.495</ele>
        <time>2022-05-29T12:04:54Z</time>
      </trkpt>
      <trkpt lat="45.09358" lon="5.54101">
        <ele>1323.395</ele>
        <time>2022-05-29T12:04:59Z</time>
      </trkpt>
      <trkpt lat="45.09358" lon="5.54101">
        <ele>1323.278</ele>
        <time>2022-05-29T12:05:04Z</time>
      </trkpt>
      <trkpt lat="45.09358" lon="5.54101">
        <ele>1323.817</ele>
        <time>2022-05-29T12:05:09Z</time>
      </trkpt>
      <trkpt lat="45.09358" lon="5.541">
        <ele>1323.601</ele>
        <time>2022-05-29T12:05:14Z</time>
      </trkpt>
      <trkpt lat="45.09358" lon="5.541">
        <ele>1322.291</ele>
        <time>2022-05-29T12:05:19Z</time>
      </trkpt>
      <trkpt lat="45.09358" lon="5.54101">
        <ele>1323.276</ele>
        <time>2022-05-29T12:05:24Z</time>
      </trkpt>
      <trkpt lat="45.09358" lon="5.54102">
        <ele>1322.687</ele>
        <time>2022-05-29T12:05:29Z</time>
      </trkpt>
      <trkpt lat="45.09358" lon="5.54101">
        <ele>1322.448</ele>
        <time>2022-05-29T12:05:34Z</time>
      </trkpt>
      <trkpt lat="45.09358" lon="5.54102">
        <ele>1322.161</ele>
        <time>2022-05-29T12:05:39Z</time>
      </trkpt>
      <trkpt lat="45.09358" lon="5.54101">
        <ele>1322.007</ele>
        <time>2022-05-29T12:05:44Z</time>
      </trkpt>
      <trkpt lat="45.09358" lon="5.54101">
        <ele>1322.004</ele>
        <time>2022-05-29T12:05:49Z</time>
      </trkpt>
      <trkpt lat="45.09358" lon="5.54101">
        <ele>1322.011</ele>
        <time>2022-05-29T12:05:54Z</time>
      </trkpt>
      <trkpt lat="45.09358" lon="5.54101">
        <ele>1322.018</ele>
        <time>2022-05-29T12:05:59Z</time>
      </trkpt>
      <trkpt lat="45.09358" lon="5.54101">
        <ele>1322.02</ele>
        <time>2022-05-29T12:06:04Z</time>
      </trkpt>
      <trkpt lat="45.09358" lon="5.54101">
        <ele>1322.039</ele>
        <time>2022-05-29T12:06:09Z</time>
      </trkpt>
      <trkpt lat="45.09358" lon="5.54101">
        <ele>1322.072</ele>
        <time>2022-05-29T12:06:14Z</time>
      </trkpt>
      <trkpt lat="45.09358" lon="5.54101">
        <ele>1322.079</ele>
        <time>2022-05-29T12:06:19Z</time>
      </trkpt>
      <trkpt lat="45.09358" lon="5.54101">
        <ele>1322.076</ele>
        <time>2022-05-29T12:06:24Z</time>
      </trkpt>
      <trkpt lat="45.09358" lon="5.54102">
        <ele>1323.121</ele>
        <time>2022-05-29T12:06:29Z</time>
      </trkpt>
      <trkpt lat="45.09359" lon="5.54103">
        <ele>1321.851</ele>
        <time>2022-05-29T12:06:34Z</time>
      </trkpt>
      <trkpt lat="45.0936" lon="5.54104">
        <ele>1323.909</ele>
        <time>2022-05-29T12:06:39Z</time>
      </trkpt>
      <trkpt lat="45.0936" lon="5.54104">
        <ele>1324.691</ele>
        <time>2022-05-29T12:06:44Z</time>
      </trkpt>
      <trkpt lat="45.0936" lon="5.54104">
        <ele>1324.959</ele>
        <time>2022-05-29T12:06:49Z</time>
      </trkpt>
      <trkpt lat="45.0936" lon="5.54104">
        <ele>1324.977</ele>
        <time>2022-05-29T12:06:54Z</time>
      </trkpt>
      <trkpt lat="45.0936" lon="5.54104">
        <ele>1324.986</ele>
        <time>2022-05-29T12:06:59Z</time>
      </trkpt>
      <trkpt lat="45.0936" lon="5.54104">
        <ele>1324.999</ele>
        <time>2022-05-29T12:07:04Z</time>
      </trkpt>
      <trkpt lat="45.0936" lon="5.54104">
        <ele>1325.041</ele>
        <time>2022-05-29T12:07:09Z</time>
      </trkpt>
      <trkpt lat="45.0936" lon="5.54104">
        <ele>1325.067</ele>
        <time>2022-05-29T12:07:14Z</time>
      </trkpt>
      <trkpt lat="45.0936" lon="5.54104">
        <ele>1325.074</ele>
        <time>2022-05-29T12:07:19Z</time>
      </trkpt>
      <trkpt lat="45.0936" lon="5.54104">
        <ele>1325.106</ele>
        <time>2022-05-29T12:07:24Z</time>
      </trkpt>
      <trkpt lat="45.0936" lon="5.54104">
        <ele>1325.135</ele>
        <time>2022-05-29T12:07:29Z</time>
      </trkpt>
      <trkpt lat="45.0936" lon="5.54104">
        <ele>1325.154</ele>
        <time>2022-05-29T12:07:34Z</time>
      </trkpt>
      <trkpt lat="45.0936" lon="5.54104">
        <ele>1325.158</ele>
        <time>2022-05-29T12:07:39Z</time>
      </trkpt>
      <trkpt lat="45.0936" lon="5.54104">
        <ele>1324.155</ele>
        <time>2022-05-29T12:07:44Z</time>
      </trkpt>
      <trkpt lat="45.09359" lon="5.54102">
        <ele>1321.515</ele>
        <time>2022-05-29T12:07:49Z</time>
      </trkpt>
      <trkpt lat="45.09359" lon="5.54101">
        <ele>1319.682</ele>
        <time>2022-05-29T12:07:54Z</time>
      </trkpt>
      <trkpt lat="45.09359" lon="5.54101">
        <ele>1319.38</ele>
        <time>2022-05-29T12:07:59Z</time>
      </trkpt>
      <trkpt lat="45.09359" lon="5.54101">
        <ele>1319.357</ele>
        <time>2022-05-29T12:08:04Z</time>
      </trkpt>
      <trkpt lat="45.09359" lon="5.54101">
        <ele>1319.367</ele>
        <time>2022-05-29T12:08:09Z</time>
      </trkpt>
      <trkpt lat="45.09359" lon="5.54101">
        <ele>1319.407</ele>
        <time>2022-05-29T12:08:14Z</time>
      </trkpt>
      <trkpt lat="45.09359" lon="5.54101">
        <ele>1319.446</ele>
        <time>2022-05-29T12:08:19Z</time>
      </trkpt>
      <trkpt lat="45.09359" lon="5.54101">
        <ele>1319.465</ele>
        <time>2022-05-29T12:08:24Z</time>
      </trkpt>
      <trkpt lat="45.09359" lon="5.54101">
        <ele>1319.489</ele>
        <time>2022-05-29T12:08:29Z</time>
      </trkpt>
      <trkpt lat="45.09359" lon="5.54101">
        <ele>1319.49</ele>
        <time>2022-05-29T12:08:34Z</time>
      </trkpt>
      <trkpt lat="45.09359" lon="5.54101">
        <ele>1319.507</ele>
        <time>2022-05-29T12:08:39Z</time>
      </trkpt>
      <trkpt lat="45.09359" lon="5.54101">
        <ele>1319.536</ele>
        <time>2022-05-29T12:08:44Z</time>
      </trkpt>
      <trkpt lat="45.09359" lon="5.54101">
        <ele>1323.563</ele>
        <time>2022-05-29T12:08:49Z</time>
      </trkpt>
      <trkpt lat="45.09357" lon="5.54102">
        <ele>1325.028</ele>
        <time>2022-05-29T12:08:54Z</time>
      </trkpt>
      <trkpt lat="45.09357" lon="5.54102">
        <ele>1325.698</ele>
        <time>2022-05-29T12:08:59Z</time>
      </trkpt>
      <trkpt lat="45.09357" lon="5.54102">
        <ele>1325.718</ele>
        <time>2022-05-29T12:09:04Z</time>
      </trkpt>
      <trkpt lat="45.09357" lon="5.54102">
        <ele>1325.732</ele>
        <time>2022-05-29T12:09:09Z</time>
      </trkpt>
      <trkpt lat="45.09357" lon="5.54102">
        <ele>1325.714</ele>
        <time>2022-05-29T12:09:14Z</time>
      </trkpt>
      <trkpt lat="45.09357" lon="5.54102">
        <ele>1325.752</ele>
        <time>2022-05-29T12:09:19Z</time>
      </trkpt>
      <trkpt lat="45.09357" lon="5.54102">
        <ele>1325.752</ele>
        <time>2022-05-29T12:09:24Z</time>
      </trkpt>
      <trkpt lat="45.09357" lon="5.54102">
        <ele>1325.841</ele>
        <time>2022-05-29T12:09:29Z</time>
      </trkpt>
      <trkpt lat="45.09357" lon="5.54102">
        <ele>1325.855</ele>
        <time>2022-05-29T12:09:34Z</time>
      </trkpt>
      <trkpt lat="45.09357" lon="5.54102">
        <ele>1325.861</ele>
        <time>2022-05-29T12:09:39Z</time>
      </trkpt>
      <trkpt lat="45.09357" lon="5.54102">
        <ele>1325.892</ele>
        <time>2022-05-29T12:09:44Z</time>
      </trkpt>
      <trkpt lat="45.09357" lon="5.54102">
        <ele>1325.904</ele>
        <time>2022-05-29T12:09:49Z</time>
      </trkpt>
      <trkpt lat="45.09357" lon="5.54102">
        <ele>1325.898</ele>
        <time>2022-05-29T12:09:54Z</time>
      </trkpt>
      <trkpt lat="45.09357" lon="5.54102">
        <ele>1325.914</ele>
        <time>2022-05-29T12:09:59Z</time>
      </trkpt>
      <trkpt lat="45.09357" lon="5.54102">
        <ele>1325.994</ele>
        <time>2022-05-29T12:10:04Z</time>
      </trkpt>
      <trkpt lat="45.09357" lon="5.54102">
        <ele>1326.057</ele>
        <time>2022-05-29T12:10:09Z</time>
      </trkpt>
      <trkpt lat="45.09357" lon="5.54102">
        <ele>1326.143</ele>
        <time>2022-05-29T12:10:14Z</time>
      </trkpt>
      <trkpt lat="45.09357" lon="5.54102">
        <ele>1326.189</ele>
        <time>2022-05-29T12:10:19Z</time>
      </trkpt>
      <trkpt lat="45.09357" lon="5.54102">
        <ele>1326.252</ele>
        <time>2022-05-29T12:10:24Z</time>
      </trkpt>
      <trkpt lat="45.09357" lon="5.54102">
        <ele>1326.304</ele>
        <time>2022-05-29T12:10:29Z</time>
      </trkpt>
      <trkpt lat="45.09357" lon="5.54102">
        <ele>1326.339</ele>
        <time>2022-05-29T12:10:34Z</time>
      </trkpt>
      <trkpt lat="45.09357" lon="5.54102">
        <ele>1326.407</ele>
        <time>2022-05-29T12:10:39Z</time>
      </trkpt>
      <trkpt lat="45.09357" lon="5.54102">
        <ele>1326.468</ele>
        <time>2022-05-29T12:10:44Z</time>
      </trkpt>
      <trkpt lat="45.09357" lon="5.54102">
        <ele>1325.764</ele>
        <time>2022-05-29T12:10:49Z</time>
      </trkpt>
      <trkpt lat="45.09357" lon="5.54102">
        <ele>1324.28</ele>
        <time>2022-05-29T12:10:54Z</time>
      </trkpt>
      <trkpt lat="45.09358" lon="5.54103">
        <ele>1324.026</ele>
        <time>2022-05-29T12:10:59Z</time>
      </trkpt>
      <trkpt lat="45.09358" lon="5.54103">
        <ele>1324.438</ele>
        <time>2022-05-29T12:11:04Z</time>
      </trkpt>
      <trkpt lat="45.0936" lon="5.54104">
        <ele>1324.617</ele>
        <time>2022-05-29T12:11:09Z</time>
      </trkpt>
      <trkpt lat="45.09361" lon="5.54104">
        <ele>1325.445</ele>
        <time>2022-05-29T12:11:14Z</time>
      </trkpt>
      <trkpt lat="45.09361" lon="5.54104">
        <ele>1325.985</ele>
        <time>2022-05-29T12:11:19Z</time>
      </trkpt>
      <trkpt lat="45.09361" lon="5.54104">
        <ele>1326.246</ele>
        <time>2022-05-29T12:11:24Z</time>
      </trkpt>
      <trkpt lat="45.09361" lon="5.54104">
        <ele>1326.273</ele>
        <time>2022-05-29T12:11:29Z</time>
      </trkpt>
      <trkpt lat="45.09361" lon="5.54104">
        <ele>1326.277</ele>
        <time>2022-05-29T12:11:34Z</time>
      </trkpt>
      <trkpt lat="45.09361" lon="5.54104">
        <ele>1326.276</ele>
        <time>2022-05-29T12:11:39Z</time>
      </trkpt>
      <trkpt lat="45.09361" lon="5.54104">
        <ele>1326.327</ele>
        <time>2022-05-29T12:11:44Z</time>
      </trkpt>
      <trkpt lat="45.09361" lon="5.54104">
        <ele>1326.343</ele>
        <time>2022-05-29T12:11:49Z</time>
      </trkpt>
      <trkpt lat="45.09361" lon="5.54105">
        <ele>1327.271</ele>
        <time>2022-05-29T12:11:54Z</time>
      </trkpt>
      <trkpt lat="45.09362" lon="5.54105">
        <ele>1327.582</ele>
        <time>2022-05-29T12:11:59Z</time>
      </trkpt>
      <trkpt lat="45.09363" lon="5.54106">
        <ele>1328.153</ele>
        <time>2022-05-29T12:12:04Z</time>
      </trkpt>
      <trkpt lat="45.09363" lon="5.54106">
        <ele>1328.105</ele>
        <time>2022-05-29T12:12:09Z</time>
      </trkpt>
      <trkpt lat="45.09363" lon="5.54106">
        <ele>1328.096</ele>
        <time>2022-05-29T12:12:14Z</time>
      </trkpt>
      <trkpt lat="45.09363" lon="5.54106">
        <ele>1328.264</ele>
        <time>2022-05-29T12:12:19Z</time>
      </trkpt>
      <trkpt lat="45.09363" lon="5.54106">
        <ele>1328.261</ele>
        <time>2022-05-29T12:12:24Z</time>
      </trkpt>
      <trkpt lat="45.09363" lon="5.54106">
        <ele>1328.299</ele>
        <time>2022-05-29T12:12:29Z</time>
      </trkpt>
      <trkpt lat="45.09363" lon="5.54106">
        <ele>1328.299</ele>
        <time>2022-05-29T12:12:34Z</time>
      </trkpt>
      <trkpt lat="45.09363" lon="5.54106">
        <ele>1328.302</ele>
        <time>2022-05-29T12:12:39Z</time>
      </trkpt>
      <trkpt lat="45.09363" lon="5.54106">
        <ele>1328.304</ele>
        <time>2022-05-29T12:12:44Z</time>
      </trkpt>
      <trkpt lat="45.09363" lon="5.54106">
        <ele>1328.285</ele>
        <time>2022-05-29T12:12:49Z</time>
      </trkpt>
      <trkpt lat="45.09363" lon="5.54106">
        <ele>1328.286</ele>
        <time>2022-05-29T12:12:54Z</time>
      </trkpt>
      <trkpt lat="45.09363" lon="5.54106">
        <ele>1328.302</ele>
        <time>2022-05-29T12:12:59Z</time>
      </trkpt>
      <trkpt lat="45.09363" lon="5.54106">
        <ele>1328.291</ele>
        <time>2022-05-29T12:13:04Z</time>
      </trkpt>
      <trkpt lat="45.09363" lon="5.54106">
        <ele>1328.293</ele>
        <time>2022-05-29T12:13:09Z</time>
      </trkpt>
      <trkpt lat="45.09363" lon="5.54106">
        <ele>1328.283</ele>
        <time>2022-05-29T12:13:14Z</time>
      </trkpt>
      <trkpt lat="45.09363" lon="5.54106">
        <ele>1328.282</ele>
        <time>2022-05-29T12:13:19Z</time>
      </trkpt>
      <trkpt lat="45.09363" lon="5.54106">
        <ele>1328.302</ele>
        <time>2022-05-29T12:13:24Z</time>
      </trkpt>
      <trkpt lat="45.09363" lon="5.54106">
        <ele>1328.318</ele>
        <time>2022-05-29T12:13:29Z</time>
      </trkpt>
      <trkpt lat="45.09363" lon="5.54106">
        <ele>1328.319</ele>
        <time>2022-05-29T12:13:34Z</time>
      </trkpt>
      <trkpt lat="45.09363" lon="5.54106">
        <ele>1328.296</ele>
        <time>2022-05-29T12:13:39Z</time>
      </trkpt>
      <trkpt lat="45.09363" lon="5.54106">
        <ele>1328.279</ele>
        <time>2022-05-29T12:13:44Z</time>
      </trkpt>
      <trkpt lat="45.09363" lon="5.54106">
        <ele>1328.277</ele>
        <time>2022-05-29T12:13:49Z</time>
      </trkpt>
      <trkpt lat="45.09363" lon="5.54106">
        <ele>1328.266</ele>
        <time>2022-05-29T12:13:54Z</time>
      </trkpt>
      <trkpt lat="45.09363" lon="5.54106">
        <ele>1328.271</ele>
        <time>2022-05-29T12:13:59Z</time>
      </trkpt>
      <trkpt lat="45.09363" lon="5.54106">
        <ele>1328.27</ele>
        <time>2022-05-29T12:14:04Z</time>
      </trkpt>
      <trkpt lat="45.09363" lon="5.54106">
        <ele>1328.265</ele>
        <time>2022-05-29T12:14:09Z</time>
      </trkpt>
      <trkpt lat="45.09363" lon="5.54106">
        <ele>1328.281</ele>
        <time>2022-05-29T12:14:14Z</time>
      </trkpt>
      <trkpt lat="45.09363" lon="5.54106">
        <ele>1328.266</ele>
        <time>2022-05-29T12:14:19Z</time>
      </trkpt>
      <trkpt lat="45.09363" lon="5.54106">
        <ele>1328.297</ele>
        <time>2022-05-29T12:14:24Z</time>
      </trkpt>
      <trkpt lat="45.09363" lon="5.54106">
        <ele>1328.323</ele>
        <time>2022-05-29T12:14:29Z</time>
      </trkpt>
      <trkpt lat="45.09363" lon="5.54106">
        <ele>1328.334</ele>
        <time>2022-05-29T12:14:34Z</time>
      </trkpt>
      <trkpt lat="45.09363" lon="5.54106">
        <ele>1328.347</ele>
        <time>2022-05-29T12:14:39Z</time>
      </trkpt>
      <trkpt lat="45.09363" lon="5.54106">
        <ele>1328.336</ele>
        <time>2022-05-29T12:14:44Z</time>
      </trkpt>
      <trkpt lat="45.09363" lon="5.54106">
        <ele>1328.346</ele>
        <time>2022-05-29T12:14:49Z</time>
      </trkpt>
      <trkpt lat="45.09363" lon="5.54106">
        <ele>1328.367</ele>
        <time>2022-05-29T12:14:54Z</time>
      </trkpt>
      <trkpt lat="45.09363" lon="5.54105">
        <ele>1328.758</ele>
        <time>2022-05-29T12:14:59Z</time>
      </trkpt>
      <trkpt lat="45.09362" lon="5.54104">
        <ele>1328.598</ele>
        <time>2022-05-29T12:15:04Z</time>
      </trkpt>
      <trkpt lat="45.09363" lon="5.54106">
        <ele>1327.569</ele>
        <time>2022-05-29T12:15:09Z</time>
      </trkpt>
      <trkpt lat="45.09363" lon="5.54105">
        <ele>1327.99</ele>
        <time>2022-05-29T12:15:14Z</time>
      </trkpt>
      <trkpt lat="45.09362" lon="5.54103">
        <ele>1328.967</ele>
        <time>2022-05-29T12:15:19Z</time>
      </trkpt>
      <trkpt lat="45.09361" lon="5.54104">
        <ele>1327.052</ele>
        <time>2022-05-29T12:15:24Z</time>
      </trkpt>
      <trkpt lat="45.09361" lon="5.54103">
        <ele>1326.727</ele>
        <time>2022-05-29T12:15:29Z</time>
      </trkpt>
      <trkpt lat="45.09362" lon="5.54103">
        <ele>1326.912</ele>
        <time>2022-05-29T12:15:34Z</time>
      </trkpt>
      <trkpt lat="45.09362" lon="5.54102">
        <ele>1326.837</ele>
        <time>2022-05-29T12:15:39Z</time>
      </trkpt>
      <trkpt lat="45.09362" lon="5.54102">
        <ele>1326.804</ele>
        <time>2022-05-29T12:15:44Z</time>
      </trkpt>
      <trkpt lat="45.09362" lon="5.54102">
        <ele>1325.144</ele>
        <time>2022-05-29T12:15:49Z</time>
      </trkpt>
      <trkpt lat="45.09362" lon="5.54101">
        <ele>1323.947</ele>
        <time>2022-05-29T12:15:54Z</time>
      </trkpt>
      <trkpt lat="45.09362" lon="5.541">
        <ele>1324.098</ele>
        <time>2022-05-29T12:15:59Z</time>
      </trkpt>
      <trkpt lat="45.09362" lon="5.541">
        <ele>1324.111</ele>
        <time>2022-05-29T12:16:04Z</time>
      </trkpt>
      <trkpt lat="45.09362" lon="5.541">
        <ele>1324.115</ele>
        <time>2022-05-29T12:16:09Z</time>
      </trkpt>
      <trkpt lat="45.09362" lon="5.541">
        <ele>1324.133</ele>
        <time>2022-05-29T12:16:14Z</time>
      </trkpt>
      <trkpt lat="45.09362" lon="5.541">
        <ele>1324.161</ele>
        <time>2022-05-29T12:16:19Z</time>
      </trkpt>
      <trkpt lat="45.09362" lon="5.541">
        <ele>1324.202</ele>
        <time>2022-05-29T12:16:24Z</time>
      </trkpt>
      <trkpt lat="45.09362" lon="5.541">
        <ele>1324.229</ele>
        <time>2022-05-29T12:16:29Z</time>
      </trkpt>
      <trkpt lat="45.09362" lon="5.54101">
        <ele>1324.251</ele>
        <time>2022-05-29T12:16:34Z</time>
      </trkpt>
      <trkpt lat="45.09362" lon="5.54101">
        <ele>1324.246</ele>
        <time>2022-05-29T12:16:39Z</time>
      </trkpt>
      <trkpt lat="45.09362" lon="5.54101">
        <ele>1324.223</ele>
        <time>2022-05-29T12:16:44Z</time>
      </trkpt>
      <trkpt lat="45.09362" lon="5.54101">
        <ele>1324.257</ele>
        <time>2022-05-29T12:16:49Z</time>
      </trkpt>
      <trkpt lat="45.09362" lon="5.54101">
        <ele>1324.256</ele>
        <time>2022-05-29T12:16:54Z</time>
      </trkpt>
      <trkpt lat="45.09362" lon="5.54101">
        <ele>1324.25</ele>
        <time>2022-05-29T12:16:59Z</time>
      </trkpt>
      <trkpt lat="45.09362" lon="5.54101">
        <ele>1324.259</ele>
        <time>2022-05-29T12:17:04Z</time>
      </trkpt>
      <trkpt lat="45.09362" lon="5.54101">
        <ele>1324.252</ele>
        <time>2022-05-29T12:17:09Z</time>
      </trkpt>
      <trkpt lat="45.09362" lon="5.54101">
        <ele>1324.282</ele>
        <time>2022-05-29T12:17:14Z</time>
      </trkpt>
      <trkpt lat="45.09362" lon="5.54101">
        <ele>1324.293</ele>
        <time>2022-05-29T12:17:19Z</time>
      </trkpt>
      <trkpt lat="45.09362" lon="5.54101">
        <ele>1324.312</ele>
        <time>2022-05-29T12:17:24Z</time>
      </trkpt>
      <trkpt lat="45.09362" lon="5.54101">
        <ele>1324.316</ele>
        <time>2022-05-29T12:17:29Z</time>
      </trkpt>
      <trkpt lat="45.09362" lon="5.54101">
        <ele>1324.326</ele>
        <time>2022-05-29T12:17:34Z</time>
      </trkpt>
      <trkpt lat="45.09362" lon="5.54101">
        <ele>1324.328</ele>
        <time>2022-05-29T12:17:39Z</time>
      </trkpt>
      <trkpt lat="45.09362" lon="5.54101">
        <ele>1324.346</ele>
        <time>2022-05-29T12:17:44Z</time>
      </trkpt>
      <trkpt lat="45.09362" lon="5.54101">
        <ele>1324.359</ele>
        <time>2022-05-29T12:17:49Z</time>
      </trkpt>
      <trkpt lat="45.09362" lon="5.54101">
        <ele>1324.386</ele>
        <time>2022-05-29T12:17:54Z</time>
      </trkpt>
      <trkpt lat="45.09362" lon="5.54101">
        <ele>1324.411</ele>
        <time>2022-05-29T12:17:59Z</time>
      </trkpt>
      <trkpt lat="45.09363" lon="5.54101">
        <ele>1324.437</ele>
        <time>2022-05-29T12:18:04Z</time>
      </trkpt>
      <trkpt lat="45.09363" lon="5.54101">
        <ele>1324.467</ele>
        <time>2022-05-29T12:18:09Z</time>
      </trkpt>
      <trkpt lat="45.09363" lon="5.54101">
        <ele>1324.494</ele>
        <time>2022-05-29T12:18:14Z</time>
      </trkpt>
      <trkpt lat="45.09363" lon="5.54101">
        <ele>1324.521</ele>
        <time>2022-05-29T12:18:19Z</time>
      </trkpt>
      <trkpt lat="45.09363" lon="5.54101">
        <ele>1324.536</ele>
        <time>2022-05-29T12:18:24Z</time>
      </trkpt>
      <trkpt lat="45.09363" lon="5.54101">
        <ele>1324.549</ele>
        <time>2022-05-29T12:18:29Z</time>
      </trkpt>
      <trkpt lat="45.09363" lon="5.54101">
        <ele>1324.577</ele>
        <time>2022-05-29T12:18:34Z</time>
      </trkpt>
      <trkpt lat="45.09363" lon="5.54101">
        <ele>1324.622</ele>
        <time>2022-05-29T12:18:39Z</time>
      </trkpt>
      <trkpt lat="45.09363" lon="5.54101">
        <ele>1324.653</ele>
        <time>2022-05-29T12:18:44Z</time>
      </trkpt>
      <trkpt lat="45.09363" lon="5.54101">
        <ele>1324.669</ele>
        <time>2022-05-29T12:18:49Z</time>
      </trkpt>
      <trkpt lat="45.09363" lon="5.54101">
        <ele>1324.683</ele>
        <time>2022-05-29T12:18:54Z</time>
      </trkpt>
      <trkpt lat="45.09363" lon="5.54101">
        <ele>1324.705</ele>
        <time>2022-05-29T12:18:59Z</time>
      </trkpt>
      <trkpt lat="45.09363" lon="5.54101">
        <ele>1324.756</ele>
        <time>2022-05-29T12:19:04Z</time>
      </trkpt>
      <trkpt lat="45.09363" lon="5.54101">
        <ele>1324.801</ele>
        <time>2022-05-29T12:19:09Z</time>
      </trkpt>
      <trkpt lat="45.09363" lon="5.54101">
        <ele>1324.83</ele>
        <time>2022-05-29T12:19:14Z</time>
      </trkpt>
      <trkpt lat="45.09363" lon="5.54101">
        <ele>1324.88</ele>
        <time>2022-05-29T12:19:19Z</time>
      </trkpt>
      <trkpt lat="45.09363" lon="5.54101">
        <ele>1324.908</ele>
        <time>2022-05-29T12:19:24Z</time>
      </trkpt>
      <trkpt lat="45.09363" lon="5.54101">
        <ele>1324.924</ele>
        <time>2022-05-29T12:19:29Z</time>
      </trkpt>
      <trkpt lat="45.09363" lon="5.54101">
        <ele>1324.925</ele>
        <time>2022-05-29T12:19:34Z</time>
      </trkpt>
      <trkpt lat="45.09363" lon="5.54101">
        <ele>1324.962</ele>
        <time>2022-05-29T12:19:39Z</time>
      </trkpt>
      <trkpt lat="45.09363" lon="5.54101">
        <ele>1324.981</ele>
        <time>2022-05-29T12:19:44Z</time>
      </trkpt>
      <trkpt lat="45.09363" lon="5.54101">
        <ele>1325.015</ele>
        <time>2022-05-29T12:19:49Z</time>
      </trkpt>
      <trkpt lat="45.09363" lon="5.54101">
        <ele>1325.072</ele>
        <time>2022-05-29T12:19:54Z</time>
      </trkpt>
      <trkpt lat="45.09363" lon="5.54101">
        <ele>1325.124</ele>
        <time>2022-05-29T12:19:59Z</time>
      </trkpt>
      <trkpt lat="45.09363" lon="5.54101">
        <ele>1325.189</ele>
        <time>2022-05-29T12:20:04Z</time>
      </trkpt>
      <trkpt lat="45.09363" lon="5.54101">
        <ele>1325.232</ele>
        <time>2022-05-29T12:20:09Z</time>
      </trkpt>
      <trkpt lat="45.09363" lon="5.54101">
        <ele>1325.291</ele>
        <time>2022-05-29T12:20:14Z</time>
      </trkpt>
      <trkpt lat="45.09363" lon="5.54101">
        <ele>1325.321</ele>
        <time>2022-05-29T12:20:19Z</time>
      </trkpt>
      <trkpt lat="45.09363" lon="5.54101">
        <ele>1325.332</ele>
        <time>2022-05-29T12:20:24Z</time>
      </trkpt>
      <trkpt lat="45.09363" lon="5.54101">
        <ele>1325.34</ele>
        <time>2022-05-29T12:20:29Z</time>
      </trkpt>
      <trkpt lat="45.09363" lon="5.54101">
        <ele>1325.381</ele>
        <time>2022-05-29T12:20:34Z</time>
      </trkpt>
      <trkpt lat="45.09363" lon="5.54101">
        <ele>1325.429</ele>
        <time>2022-05-29T12:20:39Z</time>
      </trkpt>
      <trkpt lat="45.09363" lon="5.54101">
        <ele>1325.471</ele>
        <time>2022-05-29T12:20:44Z</time>
      </trkpt>
      <trkpt lat="45.09363" lon="5.54101">
        <ele>1325.533</ele>
        <time>2022-05-29T12:20:49Z</time>
      </trkpt>
      <trkpt lat="45.09363" lon="5.54101">
        <ele>1325.593</ele>
        <time>2022-05-29T12:20:54Z</time>
      </trkpt>
      <trkpt lat="45.09363" lon="5.54101">
        <ele>1325.656</ele>
        <time>2022-05-29T12:20:59Z</time>
      </trkpt>
      <trkpt lat="45.09363" lon="5.54101">
        <ele>1325.702</ele>
        <time>2022-05-29T12:21:04Z</time>
      </trkpt>
      <trkpt lat="45.09363" lon="5.54101">
        <ele>1325.742</ele>
        <time>2022-05-29T12:21:09Z</time>
      </trkpt>
      <trkpt lat="45.09363" lon="5.54101">
        <ele>1325.781</ele>
        <time>2022-05-29T12:21:14Z</time>
      </trkpt>
      <trkpt lat="45.09363" lon="5.54101">
        <ele>1325.841</ele>
        <time>2022-05-29T12:21:19Z</time>
      </trkpt>
      <trkpt lat="45.09362" lon="5.54101">
        <ele>1326.963</ele>
        <time>2022-05-29T12:21:24Z</time>
      </trkpt>
      <trkpt lat="45.09362" lon="5.54101">
        <ele>1327.808</ele>
        <time>2022-05-29T12:21:29Z</time>
      </trkpt>
      <trkpt lat="45.0936" lon="5.54103">
        <ele>1328.294</ele>
        <time>2022-05-29T12:21:34Z</time>
      </trkpt>
      <trkpt lat="45.0936" lon="5.54103">
        <ele>1328.264</ele>
        <time>2022-05-29T12:21:39Z</time>
      </trkpt>
      <trkpt lat="45.09359" lon="5.54103">
        <ele>1328.518</ele>
        <time>2022-05-29T12:21:44Z</time>
      </trkpt>
      <trkpt lat="45.09359" lon="5.54103">
        <ele>1328.56</ele>
        <time>2022-05-29T12:21:49Z</time>
      </trkpt>
      <trkpt lat="45.09359" lon="5.54103">
        <ele>1328.576</ele>
        <time>2022-05-29T12:21:54Z</time>
      </trkpt>
      <trkpt lat="45.09359" lon="5.54103">
        <ele>1328.589</ele>
        <time>2022-05-29T12:21:59Z</time>
      </trkpt>
      <trkpt lat="45.0936" lon="5.54103">
        <ele>1328.607</ele>
        <time>2022-05-29T12:22:04Z</time>
      </trkpt>
      <trkpt lat="45.0936" lon="5.54103">
        <ele>1329.518</ele>
        <time>2022-05-29T12:22:09Z</time>
      </trkpt>
      <trkpt lat="45.0936" lon="5.54104">
        <ele>1330.427</ele>
        <time>2022-05-29T12:22:14Z</time>
      </trkpt>
      <trkpt lat="45.0936" lon="5.54104">
        <ele>1330.479</ele>
        <time>2022-05-29T12:22:19Z</time>
      </trkpt>
      <trkpt lat="45.0936" lon="5.54103">
        <ele>1331.5</ele>
        <time>2022-05-29T12:22:24Z</time>
      </trkpt>
      <trkpt lat="45.0936" lon="5.54103">
        <ele>1331.398</ele>
        <time>2022-05-29T12:22:29Z</time>
      </trkpt>
      <trkpt lat="45.0936" lon="5.54105">
        <ele>1330.443</ele>
        <time>2022-05-29T12:22:34Z</time>
      </trkpt>
      <trkpt lat="45.09359" lon="5.54106">
        <ele>1328.906</ele>
        <time>2022-05-29T12:22:39Z</time>
      </trkpt>
      <trkpt lat="45.09359" lon="5.54106">
        <ele>1328.473</ele>
        <time>2022-05-29T12:22:44Z</time>
      </trkpt>
      <trkpt lat="45.09359" lon="5.54106">
        <ele>1328.415</ele>
        <time>2022-05-29T12:22:49Z</time>
      </trkpt>
      <trkpt lat="45.09359" lon="5.54106">
        <ele>1329.808</ele>
        <time>2022-05-29T12:22:54Z</time>
      </trkpt>
      <trkpt lat="45.0936" lon="5.54105">
        <ele>1331.258</ele>
        <time>2022-05-29T12:22:59Z</time>
      </trkpt>
      <trkpt lat="45.0936" lon="5.54104">
        <ele>1330.345</ele>
        <time>2022-05-29T12:23:04Z</time>
      </trkpt>
      <trkpt lat="45.09361" lon="5.54104">
        <ele>1329.154</ele>
        <time>2022-05-29T12:23:09Z</time>
      </trkpt>
      <trkpt lat="45.09361" lon="5.54103">
        <ele>1330.017</ele>
        <time>2022-05-29T12:23:14Z</time>
      </trkpt>
      <trkpt lat="45.09362" lon="5.54102">
        <ele>1330.323</ele>
        <time>2022-05-29T12:23:19Z</time>
      </trkpt>
      <trkpt lat="45.09362" lon="5.54102">
        <ele>1330.319</ele>
        <time>2022-05-29T12:23:24Z</time>
      </trkpt>
      <trkpt lat="45.09362" lon="5.54103">
        <ele>1330.353</ele>
        <time>2022-05-29T12:23:29Z</time>
      </trkpt>
      <trkpt lat="45.09362" lon="5.54103">
        <ele>1330.377</ele>
        <time>2022-05-29T12:23:34Z</time>
      </trkpt>
      <trkpt lat="45.09362" lon="5.54103">
        <ele>1330.395</ele>
        <time>2022-05-29T12:23:39Z</time>
      </trkpt>
      <trkpt lat="45.09362" lon="5.54102">
        <ele>1331.05</ele>
        <time>2022-05-29T12:23:44Z</time>
      </trkpt>
      <trkpt lat="45.09362" lon="5.54101">
        <ele>1330.652</ele>
        <time>2022-05-29T12:23:49Z</time>
      </trkpt>
      <trkpt lat="45.09363" lon="5.54101">
        <ele>1330.511</ele>
        <time>2022-05-29T12:23:54Z</time>
      </trkpt>
      <trkpt lat="45.09363" lon="5.54102">
        <ele>1329.126</ele>
        <time>2022-05-29T12:23:59Z</time>
      </trkpt>
      <trkpt lat="45.09362" lon="5.54102">
        <ele>1328.316</ele>
        <time>2022-05-29T12:24:04Z</time>
      </trkpt>
      <trkpt lat="45.09362" lon="5.54102">
        <ele>1327.929</ele>
        <time>2022-05-29T12:24:09Z</time>
      </trkpt>
      <trkpt lat="45.09362" lon="5.54102">
        <ele>1327.941</ele>
        <time>2022-05-29T12:24:14Z</time>
      </trkpt>
      <trkpt lat="45.09362" lon="5.54102">
        <ele>1327.978</ele>
        <time>2022-05-29T12:24:19Z</time>
      </trkpt>
      <trkpt lat="45.09362" lon="5.54102">
        <ele>1328.009</ele>
        <time>2022-05-29T12:24:24Z</time>
      </trkpt>
      <trkpt lat="45.09362" lon="5.54101">
        <ele>1330.34</ele>
        <time>2022-05-29T12:24:29Z</time>
      </trkpt>
      <trkpt lat="45.0936" lon="5.54101">
        <ele>1328.653</ele>
        <time>2022-05-29T12:24:34Z</time>
      </trkpt>
      <trkpt lat="45.0936" lon="5.54103">
        <ele>1328.385</ele>
        <time>2022-05-29T12:24:39Z</time>
      </trkpt>
      <trkpt lat="45.09361" lon="5.54104">
        <ele>1328.721</ele>
        <time>2022-05-29T12:24:44Z</time>
      </trkpt>
      <trkpt lat="45.09361" lon="5.54104">
        <ele>1328.859</ele>
        <time>2022-05-29T12:24:49Z</time>
      </trkpt>
      <trkpt lat="45.09361" lon="5.54104">
        <ele>1328.865</ele>
        <time>2022-05-29T12:24:54Z</time>
      </trkpt>
      <trkpt lat="45.09361" lon="5.54104">
        <ele>1328.924</ele>
        <time>2022-05-29T12:24:59Z</time>
      </trkpt>
      <trkpt lat="45.09361" lon="5.54105">
        <ele>1328.675</ele>
        <time>2022-05-29T12:25:04Z</time>
      </trkpt>
      <trkpt lat="45.09361" lon="5.54105">
        <ele>1329.593</ele>
        <time>2022-05-29T12:25:09Z</time>
      </trkpt>
      <trkpt lat="45.09361" lon="5.54105">
        <ele>1329.655</ele>
        <time>2022-05-29T12:25:14Z</time>
      </trkpt>
      <trkpt lat="45.09361" lon="5.54105">
        <ele>1329.661</ele>
        <time>2022-05-29T12:25:19Z</time>
      </trkpt>
      <trkpt lat="45.09361" lon="5.54105">
        <ele>1329.652</ele>
        <time>2022-05-29T12:25:24Z</time>
      </trkpt>
      <trkpt lat="45.09361" lon="5.54105">
        <ele>1329.67</ele>
        <time>2022-05-29T12:25:29Z</time>
      </trkpt>
      <trkpt lat="45.09361" lon="5.54105">
        <ele>1329.664</ele>
        <time>2022-05-29T12:25:34Z</time>
      </trkpt>
      <trkpt lat="45.09361" lon="5.54105">
        <ele>1329.659</ele>
        <time>2022-05-29T12:25:39Z</time>
      </trkpt>
      <trkpt lat="45.09361" lon="5.54105">
        <ele>1329.684</ele>
        <time>2022-05-29T12:25:44Z</time>
      </trkpt>
      <trkpt lat="45.09361" lon="5.54105">
        <ele>1329.683</ele>
        <time>2022-05-29T12:25:49Z</time>
      </trkpt>
      <trkpt lat="45.09362" lon="5.54105">
        <ele>1329.697</ele>
        <time>2022-05-29T12:25:54Z</time>
      </trkpt>
      <trkpt lat="45.09362" lon="5.54105">
        <ele>1329.714</ele>
        <time>2022-05-29T12:25:59Z</time>
      </trkpt>
      <trkpt lat="45.09362" lon="5.54105">
        <ele>1329.718</ele>
        <time>2022-05-29T12:26:04Z</time>
      </trkpt>
      <trkpt lat="45.09362" lon="5.54105">
        <ele>1329.732</ele>
        <time>2022-05-29T12:26:09Z</time>
      </trkpt>
      <trkpt lat="45.09362" lon="5.54105">
        <ele>1329.752</ele>
        <time>2022-05-29T12:26:14Z</time>
      </trkpt>
      <trkpt lat="45.09362" lon="5.54105">
        <ele>1329.806</ele>
        <time>2022-05-29T12:26:19Z</time>
      </trkpt>
      <trkpt lat="45.09362" lon="5.54105">
        <ele>1329.832</ele>
        <time>2022-05-29T12:26:24Z</time>
      </trkpt>
      <trkpt lat="45.09362" lon="5.54105">
        <ele>1329.899</ele>
        <time>2022-05-29T12:26:29Z</time>
      </trkpt>
      <trkpt lat="45.09363" lon="5.54105">
        <ele>1330.387</ele>
        <time>2022-05-29T12:26:34Z</time>
      </trkpt>
      <trkpt lat="45.09362" lon="5.54105">
        <ele>1329.759</ele>
        <time>2022-05-29T12:26:39Z</time>
      </trkpt>
      <trkpt lat="45.09363" lon="5.54106">
        <ele>1330.345</ele>
        <time>2022-05-29T12:26:44Z</time>
      </trkpt>
      <trkpt lat="45.09363" lon="5.54107">
        <ele>1330.824</ele>
        <time>2022-05-29T12:26:49Z</time>
      </trkpt>
      <trkpt lat="45.09363" lon="5.54108">
        <ele>1331.089</ele>
        <time>2022-05-29T12:26:54Z</time>
      </trkpt>
      <trkpt lat="45.09363" lon="5.54108">
        <ele>1331.083</ele>
        <time>2022-05-29T12:26:59Z</time>
      </trkpt>
      <trkpt lat="45.09363" lon="5.54108">
        <ele>1331.289</ele>
        <time>2022-05-29T12:27:04Z</time>
      </trkpt>
      <trkpt lat="45.09363" lon="5.54109">
        <ele>1329.578</ele>
        <time>2022-05-29T12:27:09Z</time>
      </trkpt>
      <trkpt lat="45.09362" lon="5.5411">
        <ele>1328.768</ele>
        <time>2022-05-29T12:27:14Z</time>
      </trkpt>
      <trkpt lat="45.09362" lon="5.54109">
        <ele>1328.957</ele>
        <time>2022-05-29T12:27:19Z</time>
      </trkpt>
      <trkpt lat="45.09362" lon="5.54109">
        <ele>1328.98</ele>
        <time>2022-05-29T12:27:24Z</time>
      </trkpt>
      <trkpt lat="45.09362" lon="5.54109">
        <ele>1328.938</ele>
        <time>2022-05-29T12:27:29Z</time>
      </trkpt>
      <trkpt lat="45.09362" lon="5.54109">
        <ele>1328.928</ele>
        <time>2022-05-29T12:27:34Z</time>
      </trkpt>
      <trkpt lat="45.09362" lon="5.54109">
        <ele>1328.943</ele>
        <time>2022-05-29T12:27:39Z</time>
      </trkpt>
      <trkpt lat="45.09362" lon="5.54109">
        <ele>1328.977</ele>
        <time>2022-05-29T12:27:44Z</time>
      </trkpt>
      <trkpt lat="45.09362" lon="5.54109">
        <ele>1328.991</ele>
        <time>2022-05-29T12:27:49Z</time>
      </trkpt>
      <trkpt lat="45.09361" lon="5.54109">
        <ele>1328.928</ele>
        <time>2022-05-29T12:27:54Z</time>
      </trkpt>
      <trkpt lat="45.09361" lon="5.54109">
        <ele>1328.883</ele>
        <time>2022-05-29T12:27:59Z</time>
      </trkpt>
      <trkpt lat="45.09361" lon="5.5411">
        <ele>1329.768</ele>
        <time>2022-05-29T12:28:04Z</time>
      </trkpt>
      <trkpt lat="45.09361" lon="5.54112">
        <ele>1331.37</ele>
        <time>2022-05-29T12:28:09Z</time>
      </trkpt>
      <trkpt lat="45.0936" lon="5.54112">
        <ele>1329.995</ele>
        <time>2022-05-29T12:28:14Z</time>
      </trkpt>
      <trkpt lat="45.09359" lon="5.54112">
        <ele>1329.808</ele>
        <time>2022-05-29T12:28:19Z</time>
      </trkpt>
      <trkpt lat="45.09358" lon="5.5411">
        <ele>1327.601</ele>
        <time>2022-05-29T12:28:24Z</time>
      </trkpt>
      <trkpt lat="45.09358" lon="5.54107">
        <ele>1327.568</ele>
        <time>2022-05-29T12:28:29Z</time>
      </trkpt>
      <trkpt lat="45.09357" lon="5.54105">
        <ele>1329.177</ele>
        <time>2022-05-29T12:28:34Z</time>
      </trkpt>
      <trkpt lat="45.09357" lon="5.54105">
        <ele>1329.483</ele>
        <time>2022-05-29T12:28:39Z</time>
      </trkpt>
      <trkpt lat="45.09357" lon="5.54105">
        <ele>1329.7</ele>
        <time>2022-05-29T12:28:44Z</time>
      </trkpt>
      <trkpt lat="45.09357" lon="5.54105">
        <ele>1329.703</ele>
        <time>2022-05-29T12:28:49Z</time>
      </trkpt>
      <trkpt lat="45.09357" lon="5.54105">
        <ele>1330.05</ele>
        <time>2022-05-29T12:28:54Z</time>
      </trkpt>
      <trkpt lat="45.09357" lon="5.54106">
        <ele>1330.506</ele>
        <time>2022-05-29T12:28:59Z</time>
      </trkpt>
      <trkpt lat="45.09358" lon="5.54106">
        <ele>1330.534</ele>
        <time>2022-05-29T12:29:04Z</time>
      </trkpt>
      <trkpt lat="45.09358" lon="5.54106">
        <ele>1330.602</ele>
        <time>2022-05-29T12:29:09Z</time>
      </trkpt>
      <trkpt lat="45.09358" lon="5.54106">
        <ele>1330.612</ele>
        <time>2022-05-29T12:29:14Z</time>
      </trkpt>
      <trkpt lat="45.09358" lon="5.54106">
        <ele>1330.607</ele>
        <time>2022-05-29T12:29:19Z</time>
      </trkpt>
      <trkpt lat="45.09358" lon="5.54106">
        <ele>1330.602</ele>
        <time>2022-05-29T12:29:24Z</time>
      </trkpt>
      <trkpt lat="45.09358" lon="5.54106">
        <ele>1330.6</ele>
        <time>2022-05-29T12:29:29Z</time>
      </trkpt>
      <trkpt lat="45.09358" lon="5.54106">
        <ele>1330.664</ele>
        <time>2022-05-29T12:29:34Z</time>
      </trkpt>
      <trkpt lat="45.09358" lon="5.54106">
        <ele>1330.762</ele>
        <time>2022-05-29T12:29:39Z</time>
      </trkpt>
      <trkpt lat="45.09358" lon="5.54106">
        <ele>1330.79</ele>
        <time>2022-05-29T12:29:44Z</time>
      </trkpt>
      <trkpt lat="45.09358" lon="5.54106">
        <ele>1330.799</ele>
        <time>2022-05-29T12:29:49Z</time>
      </trkpt>
      <trkpt lat="45.09367" lon="5.54118">
        <ele>1328.079</ele>
        <time>2022-05-29T12:29:54Z</time>
      </trkpt>
      <trkpt lat="45.09385" lon="5.5414">
        <ele>1324.895</ele>
        <time>2022-05-29T12:29:59Z</time>
      </trkpt>
      <trkpt lat="45.09403" lon="5.54163">
        <ele>1320.277</ele>
        <time>2022-05-29T12:30:04Z</time>
      </trkpt>
      <trkpt lat="45.09414" lon="5.54173">
        <ele>1313.318</ele>
        <time>2022-05-29T12:30:09Z</time>
      </trkpt>
      <trkpt lat="45.09435" lon="5.54188">
        <ele>1313.302</ele>
        <time>2022-05-29T12:30:14Z</time>
      </trkpt>
      <trkpt lat="45.09458" lon="5.54205">
        <ele>1309.487</ele>
        <time>2022-05-29T12:30:19Z</time>
      </trkpt>
      <trkpt lat="45.09477" lon="5.54211">
        <ele>1307.934</ele>
        <time>2022-05-29T12:30:24Z</time>
      </trkpt>
      <trkpt lat="45.09494" lon="5.54221">
        <ele>1302.259</ele>
        <time>2022-05-29T12:30:29Z</time>
      </trkpt>
      <trkpt lat="45.09508" lon="5.54234">
        <ele>1299.95</ele>
        <time>2022-05-29T12:30:34Z</time>
      </trkpt>
      <trkpt lat="45.0951" lon="5.54256">
        <ele>1295.465</ele>
        <time>2022-05-29T12:30:39Z</time>
      </trkpt>
      <trkpt lat="45.09514" lon="5.54278">
        <ele>1290.962</ele>
        <time>2022-05-29T12:30:44Z</time>
      </trkpt>
      <trkpt lat="45.09521" lon="5.54292">
        <ele>1288.597</ele>
        <time>2022-05-29T12:30:49Z</time>
      </trkpt>
      <trkpt lat="45.09549" lon="5.54303">
        <ele>1284.346</ele>
        <time>2022-05-29T12:30:54Z</time>
      </trkpt>
      <trkpt lat="45.09565" lon="5.54315">
        <ele>1280.063</ele>
        <time>2022-05-29T12:30:59Z</time>
      </trkpt>
      <trkpt lat="45.09581" lon="5.54333">
        <ele>1276.533</ele>
        <time>2022-05-29T12:31:04Z</time>
      </trkpt>
      <trkpt lat="45.096" lon="5.54341">
        <ele>1272.592</ele>
        <time>2022-05-29T12:31:09Z</time>
      </trkpt>
      <trkpt lat="45.09619" lon="5.54354">
        <ele>1265.756</ele>
        <time>2022-05-29T12:31:14Z</time>
      </trkpt>
      <trkpt lat="45.0964" lon="5.54373">
        <ele>1262.059</ele>
        <time>2022-05-29T12:31:19Z</time>
      </trkpt>
      <trkpt lat="45.09636" lon="5.54393">
        <ele>1258.268</ele>
        <time>2022-05-29T12:31:24Z</time>
      </trkpt>
      <trkpt lat="45.09646" lon="5.54408">
        <ele>1253.799</ele>
        <time>2022-05-29T12:31:29Z</time>
      </trkpt>
      <trkpt lat="45.09652" lon="5.54413">
        <ele>1251.222</ele>
        <time>2022-05-29T12:31:34Z</time>
      </trkpt>
      <trkpt lat="45.09647" lon="5.54421">
        <ele>1247.721</ele>
        <time>2022-05-29T12:31:39Z</time>
      </trkpt>
      <trkpt lat="45.09648" lon="5.54422">
        <ele>1246.515</ele>
        <time>2022-05-29T12:31:44Z</time>
      </trkpt>
      <trkpt lat="45.09649" lon="5.54423">
        <ele>1245.138</ele>
        <time>2022-05-29T12:31:49Z</time>
      </trkpt>
      <trkpt lat="45.09649" lon="5.54423">
        <ele>1245.056</ele>
        <time>2022-05-29T12:31:54Z</time>
      </trkpt>
      <trkpt lat="45.09649" lon="5.54423">
        <ele>1245.049</ele>
        <time>2022-05-29T12:31:59Z</time>
      </trkpt>
      <trkpt lat="45.09649" lon="5.54423">
        <ele>1245.074</ele>
        <time>2022-05-29T12:32:04Z</time>
      </trkpt>
      <trkpt lat="45.09649" lon="5.54423">
        <ele>1245.1</ele>
        <time>2022-05-29T12:32:09Z</time>
      </trkpt>
      <trkpt lat="45.09649" lon="5.54423">
        <ele>1245.115</ele>
        <time>2022-05-29T12:32:14Z</time>
      </trkpt>
      <trkpt lat="45.09649" lon="5.54423">
        <ele>1245.099</ele>
        <time>2022-05-29T12:32:19Z</time>
      </trkpt>
      <trkpt lat="45.09649" lon="5.54423">
        <ele>1245.114</ele>
        <time>2022-05-29T12:32:24Z</time>
      </trkpt>
      <trkpt lat="45.09649" lon="5.5443">
        <ele>1245.065</ele>
        <time>2022-05-29T12:32:29Z</time>
      </trkpt>
      <trkpt lat="45.0965" lon="5.54466">
        <ele>1239.627</ele>
        <time>2022-05-29T12:32:34Z</time>
      </trkpt>
      <trkpt lat="45.09654" lon="5.54498">
        <ele>1233.793</ele>
        <time>2022-05-29T12:32:39Z</time>
      </trkpt>
      <trkpt lat="45.09652" lon="5.54525">
        <ele>1233.945</ele>
        <time>2022-05-29T12:32:44Z</time>
      </trkpt>
      <trkpt lat="45.09662" lon="5.54541">
        <ele>1231.497</ele>
        <time>2022-05-29T12:32:49Z</time>
      </trkpt>
      <trkpt lat="45.09664" lon="5.54543">
        <ele>1229.007</ele>
        <time>2022-05-29T12:32:54Z</time>
      </trkpt>
      <trkpt lat="45.0966" lon="5.54552">
        <ele>1228.095</ele>
        <time>2022-05-29T12:32:59Z</time>
      </trkpt>
      <trkpt lat="45.09658" lon="5.54561">
        <ele>1227.373</ele>
        <time>2022-05-29T12:33:04Z</time>
      </trkpt>
      <trkpt lat="45.09656" lon="5.54565">
        <ele>1227.357</ele>
        <time>2022-05-29T12:33:09Z</time>
      </trkpt>
      <trkpt lat="45.09656" lon="5.54561">
        <ele>1226.904</ele>
        <time>2022-05-29T12:33:14Z</time>
      </trkpt>
      <trkpt lat="45.09656" lon="5.54562">
        <ele>1227.454</ele>
        <time>2022-05-29T12:33:19Z</time>
      </trkpt>
      <trkpt lat="45.09658" lon="5.54563">
        <ele>1229.302</ele>
        <time>2022-05-29T12:33:24Z</time>
      </trkpt>
      <trkpt lat="45.09656" lon="5.54564">
        <ele>1229.023</ele>
        <time>2022-05-29T12:33:29Z</time>
      </trkpt>
      <trkpt lat="45.09655" lon="5.54565">
        <ele>1228.163</ele>
        <time>2022-05-29T12:33:34Z</time>
      </trkpt>
      <trkpt lat="45.09657" lon="5.54563">
        <ele>1227.452</ele>
        <time>2022-05-29T12:33:39Z</time>
      </trkpt>
      <trkpt lat="45.09659" lon="5.54552">
        <ele>1225.282</ele>
        <time>2022-05-29T12:33:44Z</time>
      </trkpt>
      <trkpt lat="45.09662" lon="5.54542">
        <ele>1227.229</ele>
        <time>2022-05-29T12:33:49Z</time>
      </trkpt>
      <trkpt lat="45.09661" lon="5.5454">
        <ele>1227.917</ele>
        <time>2022-05-29T12:33:54Z</time>
      </trkpt>
      <trkpt lat="45.0966" lon="5.54552">
        <ele>1226.76</ele>
        <time>2022-05-29T12:33:59Z</time>
      </trkpt>
      <trkpt lat="45.09666" lon="5.54579">
        <ele>1221.903</ele>
        <time>2022-05-29T12:34:04Z</time>
      </trkpt>
      <trkpt lat="45.09662" lon="5.5461">
        <ele>1216.552</ele>
        <time>2022-05-29T12:34:09Z</time>
      </trkpt>
      <trkpt lat="45.09669" lon="5.54622">
        <ele>1216.414</ele>
        <time>2022-05-29T12:34:14Z</time>
      </trkpt>
      <trkpt lat="45.09689" lon="5.54616">
        <ele>1215.993</ele>
        <time>2022-05-29T12:34:19Z</time>
      </trkpt>
      <trkpt lat="45.09698" lon="5.54622">
        <ele>1213.746</ele>
        <time>2022-05-29T12:34:24Z</time>
      </trkpt>
      <trkpt lat="45.09703" lon="5.54644">
        <ele>1212.33</ele>
        <time>2022-05-29T12:34:29Z</time>
      </trkpt>
      <trkpt lat="45.09718" lon="5.54665">
        <ele>1209.303</ele>
        <time>2022-05-29T12:34:34Z</time>
      </trkpt>
      <trkpt lat="45.09733" lon="5.5468">
        <ele>1204.498</ele>
        <time>2022-05-29T12:34:39Z</time>
      </trkpt>
      <trkpt lat="45.09751" lon="5.54701">
        <ele>1200.286</ele>
        <time>2022-05-29T12:34:44Z</time>
      </trkpt>
      <trkpt lat="45.0977" lon="5.54705">
        <ele>1195.877</ele>
        <time>2022-05-29T12:34:49Z</time>
      </trkpt>
      <trkpt lat="45.09776" lon="5.54721">
        <ele>1194.019</ele>
        <time>2022-05-29T12:34:54Z</time>
      </trkpt>
      <trkpt lat="45.09784" lon="5.54738">
        <ele>1185.603</ele>
        <time>2022-05-29T12:34:59Z</time>
      </trkpt>
      <trkpt lat="45.09803" lon="5.54748">
        <ele>1185.386</ele>
        <time>2022-05-29T12:35:04Z</time>
      </trkpt>
      <trkpt lat="45.09806" lon="5.54772">
        <ele>1181.641</ele>
        <time>2022-05-29T12:35:09Z</time>
      </trkpt>
      <trkpt lat="45.0979" lon="5.54793">
        <ele>1175.74</ele>
        <time>2022-05-29T12:35:14Z</time>
      </trkpt>
      <trkpt lat="45.09766" lon="5.54818">
        <ele>1170.808</ele>
        <time>2022-05-29T12:35:19Z</time>
      </trkpt>
      <trkpt lat="45.09751" lon="5.54831">
        <ele>1164.743</ele>
        <time>2022-05-29T12:35:24Z</time>
      </trkpt>
      <trkpt lat="45.09731" lon="5.54844">
        <ele>1156.075</ele>
        <time>2022-05-29T12:35:29Z</time>
      </trkpt>
      <trkpt lat="45.09708" lon="5.5487">
        <ele>1151.719</ele>
        <time>2022-05-29T12:35:34Z</time>
      </trkpt>
      <trkpt lat="45.09692" lon="5.54891">
        <ele>1148.63</ele>
        <time>2022-05-29T12:35:39Z</time>
      </trkpt>
      <trkpt lat="45.09692" lon="5.54893">
        <ele>1147.473</ele>
        <time>2022-05-29T12:35:44Z</time>
      </trkpt>
      <trkpt lat="45.09691" lon="5.54893">
        <ele>1146.241</ele>
        <time>2022-05-29T12:35:49Z</time>
      </trkpt>
      <trkpt lat="45.0969" lon="5.54894">
        <ele>1146.483</ele>
        <time>2022-05-29T12:35:54Z</time>
      </trkpt>
      <trkpt lat="45.0969" lon="5.54894">
        <ele>1146.476</ele>
        <time>2022-05-29T12:35:59Z</time>
      </trkpt>
      <trkpt lat="45.0969" lon="5.54895">
        <ele>1146.747</ele>
        <time>2022-05-29T12:36:04Z</time>
      </trkpt>
      <trkpt lat="45.09689" lon="5.54902">
        <ele>1142.94</ele>
        <time>2022-05-29T12:36:09Z</time>
      </trkpt>
      <trkpt lat="45.0969" lon="5.54903">
        <ele>1142.585</ele>
        <time>2022-05-29T12:36:14Z</time>
      </trkpt>
      <trkpt lat="45.09695" lon="5.54911">
        <ele>1138.869</ele>
        <time>2022-05-29T12:36:19Z</time>
      </trkpt>
      <trkpt lat="45.09697" lon="5.54913">
        <ele>1136.654</ele>
        <time>2022-05-29T12:36:24Z</time>
      </trkpt>
      <trkpt lat="45.09698" lon="5.54914">
        <ele>1136.243</ele>
        <time>2022-05-29T12:36:29Z</time>
      </trkpt>
      <trkpt lat="45.09697" lon="5.54913">
        <ele>1134.7</ele>
        <time>2022-05-29T12:36:34Z</time>
      </trkpt>
      <trkpt lat="45.09694" lon="5.54912">
        <ele>1136.833</ele>
        <time>2022-05-29T12:36:39Z</time>
      </trkpt>
      <trkpt lat="45.09691" lon="5.54907">
        <ele>1140.108</ele>
        <time>2022-05-29T12:36:44Z</time>
      </trkpt>
      <trkpt lat="45.09689" lon="5.54903">
        <ele>1140.898</ele>
        <time>2022-05-29T12:36:49Z</time>
      </trkpt>
      <trkpt lat="45.09687" lon="5.54897">
        <ele>1140.721</ele>
        <time>2022-05-29T12:36:54Z</time>
      </trkpt>
      <trkpt lat="45.09687" lon="5.54897">
        <ele>1141.941</ele>
        <time>2022-05-29T12:36:59Z</time>
      </trkpt>
      <trkpt lat="45.09681" lon="5.54904">
        <ele>1140.255</ele>
        <time>2022-05-29T12:37:04Z</time>
      </trkpt>
      <trkpt lat="45.09681" lon="5.54907">
        <ele>1140.171</ele>
        <time>2022-05-29T12:37:09Z</time>
      </trkpt>
      <trkpt lat="45.0968" lon="5.54908">
        <ele>1140.56</ele>
        <time>2022-05-29T12:37:14Z</time>
      </trkpt>
      <trkpt lat="45.09679" lon="5.54908">
        <ele>1140.636</ele>
        <time>2022-05-29T12:37:19Z</time>
      </trkpt>
      <trkpt lat="45.09683" lon="5.54904">
        <ele>1142.79</ele>
        <time>2022-05-29T12:37:24Z</time>
      </trkpt>
      <trkpt lat="45.09685" lon="5.54899">
        <ele>1147.201</ele>
        <time>2022-05-29T12:37:29Z</time>
      </trkpt>
      <trkpt lat="45.09687" lon="5.54894">
        <ele>1143.147</ele>
        <time>2022-05-29T12:37:34Z</time>
      </trkpt>
      <trkpt lat="45.09686" lon="5.54891">
        <ele>1143.616</ele>
        <time>2022-05-29T12:37:39Z</time>
      </trkpt>
      <trkpt lat="45.09688" lon="5.54887">
        <ele>1142.008</ele>
        <time>2022-05-29T12:37:44Z</time>
      </trkpt>
      <trkpt lat="45.09694" lon="5.54882">
        <ele>1144.456</ele>
        <time>2022-05-29T12:37:49Z</time>
      </trkpt>
      <trkpt lat="45.09699" lon="5.54877">
        <ele>1146.503</ele>
        <time>2022-05-29T12:37:54Z</time>
      </trkpt>
      <trkpt lat="45.09703" lon="5.54875">
        <ele>1146.193</ele>
        <time>2022-05-29T12:37:59Z</time>
      </trkpt>
      <trkpt lat="45.09704" lon="5.54876">
        <ele>1148.311</ele>
        <time>2022-05-29T12:38:04Z</time>
      </trkpt>
      <trkpt lat="45.09704" lon="5.54876">
        <ele>1147.913</ele>
        <time>2022-05-29T12:38:09Z</time>
      </trkpt>
      <trkpt lat="45.09704" lon="5.54876">
        <ele>1148.105</ele>
        <time>2022-05-29T12:38:14Z</time>
      </trkpt>
      <trkpt lat="45.09704" lon="5.54876">
        <ele>1148.117</ele>
        <time>2022-05-29T12:38:19Z</time>
      </trkpt>
      <trkpt lat="45.09704" lon="5.54876">
        <ele>1148.129</ele>
        <time>2022-05-29T12:38:24Z</time>
      </trkpt>
      <trkpt lat="45.09704" lon="5.54876">
        <ele>1148.14</ele>
        <time>2022-05-29T12:38:29Z</time>
      </trkpt>
      <trkpt lat="45.09704" lon="5.54876">
        <ele>1148.141</ele>
        <time>2022-05-29T12:38:34Z</time>
      </trkpt>
      <trkpt lat="45.09706" lon="5.54879">
        <ele>1147.448</ele>
        <time>2022-05-29T12:38:39Z</time>
      </trkpt>
      <trkpt lat="45.09713" lon="5.54889">
        <ele>1142.368</ele>
        <time>2022-05-29T12:38:44Z</time>
      </trkpt>
      <trkpt lat="45.09733" lon="5.54885">
        <ele>1143.96</ele>
        <time>2022-05-29T12:38:49Z</time>
      </trkpt>
      <trkpt lat="45.09739" lon="5.54904">
        <ele>1138.651</ele>
        <time>2022-05-29T12:38:54Z</time>
      </trkpt>
      <trkpt lat="45.09732" lon="5.54929">
        <ele>1130.885</ele>
        <time>2022-05-29T12:38:59Z</time>
      </trkpt>
      <trkpt lat="45.09722" lon="5.54958">
        <ele>1128.621</ele>
        <time>2022-05-29T12:39:04Z</time>
      </trkpt>
      <trkpt lat="45.09733" lon="5.54963">
        <ele>1126.082</ele>
        <time>2022-05-29T12:39:09Z</time>
      </trkpt>
      <trkpt lat="45.09738" lon="5.54983">
        <ele>1120.12</ele>
        <time>2022-05-29T12:39:14Z</time>
      </trkpt>
      <trkpt lat="45.09754" lon="5.54974">
        <ele>1118.842</ele>
        <time>2022-05-29T12:39:19Z</time>
      </trkpt>
      <trkpt lat="45.0978" lon="5.54979">
        <ele>1114.994</ele>
        <time>2022-05-29T12:39:24Z</time>
      </trkpt>
      <trkpt lat="45.09785" lon="5.54994">
        <ele>1111.969</ele>
        <time>2022-05-29T12:39:29Z</time>
      </trkpt>
      <trkpt lat="45.09772" lon="5.55005">
        <ele>1110.058</ele>
        <time>2022-05-29T12:39:34Z</time>
      </trkpt>
      <trkpt lat="45.09785" lon="5.55031">
        <ele>1105.169</ele>
        <time>2022-05-29T12:39:39Z</time>
      </trkpt>
      <trkpt lat="45.09791" lon="5.55043">
        <ele>1100.071</ele>
        <time>2022-05-29T12:39:44Z</time>
      </trkpt>
      <trkpt lat="45.09779" lon="5.55065">
        <ele>1098.464</ele>
        <time>2022-05-29T12:39:49Z</time>
      </trkpt>
      <trkpt lat="45.09776" lon="5.55097">
        <ele>1094.451</ele>
        <time>2022-05-29T12:39:54Z</time>
      </trkpt>
      <trkpt lat="45.09771" lon="5.55129">
        <ele>1091.441</ele>
        <time>2022-05-29T12:39:59Z</time>
      </trkpt>
      <trkpt lat="45.09773" lon="5.55135">
        <ele>1088.226</ele>
        <time>2022-05-29T12:40:04Z</time>
      </trkpt>
      <trkpt lat="45.09773" lon="5.55158">
        <ele>1085.484</ele>
        <time>2022-05-29T12:40:09Z</time>
      </trkpt>
      <trkpt lat="45.09765" lon="5.55182">
        <ele>1081.628</ele>
        <time>2022-05-29T12:40:14Z</time>
      </trkpt>
      <trkpt lat="45.09775" lon="5.55189">
        <ele>1077.435</ele>
        <time>2022-05-29T12:40:19Z</time>
      </trkpt>
      <trkpt lat="45.09778" lon="5.55211">
        <ele>1072.986</ele>
        <time>2022-05-29T12:40:24Z</time>
      </trkpt>
      <trkpt lat="45.09793" lon="5.55212">
        <ele>1067.756</ele>
        <time>2022-05-29T12:40:29Z</time>
      </trkpt>
      <trkpt lat="45.09798" lon="5.55225">
        <ele>1066.372</ele>
        <time>2022-05-29T12:40:34Z</time>
      </trkpt>
      <trkpt lat="45.09797" lon="5.55226">
        <ele>1065.957</ele>
        <time>2022-05-29T12:40:39Z</time>
      </trkpt>
      <trkpt lat="45.09797" lon="5.55227">
        <ele>1066.932</ele>
        <time>2022-05-29T12:40:44Z</time>
      </trkpt>
      <trkpt lat="45.09797" lon="5.55227">
        <ele>1067.243</ele>
        <time>2022-05-29T12:40:49Z</time>
      </trkpt>
      <trkpt lat="45.09797" lon="5.55227">
        <ele>1067.263</ele>
        <time>2022-05-29T12:40:54Z</time>
      </trkpt>
      <trkpt lat="45.09797" lon="5.55227">
        <ele>1067.262</ele>
        <time>2022-05-29T12:40:59Z</time>
      </trkpt>
      <trkpt lat="45.09797" lon="5.55227">
        <ele>1067.204</ele>
        <time>2022-05-29T12:41:04Z</time>
      </trkpt>
      <trkpt lat="45.09797" lon="5.55227">
        <ele>1067.27</ele>
        <time>2022-05-29T12:41:09Z</time>
      </trkpt>
      <trkpt lat="45.09797" lon="5.55227">
        <ele>1067.255</ele>
        <time>2022-05-29T12:41:14Z</time>
      </trkpt>
      <trkpt lat="45.09797" lon="5.55227">
        <ele>1067.249</ele>
        <time>2022-05-29T12:41:19Z</time>
      </trkpt>
      <trkpt lat="45.09797" lon="5.55227">
        <ele>1067.251</ele>
        <time>2022-05-29T12:41:24Z</time>
      </trkpt>
      <trkpt lat="45.09797" lon="5.55227">
        <ele>1067.261</ele>
        <time>2022-05-29T12:41:29Z</time>
      </trkpt>
      <trkpt lat="45.09797" lon="5.55227">
        <ele>1067.279</ele>
        <time>2022-05-29T12:41:34Z</time>
      </trkpt>
      <trkpt lat="45.09797" lon="5.55228">
        <ele>1064.382</ele>
        <time>2022-05-29T12:41:39Z</time>
      </trkpt>
      <trkpt lat="45.09809" lon="5.55235">
        <ele>1059.022</ele>
        <time>2022-05-29T12:41:44Z</time>
      </trkpt>
      <trkpt lat="45.09809" lon="5.55248">
        <ele>1056.594</ele>
        <time>2022-05-29T12:41:49Z</time>
      </trkpt>
      <trkpt lat="45.09798" lon="5.55263">
        <ele>1057.533</ele>
        <time>2022-05-29T12:41:54Z</time>
      </trkpt>
      <trkpt lat="45.09799" lon="5.55281">
        <ele>1052.465</ele>
        <time>2022-05-29T12:41:59Z</time>
      </trkpt>
      <trkpt lat="45.09795" lon="5.553">
        <ele>1051.529</ele>
        <time>2022-05-29T12:42:04Z</time>
      </trkpt>
      <trkpt lat="45.09785" lon="5.55327">
        <ele>1046.09</ele>
        <time>2022-05-29T12:42:09Z</time>
      </trkpt>
      <trkpt lat="45.09784" lon="5.55352">
        <ele>1040.992</ele>
        <time>2022-05-29T12:42:14Z</time>
      </trkpt>
      <trkpt lat="45.09784" lon="5.55388">
        <ele>1036.207</ele>
        <time>2022-05-29T12:42:19Z</time>
      </trkpt>
      <trkpt lat="45.09787" lon="5.55399">
        <ele>1034.282</ele>
        <time>2022-05-29T12:42:24Z</time>
      </trkpt>
      <trkpt lat="45.09796" lon="5.55415">
        <ele>1028.632</ele>
        <time>2022-05-29T12:42:29Z</time>
      </trkpt>
      <trkpt lat="45.0981" lon="5.55439">
        <ele>1023.611</ele>
        <time>2022-05-29T12:42:34Z</time>
      </trkpt>
      <trkpt lat="45.09819" lon="5.55446">
        <ele>1023.099</ele>
        <time>2022-05-29T12:42:39Z</time>
      </trkpt>
      <trkpt lat="45.09828" lon="5.55445">
        <ele>1021.979</ele>
        <time>2022-05-29T12:42:44Z</time>
      </trkpt>
      <trkpt lat="45.09839" lon="5.55447">
        <ele>1021.488</ele>
        <time>2022-05-29T12:42:49Z</time>
      </trkpt>
      <trkpt lat="45.09839" lon="5.55447">
        <ele>1021.693</ele>
        <time>2022-05-29T12:42:54Z</time>
      </trkpt>
      <trkpt lat="45.09839" lon="5.55446">
        <ele>1021.735</ele>
        <time>2022-05-29T12:42:59Z</time>
      </trkpt>
      <trkpt lat="45.09839" lon="5.55446">
        <ele>1021.771</ele>
        <time>2022-05-29T12:43:04Z</time>
      </trkpt>
      <trkpt lat="45.09839" lon="5.55446">
        <ele>1021.781</ele>
        <time>2022-05-29T12:43:09Z</time>
      </trkpt>
      <trkpt lat="45.09839" lon="5.55447">
        <ele>1021.782</ele>
        <time>2022-05-29T12:43:14Z</time>
      </trkpt>
      <trkpt lat="45.09839" lon="5.55447">
        <ele>1021.78</ele>
        <time>2022-05-29T12:43:19Z</time>
      </trkpt>
      <trkpt lat="45.09839" lon="5.55447">
        <ele>1021.776</ele>
        <time>2022-05-29T12:43:24Z</time>
      </trkpt>
      <trkpt lat="45.09839" lon="5.55447">
        <ele>1021.781</ele>
        <time>2022-05-29T12:43:29Z</time>
      </trkpt>
      <trkpt lat="45.09839" lon="5.55447">
        <ele>1021.801</ele>
        <time>2022-05-29T12:43:34Z</time>
      </trkpt>
      <trkpt lat="45.09839" lon="5.55447">
        <ele>1021.824</ele>
        <time>2022-05-29T12:43:39Z</time>
      </trkpt>
      <trkpt lat="45.09839" lon="5.55447">
        <ele>1021.843</ele>
        <time>2022-05-29T12:43:44Z</time>
      </trkpt>
      <trkpt lat="45.09839" lon="5.55447">
        <ele>1021.857</ele>
        <time>2022-05-29T12:43:49Z</time>
      </trkpt>
      <trkpt lat="45.09839" lon="5.55447">
        <ele>1021.863</ele>
        <time>2022-05-29T12:43:54Z</time>
      </trkpt>
      <trkpt lat="45.09839" lon="5.55447">
        <ele>1021.871</ele>
        <time>2022-05-29T12:43:59Z</time>
      </trkpt>
      <trkpt lat="45.09839" lon="5.55447">
        <ele>1021.884</ele>
        <time>2022-05-29T12:44:04Z</time>
      </trkpt>
      <trkpt lat="45.09839" lon="5.55447">
        <ele>1021.899</ele>
        <time>2022-05-29T12:44:09Z</time>
      </trkpt>
      <trkpt lat="45.09839" lon="5.55447">
        <ele>1021.914</ele>
        <time>2022-05-29T12:44:14Z</time>
      </trkpt>
      <trkpt lat="45.09839" lon="5.55447">
        <ele>1021.928</ele>
        <time>2022-05-29T12:44:19Z</time>
      </trkpt>
      <trkpt lat="45.09839" lon="5.55447">
        <ele>1021.938</ele>
        <time>2022-05-29T12:44:24Z</time>
      </trkpt>
      <trkpt lat="45.0984" lon="5.55447">
        <ele>1021.943</ele>
        <time>2022-05-29T12:44:29Z</time>
      </trkpt>
      <trkpt lat="45.0984" lon="5.55447">
        <ele>1021.96</ele>
        <time>2022-05-29T12:44:34Z</time>
      </trkpt>
      <trkpt lat="45.0984" lon="5.55447">
        <ele>1021.971</ele>
        <time>2022-05-29T12:44:39Z</time>
      </trkpt>
      <trkpt lat="45.0984" lon="5.55447">
        <ele>1021.977</ele>
        <time>2022-05-29T12:44:44Z</time>
      </trkpt>
      <trkpt lat="45.0984" lon="5.55447">
        <ele>1021.988</ele>
        <time>2022-05-29T12:44:49Z</time>
      </trkpt>
      <trkpt lat="45.0984" lon="5.55447">
        <ele>1021.992</ele>
        <time>2022-05-29T12:44:54Z</time>
      </trkpt>
      <trkpt lat="45.0984" lon="5.55447">
        <ele>1021.998</ele>
        <time>2022-05-29T12:44:59Z</time>
      </trkpt>
      <trkpt lat="45.0984" lon="5.55447">
        <ele>1022.01</ele>
        <time>2022-05-29T12:45:04Z</time>
      </trkpt>
      <trkpt lat="45.0984" lon="5.55447">
        <ele>1022.016</ele>
        <time>2022-05-29T12:45:09Z</time>
      </trkpt>
      <trkpt lat="45.0984" lon="5.55447">
        <ele>1022.02</ele>
        <time>2022-05-29T12:45:14Z</time>
      </trkpt>
      <trkpt lat="45.0984" lon="5.55447">
        <ele>1023.399</ele>
        <time>2022-05-29T12:45:19Z</time>
      </trkpt>
      <trkpt lat="45.0984" lon="5.55447">
        <ele>1023.396</ele>
        <time>2022-05-29T12:45:24Z</time>
      </trkpt>
      <trkpt lat="45.0984" lon="5.55447">
        <ele>1023.078</ele>
        <time>2022-05-29T12:45:29Z</time>
      </trkpt>
      <trkpt lat="45.0984" lon="5.55447">
        <ele>1022.908</ele>
        <time>2022-05-29T12:45:34Z</time>
      </trkpt>
      <trkpt lat="45.09839" lon="5.55447">
        <ele>1021.931</ele>
        <time>2022-05-29T12:45:39Z</time>
      </trkpt>
      <trkpt lat="45.09839" lon="5.55448">
        <ele>1021.21</ele>
        <time>2022-05-29T12:45:44Z</time>
      </trkpt>
      <trkpt lat="45.09839" lon="5.55448">
        <ele>1021.238</ele>
        <time>2022-05-29T12:45:49Z</time>
      </trkpt>
      <trkpt lat="45.09841" lon="5.55445">
        <ele>1021.175</ele>
        <time>2022-05-29T12:45:54Z</time>
      </trkpt>
      <trkpt lat="45.09842" lon="5.55443">
        <ele>1022.044</ele>
        <time>2022-05-29T12:45:59Z</time>
      </trkpt>
      <trkpt lat="45.09843" lon="5.55443">
        <ele>1022.909</ele>
        <time>2022-05-29T12:46:04Z</time>
      </trkpt>
      <trkpt lat="45.09843" lon="5.55443">
        <ele>1023.416</ele>
        <time>2022-05-29T12:46:09Z</time>
      </trkpt>
      <trkpt lat="45.09842" lon="5.55442">
        <ele>1022.561</ele>
        <time>2022-05-29T12:46:14Z</time>
      </trkpt>
      <trkpt lat="45.09846" lon="5.55444">
        <ele>1021.868</ele>
        <time>2022-05-29T12:46:19Z</time>
      </trkpt>
      <trkpt lat="45.09855" lon="5.55465">
        <ele>1020.732</ele>
        <time>2022-05-29T12:46:24Z</time>
      </trkpt>
      <trkpt lat="45.09865" lon="5.55493">
        <ele>1020.011</ele>
        <time>2022-05-29T12:46:29Z</time>
      </trkpt>
      <trkpt lat="45.09871" lon="5.55523">
        <ele>1020.316</ele>
        <time>2022-05-29T12:46:34Z</time>
      </trkpt>
      <trkpt lat="45.09871" lon="5.55559">
        <ele>1020.374</ele>
        <time>2022-05-29T12:46:39Z</time>
      </trkpt>
      <trkpt lat="45.0987" lon="5.55599">
        <ele>1019.576</ele>
        <time>2022-05-29T12:46:44Z</time>
      </trkpt>
      <trkpt lat="45.09865" lon="5.5564">
        <ele>1016.544</ele>
        <time>2022-05-29T12:46:49Z</time>
      </trkpt>
      <trkpt lat="45.09878" lon="5.55672">
        <ele>1011.139</ele>
        <time>2022-05-29T12:46:54Z</time>
      </trkpt>
      <trkpt lat="45.09867" lon="5.5571">
        <ele>1006.203</ele>
        <time>2022-05-29T12:46:59Z</time>
      </trkpt>
      <trkpt lat="45.09839" lon="5.55731">
        <ele>1002.438</ele>
        <time>2022-05-29T12:47:04Z</time>
      </trkpt>
      <trkpt lat="45.09835" lon="5.55762">
        <ele>997.321</ele>
        <time>2022-05-29T12:47:09Z</time>
      </trkpt>
      <trkpt lat="45.09854" lon="5.55787">
        <ele>993.308</ele>
        <time>2022-05-29T12:47:14Z</time>
      </trkpt>
      <trkpt lat="45.09872" lon="5.55805">
        <ele>990.954</ele>
        <time>2022-05-29T12:47:19Z</time>
      </trkpt>
      <trkpt lat="45.09894" lon="5.55824">
        <ele>988.622</ele>
        <time>2022-05-29T12:47:24Z</time>
      </trkpt>
      <trkpt lat="45.09921" lon="5.55842">
        <ele>986.649</ele>
        <time>2022-05-29T12:47:29Z</time>
      </trkpt>
      <trkpt lat="45.09946" lon="5.55866">
        <ele>985.533</ele>
        <time>2022-05-29T12:47:34Z</time>
      </trkpt>
      <trkpt lat="45.09969" lon="5.55893">
        <ele>984.688</ele>
        <time>2022-05-29T12:47:39Z</time>
      </trkpt>
      <trkpt lat="45.09989" lon="5.55921">
        <ele>984.661</ele>
        <time>2022-05-29T12:47:44Z</time>
      </trkpt>
      <trkpt lat="45.10009" lon="5.55946">
        <ele>984.113</ele>
        <time>2022-05-29T12:47:49Z</time>
      </trkpt>
      <trkpt lat="45.10028" lon="5.55972">
        <ele>984.146</ele>
        <time>2022-05-29T12:47:54Z</time>
      </trkpt>
      <trkpt lat="45.10047" lon="5.55994">
        <ele>983.575</ele>
        <time>2022-05-29T12:47:59Z</time>
      </trkpt>
      <trkpt lat="45.10051" lon="5.56034">
        <ele>982.794</ele>
        <time>2022-05-29T12:48:04Z</time>
      </trkpt>
      <trkpt lat="45.1006" lon="5.5607">
        <ele>983.49</ele>
        <time>2022-05-29T12:48:09Z</time>
      </trkpt>
      <trkpt lat="45.10067" lon="5.56102">
        <ele>984.282</ele>
        <time>2022-05-29T12:48:14Z</time>
      </trkpt>
      <trkpt lat="45.10069" lon="5.56131">
        <ele>985.724</ele>
        <time>2022-05-29T12:48:19Z</time>
      </trkpt>
      <trkpt lat="45.10071" lon="5.56158">
        <ele>986.439</ele>
        <time>2022-05-29T12:48:24Z</time>
      </trkpt>
      <trkpt lat="45.10077" lon="5.56187">
        <ele>985.636</ele>
        <time>2022-05-29T12:48:29Z</time>
      </trkpt>
      <trkpt lat="45.10089" lon="5.56218">
        <ele>986.483</ele>
        <time>2022-05-29T12:48:34Z</time>
      </trkpt>
      <trkpt lat="45.10097" lon="5.56245">
        <ele>987.111</ele>
        <time>2022-05-29T12:48:39Z</time>
      </trkpt>
      <trkpt lat="45.101" lon="5.56272">
        <ele>988.179</ele>
        <time>2022-05-29T12:48:44Z</time>
      </trkpt>
      <trkpt lat="45.10099" lon="5.56293">
        <ele>988.892</ele>
        <time>2022-05-29T12:48:49Z</time>
      </trkpt>
      <trkpt lat="45.10099" lon="5.5631">
        <ele>989.336</ele>
        <time>2022-05-29T12:48:54Z</time>
      </trkpt>
      <trkpt lat="45.10108" lon="5.56322">
        <ele>989.673</ele>
        <time>2022-05-29T12:48:59Z</time>
      </trkpt>
      <trkpt lat="45.10119" lon="5.56329">
        <ele>989.375</ele>
        <time>2022-05-29T12:49:04Z</time>
      </trkpt>
      <trkpt lat="45.10129" lon="5.56338">
        <ele>989.036</ele>
        <time>2022-05-29T12:49:09Z</time>
      </trkpt>
      <trkpt lat="45.10141" lon="5.56347">
        <ele>988.914</ele>
        <time>2022-05-29T12:49:14Z</time>
      </trkpt>
      <trkpt lat="45.10153" lon="5.56357">
        <ele>989.489</ele>
        <time>2022-05-29T12:49:19Z</time>
      </trkpt>
      <trkpt lat="45.10165" lon="5.56368">
        <ele>990.546</ele>
        <time>2022-05-29T12:49:24Z</time>
      </trkpt>
      <trkpt lat="45.10177" lon="5.56379">
        <ele>990.235</ele>
        <time>2022-05-29T12:49:29Z</time>
      </trkpt>
      <trkpt lat="45.10188" lon="5.56388">
        <ele>990.79</ele>
        <time>2022-05-29T12:49:34Z</time>
      </trkpt>
      <trkpt lat="45.102" lon="5.564">
        <ele>990.511</ele>
        <time>2022-05-29T12:49:39Z</time>
      </trkpt>
      <trkpt lat="45.10213" lon="5.56412">
        <ele>989.603</ele>
        <time>2022-05-29T12:49:44Z</time>
      </trkpt>
      <trkpt lat="45.10228" lon="5.56422">
        <ele>990.824</ele>
        <time>2022-05-29T12:49:49Z</time>
      </trkpt>
      <trkpt lat="45.10243" lon="5.56435">
        <ele>990.347</ele>
        <time>2022-05-29T12:49:54Z</time>
      </trkpt>
      <trkpt lat="45.10258" lon="5.56449">
        <ele>990.124</ele>
        <time>2022-05-29T12:49:59Z</time>
      </trkpt>
      <trkpt lat="45.10273" lon="5.56462">
        <ele>990.069</ele>
        <time>2022-05-29T12:50:04Z</time>
      </trkpt>
      <trkpt lat="45.10288" lon="5.56475">
        <ele>990.726</ele>
        <time>2022-05-29T12:50:09Z</time>
      </trkpt>
      <trkpt lat="45.10304" lon="5.5649">
        <ele>990.818</ele>
        <time>2022-05-29T12:50:14Z</time>
      </trkpt>
      <trkpt lat="45.10322" lon="5.56507">
        <ele>990.115</ele>
        <time>2022-05-29T12:50:19Z</time>
      </trkpt>
      <trkpt lat="45.10342" lon="5.56524">
        <ele>990.559</ele>
        <time>2022-05-29T12:50:24Z</time>
      </trkpt>
      <trkpt lat="45.10361" lon="5.56543">
        <ele>989.327</ele>
        <time>2022-05-29T12:50:29Z</time>
      </trkpt>
      <trkpt lat="45.10382" lon="5.56561">
        <ele>988.729</ele>
        <time>2022-05-29T12:50:34Z</time>
      </trkpt>
      <trkpt lat="45.10401" lon="5.56579">
        <ele>988.707</ele>
        <time>2022-05-29T12:50:39Z</time>
      </trkpt>
      <trkpt lat="45.1042" lon="5.56596">
        <ele>988.367</ele>
        <time>2022-05-29T12:50:44Z</time>
      </trkpt>
      <trkpt lat="45.10437" lon="5.56609">
        <ele>990.724</ele>
        <time>2022-05-29T12:50:49Z</time>
      </trkpt>
      <trkpt lat="45.10457" lon="5.56625">
        <ele>992.133</ele>
        <time>2022-05-29T12:50:54Z</time>
      </trkpt>
      <trkpt lat="45.10476" lon="5.56646">
        <ele>992.853</ele>
        <time>2022-05-29T12:50:59Z</time>
      </trkpt>
      <trkpt lat="45.10493" lon="5.56668">
        <ele>991.117</ele>
        <time>2022-05-29T12:51:04Z</time>
      </trkpt>
      <trkpt lat="45.10511" lon="5.56686">
        <ele>990.767</ele>
        <time>2022-05-29T12:51:09Z</time>
      </trkpt>
      <trkpt lat="45.10527" lon="5.56705">
        <ele>989.861</ele>
        <time>2022-05-29T12:51:14Z</time>
      </trkpt>
      <trkpt lat="45.10543" lon="5.56723">
        <ele>989.852</ele>
        <time>2022-05-29T12:51:19Z</time>
      </trkpt>
      <trkpt lat="45.1056" lon="5.56742">
        <ele>991.416</ele>
        <time>2022-05-29T12:51:24Z</time>
      </trkpt>
      <trkpt lat="45.10575" lon="5.56761">
        <ele>989.384</ele>
        <time>2022-05-29T12:51:29Z</time>
      </trkpt>
      <trkpt lat="45.10594" lon="5.56781">
        <ele>990.475</ele>
        <time>2022-05-29T12:51:34Z</time>
      </trkpt>
      <trkpt lat="45.10611" lon="5.56801">
        <ele>990.488</ele>
        <time>2022-05-29T12:51:39Z</time>
      </trkpt>
      <trkpt lat="45.10629" lon="5.56821">
        <ele>991.415</ele>
        <time>2022-05-29T12:51:44Z</time>
      </trkpt>
      <trkpt lat="45.10646" lon="5.56842">
        <ele>992.194</ele>
        <time>2022-05-29T12:51:49Z</time>
      </trkpt>
      <trkpt lat="45.1066" lon="5.56861">
        <ele>990.841</ele>
        <time>2022-05-29T12:51:54Z</time>
      </trkpt>
      <trkpt lat="45.10677" lon="5.56881">
        <ele>990.173</ele>
        <time>2022-05-29T12:51:59Z</time>
      </trkpt>
      <trkpt lat="45.10693" lon="5.56899">
        <ele>989.422</ele>
        <time>2022-05-29T12:52:04Z</time>
      </trkpt>
      <trkpt lat="45.1071" lon="5.56919">
        <ele>989.144</ele>
        <time>2022-05-29T12:52:09Z</time>
      </trkpt>
      <trkpt lat="45.10726" lon="5.56938">
        <ele>989.158</ele>
        <time>2022-05-29T12:52:14Z</time>
      </trkpt>
      <trkpt lat="45.10741" lon="5.56956">
        <ele>989.41</ele>
        <time>2022-05-29T12:52:19Z</time>
      </trkpt>
      <trkpt lat="45.10757" lon="5.56973">
        <ele>989.551</ele>
        <time>2022-05-29T12:52:24Z</time>
      </trkpt>
      <trkpt lat="45.10772" lon="5.56989">
        <ele>989.704</ele>
        <time>2022-05-29T12:52:29Z</time>
      </trkpt>
      <trkpt lat="45.10787" lon="5.57008">
        <ele>990.189</ele>
        <time>2022-05-29T12:52:34Z</time>
      </trkpt>
      <trkpt lat="45.10802" lon="5.57025">
        <ele>990.386</ele>
        <time>2022-05-29T12:52:39Z</time>
      </trkpt>
      <trkpt lat="45.10817" lon="5.57043">
        <ele>989.881</ele>
        <time>2022-05-29T12:52:44Z</time>
      </trkpt>
      <trkpt lat="45.10833" lon="5.5706">
        <ele>989.738</ele>
        <time>2022-05-29T12:52:49Z</time>
      </trkpt>
      <trkpt lat="45.10848" lon="5.57078">
        <ele>989.699</ele>
        <time>2022-05-29T12:52:54Z</time>
      </trkpt>
      <trkpt lat="45.10864" lon="5.57097">
        <ele>989.736</ele>
        <time>2022-05-29T12:52:59Z</time>
      </trkpt>
      <trkpt lat="45.1088" lon="5.57115">
        <ele>989.599</ele>
        <time>2022-05-29T12:53:04Z</time>
      </trkpt>
      <trkpt lat="45.10896" lon="5.57134">
        <ele>989.558</ele>
        <time>2022-05-29T12:53:09Z</time>
      </trkpt>
      <trkpt lat="45.1091" lon="5.5715">
        <ele>990.569</ele>
        <time>2022-05-29T12:53:14Z</time>
      </trkpt>
      <trkpt lat="45.10927" lon="5.57168">
        <ele>990.037</ele>
        <time>2022-05-29T12:53:19Z</time>
      </trkpt>
      <trkpt lat="45.10943" lon="5.57187">
        <ele>990.244</ele>
        <time>2022-05-29T12:53:24Z</time>
      </trkpt>
      <trkpt lat="45.10959" lon="5.57205">
        <ele>990.337</ele>
        <time>2022-05-29T12:53:29Z</time>
      </trkpt>
      <trkpt lat="45.10975" lon="5.57222">
        <ele>990.346</ele>
        <time>2022-05-29T12:53:34Z</time>
      </trkpt>
      <trkpt lat="45.10988" lon="5.57241">
        <ele>990.689</ele>
        <time>2022-05-29T12:53:39Z</time>
      </trkpt>
      <trkpt lat="45.11003" lon="5.57257">
        <ele>991.245</ele>
        <time>2022-05-29T12:53:44Z</time>
      </trkpt>
      <trkpt lat="45.11018" lon="5.57274">
        <ele>991.134</ele>
        <time>2022-05-29T12:53:49Z</time>
      </trkpt>
      <trkpt lat="45.11033" lon="5.57291">
        <ele>991.32</ele>
        <time>2022-05-29T12:53:54Z</time>
      </trkpt>
      <trkpt lat="45.11048" lon="5.57308">
        <ele>991.639</ele>
        <time>2022-05-29T12:53:59Z</time>
      </trkpt>
      <trkpt lat="45.11063" lon="5.57325">
        <ele>991.248</ele>
        <time>2022-05-29T12:54:04Z</time>
      </trkpt>
      <trkpt lat="45.11078" lon="5.57342">
        <ele>991.848</ele>
        <time>2022-05-29T12:54:09Z</time>
      </trkpt>
      <trkpt lat="45.11094" lon="5.5736">
        <ele>991.98</ele>
        <time>2022-05-29T12:54:14Z</time>
      </trkpt>
      <trkpt lat="45.1111" lon="5.57378">
        <ele>992.164</ele>
        <time>2022-05-29T12:54:19Z</time>
      </trkpt>
      <trkpt lat="45.11126" lon="5.57393">
        <ele>992.409</ele>
        <time>2022-05-29T12:54:24Z</time>
      </trkpt>
      <trkpt lat="45.11142" lon="5.57408">
        <ele>992.651</ele>
        <time>2022-05-29T12:54:29Z</time>
      </trkpt>
      <trkpt lat="45.1116" lon="5.57421">
        <ele>992.6</ele>
        <time>2022-05-29T12:54:34Z</time>
      </trkpt>
      <trkpt lat="45.11178" lon="5.57434">
        <ele>993.019</ele>
        <time>2022-05-29T12:54:39Z</time>
      </trkpt>
      <trkpt lat="45.11197" lon="5.57448">
        <ele>992.685</ele>
        <time>2022-05-29T12:54:44Z</time>
      </trkpt>
      <trkpt lat="45.11216" lon="5.57461">
        <ele>992.776</ele>
        <time>2022-05-29T12:54:49Z</time>
      </trkpt>
      <trkpt lat="45.11236" lon="5.57475">
        <ele>992.611</ele>
        <time>2022-05-29T12:54:54Z</time>
      </trkpt>
      <trkpt lat="45.11256" lon="5.57489">
        <ele>992.554</ele>
        <time>2022-05-29T12:54:59Z</time>
      </trkpt>
      <trkpt lat="45.11276" lon="5.57503">
        <ele>992.766</ele>
        <time>2022-05-29T12:55:04Z</time>
      </trkpt>
      <trkpt lat="45.11295" lon="5.57516">
        <ele>992.868</ele>
        <time>2022-05-29T12:55:09Z</time>
      </trkpt>
      <trkpt lat="45.11314" lon="5.57529">
        <ele>993.088</ele>
        <time>2022-05-29T12:55:14Z</time>
      </trkpt>
      <trkpt lat="45.11333" lon="5.57542">
        <ele>992.51</ele>
        <time>2022-05-29T12:55:19Z</time>
      </trkpt>
      <trkpt lat="45.11352" lon="5.57556">
        <ele>993.257</ele>
        <time>2022-05-29T12:55:24Z</time>
      </trkpt>
      <trkpt lat="45.11371" lon="5.57569">
        <ele>993.648</ele>
        <time>2022-05-29T12:55:29Z</time>
      </trkpt>
      <trkpt lat="45.1139" lon="5.57582">
        <ele>993.399</ele>
        <time>2022-05-29T12:55:34Z</time>
      </trkpt>
      <trkpt lat="45.11408" lon="5.57595">
        <ele>993.317</ele>
        <time>2022-05-29T12:55:39Z</time>
      </trkpt>
      <trkpt lat="45.11427" lon="5.57607">
        <ele>993.761</ele>
        <time>2022-05-29T12:55:44Z</time>
      </trkpt>
      <trkpt lat="45.11446" lon="5.5762">
        <ele>993.944</ele>
        <time>2022-05-29T12:55:49Z</time>
      </trkpt>
      <trkpt lat="45.11464" lon="5.57632">
        <ele>993.972</ele>
        <time>2022-05-29T12:55:54Z</time>
      </trkpt>
      <trkpt lat="45.11481" lon="5.57645">
        <ele>993.989</ele>
        <time>2022-05-29T12:55:59Z</time>
      </trkpt>
      <trkpt lat="45.115" lon="5.57658">
        <ele>993.992</ele>
        <time>2022-05-29T12:56:04Z</time>
      </trkpt>
      <trkpt lat="45.11518" lon="5.5767">
        <ele>993.82</ele>
        <time>2022-05-29T12:56:09Z</time>
      </trkpt>
      <trkpt lat="45.11536" lon="5.57683">
        <ele>993.966</ele>
        <time>2022-05-29T12:56:14Z</time>
      </trkpt>
      <trkpt lat="45.11554" lon="5.57695">
        <ele>994.255</ele>
        <time>2022-05-29T12:56:19Z</time>
      </trkpt>
      <trkpt lat="45.11573" lon="5.57708">
        <ele>993.997</ele>
        <time>2022-05-29T12:56:24Z</time>
      </trkpt>
      <trkpt lat="45.11592" lon="5.5772">
        <ele>993.996</ele>
        <time>2022-05-29T12:56:29Z</time>
      </trkpt>
      <trkpt lat="45.1161" lon="5.57733">
        <ele>993.813</ele>
        <time>2022-05-29T12:56:34Z</time>
      </trkpt>
      <trkpt lat="45.11629" lon="5.57746">
        <ele>994.362</ele>
        <time>2022-05-29T12:56:39Z</time>
      </trkpt>
      <trkpt lat="45.11647" lon="5.57759">
        <ele>994.397</ele>
        <time>2022-05-29T12:56:44Z</time>
      </trkpt>
      <trkpt lat="45.11666" lon="5.57773">
        <ele>994.147</ele>
        <time>2022-05-29T12:56:49Z</time>
      </trkpt>
      <trkpt lat="45.11686" lon="5.57787">
        <ele>994.464</ele>
        <time>2022-05-29T12:56:54Z</time>
      </trkpt>
      <trkpt lat="45.11706" lon="5.578">
        <ele>994.921</ele>
        <time>2022-05-29T12:56:59Z</time>
      </trkpt>
      <trkpt lat="45.11725" lon="5.57814">
        <ele>995.218</ele>
        <time>2022-05-29T12:57:04Z</time>
      </trkpt>
      <trkpt lat="45.11744" lon="5.57827">
        <ele>995.23</ele>
        <time>2022-05-29T12:57:09Z</time>
      </trkpt>
      <trkpt lat="45.11763" lon="5.5784">
        <ele>995.239</ele>
        <time>2022-05-29T12:57:14Z</time>
      </trkpt>
      <trkpt lat="45.11779" lon="5.57851">
        <ele>995.409</ele>
        <time>2022-05-29T12:57:19Z</time>
      </trkpt>
      <trkpt lat="45.11797" lon="5.57864">
        <ele>995.967</ele>
        <time>2022-05-29T12:57:24Z</time>
      </trkpt>
      <trkpt lat="45.11816" lon="5.57877">
        <ele>995.625</ele>
        <time>2022-05-29T12:57:29Z</time>
      </trkpt>
      <trkpt lat="45.11834" lon="5.57889">
        <ele>995.586</ele>
        <time>2022-05-29T12:57:34Z</time>
      </trkpt>
      <trkpt lat="45.11852" lon="5.57902">
        <ele>995.793</ele>
        <time>2022-05-29T12:57:39Z</time>
      </trkpt>
      <trkpt lat="45.1187" lon="5.57914">
        <ele>996.26</ele>
        <time>2022-05-29T12:57:44Z</time>
      </trkpt>
      <trkpt lat="45.11886" lon="5.57925">
        <ele>996.214</ele>
        <time>2022-05-29T12:57:49Z</time>
      </trkpt>
      <trkpt lat="45.11903" lon="5.57937">
        <ele>996.948</ele>
        <time>2022-05-29T12:57:54Z</time>
      </trkpt>
      <trkpt lat="45.11919" lon="5.57948">
        <ele>997.188</ele>
        <time>2022-05-29T12:57:59Z</time>
      </trkpt>
      <trkpt lat="45.11936" lon="5.5796">
        <ele>997.892</ele>
        <time>2022-05-29T12:58:04Z</time>
      </trkpt>
      <trkpt lat="45.11953" lon="5.57972">
        <ele>997.732</ele>
        <time>2022-05-29T12:58:09Z</time>
      </trkpt>
      <trkpt lat="45.1197" lon="5.57985">
        <ele>998.133</ele>
        <time>2022-05-29T12:58:14Z</time>
      </trkpt>
      <trkpt lat="45.11988" lon="5.57997">
        <ele>997.912</ele>
        <time>2022-05-29T12:58:19Z</time>
      </trkpt>
      <trkpt lat="45.12006" lon="5.58007">
        <ele>998.197</ele>
        <time>2022-05-29T12:58:24Z</time>
      </trkpt>
      <trkpt lat="45.12023" lon="5.58017">
        <ele>998.787</ele>
        <time>2022-05-29T12:58:29Z</time>
      </trkpt>
      <trkpt lat="45.1204" lon="5.58025">
        <ele>998.506</ele>
        <time>2022-05-29T12:58:34Z</time>
      </trkpt>
      <trkpt lat="45.12059" lon="5.58033">
        <ele>998.957</ele>
        <time>2022-05-29T12:58:39Z</time>
      </trkpt>
      <trkpt lat="45.12077" lon="5.5804">
        <ele>998.827</ele>
        <time>2022-05-29T12:58:44Z</time>
      </trkpt>
      <trkpt lat="45.12096" lon="5.58046">
        <ele>999.882</ele>
        <time>2022-05-29T12:58:49Z</time>
      </trkpt>
      <trkpt lat="45.12115" lon="5.58052">
        <ele>1000.162</ele>
        <time>2022-05-29T12:58:54Z</time>
      </trkpt>
      <trkpt lat="45.12134" lon="5.58059">
        <ele>1001.275</ele>
        <time>2022-05-29T12:58:59Z</time>
      </trkpt>
      <trkpt lat="45.12154" lon="5.58065">
        <ele>1001.233</ele>
        <time>2022-05-29T12:59:04Z</time>
      </trkpt>
      <trkpt lat="45.12173" lon="5.58072">
        <ele>1001.44</ele>
        <time>2022-05-29T12:59:09Z</time>
      </trkpt>
      <trkpt lat="45.12193" lon="5.58079">
        <ele>1001.358</ele>
        <time>2022-05-29T12:59:14Z</time>
      </trkpt>
      <trkpt lat="45.12213" lon="5.58085">
        <ele>1001.425</ele>
        <time>2022-05-29T12:59:19Z</time>
      </trkpt>
      <trkpt lat="45.12233" lon="5.58092">
        <ele>1001.408</ele>
        <time>2022-05-29T12:59:24Z</time>
      </trkpt>
      <trkpt lat="45.12253" lon="5.58098">
        <ele>1000.894</ele>
        <time>2022-05-29T12:59:29Z</time>
      </trkpt>
      <trkpt lat="45.12274" lon="5.58105">
        <ele>1000.893</ele>
        <time>2022-05-29T12:59:34Z</time>
      </trkpt>
      <trkpt lat="45.12296" lon="5.5811">
        <ele>1001.256</ele>
        <time>2022-05-29T12:59:39Z</time>
      </trkpt>
      <trkpt lat="45.12317" lon="5.58119">
        <ele>1000.722</ele>
        <time>2022-05-29T12:59:44Z</time>
      </trkpt>
      <trkpt lat="45.1234" lon="5.58127">
        <ele>1000.929</ele>
        <time>2022-05-29T12:59:49Z</time>
      </trkpt>
      <trkpt lat="45.12363" lon="5.58135">
        <ele>1000.864</ele>
        <time>2022-05-29T12:59:54Z</time>
      </trkpt>
      <trkpt lat="45.12387" lon="5.58143">
        <ele>1002.166</ele>
        <time>2022-05-29T12:59:59Z</time>
      </trkpt>
      <trkpt lat="45.12409" lon="5.5815">
        <ele>1001.903</ele>
        <time>2022-05-29T13:00:04Z</time>
      </trkpt>
      <trkpt lat="45.12431" lon="5.58157">
        <ele>1002.174</ele>
        <time>2022-05-29T13:00:09Z</time>
      </trkpt>
      <trkpt lat="45.12452" lon="5.58165">
        <ele>1002.508</ele>
        <time>2022-05-29T13:00:14Z</time>
      </trkpt>
      <trkpt lat="45.12473" lon="5.58172">
        <ele>1003.22</ele>
        <time>2022-05-29T13:00:19Z</time>
      </trkpt>
      <trkpt lat="45.12494" lon="5.58178">
        <ele>1003.307</ele>
        <time>2022-05-29T13:00:24Z</time>
      </trkpt>
      <trkpt lat="45.12515" lon="5.58185">
        <ele>1004.19</ele>
        <time>2022-05-29T13:00:29Z</time>
      </trkpt>
      <trkpt lat="45.12535" lon="5.58194">
        <ele>1004.383</ele>
        <time>2022-05-29T13:00:34Z</time>
      </trkpt>
      <trkpt lat="45.12556" lon="5.58201">
        <ele>1004.347</ele>
        <time>2022-05-29T13:00:39Z</time>
      </trkpt>
      <trkpt lat="45.12577" lon="5.58209">
        <ele>1004.193</ele>
        <time>2022-05-29T13:00:44Z</time>
      </trkpt>
      <trkpt lat="45.12597" lon="5.58215">
        <ele>1004.085</ele>
        <time>2022-05-29T13:00:49Z</time>
      </trkpt>
      <trkpt lat="45.12617" lon="5.58221">
        <ele>1003.851</ele>
        <time>2022-05-29T13:00:54Z</time>
      </trkpt>
      <trkpt lat="45.12637" lon="5.58228">
        <ele>1004.435</ele>
        <time>2022-05-29T13:00:59Z</time>
      </trkpt>
      <trkpt lat="45.12657" lon="5.58236">
        <ele>1004.797</ele>
        <time>2022-05-29T13:01:04Z</time>
      </trkpt>
      <trkpt lat="45.12677" lon="5.58242">
        <ele>1005.869</ele>
        <time>2022-05-29T13:01:09Z</time>
      </trkpt>
      <trkpt lat="45.12697" lon="5.58249">
        <ele>1005.827</ele>
        <time>2022-05-29T13:01:14Z</time>
      </trkpt>
      <trkpt lat="45.12718" lon="5.58255">
        <ele>1006.316</ele>
        <time>2022-05-29T13:01:19Z</time>
      </trkpt>
      <trkpt lat="45.12739" lon="5.58262">
        <ele>1005.663</ele>
        <time>2022-05-29T13:01:24Z</time>
      </trkpt>
      <trkpt lat="45.12761" lon="5.58268">
        <ele>1005.707</ele>
        <time>2022-05-29T13:01:29Z</time>
      </trkpt>
      <trkpt lat="45.12784" lon="5.58275">
        <ele>1005.305</ele>
        <time>2022-05-29T13:01:34Z</time>
      </trkpt>
      <trkpt lat="45.12806" lon="5.58281">
        <ele>1005.666</ele>
        <time>2022-05-29T13:01:39Z</time>
      </trkpt>
      <trkpt lat="45.12826" lon="5.58287">
        <ele>1006.261</ele>
        <time>2022-05-29T13:01:44Z</time>
      </trkpt>
      <trkpt lat="45.12847" lon="5.58291">
        <ele>1007.588</ele>
        <time>2022-05-29T13:01:49Z</time>
      </trkpt>
      <trkpt lat="45.12867" lon="5.58294">
        <ele>1008.097</ele>
        <time>2022-05-29T13:01:54Z</time>
      </trkpt>
      <trkpt lat="45.12888" lon="5.58298">
        <ele>1009.372</ele>
        <time>2022-05-29T13:01:59Z</time>
      </trkpt>
      <trkpt lat="45.1291" lon="5.58299">
        <ele>1009.755</ele>
        <time>2022-05-29T13:02:04Z</time>
      </trkpt>
      <trkpt lat="45.12931" lon="5.58304">
        <ele>1009.519</ele>
        <time>2022-05-29T13:02:09Z</time>
      </trkpt>
      <trkpt lat="45.12949" lon="5.58319">
        <ele>1007.852</ele>
        <time>2022-05-29T13:02:14Z</time>
      </trkpt>
      <trkpt lat="45.12965" lon="5.58332">
        <ele>1008.598</ele>
        <time>2022-05-29T13:02:19Z</time>
      </trkpt>
      <trkpt lat="45.12978" lon="5.58347">
        <ele>1007.779</ele>
        <time>2022-05-29T13:02:24Z</time>
      </trkpt>
      <trkpt lat="45.12969" lon="5.58369">
        <ele>1008.369</ele>
        <time>2022-05-29T13:02:29Z</time>
      </trkpt>
      <trkpt lat="45.12962" lon="5.5839">
        <ele>1009.675</ele>
        <time>2022-05-29T13:02:34Z</time>
      </trkpt>
      <trkpt lat="45.12956" lon="5.58412">
        <ele>1010.674</ele>
        <time>2022-05-29T13:02:39Z</time>
      </trkpt>
      <trkpt lat="45.12942" lon="5.58424">
        <ele>1012.198</ele>
        <time>2022-05-29T13:02:44Z</time>
      </trkpt>
      <trkpt lat="45.12928" lon="5.5844">
        <ele>1012.584</ele>
        <time>2022-05-29T13:02:49Z</time>
      </trkpt>
      <trkpt lat="45.12925" lon="5.58464">
        <ele>1012.14</ele>
        <time>2022-05-29T13:02:54Z</time>
      </trkpt>
      <trkpt lat="45.12923" lon="5.58487">
        <ele>1011.984</ele>
        <time>2022-05-29T13:02:59Z</time>
      </trkpt>
      <trkpt lat="45.12919" lon="5.58497">
        <ele>1012.029</ele>
        <time>2022-05-29T13:03:04Z</time>
      </trkpt>
      <trkpt lat="45.12917" lon="5.58497">
        <ele>1011.746</ele>
        <time>2022-05-29T13:03:09Z</time>
      </trkpt>
      <trkpt lat="45.12917" lon="5.58497">
        <ele>1011.765</ele>
        <time>2022-05-29T13:03:14Z</time>
      </trkpt>
      <trkpt lat="45.12917" lon="5.58498">
        <ele>1012.151</ele>
        <time>2022-05-29T13:03:19Z</time>
      </trkpt>
      <trkpt lat="45.12917" lon="5.58496">
        <ele>1012.391</ele>
        <time>2022-05-29T13:03:24Z</time>
      </trkpt>
      <trkpt lat="45.12918" lon="5.58495">
        <ele>1012.212</ele>
        <time>2022-05-29T13:03:29Z</time>
      </trkpt>
      <trkpt lat="45.12919" lon="5.58497">
        <ele>1012.437</ele>
        <time>2022-05-29T13:03:34Z</time>
      </trkpt>
      <trkpt lat="45.1292" lon="5.58499">
        <ele>1012.236</ele>
        <time>2022-05-29T13:03:39Z</time>
      </trkpt>
    </trkseg>
  </trk>
</gpx>